<?xml version="1.0" encoding="UTF-8" standalone="yes"?>
<gpx
 xmlns="http://www.topografix.com/GPX/1/1"
 creator="OziExplorer Version 3956f - http://www.oziexplorer.com"
 version="1.1"
 xmlns:xsi="http://www.w3.org/2001/XMLSchema-instance"
 xsi:schemaLocation="http://www.topografix.com/GPX/1/1 http://www.topografix.com/GPX/1/1/gpx.xsd">
<metadata>
 <time>2026-04-25T06:46:32Z</time>
 <bounds minlat="59.080659" minlon="29.973611" maxlat="59.106183" maxlon="30.055538"/>
</metadata>
<trk>
 <name>20260425_Lisa76</name>
 <desc>20260425_Lisa76</desc>
<trkseg>
<trkpt lat="59.1003180" lon="30.0325540">
<ele>71.567039</ele>
<time>2026-04-24T21:35:12.998Z</time>
</trkpt>
<trkpt lat="59.1003690" lon="30.0327490">
<ele>71.140320</ele>
<time>2026-04-24T21:35:26.002Z</time>
</trkpt>
<trkpt lat="59.1003530" lon="30.0327930">
<ele>70.835518</ele>
<time>2026-04-24T21:36:02.998Z</time>
</trkpt>
<trkpt lat="59.1004330" lon="30.0332270">
<ele>71.719444</ele>
<time>2026-04-24T21:38:44.998Z</time>
</trkpt>
<trkpt lat="59.1004340" lon="30.0333870">
<ele>71.902321</ele>
<time>2026-04-24T21:38:55.997Z</time>
</trkpt>
<trkpt lat="59.1003210" lon="30.0337200">
<ele>71.536560</ele>
<time>2026-04-24T21:40:13.999Z</time>
</trkpt>
<trkpt lat="59.1004010" lon="30.0339790">
<ele>71.688957</ele>
<time>2026-04-24T21:43:25.997Z</time>
</trkpt>
<trkpt lat="59.1004160" lon="30.0343150">
<ele>71.810883</ele>
<time>2026-04-24T21:44:02.000Z</time>
</trkpt>
<trkpt lat="59.1003470" lon="30.0344280">
<ele>71.871841</ele>
<time>2026-04-24T21:44:19.003Z</time>
</trkpt>
<trkpt lat="59.1003380" lon="30.0346650">
<ele>72.085197</ele>
<time>2026-04-24T21:45:55.996Z</time>
</trkpt>
<trkpt lat="59.1002240" lon="30.0347770">
<ele>71.658485</ele>
<time>2026-04-24T21:47:09.004Z</time>
</trkpt>
<trkpt lat="59.1001670" lon="30.0349380">
<ele>71.749916</ele>
<time>2026-04-24T21:47:24.003Z</time>
</trkpt>
<trkpt lat="59.1001090" lon="30.0349360">
<ele>71.627998</ele>
<time>2026-04-24T21:47:36.997Z</time>
</trkpt>
<trkpt lat="59.1000690" lon="30.0350300">
<ele>71.475601</ele>
<time>2026-04-24T21:47:51.003Z</time>
</trkpt>
<trkpt lat="59.1000430" lon="30.0349960">
<ele>71.353683</ele>
<time>2026-04-24T21:48:10.002Z</time>
</trkpt>
<trkpt lat="59.0999090" lon="30.0350890">
<ele>71.567039</ele>
<time>2026-04-24T21:50:10.997Z</time>
</trkpt>
<trkpt lat="59.0998870" lon="30.0353100">
<ele>71.780403</ele>
<time>2026-04-24T21:51:00.003Z</time>
</trkpt>
<trkpt lat="59.0997980" lon="30.0356140">
<ele>71.627998</ele>
<time>2026-04-24T21:51:31.997Z</time>
</trkpt>
<trkpt lat="59.0997770" lon="30.0358400">
<ele>71.963280</ele>
<time>2026-04-24T21:51:57.001Z</time>
</trkpt>
<trkpt lat="59.0997560" lon="30.0357960">
<ele>71.353683</ele>
<time>2026-04-24T21:52:18.998Z</time>
</trkpt>
<trkpt lat="59.0997850" lon="30.0360100">
<ele>71.902321</ele>
<time>2026-04-24T21:52:43.000Z</time>
</trkpt>
<trkpt lat="59.0997540" lon="30.0361590">
<ele>71.292717</ele>
<time>2026-04-24T21:53:20.999Z</time>
</trkpt>
<trkpt lat="59.0997880" lon="30.0362990">
<ele>71.140320</ele>
<time>2026-04-24T21:54:44.997Z</time>
</trkpt>
<trkpt lat="59.0997010" lon="30.0366170">
<ele>70.561203</ele>
<time>2026-04-24T21:56:01.003Z</time>
</trkpt>
<trkpt lat="59.0996850" lon="30.0367460">
<ele>71.048882</ele>
<time>2026-04-24T21:56:13.998Z</time>
</trkpt>
<trkpt lat="59.0997270" lon="30.0368130">
<ele>70.957443</ele>
<time>2026-04-24T21:57:21.001Z</time>
</trkpt>
<trkpt lat="59.0996930" lon="30.0369000">
<ele>70.744080</ele>
<time>2026-04-24T21:58:20.997Z</time>
</trkpt>
<trkpt lat="59.0997320" lon="30.0372670">
<ele>70.957443</ele>
<time>2026-04-24T21:58:46.001Z</time>
</trkpt>
<trkpt lat="59.0996710" lon="30.0373570">
<ele>70.865997</ele>
<time>2026-04-24T21:58:59.998Z</time>
</trkpt>
<trkpt lat="59.0996510" lon="30.0373600">
<ele>71.201279</ele>
<time>2026-04-24T21:59:30.998Z</time>
</trkpt>
<trkpt lat="59.0996720" lon="30.0373020">
<ele>71.506081</ele>
<time>2026-04-24T22:01:06.004Z</time>
</trkpt>
<trkpt lat="59.0995580" lon="30.0372740">
<ele>71.170799</ele>
<time>2026-04-24T22:02:45.001Z</time>
</trkpt>
<trkpt lat="59.0995060" lon="30.0371780">
<ele>71.292717</ele>
<time>2026-04-24T22:02:57.002Z</time>
</trkpt>
<trkpt lat="59.0993970" lon="30.0371110">
<ele>71.445122</ele>
<time>2026-04-24T22:03:09.003Z</time>
</trkpt>
<trkpt lat="59.0993370" lon="30.0371120">
<ele>72.633842</ele>
<time>2026-04-24T22:03:31.000Z</time>
</trkpt>
<trkpt lat="59.0990350" lon="30.0374070">
<ele>72.146156</ele>
<time>2026-04-24T22:04:49.996Z</time>
</trkpt>
<trkpt lat="59.0990310" lon="30.0373670">
<ele>72.298561</ele>
<time>2026-04-24T22:05:28.003Z</time>
</trkpt>
<trkpt lat="59.0990000" lon="30.0373890">
<ele>72.603355</ele>
<time>2026-04-24T22:06:27.999Z</time>
</trkpt>
<trkpt lat="59.0990040" lon="30.0369400">
<ele>72.207115</ele>
<time>2026-04-24T22:07:19.001Z</time>
</trkpt>
<trkpt lat="59.0990520" lon="30.0366570">
<ele>71.475601</ele>
<time>2026-04-24T22:07:47.004Z</time>
</trkpt>
<trkpt lat="59.0990820" lon="30.0366140">
<ele>72.542397</ele>
<time>2026-04-24T22:07:57.000Z</time>
</trkpt>
<trkpt lat="59.0990570" lon="30.0364660">
<ele>72.542397</ele>
<time>2026-04-24T22:08:52.996Z</time>
</trkpt>
<trkpt lat="59.0989530" lon="30.0363260">
<ele>72.664322</ele>
<time>2026-04-24T22:09:30.001Z</time>
</trkpt>
<trkpt lat="59.0989410" lon="30.0357670">
<ele>73.639679</ele>
<time>2026-04-24T22:12:20.002Z</time>
</trkpt>
<trkpt lat="59.0990100" lon="30.0354750">
<ele>73.487282</ele>
<time>2026-04-24T22:13:02.001Z</time>
</trkpt>
<trkpt lat="59.0988490" lon="30.0351870">
<ele>73.731117</ele>
<time>2026-04-24T22:13:49.996Z</time>
</trkpt>
<trkpt lat="59.0987340" lon="30.0350640">
<ele>73.974960</ele>
<time>2026-04-24T22:14:08.002Z</time>
</trkpt>
<trkpt lat="59.0985850" lon="30.0350210">
<ele>74.310242</ele>
<time>2026-04-24T22:16:20.997Z</time>
</trkpt>
<trkpt lat="59.0984630" lon="30.0345260">
<ele>74.218803</ele>
<time>2026-04-24T22:18:07.001Z</time>
</trkpt>
<trkpt lat="59.0984530" lon="30.0342690">
<ele>74.249283</ele>
<time>2026-04-24T22:18:43.998Z</time>
</trkpt>
<trkpt lat="59.0984960" lon="30.0338510">
<ele>74.218803</ele>
<time>2026-04-24T22:19:26.999Z</time>
</trkpt>
<trkpt lat="59.0985180" lon="30.0338520">
<ele>74.340721</ele>
<time>2026-04-24T22:19:49.999Z</time>
</trkpt>
<trkpt lat="59.0983000" lon="30.0338960">
<ele>75.072243</ele>
<time>2026-04-24T22:21:44.004Z</time>
</trkpt>
<trkpt lat="59.0978970" lon="30.0342710">
<ele>75.377045</ele>
<time>2026-04-24T22:23:05.997Z</time>
</trkpt>
<trkpt lat="59.0979220" lon="30.0342300">
<ele>75.529442</ele>
<time>2026-04-24T22:24:27.999Z</time>
</trkpt>
<trkpt lat="59.0980010" lon="30.0346140">
<ele>75.529442</ele>
<time>2026-04-24T22:25:15.001Z</time>
</trkpt>
<trkpt lat="59.0981340" lon="30.0349430">
<ele>75.498962</ele>
<time>2026-04-24T22:25:51.004Z</time>
</trkpt>
<trkpt lat="59.0981660" lon="30.0350600">
<ele>75.316078</ele>
<time>2026-04-24T22:26:13.001Z</time>
</trkpt>
<trkpt lat="59.0981670" lon="30.0351750">
<ele>75.712318</ele>
<time>2026-04-24T22:26:42.999Z</time>
</trkpt>
<trkpt lat="59.0981510" lon="30.0351530">
<ele>75.590401</ele>
<time>2026-04-24T22:27:27.996Z</time>
</trkpt>
<trkpt lat="59.0983840" lon="30.0352640">
<ele>76.352402</ele>
<time>2026-04-24T22:28:06.997Z</time>
</trkpt>
<trkpt lat="59.0984700" lon="30.0354320">
<ele>75.834244</ele>
<time>2026-04-24T22:28:44.996Z</time>
</trkpt>
<trkpt lat="59.0983960" lon="30.0357210">
<ele>73.212959</ele>
<time>2026-04-24T22:29:06.000Z</time>
</trkpt>
<trkpt lat="59.0982210" lon="30.0359220">
<ele>75.468483</ele>
<time>2026-04-24T22:29:53.002Z</time>
</trkpt>
<trkpt lat="59.0981700" lon="30.0358910">
<ele>76.260956</ele>
<time>2026-04-24T22:30:21.004Z</time>
</trkpt>
<trkpt lat="59.0981520" lon="30.0361750">
<ele>75.956161</ele>
<time>2026-04-24T22:31:31.999Z</time>
</trkpt>
<trkpt lat="59.0981840" lon="30.0362410">
<ele>76.017120</ele>
<time>2026-04-24T22:31:45.002Z</time>
</trkpt>
<trkpt lat="59.0983980" lon="30.0363570">
<ele>75.712318</ele>
<time>2026-04-24T22:32:32.997Z</time>
</trkpt>
<trkpt lat="59.0984880" lon="30.0364880">
<ele>75.498962</ele>
<time>2026-04-24T22:33:40.000Z</time>
</trkpt>
<trkpt lat="59.0984490" lon="30.0368150">
<ele>76.139038</ele>
<time>2026-04-24T22:34:28.998Z</time>
</trkpt>
<trkpt lat="59.0983730" lon="30.0368980">
<ele>76.108559</ele>
<time>2026-04-24T22:34:43.003Z</time>
</trkpt>
<trkpt lat="59.0983910" lon="30.0369560">
<ele>76.078079</ele>
<time>2026-04-24T22:35:47.000Z</time>
</trkpt>
<trkpt lat="59.0983460" lon="30.0369930">
<ele>76.047600</ele>
<time>2026-04-24T22:37:56.004Z</time>
</trkpt>
<trkpt lat="59.0983480" lon="30.0371970">
<ele>75.773285</ele>
<time>2026-04-24T22:38:33.000Z</time>
</trkpt>
<trkpt lat="59.0984040" lon="30.0374920">
<ele>76.352402</ele>
<time>2026-04-24T22:39:13.997Z</time>
</trkpt>
<trkpt lat="59.0985640" lon="30.0376550">
<ele>75.498962</ele>
<time>2026-04-24T22:41:01.997Z</time>
</trkpt>
<trkpt lat="59.0984140" lon="30.0378430">
<ele>75.559921</ele>
<time>2026-04-24T22:41:36.997Z</time>
</trkpt>
<trkpt lat="59.0983720" lon="30.0379810">
<ele>75.620880</ele>
<time>2026-04-24T22:41:48.998Z</time>
</trkpt>
<trkpt lat="59.0980250" lon="30.0380600">
<ele>75.438004</ele>
<time>2026-04-24T22:43:01.998Z</time>
</trkpt>
<trkpt lat="59.0980010" lon="30.0373900">
<ele>75.712318</ele>
<time>2026-04-24T22:45:35.997Z</time>
</trkpt>
<trkpt lat="59.0979010" lon="30.0372230">
<ele>75.651360</ele>
<time>2026-04-24T22:46:01.001Z</time>
</trkpt>
<trkpt lat="59.0979120" lon="30.0369240">
<ele>75.681839</ele>
<time>2026-04-24T22:46:56.997Z</time>
</trkpt>
<trkpt lat="59.0978920" lon="30.0369310">
<ele>75.681839</ele>
<time>2026-04-24T22:47:29.000Z</time>
</trkpt>
<trkpt lat="59.0979400" lon="30.0369860">
<ele>76.230484</ele>
<time>2026-04-24T22:50:19.000Z</time>
</trkpt>
<trkpt lat="59.0979200" lon="30.0370320">
<ele>76.139038</ele>
<time>2026-04-24T22:52:12.003Z</time>
</trkpt>
<trkpt lat="59.0976830" lon="30.0367430">
<ele>76.961998</ele>
<time>2026-04-24T22:56:23.997Z</time>
</trkpt>
<trkpt lat="59.0976800" lon="30.0366710">
<ele>76.870560</ele>
<time>2026-04-24T22:56:42.003Z</time>
</trkpt>
<trkpt lat="59.0975520" lon="30.0363990">
<ele>77.144882</ele>
<time>2026-04-24T22:57:13.003Z</time>
</trkpt>
<trkpt lat="59.0975370" lon="30.0362640">
<ele>75.864716</ele>
<time>2026-04-24T22:57:21.004Z</time>
</trkpt>
<trkpt lat="59.0976040" lon="30.0360010">
<ele>77.571602</ele>
<time>2026-04-24T22:57:59.996Z</time>
</trkpt>
<trkpt lat="59.0975530" lon="30.0358740">
<ele>77.480156</ele>
<time>2026-04-24T22:59:08.002Z</time>
</trkpt>
<trkpt lat="59.0975180" lon="30.0355520">
<ele>77.571602</ele>
<time>2026-04-24T22:59:44.998Z</time>
</trkpt>
<trkpt lat="59.0974650" lon="30.0353810">
<ele>77.541115</ele>
<time>2026-04-24T22:59:58.001Z</time>
</trkpt>
<trkpt lat="59.0974070" lon="30.0353140">
<ele>77.571602</ele>
<time>2026-04-24T23:00:07.998Z</time>
</trkpt>
<trkpt lat="59.0973360" lon="30.0349320">
<ele>77.358238</ele>
<time>2026-04-24T23:01:24.997Z</time>
</trkpt>
<trkpt lat="59.0974220" lon="30.0345140">
<ele>77.754478</ele>
<time>2026-04-24T23:02:26.998Z</time>
</trkpt>
<trkpt lat="59.0973180" lon="30.0344910">
<ele>77.449684</ele>
<time>2026-04-24T23:03:15.002Z</time>
</trkpt>
<trkpt lat="59.0971370" lon="30.0345610">
<ele>77.419197</ele>
<time>2026-04-24T23:03:45.000Z</time>
</trkpt>
<trkpt lat="59.0969560" lon="30.0347560">
<ele>77.480156</ele>
<time>2026-04-24T23:04:17.996Z</time>
</trkpt>
<trkpt lat="59.0968660" lon="30.0349140">
<ele>77.571602</ele>
<time>2026-04-24T23:04:45.998Z</time>
</trkpt>
<trkpt lat="59.0968430" lon="30.0351170">
<ele>77.205841</ele>
<time>2026-04-24T23:05:42.003Z</time>
</trkpt>
<trkpt lat="59.0969900" lon="30.0358610">
<ele>77.602081</ele>
<time>2026-04-24T23:07:46.004Z</time>
</trkpt>
<trkpt lat="59.0969520" lon="30.0365660">
<ele>78.303116</ele>
<time>2026-04-24T23:09:25.001Z</time>
</trkpt>
<trkpt lat="59.0969520" lon="30.0367150">
<ele>77.876404</ele>
<time>2026-04-24T23:09:41.996Z</time>
</trkpt>
<trkpt lat="59.0970150" lon="30.0370350">
<ele>78.516479</ele>
<time>2026-04-24T23:10:38.001Z</time>
</trkpt>
<trkpt lat="59.0969960" lon="30.0371610">
<ele>78.638397</ele>
<time>2026-04-24T23:10:51.004Z</time>
</trkpt>
<trkpt lat="59.0970880" lon="30.0373420">
<ele>78.699364</ele>
<time>2026-04-24T23:11:14.997Z</time>
</trkpt>
<trkpt lat="59.0971070" lon="30.0374940">
<ele>78.364082</ele>
<time>2026-04-24T23:11:28.000Z</time>
</trkpt>
<trkpt lat="59.0971370" lon="30.0374910">
<ele>78.943199</ele>
<time>2026-04-24T23:12:23.996Z</time>
</trkpt>
<trkpt lat="59.0971270" lon="30.0375890">
<ele>78.455521</ele>
<time>2026-04-24T23:13:25.997Z</time>
</trkpt>
<trkpt lat="59.0971220" lon="30.0375280">
<ele>78.699364</ele>
<time>2026-04-24T23:13:59.002Z</time>
</trkpt>
<trkpt lat="59.0971960" lon="30.0377570">
<ele>79.217522</ele>
<time>2026-04-24T23:15:13.997Z</time>
</trkpt>
<trkpt lat="59.0974150" lon="30.0379110">
<ele>78.516479</ele>
<time>2026-04-24T23:15:58.000Z</time>
</trkpt>
<trkpt lat="59.0974720" lon="30.0381500">
<ele>78.516479</ele>
<time>2026-04-24T23:16:10.001Z</time>
</trkpt>
<trkpt lat="59.0974670" lon="30.0382810">
<ele>78.699364</ele>
<time>2026-04-24T23:16:39.999Z</time>
</trkpt>
<trkpt lat="59.0973670" lon="30.0377740">
<ele>79.400398</ele>
<time>2026-04-24T23:18:07.004Z</time>
</trkpt>
<trkpt lat="59.0973270" lon="30.0377550">
<ele>79.156563</ele>
<time>2026-04-24T23:18:29.002Z</time>
</trkpt>
<trkpt lat="59.0972790" lon="30.0381320">
<ele>78.912720</ele>
<time>2026-04-24T23:19:46.001Z</time>
</trkpt>
<trkpt lat="59.0972350" lon="30.0382520">
<ele>80.070961</ele>
<time>2026-04-24T23:19:53.000Z</time>
</trkpt>
<trkpt lat="59.0970650" lon="30.0382730">
<ele>79.187035</ele>
<time>2026-04-24T23:20:45.997Z</time>
</trkpt>
<trkpt lat="59.0970590" lon="30.0385870">
<ele>79.095596</ele>
<time>2026-04-24T23:21:14.000Z</time>
</trkpt>
<trkpt lat="59.0970210" lon="30.0386430">
<ele>79.065117</ele>
<time>2026-04-24T23:21:31.003Z</time>
</trkpt>
<trkpt lat="59.0968520" lon="30.0385800">
<ele>79.095596</ele>
<time>2026-04-24T23:21:58.997Z</time>
</trkpt>
<trkpt lat="59.0967020" lon="30.0386040">
<ele>79.613762</ele>
<time>2026-04-24T23:22:26.999Z</time>
</trkpt>
<trkpt lat="59.0966520" lon="30.0384390">
<ele>79.491837</ele>
<time>2026-04-24T23:23:08.998Z</time>
</trkpt>
<trkpt lat="59.0966500" lon="30.0380710">
<ele>79.552803</ele>
<time>2026-04-24T23:23:50.004Z</time>
</trkpt>
<trkpt lat="59.0967080" lon="30.0379750">
<ele>79.735680</ele>
<time>2026-04-24T23:24:05.003Z</time>
</trkpt>
<trkpt lat="59.0967240" lon="30.0378700">
<ele>79.430885</ele>
<time>2026-04-24T23:24:17.004Z</time>
</trkpt>
<trkpt lat="59.0966830" lon="30.0375550">
<ele>79.552803</ele>
<time>2026-04-24T23:25:12.999Z</time>
</trkpt>
<trkpt lat="59.0967150" lon="30.0374590">
<ele>79.674721</ele>
<time>2026-04-24T23:26:20.003Z</time>
</trkpt>
<trkpt lat="59.0965450" lon="30.0374040">
<ele>79.796638</ele>
<time>2026-04-24T23:26:55.997Z</time>
</trkpt>
<trkpt lat="59.0963280" lon="30.0372500">
<ele>79.308960</ele>
<time>2026-04-24T23:27:25.001Z</time>
</trkpt>
<trkpt lat="59.0962540" lon="30.0371110">
<ele>79.979515</ele>
<time>2026-04-24T23:27:46.999Z</time>
</trkpt>
<trkpt lat="59.0962420" lon="30.0369750">
<ele>80.101433</ele>
<time>2026-04-24T23:28:01.998Z</time>
</trkpt>
<trkpt lat="59.0961890" lon="30.0369160">
<ele>80.070961</ele>
<time>2026-04-24T23:28:15.001Z</time>
</trkpt>
<trkpt lat="59.0962060" lon="30.0367700">
<ele>80.314796</ele>
<time>2026-04-24T23:28:28.998Z</time>
</trkpt>
<trkpt lat="59.0960560" lon="30.0362720">
<ele>79.705200</ele>
<time>2026-04-24T23:30:16.998Z</time>
</trkpt>
<trkpt lat="59.0958580" lon="30.0357770">
<ele>79.461365</ele>
<time>2026-04-24T23:31:28.001Z</time>
</trkpt>
<trkpt lat="59.0957930" lon="30.0352830">
<ele>78.577438</ele>
<time>2026-04-24T23:32:38.996Z</time>
</trkpt>
<trkpt lat="59.0955510" lon="30.0353370">
<ele>79.308960</ele>
<time>2026-04-24T23:33:17.997Z</time>
</trkpt>
<trkpt lat="59.0954640" lon="30.0353930">
<ele>79.065117</ele>
<time>2026-04-24T23:33:36.996Z</time>
</trkpt>
<trkpt lat="59.0953930" lon="30.0355150">
<ele>79.034637</ele>
<time>2026-04-24T23:33:51.002Z</time>
</trkpt>
<trkpt lat="59.0954900" lon="30.0356640">
<ele>78.943199</ele>
<time>2026-04-24T23:35:36.004Z</time>
</trkpt>
<trkpt lat="59.0955140" lon="30.0357890">
<ele>79.004166</ele>
<time>2026-04-24T23:36:02.002Z</time>
</trkpt>
<trkpt lat="59.0955690" lon="30.0358610">
<ele>79.065117</ele>
<time>2026-04-24T23:36:18.003Z</time>
</trkpt>
<trkpt lat="59.0956290" lon="30.0358280">
<ele>78.851761</ele>
<time>2026-04-24T23:36:32.000Z</time>
</trkpt>
<trkpt lat="59.0956650" lon="30.0359270">
<ele>78.790802</ele>
<time>2026-04-24T23:36:59.000Z</time>
</trkpt>
<trkpt lat="59.0955960" lon="30.0361210">
<ele>79.034637</ele>
<time>2026-04-24T23:38:03.998Z</time>
</trkpt>
<trkpt lat="59.0956380" lon="30.0362230">
<ele>78.577438</ele>
<time>2026-04-24T23:38:34.999Z</time>
</trkpt>
<trkpt lat="59.0955820" lon="30.0363460">
<ele>78.364082</ele>
<time>2026-04-24T23:38:49.998Z</time>
</trkpt>
<trkpt lat="59.0955740" lon="30.0364330">
<ele>78.638397</ele>
<time>2026-04-24T23:39:07.001Z</time>
</trkpt>
<trkpt lat="59.0956960" lon="30.0368540">
<ele>78.333603</ele>
<time>2026-04-24T23:39:53.001Z</time>
</trkpt>
<trkpt lat="59.0958420" lon="30.0371740">
<ele>76.718163</ele>
<time>2026-04-24T23:40:26.999Z</time>
</trkpt>
<trkpt lat="59.0959420" lon="30.0376680">
<ele>77.937363</ele>
<time>2026-04-24T23:41:54.004Z</time>
</trkpt>
<trkpt lat="59.0959110" lon="30.0376680">
<ele>78.059280</ele>
<time>2026-04-24T23:42:18.999Z</time>
</trkpt>
<trkpt lat="59.0958660" lon="30.0379110">
<ele>78.059280</ele>
<time>2026-04-24T23:43:19.998Z</time>
</trkpt>
<trkpt lat="59.0958160" lon="30.0379390">
<ele>78.150719</ele>
<time>2026-04-24T23:43:37.001Z</time>
</trkpt>
<trkpt lat="59.0957850" lon="30.0382960">
<ele>77.967842</ele>
<time>2026-04-24T23:44:44.998Z</time>
</trkpt>
<trkpt lat="59.0957030" lon="30.0385290">
<ele>77.754478</ele>
<time>2026-04-24T23:45:15.998Z</time>
</trkpt>
<trkpt lat="59.0956930" lon="30.0387250">
<ele>77.754478</ele>
<time>2026-04-24T23:45:42.998Z</time>
</trkpt>
<trkpt lat="59.0957460" lon="30.0388540">
<ele>78.211685</ele>
<time>2026-04-24T23:46:12.996Z</time>
</trkpt>
<trkpt lat="59.0956810" lon="30.0389050">
<ele>77.449684</ele>
<time>2026-04-24T23:47:22.004Z</time>
</trkpt>
<trkpt lat="59.0955750" lon="30.0387580">
<ele>77.236320</ele>
<time>2026-04-24T23:48:11.002Z</time>
</trkpt>
<trkpt lat="59.0954990" lon="30.0388030">
<ele>76.931519</ele>
<time>2026-04-24T23:48:27.996Z</time>
</trkpt>
<trkpt lat="59.0954420" lon="30.0387380">
<ele>77.236320</ele>
<time>2026-04-24T23:48:50.003Z</time>
</trkpt>
<trkpt lat="59.0954220" lon="30.0383250">
<ele>76.535278</ele>
<time>2026-04-24T23:51:21.997Z</time>
</trkpt>
<trkpt lat="59.0954640" lon="30.0381910">
<ele>77.510643</ele>
<time>2026-04-24T23:51:39.001Z</time>
</trkpt>
<trkpt lat="59.0955150" lon="30.0381710">
<ele>77.632561</ele>
<time>2026-04-24T23:51:51.002Z</time>
</trkpt>
<trkpt lat="59.0955000" lon="30.0380070">
<ele>77.876404</ele>
<time>2026-04-24T23:52:08.999Z</time>
</trkpt>
<trkpt lat="59.0954300" lon="30.0378270">
<ele>77.388718</ele>
<time>2026-04-24T23:52:38.004Z</time>
</trkpt>
<trkpt lat="59.0953980" lon="30.0375630">
<ele>77.602081</ele>
<time>2026-04-24T23:53:21.998Z</time>
</trkpt>
<trkpt lat="59.0953340" lon="30.0375160">
<ele>77.815437</ele>
<time>2026-04-24T23:53:32.997Z</time>
</trkpt>
<trkpt lat="59.0952170" lon="30.0371310">
<ele>77.663040</ele>
<time>2026-04-24T23:55:43.997Z</time>
</trkpt>
<trkpt lat="59.0952170" lon="30.0368660">
<ele>78.790802</ele>
<time>2026-04-24T23:56:34.999Z</time>
</trkpt>
<trkpt lat="59.0951840" lon="30.0367540">
<ele>77.571602</ele>
<time>2026-04-24T23:56:52.002Z</time>
</trkpt>
<trkpt lat="59.0951200" lon="30.0366910">
<ele>77.723999</ele>
<time>2026-04-24T23:57:07.001Z</time>
</trkpt>
<trkpt lat="59.0950700" lon="30.0364590">
<ele>77.815437</ele>
<time>2026-04-24T23:57:41.000Z</time>
</trkpt>
<trkpt lat="59.0949760" lon="30.0364190">
<ele>77.754478</ele>
<time>2026-04-24T23:58:44.003Z</time>
</trkpt>
<trkpt lat="59.0949230" lon="30.0360450">
<ele>78.120239</ele>
<time>2026-04-24T23:59:22.001Z</time>
</trkpt>
<trkpt lat="59.0948950" lon="30.0353970">
<ele>82.326485</ele>
<time>2026-04-25T00:02:55.003Z</time>
</trkpt>
<trkpt lat="59.0949540" lon="30.0355050">
<ele>85.526878</ele>
<time>2026-04-25T00:03:07.998Z</time>
</trkpt>
<trkpt lat="59.0952380" lon="30.0353960">
<ele>90.068398</ele>
<time>2026-04-25T00:04:12.003Z</time>
</trkpt>
<trkpt lat="59.0953880" lon="30.0354270">
<ele>89.946480</ele>
<time>2026-04-25T00:04:36.998Z</time>
</trkpt>
<trkpt lat="59.0955360" lon="30.0352490">
<ele>89.794083</ele>
<time>2026-04-25T00:05:15.999Z</time>
</trkpt>
<trkpt lat="59.0956380" lon="30.0352080">
<ele>89.885521</ele>
<time>2026-04-25T00:05:29.996Z</time>
</trkpt>
<trkpt lat="59.0957610" lon="30.0352710">
<ele>89.702637</ele>
<time>2026-04-25T00:05:44.002Z</time>
</trkpt>
<trkpt lat="59.0962550" lon="30.0349960">
<ele>89.245438</ele>
<time>2026-04-25T00:07:33.997Z</time>
</trkpt>
<trkpt lat="59.0963070" lon="30.0350900">
<ele>89.062561</ele>
<time>2026-04-25T00:08:11.996Z</time>
</trkpt>
<trkpt lat="59.0964330" lon="30.0350920">
<ele>88.666321</ele>
<time>2026-04-25T00:08:29.000Z</time>
</trkpt>
<trkpt lat="59.0966710" lon="30.0347680">
<ele>88.971115</ele>
<time>2026-04-25T00:09:10.999Z</time>
</trkpt>
<trkpt lat="59.0970280" lon="30.0346840">
<ele>88.361519</ele>
<time>2026-04-25T00:09:59.996Z</time>
</trkpt>
<trkpt lat="59.0971820" lon="30.0344820">
<ele>88.178635</ele>
<time>2026-04-25T00:10:27.998Z</time>
</trkpt>
<trkpt lat="59.0975830" lon="30.0342750">
<ele>88.331039</ele>
<time>2026-04-25T00:11:32.997Z</time>
</trkpt>
<trkpt lat="59.0979830" lon="30.0341620">
<ele>87.721436</ele>
<time>2026-04-25T00:12:22.997Z</time>
</trkpt>
<trkpt lat="59.0981630" lon="30.0340160">
<ele>87.721436</ele>
<time>2026-04-25T00:12:49.003Z</time>
</trkpt>
<trkpt lat="59.0983510" lon="30.0339910">
<ele>86.959435</ele>
<time>2026-04-25T00:13:26.000Z</time>
</trkpt>
<trkpt lat="59.0984880" lon="30.0338510">
<ele>86.258400</ele>
<time>2026-04-25T00:13:51.004Z</time>
</trkpt>
<trkpt lat="59.0985080" lon="30.0337020">
<ele>86.319366</ele>
<time>2026-04-25T00:14:06.996Z</time>
</trkpt>
<trkpt lat="59.0985730" lon="30.0336670">
<ele>86.227921</ele>
<time>2026-04-25T00:14:22.998Z</time>
</trkpt>
<trkpt lat="59.0989240" lon="30.0336250">
<ele>86.197433</ele>
<time>2026-04-25T00:15:20.998Z</time>
</trkpt>
<trkpt lat="59.0990140" lon="30.0337280">
<ele>85.984085</ele>
<time>2026-04-25T00:15:34.001Z</time>
</trkpt>
<trkpt lat="59.0991310" lon="30.0336870">
<ele>85.892639</ele>
<time>2026-04-25T00:15:50.003Z</time>
</trkpt>
<trkpt lat="59.0992830" lon="30.0334010">
<ele>85.587837</ele>
<time>2026-04-25T00:16:24.001Z</time>
</trkpt>
<trkpt lat="59.0994920" lon="30.0332900">
<ele>85.039200</ele>
<time>2026-04-25T00:17:12.998Z</time>
</trkpt>
<trkpt lat="59.0995710" lon="30.0333150">
<ele>84.978233</ele>
<time>2026-04-25T00:17:26.002Z</time>
</trkpt>
<trkpt lat="59.0996230" lon="30.0332100">
<ele>84.947762</ele>
<time>2026-04-25T00:17:38.003Z</time>
</trkpt>
<trkpt lat="59.0996910" lon="30.0331440">
<ele>84.764885</ele>
<time>2026-04-25T00:17:54.004Z</time>
</trkpt>
<trkpt lat="59.0999170" lon="30.0331180">
<ele>84.216240</ele>
<time>2026-04-25T00:18:48.997Z</time>
</trkpt>
<trkpt lat="59.1000010" lon="30.0329810">
<ele>83.880966</ele>
<time>2026-04-25T00:19:19.998Z</time>
</trkpt>
<trkpt lat="59.0999790" lon="30.0331140">
<ele>83.911438</ele>
<time>2026-04-25T00:19:31.999Z</time>
</trkpt>
<trkpt lat="59.1000100" lon="30.0332660">
<ele>83.911438</ele>
<time>2026-04-25T00:19:45.002Z</time>
</trkpt>
<trkpt lat="59.1001460" lon="30.0332560">
<ele>83.606636</ele>
<time>2026-04-25T00:20:08.002Z</time>
</trkpt>
<trkpt lat="59.1001690" lon="30.0330560">
<ele>83.576164</ele>
<time>2026-04-25T00:20:23.001Z</time>
</trkpt>
<trkpt lat="59.1002510" lon="30.0329460">
<ele>83.362801</ele>
<time>2026-04-25T00:20:54.001Z</time>
</trkpt>
<trkpt lat="59.1002670" lon="30.0327970">
<ele>83.240883</ele>
<time>2026-04-25T00:21:09.000Z</time>
</trkpt>
<trkpt lat="59.1003280" lon="30.0327010">
<ele>82.326485</ele>
<time>2026-04-25T00:21:21.001Z</time>
</trkpt>
<trkpt lat="59.1002490" lon="30.0322820">
<ele>81.625435</ele>
<time>2026-04-25T00:24:43.004Z</time>
</trkpt>
</trkseg>
</trk>
<trk>
 <name>20260425_Lisa83</name>
 <desc>20260425_Lisa83</desc>
<trkseg>
<trkpt lat="59.1044190" lon="29.9857380">
<ele>69.799202</ele>
<time>2026-04-24T21:37:10.001Z</time>
</trkpt>
<trkpt lat="59.1045530" lon="29.9862890">
<ele>69.128639</ele>
<time>2026-04-24T21:38:11.000Z</time>
</trkpt>
<trkpt lat="59.1045930" lon="29.9866050">
<ele>68.945763</ele>
<time>2026-04-24T21:38:43.002Z</time>
</trkpt>
<trkpt lat="59.1045260" lon="29.9866320">
<ele>69.311516</ele>
<time>2026-04-24T21:39:14.003Z</time>
</trkpt>
<trkpt lat="59.1046640" lon="29.9873040">
<ele>68.732399</ele>
<time>2026-04-24T21:40:24.004Z</time>
</trkpt>
<trkpt lat="59.1046820" lon="29.9875750">
<ele>67.360802</ele>
<time>2026-04-24T21:40:43.003Z</time>
</trkpt>
<trkpt lat="59.1047200" lon="29.9876590">
<ele>69.220085</ele>
<time>2026-04-24T21:40:59.998Z</time>
</trkpt>
<trkpt lat="59.1047040" lon="29.9876620">
<ele>69.555359</ele>
<time>2026-04-24T21:42:45.000Z</time>
</trkpt>
<trkpt lat="59.1047250" lon="29.9876690">
<ele>69.494400</ele>
<time>2026-04-24T21:43:36.002Z</time>
</trkpt>
<trkpt lat="59.1048000" lon="29.9880580">
<ele>70.683121</ele>
<time>2026-04-24T21:44:07.002Z</time>
</trkpt>
<trkpt lat="59.1048410" lon="29.9888220">
<ele>69.342003</ele>
<time>2026-04-24T21:45:28.996Z</time>
</trkpt>
<trkpt lat="59.1049930" lon="29.9898550">
<ele>68.793358</ele>
<time>2026-04-24T21:48:23.999Z</time>
</trkpt>
<trkpt lat="59.1049750" lon="29.9899710">
<ele>66.842644</ele>
<time>2026-04-24T21:50:02.996Z</time>
</trkpt>
<trkpt lat="59.1050740" lon="29.9903330">
<ele>68.549515</ele>
<time>2026-04-24T21:52:37.004Z</time>
</trkpt>
<trkpt lat="59.1051710" lon="29.9910200">
<ele>67.970398</ele>
<time>2026-04-24T21:53:54.997Z</time>
</trkpt>
<trkpt lat="59.1051790" lon="29.9912830">
<ele>67.421761</ele>
<time>2026-04-24T21:55:03.996Z</time>
</trkpt>
<trkpt lat="59.1052520" lon="29.9915350">
<ele>67.391281</ele>
<time>2026-04-24T21:55:33.001Z</time>
</trkpt>
<trkpt lat="59.1052330" lon="29.9914670">
<ele>68.640961</ele>
<time>2026-04-24T21:56:40.998Z</time>
</trkpt>
<trkpt lat="59.1052310" lon="29.9915970">
<ele>65.592957</ele>
<time>2026-04-24T21:57:03.997Z</time>
</trkpt>
<trkpt lat="59.1052760" lon="29.9917820">
<ele>64.922401</ele>
<time>2026-04-24T21:58:19.001Z</time>
</trkpt>
<trkpt lat="59.1056460" lon="29.9921770">
<ele>68.945763</ele>
<time>2026-04-24T22:00:57.001Z</time>
</trkpt>
<trkpt lat="59.1056770" lon="29.9923270">
<ele>67.818001</ele>
<time>2026-04-24T22:01:28.001Z</time>
</trkpt>
<trkpt lat="59.1057610" lon="29.9924890">
<ele>69.220085</ele>
<time>2026-04-24T22:01:45.998Z</time>
</trkpt>
<trkpt lat="59.1058180" lon="29.9929240">
<ele>65.897758</ele>
<time>2026-04-24T22:02:54.997Z</time>
</trkpt>
<trkpt lat="59.1058730" lon="29.9930770">
<ele>66.354958</ele>
<time>2026-04-24T22:04:02.001Z</time>
</trkpt>
<trkpt lat="59.1058330" lon="29.9931970">
<ele>67.238884</ele>
<time>2026-04-24T22:04:26.003Z</time>
</trkpt>
<trkpt lat="59.1056520" lon="29.9934050">
<ele>66.659760</ele>
<time>2026-04-24T22:07:01.004Z</time>
</trkpt>
<trkpt lat="59.1056840" lon="29.9934250">
<ele>65.471039</ele>
<time>2026-04-24T22:08:10.003Z</time>
</trkpt>
<trkpt lat="59.1057260" lon="29.9936030">
<ele>70.347839</ele>
<time>2026-04-24T22:08:56.003Z</time>
</trkpt>
<trkpt lat="59.1057180" lon="29.9940030">
<ele>69.098160</ele>
<time>2026-04-24T22:10:08.000Z</time>
</trkpt>
<trkpt lat="59.1056850" lon="29.9939820">
<ele>68.519043</ele>
<time>2026-04-24T22:10:56.997Z</time>
</trkpt>
<trkpt lat="59.1057520" lon="29.9943250">
<ele>67.604637</ele>
<time>2026-04-24T22:11:46.997Z</time>
</trkpt>
<trkpt lat="59.1057510" lon="29.9944320">
<ele>65.044319</ele>
<time>2026-04-24T22:12:14.999Z</time>
</trkpt>
<trkpt lat="59.1057950" lon="29.9944660">
<ele>64.221359</ele>
<time>2026-04-24T22:12:39.001Z</time>
</trkpt>
<trkpt lat="59.1057480" lon="29.9944620">
<ele>64.739517</ele>
<time>2026-04-24T22:13:03.003Z</time>
</trkpt>
<trkpt lat="59.1057110" lon="29.9947700">
<ele>61.020958</ele>
<time>2026-04-24T22:13:44.000Z</time>
</trkpt>
<trkpt lat="59.1057870" lon="29.9952680">
<ele>68.092316</ele>
<time>2026-04-24T22:14:39.002Z</time>
</trkpt>
<trkpt lat="59.1058020" lon="29.9952470">
<ele>68.244720</ele>
<time>2026-04-24T22:15:10.002Z</time>
</trkpt>
<trkpt lat="59.1057120" lon="29.9947500">
<ele>72.359520</ele>
<time>2026-04-24T22:16:00.002Z</time>
</trkpt>
<trkpt lat="59.1057150" lon="29.9945300">
<ele>72.176643</ele>
<time>2026-04-24T22:16:34.000Z</time>
</trkpt>
<trkpt lat="59.1057320" lon="29.9946060">
<ele>71.688957</ele>
<time>2026-04-24T22:17:02.996Z</time>
</trkpt>
<trkpt lat="59.1056620" lon="29.9947060">
<ele>71.902321</ele>
<time>2026-04-24T22:17:56.003Z</time>
</trkpt>
<trkpt lat="59.1054510" lon="29.9947620">
<ele>71.353683</ele>
<time>2026-04-24T22:21:50.000Z</time>
</trkpt>
<trkpt lat="59.1054840" lon="29.9947910">
<ele>73.914001</ele>
<time>2026-04-24T22:22:34.997Z</time>
</trkpt>
<trkpt lat="59.1054630" lon="29.9948250">
<ele>75.102715</ele>
<time>2026-04-24T22:23:08.002Z</time>
</trkpt>
<trkpt lat="59.1054660" lon="29.9949140">
<ele>74.676003</ele>
<time>2026-04-24T22:25:12.996Z</time>
</trkpt>
<trkpt lat="59.1054660" lon="29.9948630">
<ele>76.078079</ele>
<time>2026-04-24T22:26:25.996Z</time>
</trkpt>
<trkpt lat="59.1053030" lon="29.9948750">
<ele>77.998322</ele>
<time>2026-04-24T22:27:43.998Z</time>
</trkpt>
<trkpt lat="59.1052240" lon="29.9951270">
<ele>75.468483</ele>
<time>2026-04-24T22:28:29.997Z</time>
</trkpt>
<trkpt lat="59.1052620" lon="29.9953170">
<ele>73.334885</ele>
<time>2026-04-24T22:29:42.996Z</time>
</trkpt>
<trkpt lat="59.1052410" lon="29.9952280">
<ele>73.273918</ele>
<time>2026-04-24T22:30:09.996Z</time>
</trkpt>
<trkpt lat="59.1051700" lon="29.9951710">
<ele>76.809601</ele>
<time>2026-04-24T22:31:25.000Z</time>
</trkpt>
<trkpt lat="59.1051550" lon="29.9952200">
<ele>77.114403</ele>
<time>2026-04-24T22:31:54.998Z</time>
</trkpt>
<trkpt lat="59.1050320" lon="29.9952550">
<ele>77.723999</ele>
<time>2026-04-24T22:33:30.997Z</time>
</trkpt>
<trkpt lat="59.1050680" lon="29.9954570">
<ele>76.413361</ele>
<time>2026-04-24T22:35:09.001Z</time>
</trkpt>
<trkpt lat="59.1050020" lon="29.9955580">
<ele>78.303116</ele>
<time>2026-04-24T22:36:58.997Z</time>
</trkpt>
<trkpt lat="59.1050590" lon="29.9953080">
<ele>76.931519</ele>
<time>2026-04-24T22:37:47.001Z</time>
</trkpt>
<trkpt lat="59.1051240" lon="29.9951680">
<ele>76.961998</ele>
<time>2026-04-24T22:38:15.003Z</time>
</trkpt>
<trkpt lat="59.1051400" lon="29.9949400">
<ele>75.163681</ele>
<time>2026-04-24T22:38:33.000Z</time>
</trkpt>
<trkpt lat="59.1051730" lon="29.9948670">
<ele>75.864716</ele>
<time>2026-04-24T22:38:58.998Z</time>
</trkpt>
<trkpt lat="59.1053970" lon="29.9949450">
<ele>74.127357</ele>
<time>2026-04-24T22:39:52.998Z</time>
</trkpt>
<trkpt lat="59.1054980" lon="29.9947850">
<ele>72.755760</ele>
<time>2026-04-24T22:40:30.996Z</time>
</trkpt>
<trkpt lat="59.1054860" lon="29.9946540">
<ele>73.548241</ele>
<time>2026-04-24T22:41:32.004Z</time>
</trkpt>
<trkpt lat="59.1057040" lon="29.9946610">
<ele>72.999603</ele>
<time>2026-04-24T22:42:37.002Z</time>
</trkpt>
<trkpt lat="59.1057950" lon="29.9944910">
<ele>71.749916</ele>
<time>2026-04-24T22:43:20.004Z</time>
</trkpt>
<trkpt lat="59.1058400" lon="29.9945180">
<ele>69.799202</ele>
<time>2026-04-24T22:43:43.997Z</time>
</trkpt>
<trkpt lat="59.1057490" lon="29.9943130">
<ele>71.780403</ele>
<time>2026-04-24T22:44:40.001Z</time>
</trkpt>
<trkpt lat="59.1057310" lon="29.9941010">
<ele>72.176643</ele>
<time>2026-04-24T22:44:56.996Z</time>
</trkpt>
<trkpt lat="59.1057760" lon="29.9938660">
<ele>72.999603</ele>
<time>2026-04-24T22:45:20.998Z</time>
</trkpt>
<trkpt lat="59.1057490" lon="29.9934370">
<ele>73.456802</ele>
<time>2026-04-24T22:45:58.997Z</time>
</trkpt>
<trkpt lat="59.1057790" lon="29.9933140">
<ele>76.748642</ele>
<time>2026-04-24T22:46:14.998Z</time>
</trkpt>
<trkpt lat="59.1059540" lon="29.9930170">
<ele>74.950317</ele>
<time>2026-04-24T22:46:51.001Z</time>
</trkpt>
<trkpt lat="59.1061830" lon="29.9921810">
<ele>73.853043</ele>
<time>2026-04-24T22:47:58.998Z</time>
</trkpt>
<trkpt lat="59.1060460" lon="29.9927340">
<ele>74.005440</ele>
<time>2026-04-24T22:48:55.996Z</time>
</trkpt>
<trkpt lat="59.1060610" lon="29.9929780">
<ele>76.535278</ele>
<time>2026-04-24T22:49:45.002Z</time>
</trkpt>
<trkpt lat="59.1059050" lon="29.9930630">
<ele>75.041756</ele>
<time>2026-04-24T22:50:20.996Z</time>
</trkpt>
<trkpt lat="59.1056980" lon="29.9923110">
<ele>73.334885</ele>
<time>2026-04-24T22:51:23.999Z</time>
</trkpt>
<trkpt lat="59.1055930" lon="29.9921280">
<ele>72.908157</ele>
<time>2026-04-24T22:51:45.003Z</time>
</trkpt>
<trkpt lat="59.1054170" lon="29.9919930">
<ele>73.152000</ele>
<time>2026-04-24T22:52:03.000Z</time>
</trkpt>
<trkpt lat="59.1052630" lon="29.9916340">
<ele>77.571602</ele>
<time>2026-04-24T22:52:53.000Z</time>
</trkpt>
<trkpt lat="59.1051870" lon="29.9913660">
<ele>77.053444</ele>
<time>2026-04-24T22:53:07.999Z</time>
</trkpt>
<trkpt lat="59.1051970" lon="29.9909410">
<ele>77.083916</ele>
<time>2026-04-24T22:53:40.001Z</time>
</trkpt>
<trkpt lat="59.1051720" lon="29.9906430">
<ele>75.194160</ele>
<time>2026-04-24T22:53:57.998Z</time>
</trkpt>
<trkpt lat="59.1050190" lon="29.9900110">
<ele>72.969116</ele>
<time>2026-04-24T22:54:23.003Z</time>
</trkpt>
<trkpt lat="59.1050220" lon="29.9898700">
<ele>73.091042</ele>
<time>2026-04-24T22:54:28.999Z</time>
</trkpt>
<trkpt lat="59.1048570" lon="29.9888470">
<ele>73.792084</ele>
<time>2026-04-24T22:55:56.004Z</time>
</trkpt>
<trkpt lat="59.1048200" lon="29.9878360">
<ele>73.609200</ele>
<time>2026-04-24T22:57:10.999Z</time>
</trkpt>
<trkpt lat="59.1047190" lon="29.9875810">
<ele>74.005440</ele>
<time>2026-04-24T22:57:40.997Z</time>
</trkpt>
<trkpt lat="59.1046280" lon="29.9870590">
<ele>75.681839</ele>
<time>2026-04-24T22:58:11.004Z</time>
</trkpt>
</trkseg>
</trk>
<trk>
 <name>20260425_Lisa77</name>
 <desc>20260425_Lisa77</desc>
<trkseg>
<trkpt lat="59.0894080" lon="29.9856460">
<ele>77.967842</ele>
<time>2026-04-24T21:10:41.002Z</time>
</trkpt>
<trkpt lat="59.0892960" lon="29.9855010">
<ele>76.961998</ele>
<time>2026-04-24T21:10:57.996Z</time>
</trkpt>
<trkpt lat="59.0889380" lon="29.9855020">
<ele>82.753197</ele>
<time>2026-04-24T21:12:18.003Z</time>
</trkpt>
<trkpt lat="59.0885590" lon="29.9853740">
<ele>80.954880</ele>
<time>2026-04-24T21:12:52.001Z</time>
</trkpt>
<trkpt lat="59.0883810" lon="29.9854200">
<ele>77.236320</ele>
<time>2026-04-24T21:13:09.998Z</time>
</trkpt>
<trkpt lat="59.0877700" lon="29.9856800">
<ele>76.931519</ele>
<time>2026-04-24T21:14:02.996Z</time>
</trkpt>
<trkpt lat="59.0876290" lon="29.9858030">
<ele>80.741516</ele>
<time>2026-04-24T21:14:21.002Z</time>
</trkpt>
<trkpt lat="59.0872390" lon="29.9859070">
<ele>78.211685</ele>
<time>2026-04-24T21:14:56.003Z</time>
</trkpt>
<trkpt lat="59.0867990" lon="29.9861310">
<ele>91.074234</ele>
<time>2026-04-24T21:15:54.996Z</time>
</trkpt>
<trkpt lat="59.0867160" lon="29.9861220">
<ele>92.567764</ele>
<time>2026-04-24T21:16:17.996Z</time>
</trkpt>
<trkpt lat="59.0859410" lon="29.9865640">
<ele>89.123520</ele>
<time>2026-04-24T21:17:34.002Z</time>
</trkpt>
<trkpt lat="59.0852460" lon="29.9867610">
<ele>83.911438</ele>
<time>2026-04-24T21:18:33.998Z</time>
</trkpt>
<trkpt lat="59.0844940" lon="29.9871020">
<ele>77.541115</ele>
<time>2026-04-24T21:20:01.997Z</time>
</trkpt>
<trkpt lat="59.0839230" lon="29.9872380">
<ele>79.827118</ele>
<time>2026-04-24T21:21:42.998Z</time>
</trkpt>
<trkpt lat="59.0837980" lon="29.9874110">
<ele>80.436722</ele>
<time>2026-04-24T21:22:16.003Z</time>
</trkpt>
<trkpt lat="59.0835640" lon="29.9874670">
<ele>79.796638</ele>
<time>2026-04-24T21:22:51.004Z</time>
</trkpt>
<trkpt lat="59.0831840" lon="29.9876860">
<ele>79.979515</ele>
<time>2026-04-24T21:24:16.004Z</time>
</trkpt>
<trkpt lat="59.0829350" lon="29.9877540">
<ele>80.589119</ele>
<time>2026-04-24T21:25:12.000Z</time>
</trkpt>
<trkpt lat="59.0825480" lon="29.9880340">
<ele>84.734398</ele>
<time>2026-04-24T21:26:42.996Z</time>
</trkpt>
<trkpt lat="59.0822970" lon="29.9880760">
<ele>88.513916</ele>
<time>2026-04-24T21:27:41.999Z</time>
</trkpt>
<trkpt lat="59.0822330" lon="29.9882890">
<ele>86.502235</ele>
<time>2026-04-24T21:28:04.999Z</time>
</trkpt>
<trkpt lat="59.0821300" lon="29.9883530">
<ele>85.465919</ele>
<time>2026-04-24T21:28:30.003Z</time>
</trkpt>
<trkpt lat="59.0817070" lon="29.9883160">
<ele>83.850479</ele>
<time>2026-04-24T21:29:24.996Z</time>
</trkpt>
<trkpt lat="59.0813800" lon="29.9886470">
<ele>80.253838</ele>
<time>2026-04-24T21:30:45.996Z</time>
</trkpt>
<trkpt lat="59.0811690" lon="29.9887280">
<ele>79.308960</ele>
<time>2026-04-24T21:31:04.996Z</time>
</trkpt>
<trkpt lat="59.0809530" lon="29.9887290">
<ele>77.510643</ele>
<time>2026-04-24T21:31:36.998Z</time>
</trkpt>
<trkpt lat="59.0808650" lon="29.9888380">
<ele>78.425034</ele>
<time>2026-04-24T21:32:10.003Z</time>
</trkpt>
<trkpt lat="59.0806940" lon="29.9888230">
<ele>79.796638</ele>
<time>2026-04-24T21:32:49.998Z</time>
</trkpt>
<trkpt lat="59.0806590" lon="29.9890330">
<ele>79.522316</ele>
<time>2026-04-24T21:33:23.003Z</time>
</trkpt>
<trkpt lat="59.0807220" lon="29.9892060">
<ele>78.760315</ele>
<time>2026-04-24T21:33:42.002Z</time>
</trkpt>
<trkpt lat="59.0808550" lon="29.9892990">
<ele>78.211685</ele>
<time>2026-04-24T21:34:13.002Z</time>
</trkpt>
<trkpt lat="59.0810130" lon="29.9893390">
<ele>78.242165</ele>
<time>2026-04-24T21:35:03.002Z</time>
</trkpt>
<trkpt lat="59.0810200" lon="29.9895160">
<ele>79.491837</ele>
<time>2026-04-24T21:35:42.003Z</time>
</trkpt>
<trkpt lat="59.0811050" lon="29.9898030">
<ele>77.602081</ele>
<time>2026-04-24T21:36:48.004Z</time>
</trkpt>
<trkpt lat="59.0810040" lon="29.9904290">
<ele>77.053444</ele>
<time>2026-04-24T21:37:52.000Z</time>
</trkpt>
<trkpt lat="59.0809590" lon="29.9905130">
<ele>75.986641</ele>
<time>2026-04-24T21:38:06.999Z</time>
</trkpt>
<trkpt lat="59.0808110" lon="29.9904540">
<ele>77.663040</ele>
<time>2026-04-24T21:39:05.000Z</time>
</trkpt>
<trkpt lat="59.0808910" lon="29.9905900">
<ele>81.015839</ele>
<time>2026-04-24T21:41:10.997Z</time>
</trkpt>
<trkpt lat="59.0808750" lon="29.9907870">
<ele>82.174080</ele>
<time>2026-04-24T21:42:04.003Z</time>
</trkpt>
<trkpt lat="59.0810540" lon="29.9910190">
<ele>81.716881</ele>
<time>2026-04-24T21:43:39.000Z</time>
</trkpt>
<trkpt lat="59.0812100" lon="29.9910530">
<ele>80.345284</ele>
<time>2026-04-24T21:44:11.003Z</time>
</trkpt>
<trkpt lat="59.0812850" lon="29.9911890">
<ele>85.374481</ele>
<time>2026-04-24T21:44:54.004Z</time>
</trkpt>
<trkpt lat="59.0812950" lon="29.9911060">
<ele>87.111839</ele>
<time>2026-04-24T21:45:48.997Z</time>
</trkpt>
<trkpt lat="59.0813630" lon="29.9911370">
<ele>87.416634</ele>
<time>2026-04-24T21:46:15.004Z</time>
</trkpt>
<trkpt lat="59.0813390" lon="29.9910990">
<ele>89.611198</ele>
<time>2026-04-24T21:47:11.000Z</time>
</trkpt>
<trkpt lat="59.0813270" lon="29.9909110">
<ele>85.526878</ele>
<time>2026-04-24T21:47:28.003Z</time>
</trkpt>
<trkpt lat="59.0812840" lon="29.9908850">
<ele>79.827118</ele>
<time>2026-04-24T21:49:36.998Z</time>
</trkpt>
<trkpt lat="59.0812320" lon="29.9906790">
<ele>81.046318</ele>
<time>2026-04-24T21:50:34.999Z</time>
</trkpt>
<trkpt lat="59.0812890" lon="29.9906660">
<ele>81.808319</ele>
<time>2026-04-24T21:51:38.002Z</time>
</trkpt>
<trkpt lat="59.0812900" lon="29.9905540">
<ele>79.187035</ele>
<time>2026-04-24T21:53:27.004Z</time>
</trkpt>
<trkpt lat="59.0811600" lon="29.9905320">
<ele>77.723999</ele>
<time>2026-04-24T21:54:04.000Z</time>
</trkpt>
<trkpt lat="59.0810280" lon="29.9904150">
<ele>75.956161</ele>
<time>2026-04-24T21:54:18.999Z</time>
</trkpt>
<trkpt lat="59.0809310" lon="29.9904210">
<ele>82.600800</ele>
<time>2026-04-24T21:56:09.997Z</time>
</trkpt>
<trkpt lat="59.0809000" lon="29.9905100">
<ele>83.698082</ele>
<time>2026-04-24T21:58:09.998Z</time>
</trkpt>
<trkpt lat="59.0808970" lon="29.9903710">
<ele>82.448402</ele>
<time>2026-04-24T21:59:03.998Z</time>
</trkpt>
<trkpt lat="59.0808530" lon="29.9903200">
<ele>82.143600</ele>
<time>2026-04-24T21:59:18.004Z</time>
</trkpt>
<trkpt lat="59.0813710" lon="29.9905260">
<ele>76.779121</ele>
<time>2026-04-24T22:01:14.998Z</time>
</trkpt>
<trkpt lat="59.0814780" lon="29.9904730">
<ele>76.809601</ele>
<time>2026-04-24T22:01:29.004Z</time>
</trkpt>
<trkpt lat="59.0815130" lon="29.9903620">
<ele>76.931519</ele>
<time>2026-04-24T22:01:43.000Z</time>
</trkpt>
<trkpt lat="59.0815320" lon="29.9903720">
<ele>82.235039</ele>
<time>2026-04-24T22:02:23.997Z</time>
</trkpt>
<trkpt lat="59.0812750" lon="29.9900860">
<ele>79.613762</ele>
<time>2026-04-24T22:03:43.001Z</time>
</trkpt>
<trkpt lat="59.0811370" lon="29.9900580">
<ele>78.973679</ele>
<time>2026-04-24T22:03:59.003Z</time>
</trkpt>
<trkpt lat="59.0810520" lon="29.9899800">
<ele>77.419197</ele>
<time>2026-04-24T22:04:11.997Z</time>
</trkpt>
<trkpt lat="59.0809740" lon="29.9898070">
<ele>79.156563</ele>
<time>2026-04-24T22:04:39.999Z</time>
</trkpt>
<trkpt lat="59.0808340" lon="29.9897250">
<ele>77.784958</ele>
<time>2026-04-24T22:05:11.000Z</time>
</trkpt>
<trkpt lat="59.0808140" lon="29.9896600">
<ele>79.156563</ele>
<time>2026-04-24T22:05:31.001Z</time>
</trkpt>
<trkpt lat="59.0808650" lon="29.9896440">
<ele>81.259682</ele>
<time>2026-04-24T22:06:10.002Z</time>
</trkpt>
<trkpt lat="59.0809850" lon="29.9897530">
<ele>81.960716</ele>
<time>2026-04-24T22:08:18.997Z</time>
</trkpt>
<trkpt lat="59.0809470" lon="29.9897460">
<ele>83.210403</ele>
<time>2026-04-24T22:10:44.003Z</time>
</trkpt>
<trkpt lat="59.0810280" lon="29.9905320">
<ele>78.577438</ele>
<time>2026-04-24T22:12:40.997Z</time>
</trkpt>
<trkpt lat="59.0810510" lon="29.9905930">
<ele>78.028801</ele>
<time>2026-04-24T22:12:55.996Z</time>
</trkpt>
<trkpt lat="59.0810970" lon="29.9905130">
<ele>78.577438</ele>
<time>2026-04-24T22:13:14.002Z</time>
</trkpt>
<trkpt lat="59.0811460" lon="29.9905430">
<ele>79.187035</ele>
<time>2026-04-24T22:13:29.001Z</time>
</trkpt>
<trkpt lat="59.0811130" lon="29.9906830">
<ele>84.124802</ele>
<time>2026-04-24T22:15:03.004Z</time>
</trkpt>
<trkpt lat="59.0811270" lon="29.9908920">
<ele>82.875114</ele>
<time>2026-04-24T22:15:40.000Z</time>
</trkpt>
<trkpt lat="59.0810460" lon="29.9912110">
<ele>80.954880</ele>
<time>2026-04-24T22:16:27.002Z</time>
</trkpt>
<trkpt lat="59.0810530" lon="29.9914530">
<ele>79.827118</ele>
<time>2026-04-24T22:17:10.003Z</time>
</trkpt>
<trkpt lat="59.0811530" lon="29.9918050">
<ele>78.729836</ele>
<time>2026-04-24T22:17:49.004Z</time>
</trkpt>
<trkpt lat="59.0812420" lon="29.9919150">
<ele>78.851761</ele>
<time>2026-04-24T22:18:08.997Z</time>
</trkpt>
<trkpt lat="59.0813160" lon="29.9921560">
<ele>81.473038</ele>
<time>2026-04-24T22:18:46.996Z</time>
</trkpt>
<trkpt lat="59.0813280" lon="29.9922520">
<ele>83.454239</ele>
<time>2026-04-24T22:19:43.000Z</time>
</trkpt>
<trkpt lat="59.0812970" lon="29.9924290">
<ele>84.155281</ele>
<time>2026-04-24T22:20:51.999Z</time>
</trkpt>
<trkpt lat="59.0813880" lon="29.9928500">
<ele>82.661766</ele>
<time>2026-04-24T22:22:04.999Z</time>
</trkpt>
<trkpt lat="59.0813260" lon="29.9933300">
<ele>80.650085</ele>
<time>2026-04-24T22:22:46.998Z</time>
</trkpt>
<trkpt lat="59.0812440" lon="29.9937210">
<ele>80.436722</ele>
<time>2026-04-24T22:23:28.003Z</time>
</trkpt>
<trkpt lat="59.0812880" lon="29.9940020">
<ele>83.362801</ele>
<time>2026-04-24T22:24:10.002Z</time>
</trkpt>
<trkpt lat="59.0813420" lon="29.9940330">
<ele>87.629997</ele>
<time>2026-04-24T22:25:38.001Z</time>
</trkpt>
<trkpt lat="59.0812690" lon="29.9942330">
<ele>84.795364</ele>
<time>2026-04-24T22:27:04.997Z</time>
</trkpt>
<trkpt lat="59.0812990" lon="29.9941540">
<ele>82.539833</ele>
<time>2026-04-24T22:28:03.999Z</time>
</trkpt>
<trkpt lat="59.0812650" lon="29.9941000">
<ele>82.174080</ele>
<time>2026-04-24T22:28:30.999Z</time>
</trkpt>
<trkpt lat="59.0812830" lon="29.9940750">
<ele>82.356964</ele>
<time>2026-04-24T22:29:00.004Z</time>
</trkpt>
<trkpt lat="59.0813760" lon="29.9942200">
<ele>86.349838</ele>
<time>2026-04-24T22:30:28.996Z</time>
</trkpt>
<trkpt lat="59.0813210" lon="29.9942210">
<ele>86.685120</ele>
<time>2026-04-24T22:30:55.996Z</time>
</trkpt>
<trkpt lat="59.0813880" lon="29.9942480">
<ele>87.995766</ele>
<time>2026-04-24T22:31:50.998Z</time>
</trkpt>
<trkpt lat="59.0814100" lon="29.9942020">
<ele>90.678001</ele>
<time>2026-04-24T22:32:16.996Z</time>
</trkpt>
<trkpt lat="59.0813970" lon="29.9941720">
<ele>90.159836</ele>
<time>2026-04-24T22:32:39.002Z</time>
</trkpt>
<trkpt lat="59.0813040" lon="29.9943040">
<ele>88.971115</ele>
<time>2026-04-24T22:33:26.997Z</time>
</trkpt>
<trkpt lat="59.0812990" lon="29.9944740">
<ele>89.397835</ele>
<time>2026-04-24T22:34:13.999Z</time>
</trkpt>
<trkpt lat="59.0813110" lon="29.9944110">
<ele>89.245438</ele>
<time>2026-04-24T22:34:35.003Z</time>
</trkpt>
<trkpt lat="59.0813730" lon="29.9943820">
<ele>88.788239</ele>
<time>2026-04-24T22:34:54.002Z</time>
</trkpt>
<trkpt lat="59.0813780" lon="29.9944520">
<ele>87.934799</ele>
<time>2026-04-24T22:35:20.000Z</time>
</trkpt>
<trkpt lat="59.0815200" lon="29.9946520">
<ele>86.441284</ele>
<time>2026-04-24T22:36:28.999Z</time>
</trkpt>
<trkpt lat="59.0815250" lon="29.9947400">
<ele>86.166962</ele>
<time>2026-04-24T22:36:50.996Z</time>
</trkpt>
<trkpt lat="59.0816040" lon="29.9947460">
<ele>88.910164</ele>
<time>2026-04-24T22:37:10.998Z</time>
</trkpt>
<trkpt lat="59.0815560" lon="29.9948120">
<ele>89.001602</ele>
<time>2026-04-24T22:37:49.999Z</time>
</trkpt>
<trkpt lat="59.0815700" lon="29.9948560">
<ele>89.672165</ele>
<time>2026-04-24T22:38:08.998Z</time>
</trkpt>
<trkpt lat="59.0816040" lon="29.9948060">
<ele>90.860886</ele>
<time>2026-04-24T22:38:34.996Z</time>
</trkpt>
<trkpt lat="59.0816020" lon="29.9947210">
<ele>90.159836</ele>
<time>2026-04-24T22:39:08.001Z</time>
</trkpt>
<trkpt lat="59.0815420" lon="29.9947340">
<ele>87.599518</ele>
<time>2026-04-24T22:39:39.001Z</time>
</trkpt>
<trkpt lat="59.0815550" lon="29.9950900">
<ele>86.989922</ele>
<time>2026-04-24T22:41:05.997Z</time>
</trkpt>
<trkpt lat="59.0815280" lon="29.9952260">
<ele>85.984085</ele>
<time>2026-04-24T22:41:31.001Z</time>
</trkpt>
<trkpt lat="59.0814760" lon="29.9952370">
<ele>85.740234</ele>
<time>2026-04-24T22:42:18.996Z</time>
</trkpt>
<trkpt lat="59.0815190" lon="29.9952590">
<ele>85.465919</ele>
<time>2026-04-24T22:43:08.003Z</time>
</trkpt>
<trkpt lat="59.0814890" lon="29.9952260">
<ele>84.277199</ele>
<time>2026-04-24T22:43:31.996Z</time>
</trkpt>
<trkpt lat="59.0815740" lon="29.9955000">
<ele>83.911438</ele>
<time>2026-04-24T22:44:18.997Z</time>
</trkpt>
<trkpt lat="59.0815870" lon="29.9957150">
<ele>81.015839</ele>
<time>2026-04-24T22:44:40.001Z</time>
</trkpt>
<trkpt lat="59.0816980" lon="29.9960280">
<ele>78.242165</ele>
<time>2026-04-24T22:45:12.004Z</time>
</trkpt>
<trkpt lat="59.0815320" lon="29.9963790">
<ele>82.692238</ele>
<time>2026-04-24T22:46:14.998Z</time>
</trkpt>
<trkpt lat="59.0816480" lon="29.9967280">
<ele>80.832962</ele>
<time>2026-04-24T22:46:47.001Z</time>
</trkpt>
<trkpt lat="59.0816720" lon="29.9974040">
<ele>79.308960</ele>
<time>2026-04-24T22:47:33.000Z</time>
</trkpt>
<trkpt lat="59.0818340" lon="29.9980640">
<ele>70.408798</ele>
<time>2026-04-24T22:48:13.997Z</time>
</trkpt>
<trkpt lat="59.0819580" lon="29.9989030">
<ele>61.356239</ele>
<time>2026-04-24T22:48:51.002Z</time>
</trkpt>
<trkpt lat="59.0819140" lon="29.9990400">
<ele>62.392559</ele>
<time>2026-04-24T22:49:21.000Z</time>
</trkpt>
<trkpt lat="59.0817640" lon="29.9990250">
<ele>70.225922</ele>
<time>2026-04-24T22:50:20.003Z</time>
</trkpt>
<trkpt lat="59.0818290" lon="29.9990790">
<ele>72.268082</ele>
<time>2026-04-24T22:50:39.002Z</time>
</trkpt>
<trkpt lat="59.0819710" lon="29.9990940">
<ele>78.333603</ele>
<time>2026-04-24T22:51:30.997Z</time>
</trkpt>
<trkpt lat="59.0819840" lon="29.9991730">
<ele>78.790802</ele>
<time>2026-04-24T22:51:53.004Z</time>
</trkpt>
<trkpt lat="59.0819470" lon="29.9992290">
<ele>77.602081</ele>
<time>2026-04-24T22:52:15.001Z</time>
</trkpt>
<trkpt lat="59.0820100" lon="29.9991870">
<ele>78.699364</ele>
<time>2026-04-24T22:52:59.998Z</time>
</trkpt>
<trkpt lat="59.0819760" lon="29.9992540">
<ele>78.912720</ele>
<time>2026-04-24T22:53:30.998Z</time>
</trkpt>
<trkpt lat="59.0820270" lon="29.9999210">
<ele>75.925682</ele>
<time>2026-04-24T22:54:50.996Z</time>
</trkpt>
<trkpt lat="59.0821090" lon="30.0001190">
<ele>77.632561</ele>
<time>2026-04-24T22:55:35.000Z</time>
</trkpt>
<trkpt lat="59.0821080" lon="30.0004160">
<ele>77.906883</ele>
<time>2026-04-24T22:56:15.996Z</time>
</trkpt>
<trkpt lat="59.0820910" lon="30.0004790">
<ele>78.516479</ele>
<time>2026-04-24T22:56:39.998Z</time>
</trkpt>
<trkpt lat="59.0820750" lon="30.0004540">
<ele>78.516479</ele>
<time>2026-04-24T22:57:02.998Z</time>
</trkpt>
<trkpt lat="59.0820770" lon="30.0005260">
<ele>80.192879</ele>
<time>2026-04-24T22:57:55.002Z</time>
</trkpt>
<trkpt lat="59.0820490" lon="30.0005040">
<ele>80.467201</ele>
<time>2026-04-24T22:58:19.004Z</time>
</trkpt>
<trkpt lat="59.0820620" lon="30.0004620">
<ele>80.192879</ele>
<time>2026-04-24T22:59:09.004Z</time>
</trkpt>
<trkpt lat="59.0820600" lon="30.0005520">
<ele>78.882233</ele>
<time>2026-04-24T22:59:56.999Z</time>
</trkpt>
<trkpt lat="59.0820370" lon="30.0005410">
<ele>76.809601</ele>
<time>2026-04-24T23:00:17.001Z</time>
</trkpt>
<trkpt lat="59.0820430" lon="30.0004810">
<ele>75.681839</ele>
<time>2026-04-24T23:00:46.999Z</time>
</trkpt>
<trkpt lat="59.0820210" lon="30.0005350">
<ele>79.705200</ele>
<time>2026-04-24T23:01:47.004Z</time>
</trkpt>
<trkpt lat="59.0821060" lon="30.0007790">
<ele>78.699364</ele>
<time>2026-04-24T23:03:07.001Z</time>
</trkpt>
<trkpt lat="59.0821740" lon="30.0011360">
<ele>77.358238</ele>
<time>2026-04-24T23:05:12.998Z</time>
</trkpt>
<trkpt lat="59.0821470" lon="30.0011880">
<ele>77.541115</ele>
<time>2026-04-24T23:06:04.000Z</time>
</trkpt>
<trkpt lat="59.0821990" lon="30.0014040">
<ele>77.022957</ele>
<time>2026-04-24T23:06:47.002Z</time>
</trkpt>
<trkpt lat="59.0821730" lon="30.0017000">
<ele>77.297279</ele>
<time>2026-04-24T23:07:31.999Z</time>
</trkpt>
<trkpt lat="59.0822460" lon="30.0017990">
<ele>76.291443</ele>
<time>2026-04-24T23:07:50.998Z</time>
</trkpt>
<trkpt lat="59.0823010" lon="30.0020530">
<ele>72.633842</ele>
<time>2026-04-24T23:08:09.004Z</time>
</trkpt>
<trkpt lat="59.0823620" lon="30.0031010">
<ele>70.164963</ele>
<time>2026-04-24T23:10:28.004Z</time>
</trkpt>
<trkpt lat="59.0825860" lon="30.0041020">
<ele>57.576717</ele>
<time>2026-04-24T23:11:29.996Z</time>
</trkpt>
<trkpt lat="59.0826540" lon="30.0046910">
<ele>52.303680</ele>
<time>2026-04-24T23:12:05.999Z</time>
</trkpt>
<trkpt lat="59.0827050" lon="30.0048960">
<ele>50.657761</ele>
<time>2026-04-24T23:12:27.003Z</time>
</trkpt>
<trkpt lat="59.0827440" lon="30.0055430">
<ele>53.583839</ele>
<time>2026-04-24T23:13:20.001Z</time>
</trkpt>
<trkpt lat="59.0827410" lon="30.0061860">
<ele>62.849758</ele>
<time>2026-04-24T23:14:27.997Z</time>
</trkpt>
<trkpt lat="59.0828650" lon="30.0068030">
<ele>58.765442</ele>
<time>2026-04-24T23:15:06.998Z</time>
</trkpt>
<trkpt lat="59.0828750" lon="30.0072710">
<ele>57.454800</ele>
<time>2026-04-24T23:15:43.001Z</time>
</trkpt>
<trkpt lat="59.0830140" lon="30.0080060">
<ele>55.351681</ele>
<time>2026-04-24T23:16:38.997Z</time>
</trkpt>
<trkpt lat="59.0830630" lon="30.0086450">
<ele>51.297840</ele>
<time>2026-04-24T23:17:24.003Z</time>
</trkpt>
<trkpt lat="59.0831470" lon="30.0092720">
<ele>59.344559</ele>
<time>2026-04-24T23:18:30.004Z</time>
</trkpt>
<trkpt lat="59.0831420" lon="30.0096190">
<ele>65.836800</ele>
<time>2026-04-24T23:19:16.997Z</time>
</trkpt>
<trkpt lat="59.0832750" lon="30.0100550">
<ele>67.543678</ele>
<time>2026-04-24T23:20:18.997Z</time>
</trkpt>
<trkpt lat="59.0833760" lon="30.0109820">
<ele>65.684402</ele>
<time>2026-04-24T23:21:35.004Z</time>
</trkpt>
<trkpt lat="59.0834420" lon="30.0113010">
<ele>62.880241</ele>
<time>2026-04-24T23:21:57.001Z</time>
</trkpt>
<trkpt lat="59.0834040" lon="30.0115040">
<ele>67.452240</ele>
<time>2026-04-24T23:22:44.996Z</time>
</trkpt>
<trkpt lat="59.0835000" lon="30.0120750">
<ele>61.356239</ele>
<time>2026-04-24T23:23:24.999Z</time>
</trkpt>
<trkpt lat="59.0834960" lon="30.0122860">
<ele>59.496960</ele>
<time>2026-04-24T23:23:42.996Z</time>
</trkpt>
<trkpt lat="59.0835100" lon="30.0123720">
<ele>62.270641</ele>
<time>2026-04-24T23:24:39.001Z</time>
</trkpt>
<trkpt lat="59.0835090" lon="30.0122340">
<ele>67.909439</ele>
<time>2026-04-24T23:25:46.998Z</time>
</trkpt>
<trkpt lat="59.0836600" lon="30.0133180">
<ele>60.594242</ele>
<time>2026-04-24T23:29:15.999Z</time>
</trkpt>
<trkpt lat="59.0836610" lon="30.0136470">
<ele>62.941200</ele>
<time>2026-04-24T23:30:00.996Z</time>
</trkpt>
<trkpt lat="59.0837530" lon="30.0141570">
<ele>63.185040</ele>
<time>2026-04-24T23:31:40.996Z</time>
</trkpt>
<trkpt lat="59.0838060" lon="30.0146840">
<ele>58.125359</ele>
<time>2026-04-24T23:32:23.997Z</time>
</trkpt>
<trkpt lat="59.0839240" lon="30.0152040">
<ele>60.015118</ele>
<time>2026-04-24T23:33:01.002Z</time>
</trkpt>
<trkpt lat="59.0838600" lon="30.0154310">
<ele>61.539120</ele>
<time>2026-04-24T23:33:25.998Z</time>
</trkpt>
<trkpt lat="59.0840350" lon="30.0161480">
<ele>64.129921</ele>
<time>2026-04-24T23:34:44.000Z</time>
</trkpt>
<trkpt lat="59.0839790" lon="30.0161960">
<ele>66.324478</ele>
<time>2026-04-24T23:35:52.999Z</time>
</trkpt>
<trkpt lat="59.0840460" lon="30.0164870">
<ele>67.635117</ele>
<time>2026-04-24T23:37:23.002Z</time>
</trkpt>
<trkpt lat="59.0841480" lon="30.0173440">
<ele>65.623444</ele>
<time>2026-04-24T23:38:22.004Z</time>
</trkpt>
<trkpt lat="59.0841650" lon="30.0173460">
<ele>67.299843</ele>
<time>2026-04-24T23:38:49.004Z</time>
</trkpt>
<trkpt lat="59.0841870" lon="30.0177490">
<ele>69.128639</ele>
<time>2026-04-24T23:39:54.003Z</time>
</trkpt>
<trkpt lat="59.0841610" lon="30.0180920">
<ele>69.037201</ele>
<time>2026-04-24T23:40:29.997Z</time>
</trkpt>
<trkpt lat="59.0841310" lon="30.0181970">
<ele>68.336159</ele>
<time>2026-04-24T23:40:49.999Z</time>
</trkpt>
<trkpt lat="59.0840670" lon="30.0182560">
<ele>68.122803</ele>
<time>2026-04-24T23:41:35.998Z</time>
</trkpt>
<trkpt lat="59.0840060" lon="30.0185570">
<ele>67.086479</ele>
<time>2026-04-24T23:42:09.996Z</time>
</trkpt>
<trkpt lat="59.0838260" lon="30.0190090">
<ele>67.177917</ele>
<time>2026-04-24T23:43:37.001Z</time>
</trkpt>
<trkpt lat="59.0838310" lon="30.0191230">
<ele>67.726563</ele>
<time>2026-04-24T23:43:50.998Z</time>
</trkpt>
<trkpt lat="59.0837900" lon="30.0192180">
<ele>66.903603</ele>
<time>2026-04-24T23:44:32.004Z</time>
</trkpt>
<trkpt lat="59.0838460" lon="30.0194340">
<ele>65.684402</ele>
<time>2026-04-24T23:45:41.003Z</time>
</trkpt>
<trkpt lat="59.0838520" lon="30.0196090">
<ele>65.775841</ele>
<time>2026-04-24T23:46:13.999Z</time>
</trkpt>
<trkpt lat="59.0837150" lon="30.0196560">
<ele>69.463921</ele>
<time>2026-04-24T23:47:33.996Z</time>
</trkpt>
<trkpt lat="59.0837070" lon="30.0197910">
<ele>70.805038</ele>
<time>2026-04-24T23:48:50.996Z</time>
</trkpt>
<trkpt lat="59.0837390" lon="30.0199470">
<ele>69.250557</ele>
<time>2026-04-24T23:49:41.998Z</time>
</trkpt>
<trkpt lat="59.0835300" lon="30.0202740">
<ele>71.597519</ele>
<time>2026-04-24T23:51:50.000Z</time>
</trkpt>
<trkpt lat="59.0834840" lon="30.0205860">
<ele>72.999603</ele>
<time>2026-04-24T23:52:46.004Z</time>
</trkpt>
<trkpt lat="59.0834980" lon="30.0206870">
<ele>77.358238</ele>
<time>2026-04-24T23:53:23.001Z</time>
</trkpt>
<trkpt lat="59.0835170" lon="30.0205590">
<ele>78.546967</ele>
<time>2026-04-24T23:54:26.004Z</time>
</trkpt>
<trkpt lat="59.0836660" lon="30.0205990">
<ele>78.150719</ele>
<time>2026-04-24T23:55:35.996Z</time>
</trkpt>
<trkpt lat="59.0836600" lon="30.0206420">
<ele>78.790802</ele>
<time>2026-04-24T23:56:20.000Z</time>
</trkpt>
<trkpt lat="59.0836960" lon="30.0206570">
<ele>78.394562</ele>
<time>2026-04-24T23:56:38.999Z</time>
</trkpt>
<trkpt lat="59.0838880" lon="30.0206350">
<ele>77.053444</ele>
<time>2026-04-24T23:57:39.997Z</time>
</trkpt>
<trkpt lat="59.0838670" lon="30.0205890">
<ele>78.668884</ele>
<time>2026-04-24T23:58:05.002Z</time>
</trkpt>
<trkpt lat="59.0838930" lon="30.0202400">
<ele>77.815437</ele>
<time>2026-04-24T23:59:07.002Z</time>
</trkpt>
<trkpt lat="59.0837280" lon="30.0201320">
<ele>76.169518</ele>
<time>2026-04-24T23:59:42.996Z</time>
</trkpt>
<trkpt lat="59.0836740" lon="30.0201520">
<ele>75.255119</ele>
<time>2026-04-25T00:00:01.002Z</time>
</trkpt>
<trkpt lat="59.0834190" lon="30.0205140">
<ele>74.493118</ele>
<time>2026-04-25T00:01:21.000Z</time>
</trkpt>
<trkpt lat="59.0832990" lon="30.0212180">
<ele>74.554085</ele>
<time>2026-04-25T00:02:42.000Z</time>
</trkpt>
<trkpt lat="59.0831830" lon="30.0212790">
<ele>75.255119</ele>
<time>2026-04-25T00:03:07.998Z</time>
</trkpt>
<trkpt lat="59.0831250" lon="30.0215810">
<ele>74.523598</ele>
<time>2026-04-25T00:03:49.997Z</time>
</trkpt>
<trkpt lat="59.0831020" lon="30.0217180">
<ele>73.761597</ele>
<time>2026-04-25T00:04:07.000Z</time>
</trkpt>
<trkpt lat="59.0831430" lon="30.0218210">
<ele>74.279762</ele>
<time>2026-04-25T00:04:27.002Z</time>
</trkpt>
<trkpt lat="59.0831450" lon="30.0219330">
<ele>73.548241</ele>
<time>2026-04-25T00:04:44.999Z</time>
</trkpt>
<trkpt lat="59.0830750" lon="30.0220160">
<ele>74.127357</ele>
<time>2026-04-25T00:05:24.000Z</time>
</trkpt>
<trkpt lat="59.0830890" lon="30.0221510">
<ele>74.066399</ele>
<time>2026-04-25T00:05:41.004Z</time>
</trkpt>
<trkpt lat="59.0830560" lon="30.0222180">
<ele>75.864716</ele>
<time>2026-04-25T00:06:05.999Z</time>
</trkpt>
<trkpt lat="59.0831650" lon="30.0222590">
<ele>76.017120</ele>
<time>2026-04-25T00:06:53.001Z</time>
</trkpt>
<trkpt lat="59.0833040" lon="30.0224440">
<ele>74.584557</ele>
<time>2026-04-25T00:07:33.997Z</time>
</trkpt>
<trkpt lat="59.0834540" lon="30.0225380">
<ele>74.676003</ele>
<time>2026-04-25T00:08:18.001Z</time>
</trkpt>
<trkpt lat="59.0836080" lon="30.0224530">
<ele>77.815437</ele>
<time>2026-04-25T00:08:57.002Z</time>
</trkpt>
<trkpt lat="59.0836860" lon="30.0226240">
<ele>80.589119</ele>
<time>2026-04-25T00:09:41.999Z</time>
</trkpt>
<trkpt lat="59.0837720" lon="30.0227040">
<ele>80.436722</ele>
<time>2026-04-25T00:10:03.003Z</time>
</trkpt>
<trkpt lat="59.0839020" lon="30.0226280">
<ele>79.796638</ele>
<time>2026-04-25T00:10:42.004Z</time>
</trkpt>
<trkpt lat="59.0839010" lon="30.0227210">
<ele>80.680565</ele>
<time>2026-04-25T00:11:20.996Z</time>
</trkpt>
<trkpt lat="59.0839510" lon="30.0227750">
<ele>80.284317</ele>
<time>2026-04-25T00:12:07.004Z</time>
</trkpt>
<trkpt lat="59.0840120" lon="30.0227450">
<ele>80.741516</ele>
<time>2026-04-25T00:12:30.004Z</time>
</trkpt>
<trkpt lat="59.0840510" lon="30.0228010">
<ele>81.381599</ele>
<time>2026-04-25T00:12:46.999Z</time>
</trkpt>
<trkpt lat="59.0841060" lon="30.0227160">
<ele>81.168236</ele>
<time>2026-04-25T00:13:08.996Z</time>
</trkpt>
<trkpt lat="59.0840430" lon="30.0222890">
<ele>81.381599</ele>
<time>2026-04-25T00:14:07.999Z</time>
</trkpt>
<trkpt lat="59.0840360" lon="30.0216090">
<ele>78.546967</ele>
<time>2026-04-25T00:15:08.997Z</time>
</trkpt>
<trkpt lat="59.0840020" lon="30.0214740">
<ele>78.851761</ele>
<time>2026-04-25T00:15:27.003Z</time>
</trkpt>
<trkpt lat="59.0841290" lon="30.0213280">
<ele>79.095596</ele>
<time>2026-04-25T00:16:09.002Z</time>
</trkpt>
<trkpt lat="59.0845360" lon="30.0215990">
<ele>74.797920</ele>
<time>2026-04-25T00:17:29.000Z</time>
</trkpt>
<trkpt lat="59.0846130" lon="30.0215970">
<ele>75.834244</ele>
<time>2026-04-25T00:17:50.997Z</time>
</trkpt>
<trkpt lat="59.0846380" lon="30.0217390">
<ele>75.773285</ele>
<time>2026-04-25T00:18:29.998Z</time>
</trkpt>
<trkpt lat="59.0847250" lon="30.0215380">
<ele>77.175362</ele>
<time>2026-04-25T00:18:59.003Z</time>
</trkpt>
<trkpt lat="59.0846540" lon="30.0213450">
<ele>77.266800</ele>
<time>2026-04-25T00:19:19.998Z</time>
</trkpt>
<trkpt lat="59.0845300" lon="30.0206520">
<ele>75.438004</ele>
<time>2026-04-25T00:20:15.000Z</time>
</trkpt>
<trkpt lat="59.0845200" lon="30.0200640">
<ele>74.767441</ele>
<time>2026-04-25T00:21:26.004Z</time>
</trkpt>
<trkpt lat="59.0844030" lon="30.0195060">
<ele>74.736961</ele>
<time>2026-04-25T00:22:04.996Z</time>
</trkpt>
<trkpt lat="59.0843490" lon="30.0190120">
<ele>75.498962</ele>
<time>2026-04-25T00:22:40.999Z</time>
</trkpt>
<trkpt lat="59.0842910" lon="30.0188090">
<ele>75.224640</ele>
<time>2026-04-25T00:22:55.998Z</time>
</trkpt>
<trkpt lat="59.0841750" lon="30.0173280">
<ele>70.043037</ele>
<time>2026-04-25T00:24:43.004Z</time>
</trkpt>
<trkpt lat="59.0838170" lon="30.0140540">
<ele>63.764160</ele>
<time>2026-04-25T00:27:35.001Z</time>
</trkpt>
<trkpt lat="59.0837630" lon="30.0136500">
<ele>62.484001</ele>
<time>2026-04-25T00:27:55.002Z</time>
</trkpt>
<trkpt lat="59.0835140" lon="30.0124710">
<ele>54.254398</ele>
<time>2026-04-25T00:28:54.998Z</time>
</trkpt>
<trkpt lat="59.0833730" lon="30.0109480">
<ele>55.107841</ele>
<time>2026-04-25T00:30:15.998Z</time>
</trkpt>
<trkpt lat="59.0832700" lon="30.0100660">
<ele>60.258961</ele>
<time>2026-04-25T00:31:12.996Z</time>
</trkpt>
<trkpt lat="59.0831250" lon="30.0092570">
<ele>64.556641</ele>
<time>2026-04-25T00:32:06.003Z</time>
</trkpt>
<trkpt lat="59.0830280" lon="30.0085070">
<ele>63.245998</ele>
<time>2026-04-25T00:32:44.002Z</time>
</trkpt>
<trkpt lat="59.0828990" lon="30.0064980">
<ele>70.103996</ele>
<time>2026-04-25T00:34:26.999Z</time>
</trkpt>
<trkpt lat="59.0826830" lon="30.0054430">
<ele>68.610481</ele>
<time>2026-04-25T00:35:19.003Z</time>
</trkpt>
<trkpt lat="59.0826260" lon="30.0050320">
<ele>67.909439</ele>
<time>2026-04-25T00:35:38.003Z</time>
</trkpt>
<trkpt lat="59.0826250" lon="30.0046640">
<ele>66.050156</ele>
<time>2026-04-25T00:35:58.004Z</time>
</trkpt>
<trkpt lat="59.0825680" lon="30.0042640">
<ele>64.221359</ele>
<time>2026-04-25T00:36:17.004Z</time>
</trkpt>
<trkpt lat="59.0823230" lon="30.0027560">
<ele>67.909439</ele>
<time>2026-04-25T00:37:49.002Z</time>
</trkpt>
<trkpt lat="59.0822160" lon="30.0022900">
<ele>66.690239</ele>
<time>2026-04-25T00:38:12.002Z</time>
</trkpt>
<trkpt lat="59.0822410" lon="30.0019440">
<ele>68.031357</ele>
<time>2026-04-25T00:38:32.004Z</time>
</trkpt>
<trkpt lat="59.0821750" lon="30.0015910">
<ele>68.732399</ele>
<time>2026-04-25T00:38:54.001Z</time>
</trkpt>
<trkpt lat="59.0820950" lon="30.0006430">
<ele>71.048882</ele>
<time>2026-04-25T00:39:53.004Z</time>
</trkpt>
<trkpt lat="59.0819100" lon="29.9994010">
<ele>68.031357</ele>
<time>2026-04-25T00:40:57.000Z</time>
</trkpt>
<trkpt lat="59.0818660" lon="29.9987570">
<ele>65.105286</ele>
<time>2026-04-25T00:41:36.001Z</time>
</trkpt>
<trkpt lat="59.0816150" lon="29.9972750">
<ele>63.245998</ele>
<time>2026-04-25T00:42:47.998Z</time>
</trkpt>
<trkpt lat="59.0815800" lon="29.9969260">
<ele>66.995041</ele>
<time>2026-04-25T00:43:06.997Z</time>
</trkpt>
<trkpt lat="59.0816040" lon="29.9967910">
<ele>74.767441</ele>
<time>2026-04-25T00:43:25.997Z</time>
</trkpt>
<trkpt lat="59.0815220" lon="29.9961800">
<ele>79.522316</ele>
<time>2026-04-25T00:44:26.002Z</time>
</trkpt>
<trkpt lat="59.0813810" lon="29.9954440">
<ele>80.528160</ele>
<time>2026-04-25T00:45:23.000Z</time>
</trkpt>
<trkpt lat="59.0814100" lon="29.9952980">
<ele>80.680565</ele>
<time>2026-04-25T00:45:40.997Z</time>
</trkpt>
<trkpt lat="59.0813670" lon="29.9947280">
<ele>76.443840</ele>
<time>2026-04-25T00:46:19.998Z</time>
</trkpt>
<trkpt lat="59.0813750" lon="29.9946120">
<ele>74.432159</ele>
<time>2026-04-25T00:46:31.999Z</time>
</trkpt>
<trkpt lat="59.0814370" lon="29.9944200">
<ele>73.761597</ele>
<time>2026-04-25T00:46:50.998Z</time>
</trkpt>
<trkpt lat="59.0812290" lon="29.9936240">
<ele>74.676003</ele>
<time>2026-04-25T00:48:02.002Z</time>
</trkpt>
<trkpt lat="59.0810890" lon="29.9923010">
<ele>74.645515</ele>
<time>2026-04-25T00:49:43.997Z</time>
</trkpt>
<trkpt lat="59.0811140" lon="29.9921720">
<ele>74.005440</ele>
<time>2026-04-25T00:49:55.998Z</time>
</trkpt>
<trkpt lat="59.0810640" lon="29.9918750">
<ele>71.993759</ele>
<time>2026-04-25T00:50:18.004Z</time>
</trkpt>
<trkpt lat="59.0810030" lon="29.9917080">
<ele>75.529442</ele>
<time>2026-04-25T00:50:47.000Z</time>
</trkpt>
<trkpt lat="59.0810240" lon="29.9912910">
<ele>78.851761</ele>
<time>2026-04-25T00:51:27.996Z</time>
</trkpt>
<trkpt lat="59.0809400" lon="29.9908000">
<ele>79.034637</ele>
<time>2026-04-25T00:52:22.999Z</time>
</trkpt>
<trkpt lat="59.0809480" lon="29.9906150">
<ele>79.156563</ele>
<time>2026-04-25T00:52:56.997Z</time>
</trkpt>
<trkpt lat="59.0809890" lon="29.9905530">
<ele>79.065117</ele>
<time>2026-04-25T00:53:12.998Z</time>
</trkpt>
<trkpt lat="59.0810560" lon="29.9901170">
<ele>81.777840</ele>
<time>2026-04-25T00:54:25.004Z</time>
</trkpt>
<trkpt lat="59.0813280" lon="29.9898250">
<ele>81.564484</ele>
<time>2026-04-25T00:55:11.997Z</time>
</trkpt>
<trkpt lat="59.0813790" lon="29.9896540">
<ele>83.698082</ele>
<time>2026-04-25T00:56:15.000Z</time>
</trkpt>
<trkpt lat="59.0814370" lon="29.9896460">
<ele>83.515198</ele>
<time>2026-04-25T00:56:42.000Z</time>
</trkpt>
<trkpt lat="59.0816700" lon="29.9892440">
<ele>83.057999</ele>
<time>2026-04-25T00:57:41.996Z</time>
</trkpt>
<trkpt lat="59.0817660" lon="29.9888850">
<ele>84.642967</ele>
<time>2026-04-25T00:59:07.999Z</time>
</trkpt>
<trkpt lat="59.0817460" lon="29.9884800">
<ele>84.094315</ele>
<time>2026-04-25T00:59:44.002Z</time>
</trkpt>
<trkpt lat="59.0818400" lon="29.9881470">
<ele>82.204567</ele>
<time>2026-04-25T01:00:19.996Z</time>
</trkpt>
<trkpt lat="59.0820000" lon="29.9879680">
<ele>83.393280</ele>
<time>2026-04-25T01:00:59.999Z</time>
</trkpt>
<trkpt lat="59.0824760" lon="29.9880670">
<ele>82.631279</ele>
<time>2026-04-25T01:03:35.001Z</time>
</trkpt>
<trkpt lat="59.0824430" lon="29.9879810">
<ele>81.930237</ele>
<time>2026-04-25T01:04:03.996Z</time>
</trkpt>
<trkpt lat="59.0827970" lon="29.9878920">
<ele>76.413361</ele>
<time>2026-04-25T01:05:23.001Z</time>
</trkpt>
<trkpt lat="59.0833930" lon="29.9875640">
<ele>74.096878</ele>
<time>2026-04-25T01:07:12.996Z</time>
</trkpt>
<trkpt lat="59.0837700" lon="29.9872790">
<ele>78.790802</ele>
<time>2026-04-25T01:08:37.003Z</time>
</trkpt>
<trkpt lat="59.0841620" lon="29.9871550">
<ele>80.924400</ele>
<time>2026-04-25T01:10:06.997Z</time>
</trkpt>
<trkpt lat="59.0844540" lon="29.9869850">
<ele>79.400398</ele>
<time>2026-04-25T01:10:56.997Z</time>
</trkpt>
<trkpt lat="59.0851170" lon="29.9867530">
<ele>70.987915</ele>
<time>2026-04-25T01:12:35.001Z</time>
</trkpt>
<trkpt lat="59.0853250" lon="29.9867650">
<ele>64.251839</ele>
<time>2026-04-25T01:13:02.001Z</time>
</trkpt>
<trkpt lat="59.0858490" lon="29.9865860">
<ele>65.227203</ele>
<time>2026-04-25T01:14:06.999Z</time>
</trkpt>
<trkpt lat="59.0859540" lon="29.9865060">
<ele>67.543678</ele>
<time>2026-04-25T01:14:24.996Z</time>
</trkpt>
<trkpt lat="59.0860230" lon="29.9863790">
<ele>85.161118</ele>
<time>2026-04-25T01:15:07.004Z</time>
</trkpt>
<trkpt lat="59.0863830" lon="29.9863450">
<ele>75.377045</ele>
<time>2026-04-25T01:16:04.996Z</time>
</trkpt>
<trkpt lat="59.0866210" lon="29.9862310">
<ele>62.819283</ele>
<time>2026-04-25T01:16:42.001Z</time>
</trkpt>
<trkpt lat="59.0867200" lon="29.9861300">
<ele>62.240158</ele>
<time>2026-04-25T01:17:02.003Z</time>
</trkpt>
<trkpt lat="59.0869440" lon="29.9861200">
<ele>63.063118</ele>
<time>2026-04-25T01:17:33.996Z</time>
</trkpt>
<trkpt lat="59.0883670" lon="29.9854570">
<ele>36.636959</ele>
<time>2026-04-25T01:20:30.002Z</time>
</trkpt>
<trkpt lat="59.0887750" lon="29.9856200">
<ele>42.611042</ele>
<time>2026-04-25T01:21:09.996Z</time>
</trkpt>
<trkpt lat="59.0890720" lon="29.9856580">
<ele>29.047441</ele>
<time>2026-04-25T01:21:48.997Z</time>
</trkpt>
<trkpt lat="59.0891930" lon="29.9858660">
<ele>26.365200</ele>
<time>2026-04-25T01:22:10.001Z</time>
</trkpt>
<trkpt lat="59.0893600" lon="29.9860110">
<ele>27.767279</ele>
<time>2026-04-25T01:22:26.003Z</time>
</trkpt>
<trkpt lat="59.0895050" lon="29.9860550">
<ele>27.218641</ele>
<time>2026-04-25T01:22:41.002Z</time>
</trkpt>
</trkseg>
</trk>
<trk>
 <name>20260425_Lisa72</name>
 <desc>20260425_Lisa72</desc>
<trkseg>
<trkpt lat="59.1026040" lon="30.0457720">
<ele>69.829681</ele>
<time>2026-04-24T20:32:35.998Z</time>
</trkpt>
<trkpt lat="59.1026020" lon="30.0460630">
<ele>69.281044</ele>
<time>2026-04-24T20:32:57.002Z</time>
</trkpt>
<trkpt lat="59.1026460" lon="30.0460550">
<ele>69.524879</ele>
<time>2026-04-24T20:33:01.996Z</time>
</trkpt>
<trkpt lat="59.1026800" lon="30.0461780">
<ele>68.640961</ele>
<time>2026-04-24T20:33:13.003Z</time>
</trkpt>
<trkpt lat="59.1026510" lon="30.0461890">
<ele>69.524879</ele>
<time>2026-04-24T20:33:17.004Z</time>
</trkpt>
<trkpt lat="59.1026180" lon="30.0459370">
<ele>69.037201</ele>
<time>2026-04-24T20:34:11.997Z</time>
</trkpt>
<trkpt lat="59.1026460" lon="30.0459070">
<ele>70.317360</ele>
<time>2026-04-24T20:36:05.000Z</time>
</trkpt>
<trkpt lat="59.1026810" lon="30.0459800">
<ele>70.225922</ele>
<time>2026-04-24T20:36:25.001Z</time>
</trkpt>
<trkpt lat="59.1026800" lon="30.0461190">
<ele>70.378319</ele>
<time>2026-04-24T20:36:57.997Z</time>
</trkpt>
<trkpt lat="59.1026320" lon="30.0462450">
<ele>71.048882</ele>
<time>2026-04-24T20:38:05.001Z</time>
</trkpt>
<trkpt lat="59.1025890" lon="30.0461950">
<ele>72.115685</ele>
<time>2026-04-24T20:38:41.004Z</time>
</trkpt>
<trkpt lat="59.1026620" lon="30.0460320">
<ele>70.530716</ele>
<time>2026-04-24T20:39:26.001Z</time>
</trkpt>
<trkpt lat="59.1025980" lon="30.0460620">
<ele>71.963280</ele>
<time>2026-04-24T20:40:22.999Z</time>
</trkpt>
<trkpt lat="59.1026650" lon="30.0460850">
<ele>72.085197</ele>
<time>2026-04-24T20:40:51.001Z</time>
</trkpt>
<trkpt lat="59.1026040" lon="30.0460230">
<ele>71.719444</ele>
<time>2026-04-24T20:41:39.998Z</time>
</trkpt>
<trkpt lat="59.1025910" lon="30.0461210">
<ele>72.450958</ele>
<time>2026-04-24T20:42:00.000Z</time>
</trkpt>
<trkpt lat="59.1025590" lon="30.0461320">
<ele>71.871841</ele>
<time>2026-04-24T20:42:10.999Z</time>
</trkpt>
<trkpt lat="59.1025930" lon="30.0461850">
<ele>72.816719</ele>
<time>2026-04-24T20:43:26.996Z</time>
</trkpt>
<trkpt lat="59.1024150" lon="30.0461980">
<ele>69.494400</ele>
<time>2026-04-24T20:44:01.003Z</time>
</trkpt>
<trkpt lat="59.1023280" lon="30.0463170">
<ele>72.207115</ele>
<time>2026-04-24T20:44:20.996Z</time>
</trkpt>
<trkpt lat="59.1021380" lon="30.0463420">
<ele>72.633842</ele>
<time>2026-04-24T20:45:03.997Z</time>
</trkpt>
<trkpt lat="59.1020860" lon="30.0464280">
<ele>72.572884</ele>
<time>2026-04-24T20:45:21.001Z</time>
</trkpt>
<trkpt lat="59.1020090" lon="30.0464620">
<ele>72.572884</ele>
<time>2026-04-24T20:45:41.003Z</time>
</trkpt>
<trkpt lat="59.1016110" lon="30.0470390">
<ele>72.024239</ele>
<time>2026-04-24T20:47:37.003Z</time>
</trkpt>
<trkpt lat="59.1016320" lon="30.0469500">
<ele>72.085197</ele>
<time>2026-04-24T20:48:12.997Z</time>
</trkpt>
<trkpt lat="59.1016700" lon="30.0470670">
<ele>73.060562</ele>
<time>2026-04-24T20:50:00.997Z</time>
</trkpt>
<trkpt lat="59.1014980" lon="30.0470730">
<ele>73.243439</ele>
<time>2026-04-24T20:50:58.998Z</time>
</trkpt>
<trkpt lat="59.1012460" lon="30.0471860">
<ele>73.121521</ele>
<time>2026-04-24T20:52:07.997Z</time>
</trkpt>
<trkpt lat="59.1011320" lon="30.0472980">
<ele>74.279762</ele>
<time>2026-04-24T20:52:30.996Z</time>
</trkpt>
<trkpt lat="59.1008770" lon="30.0473670">
<ele>74.157845</ele>
<time>2026-04-24T20:53:50.001Z</time>
</trkpt>
<trkpt lat="59.1007030" lon="30.0474780">
<ele>75.285599</ele>
<time>2026-04-24T20:54:33.002Z</time>
</trkpt>
<trkpt lat="59.1006870" lon="30.0473470">
<ele>72.085197</ele>
<time>2026-04-24T20:56:06.996Z</time>
</trkpt>
<trkpt lat="59.1006750" lon="30.0474430">
<ele>75.651360</ele>
<time>2026-04-24T20:56:33.003Z</time>
</trkpt>
<trkpt lat="59.1007210" lon="30.0475120">
<ele>75.681839</ele>
<time>2026-04-24T20:58:10.998Z</time>
</trkpt>
<trkpt lat="59.1005970" lon="30.0475800">
<ele>75.864716</ele>
<time>2026-04-24T20:59:51.999Z</time>
</trkpt>
<trkpt lat="59.1005660" lon="30.0477580">
<ele>75.194160</ele>
<time>2026-04-24T21:00:10.999Z</time>
</trkpt>
<trkpt lat="59.1005200" lon="30.0478150">
<ele>75.255119</ele>
<time>2026-04-24T21:00:23.000Z</time>
</trkpt>
<trkpt lat="59.1004560" lon="30.0478200">
<ele>75.559921</ele>
<time>2026-04-24T21:00:40.997Z</time>
</trkpt>
<trkpt lat="59.1002850" lon="30.0479650">
<ele>75.803757</ele>
<time>2026-04-24T21:01:12.999Z</time>
</trkpt>
<trkpt lat="59.1000390" lon="30.0483220">
<ele>75.956161</ele>
<time>2026-04-24T21:02:01.997Z</time>
</trkpt>
<trkpt lat="59.0999840" lon="30.0482440">
<ele>76.230484</ele>
<time>2026-04-24T21:02:17.998Z</time>
</trkpt>
<trkpt lat="59.0998530" lon="30.0482610">
<ele>76.504799</ele>
<time>2026-04-24T21:02:47.003Z</time>
</trkpt>
<trkpt lat="59.0997500" lon="30.0483320">
<ele>76.596237</ele>
<time>2026-04-24T21:03:03.004Z</time>
</trkpt>
<trkpt lat="59.0997110" lon="30.0484590">
<ele>76.870560</ele>
<time>2026-04-24T21:03:18.996Z</time>
</trkpt>
<trkpt lat="59.0996220" lon="30.0484470">
<ele>76.565758</ele>
<time>2026-04-24T21:04:31.002Z</time>
</trkpt>
<trkpt lat="59.0996520" lon="30.0484890">
<ele>76.779121</ele>
<time>2026-04-24T21:05:14.997Z</time>
</trkpt>
<trkpt lat="59.0996660" lon="30.0484130">
<ele>78.059280</ele>
<time>2026-04-24T21:06:15.002Z</time>
</trkpt>
<trkpt lat="59.0996390" lon="30.0484200">
<ele>77.602081</ele>
<time>2026-04-24T21:06:39.997Z</time>
</trkpt>
<trkpt lat="59.0996620" lon="30.0485360">
<ele>77.663040</ele>
<time>2026-04-24T21:07:13.002Z</time>
</trkpt>
<trkpt lat="59.0996060" lon="30.0487120">
<ele>77.784958</ele>
<time>2026-04-24T21:07:37.998Z</time>
</trkpt>
<trkpt lat="59.0996430" lon="30.0488440">
<ele>77.205841</ele>
<time>2026-04-24T21:07:52.003Z</time>
</trkpt>
<trkpt lat="59.0995530" lon="30.0491440">
<ele>76.535278</ele>
<time>2026-04-24T21:08:24.999Z</time>
</trkpt>
<trkpt lat="59.0994710" lon="30.0492160">
<ele>76.352402</ele>
<time>2026-04-24T21:08:39.998Z</time>
</trkpt>
<trkpt lat="59.0993740" lon="30.0495900">
<ele>75.864716</ele>
<time>2026-04-24T21:09:24.002Z</time>
</trkpt>
<trkpt lat="59.0992130" lon="30.0498400">
<ele>75.956161</ele>
<time>2026-04-24T21:09:55.996Z</time>
</trkpt>
<trkpt lat="59.0991950" lon="30.0502110">
<ele>75.498962</ele>
<time>2026-04-24T21:10:30.003Z</time>
</trkpt>
<trkpt lat="59.0988880" lon="30.0508020">
<ele>76.687683</ele>
<time>2026-04-24T21:11:43.996Z</time>
</trkpt>
<trkpt lat="59.0987370" lon="30.0507980">
<ele>76.535278</ele>
<time>2026-04-24T21:13:20.997Z</time>
</trkpt>
<trkpt lat="59.0988090" lon="30.0508160">
<ele>77.053444</ele>
<time>2026-04-24T21:13:57.000Z</time>
</trkpt>
<trkpt lat="59.0988590" lon="30.0507270">
<ele>76.047600</ele>
<time>2026-04-24T21:14:52.996Z</time>
</trkpt>
<trkpt lat="59.0987320" lon="30.0510060">
<ele>77.480156</ele>
<time>2026-04-24T21:15:27.003Z</time>
</trkpt>
<trkpt lat="59.0987720" lon="30.0511510">
<ele>77.175362</ele>
<time>2026-04-24T21:15:43.004Z</time>
</trkpt>
<trkpt lat="59.0985310" lon="30.0515060">
<ele>78.059280</ele>
<time>2026-04-24T21:16:36.002Z</time>
</trkpt>
<trkpt lat="59.0984260" lon="30.0519990">
<ele>76.870560</ele>
<time>2026-04-24T21:17:27.997Z</time>
</trkpt>
<trkpt lat="59.0982320" lon="30.0523900">
<ele>76.626717</ele>
<time>2026-04-24T21:18:18.999Z</time>
</trkpt>
<trkpt lat="59.0981700" lon="30.0523060">
<ele>77.449684</ele>
<time>2026-04-24T21:18:52.004Z</time>
</trkpt>
<trkpt lat="59.0981320" lon="30.0521680">
<ele>76.992485</ele>
<time>2026-04-24T21:19:06.001Z</time>
</trkpt>
<trkpt lat="59.0979420" lon="30.0522500">
<ele>76.870560</ele>
<time>2026-04-24T21:20:54.001Z</time>
</trkpt>
<trkpt lat="59.0979150" lon="30.0523310">
<ele>76.901039</ele>
<time>2026-04-24T21:21:18.996Z</time>
</trkpt>
<trkpt lat="59.0979910" lon="30.0524210">
<ele>76.748642</ele>
<time>2026-04-24T21:21:42.998Z</time>
</trkpt>
<trkpt lat="59.0979840" lon="30.0524830">
<ele>76.809601</ele>
<time>2026-04-24T21:21:53.997Z</time>
</trkpt>
<trkpt lat="59.0981100" lon="30.0525360">
<ele>76.718163</ele>
<time>2026-04-24T21:22:35.996Z</time>
</trkpt>
<trkpt lat="59.0980290" lon="30.0525340">
<ele>77.236320</ele>
<time>2026-04-24T21:22:58.996Z</time>
</trkpt>
<trkpt lat="59.0980100" lon="30.0526230">
<ele>76.382881</ele>
<time>2026-04-24T21:23:09.001Z</time>
</trkpt>
<trkpt lat="59.0981000" lon="30.0528460">
<ele>77.602081</ele>
<time>2026-04-24T21:23:40.001Z</time>
</trkpt>
<trkpt lat="59.0980660" lon="30.0528480">
<ele>75.803757</ele>
<time>2026-04-24T21:24:32.999Z</time>
</trkpt>
<trkpt lat="59.0980800" lon="30.0527600">
<ele>76.626717</ele>
<time>2026-04-24T21:25:48.996Z</time>
</trkpt>
<trkpt lat="59.0980480" lon="30.0529090">
<ele>77.114403</ele>
<time>2026-04-24T21:27:52.004Z</time>
</trkpt>
<trkpt lat="59.0979630" lon="30.0529280">
<ele>76.992485</ele>
<time>2026-04-24T21:28:15.997Z</time>
</trkpt>
<trkpt lat="59.0979290" lon="30.0528680">
<ele>77.297279</ele>
<time>2026-04-24T21:28:27.998Z</time>
</trkpt>
<trkpt lat="59.0979040" lon="30.0529270">
<ele>76.474319</ele>
<time>2026-04-24T21:28:42.997Z</time>
</trkpt>
<trkpt lat="59.0978220" lon="30.0528320">
<ele>77.388718</ele>
<time>2026-04-24T21:29:05.997Z</time>
</trkpt>
<trkpt lat="59.0977310" lon="30.0525940">
<ele>77.510643</ele>
<time>2026-04-24T21:29:44.998Z</time>
</trkpt>
<trkpt lat="59.0976690" lon="30.0526040">
<ele>77.297279</ele>
<time>2026-04-24T21:30:13.000Z</time>
</trkpt>
<trkpt lat="59.0975960" lon="30.0527050">
<ele>77.022957</ele>
<time>2026-04-24T21:30:37.002Z</time>
</trkpt>
<trkpt lat="59.0975540" lon="30.0530060">
<ele>77.053444</ele>
<time>2026-04-24T21:31:11.001Z</time>
</trkpt>
<trkpt lat="59.0974370" lon="30.0530570">
<ele>77.541115</ele>
<time>2026-04-24T21:31:47.004Z</time>
</trkpt>
<trkpt lat="59.0973720" lon="30.0532410">
<ele>77.358238</ele>
<time>2026-04-24T21:32:10.997Z</time>
</trkpt>
<trkpt lat="59.0973080" lon="30.0533190">
<ele>77.144882</ele>
<time>2026-04-24T21:32:25.002Z</time>
</trkpt>
<trkpt lat="59.0972140" lon="30.0535880">
<ele>77.754478</ele>
<time>2026-04-24T21:33:01.999Z</time>
</trkpt>
<trkpt lat="59.0971960" lon="30.0537430">
<ele>77.388718</ele>
<time>2026-04-24T21:33:24.998Z</time>
</trkpt>
<trkpt lat="59.0971350" lon="30.0537850">
<ele>77.114403</ele>
<time>2026-04-24T21:33:50.996Z</time>
</trkpt>
<trkpt lat="59.0970920" lon="30.0539090">
<ele>77.693520</ele>
<time>2026-04-24T21:34:13.002Z</time>
</trkpt>
<trkpt lat="59.0969700" lon="30.0539760">
<ele>77.602081</ele>
<time>2026-04-24T21:34:53.999Z</time>
</trkpt>
<trkpt lat="59.0968130" lon="30.0541820">
<ele>77.754478</ele>
<time>2026-04-24T21:35:31.998Z</time>
</trkpt>
<trkpt lat="59.0967700" lon="30.0541840">
<ele>77.906883</ele>
<time>2026-04-24T21:35:43.999Z</time>
</trkpt>
<trkpt lat="59.0967310" lon="30.0543950">
<ele>77.480156</ele>
<time>2026-04-24T21:36:23.000Z</time>
</trkpt>
<trkpt lat="59.0966790" lon="30.0545230">
<ele>77.541115</ele>
<time>2026-04-24T21:36:56.998Z</time>
</trkpt>
<trkpt lat="59.0967200" lon="30.0545040">
<ele>76.840080</ele>
<time>2026-04-24T21:37:27.998Z</time>
</trkpt>
<trkpt lat="59.0967000" lon="30.0545310">
<ele>77.022957</ele>
<time>2026-04-24T21:39:07.004Z</time>
</trkpt>
<trkpt lat="59.0966300" lon="30.0544160">
<ele>77.175362</ele>
<time>2026-04-24T21:40:04.002Z</time>
</trkpt>
<trkpt lat="59.0965240" lon="30.0545690">
<ele>77.480156</ele>
<time>2026-04-24T21:40:30.000Z</time>
</trkpt>
<trkpt lat="59.0960240" lon="30.0548900">
<ele>77.480156</ele>
<time>2026-04-24T21:42:31.003Z</time>
</trkpt>
<trkpt lat="59.0960090" lon="30.0548700">
<ele>77.449684</ele>
<time>2026-04-24T21:42:42.002Z</time>
</trkpt>
<trkpt lat="59.0954880" lon="30.0554240">
<ele>77.602081</ele>
<time>2026-04-24T21:44:47.999Z</time>
</trkpt>
<trkpt lat="59.0955160" lon="30.0554630">
<ele>77.449684</ele>
<time>2026-04-24T21:48:26.997Z</time>
</trkpt>
<trkpt lat="59.0954390" lon="30.0554500">
<ele>77.144882</ele>
<time>2026-04-24T21:49:30.000Z</time>
</trkpt>
<trkpt lat="59.0954000" lon="30.0555380">
<ele>76.565758</ele>
<time>2026-04-24T21:49:43.997Z</time>
</trkpt>
<trkpt lat="59.0953260" lon="30.0555220">
<ele>77.053444</ele>
<time>2026-04-24T21:49:55.998Z</time>
</trkpt>
<trkpt lat="59.0952760" lon="30.0554020">
<ele>76.809601</ele>
<time>2026-04-24T21:50:07.999Z</time>
</trkpt>
<trkpt lat="59.0951410" lon="30.0552420">
<ele>76.931519</ele>
<time>2026-04-24T21:50:29.996Z</time>
</trkpt>
<trkpt lat="59.0950260" lon="30.0549840">
<ele>77.297279</ele>
<time>2026-04-24T21:50:56.003Z</time>
</trkpt>
<trkpt lat="59.0949990" lon="30.0548700">
<ele>77.632561</ele>
<time>2026-04-24T21:51:07.001Z</time>
</trkpt>
<trkpt lat="59.0950050" lon="30.0549140">
<ele>77.571602</ele>
<time>2026-04-24T21:51:35.004Z</time>
</trkpt>
<trkpt lat="59.0952150" lon="30.0544880">
<ele>76.870560</ele>
<time>2026-04-24T21:52:37.004Z</time>
</trkpt>
<trkpt lat="59.0954340" lon="30.0542940">
<ele>76.535278</ele>
<time>2026-04-24T21:53:16.999Z</time>
</trkpt>
<trkpt lat="59.0955860" lon="30.0542150">
<ele>76.139038</ele>
<time>2026-04-24T21:53:45.001Z</time>
</trkpt>
<trkpt lat="59.0957020" lon="30.0540730">
<ele>76.108559</ele>
<time>2026-04-24T21:54:18.999Z</time>
</trkpt>
<trkpt lat="59.0957150" lon="30.0540030">
<ele>76.565758</ele>
<time>2026-04-24T21:54:28.996Z</time>
</trkpt>
<trkpt lat="59.0958910" lon="30.0539480">
<ele>76.809601</ele>
<time>2026-04-24T21:55:07.003Z</time>
</trkpt>
<trkpt lat="59.0959990" lon="30.0536530">
<ele>76.321915</ele>
<time>2026-04-24T21:56:01.003Z</time>
</trkpt>
<trkpt lat="59.0960590" lon="30.0536370">
<ele>76.443840</ele>
<time>2026-04-24T21:56:44.998Z</time>
</trkpt>
<trkpt lat="59.0960280" lon="30.0536130">
<ele>75.712318</ele>
<time>2026-04-24T21:59:25.996Z</time>
</trkpt>
<trkpt lat="59.0960900" lon="30.0535140">
<ele>76.017120</ele>
<time>2026-04-24T22:00:51.998Z</time>
</trkpt>
<trkpt lat="59.0962270" lon="30.0533860">
<ele>76.139038</ele>
<time>2026-04-24T22:01:48.996Z</time>
</trkpt>
<trkpt lat="59.0962350" lon="30.0532750">
<ele>75.925682</ele>
<time>2026-04-24T22:02:23.004Z</time>
</trkpt>
<trkpt lat="59.0963320" lon="30.0531160">
<ele>76.047600</ele>
<time>2026-04-24T22:02:49.001Z</time>
</trkpt>
<trkpt lat="59.0963250" lon="30.0530350">
<ele>76.504799</ele>
<time>2026-04-24T22:03:00.000Z</time>
</trkpt>
<trkpt lat="59.0966800" lon="30.0525790">
<ele>75.377045</ele>
<time>2026-04-24T22:04:23.998Z</time>
</trkpt>
<trkpt lat="59.0967720" lon="30.0525460">
<ele>74.919838</ele>
<time>2026-04-24T22:04:38.997Z</time>
</trkpt>
<trkpt lat="59.0969480" lon="30.0523610">
<ele>75.529442</ele>
<time>2026-04-24T22:05:28.997Z</time>
</trkpt>
<trkpt lat="59.0970820" lon="30.0520930">
<ele>75.834244</ele>
<time>2026-04-24T22:06:07.998Z</time>
</trkpt>
<trkpt lat="59.0972090" lon="30.0520870">
<ele>76.139038</ele>
<time>2026-04-24T22:06:29.002Z</time>
</trkpt>
<trkpt lat="59.0972570" lon="30.0521850">
<ele>73.700638</ele>
<time>2026-04-24T22:06:40.000Z</time>
</trkpt>
<trkpt lat="59.0973540" lon="30.0522360">
<ele>75.346558</ele>
<time>2026-04-24T22:06:57.997Z</time>
</trkpt>
<trkpt lat="59.0974500" lon="30.0521500">
<ele>75.529442</ele>
<time>2026-04-24T22:07:24.004Z</time>
</trkpt>
<trkpt lat="59.0975410" lon="30.0519310">
<ele>74.310242</ele>
<time>2026-04-24T22:07:58.996Z</time>
</trkpt>
<trkpt lat="59.0975210" lon="30.0518940">
<ele>74.645515</ele>
<time>2026-04-24T22:09:45.000Z</time>
</trkpt>
<trkpt lat="59.0975110" lon="30.0519510">
<ele>75.224640</ele>
<time>2026-04-24T22:10:40.996Z</time>
</trkpt>
<trkpt lat="59.0975620" lon="30.0519060">
<ele>74.736961</ele>
<time>2026-04-24T22:12:16.001Z</time>
</trkpt>
<trkpt lat="59.0976820" lon="30.0515730">
<ele>74.980797</ele>
<time>2026-04-24T22:12:51.002Z</time>
</trkpt>
<trkpt lat="59.0977850" lon="30.0515020">
<ele>74.554085</ele>
<time>2026-04-24T22:13:17.000Z</time>
</trkpt>
<trkpt lat="59.0977810" lon="30.0513630">
<ele>75.742798</ele>
<time>2026-04-24T22:13:41.002Z</time>
</trkpt>
<trkpt lat="59.0978340" lon="30.0513110">
<ele>74.828400</ele>
<time>2026-04-24T22:13:53.003Z</time>
</trkpt>
<trkpt lat="59.0979080" lon="30.0510820">
<ele>74.615044</ele>
<time>2026-04-24T22:14:17.998Z</time>
</trkpt>
<trkpt lat="59.0982350" lon="30.0510130">
<ele>75.224640</ele>
<time>2026-04-24T22:15:22.997Z</time>
</trkpt>
<trkpt lat="59.0985190" lon="30.0506760">
<ele>75.651360</ele>
<time>2026-04-24T22:16:28.004Z</time>
</trkpt>
<trkpt lat="59.0985560" lon="30.0505860">
<ele>75.834244</ele>
<time>2026-04-24T22:16:40.999Z</time>
</trkpt>
<trkpt lat="59.0985360" lon="30.0504680">
<ele>75.925682</ele>
<time>2026-04-24T22:16:51.997Z</time>
</trkpt>
<trkpt lat="59.0985940" lon="30.0504550">
<ele>75.834244</ele>
<time>2026-04-24T22:17:15.999Z</time>
</trkpt>
<trkpt lat="59.0985460" lon="30.0504850">
<ele>75.681839</ele>
<time>2026-04-24T22:17:36.001Z</time>
</trkpt>
<trkpt lat="59.0985310" lon="30.0503780">
<ele>75.986641</ele>
<time>2026-04-24T22:18:15.002Z</time>
</trkpt>
<trkpt lat="59.0985390" lon="30.0504190">
<ele>75.681839</ele>
<time>2026-04-24T22:18:31.997Z</time>
</trkpt>
<trkpt lat="59.0986190" lon="30.0503850">
<ele>75.620880</ele>
<time>2026-04-24T22:18:55.999Z</time>
</trkpt>
<trkpt lat="59.0986450" lon="30.0502510">
<ele>75.712318</ele>
<time>2026-04-24T22:19:36.002Z</time>
</trkpt>
<trkpt lat="59.0985460" lon="30.0503550">
<ele>75.834244</ele>
<time>2026-04-24T22:20:00.997Z</time>
</trkpt>
<trkpt lat="59.0985140" lon="30.0502980">
<ele>75.864716</ele>
<time>2026-04-24T22:20:12.998Z</time>
</trkpt>
<trkpt lat="59.0984830" lon="30.0500300">
<ele>76.017120</ele>
<time>2026-04-24T22:21:04.000Z</time>
</trkpt>
<trkpt lat="59.0984160" lon="30.0502600">
<ele>75.986641</ele>
<time>2026-04-24T22:23:00.001Z</time>
</trkpt>
<trkpt lat="59.0984130" lon="30.0503940">
<ele>75.925682</ele>
<time>2026-04-24T22:23:16.002Z</time>
</trkpt>
<trkpt lat="59.0984470" lon="30.0505060">
<ele>75.498962</ele>
<time>2026-04-24T22:23:29.999Z</time>
</trkpt>
<trkpt lat="59.0984970" lon="30.0505290">
<ele>76.047600</ele>
<time>2026-04-24T22:23:55.003Z</time>
</trkpt>
<trkpt lat="59.0985500" lon="30.0504390">
<ele>76.139038</ele>
<time>2026-04-24T22:24:18.003Z</time>
</trkpt>
<trkpt lat="59.0984830" lon="30.0505120">
<ele>76.565758</ele>
<time>2026-04-24T22:24:53.004Z</time>
</trkpt>
<trkpt lat="59.0984690" lon="30.0503590">
<ele>75.559921</ele>
<time>2026-04-24T22:25:46.001Z</time>
</trkpt>
<trkpt lat="59.0985110" lon="30.0503230">
<ele>75.864716</ele>
<time>2026-04-24T22:26:18.997Z</time>
</trkpt>
<trkpt lat="59.0984850" lon="30.0504480">
<ele>75.681839</ele>
<time>2026-04-24T22:28:18.998Z</time>
</trkpt>
<trkpt lat="59.0985960" lon="30.0505770">
<ele>76.169518</ele>
<time>2026-04-24T22:30:51.002Z</time>
</trkpt>
<trkpt lat="59.0986280" lon="30.0505220">
<ele>76.657204</ele>
<time>2026-04-24T22:31:03.996Z</time>
</trkpt>
<trkpt lat="59.0985660" lon="30.0504020">
<ele>76.504799</ele>
<time>2026-04-24T22:31:27.998Z</time>
</trkpt>
<trkpt lat="59.0985760" lon="30.0503210">
<ele>76.565758</ele>
<time>2026-04-24T22:31:38.997Z</time>
</trkpt>
<trkpt lat="59.0984850" lon="30.0502800">
<ele>75.803757</ele>
<time>2026-04-24T22:32:09.997Z</time>
</trkpt>
<trkpt lat="59.0985490" lon="30.0502260">
<ele>76.504799</ele>
<time>2026-04-24T22:32:35.002Z</time>
</trkpt>
<trkpt lat="59.0985530" lon="30.0501110">
<ele>76.840080</ele>
<time>2026-04-24T22:32:47.996Z</time>
</trkpt>
<trkpt lat="59.0985000" lon="30.0500830">
<ele>76.657204</ele>
<time>2026-04-24T22:32:59.997Z</time>
</trkpt>
<trkpt lat="59.0984840" lon="30.0499720">
<ele>76.840080</ele>
<time>2026-04-24T22:33:26.997Z</time>
</trkpt>
<trkpt lat="59.0985890" lon="30.0499160">
<ele>76.870560</ele>
<time>2026-04-24T22:33:50.999Z</time>
</trkpt>
<trkpt lat="59.0985760" lon="30.0498290">
<ele>76.840080</ele>
<time>2026-04-24T22:34:01.004Z</time>
</trkpt>
<trkpt lat="59.0984540" lon="30.0497950">
<ele>76.840080</ele>
<time>2026-04-24T22:34:24.004Z</time>
</trkpt>
<trkpt lat="59.0983240" lon="30.0499410">
<ele>76.657204</ele>
<time>2026-04-24T22:34:50.002Z</time>
</trkpt>
<trkpt lat="59.0982420" lon="30.0499500">
<ele>76.596237</ele>
<time>2026-04-24T22:35:02.996Z</time>
</trkpt>
<trkpt lat="59.0981950" lon="30.0500380">
<ele>75.986641</ele>
<time>2026-04-24T22:37:22.999Z</time>
</trkpt>
<trkpt lat="59.0979650" lon="30.0501870">
<ele>75.895203</ele>
<time>2026-04-24T22:40:33.001Z</time>
</trkpt>
<trkpt lat="59.0976190" lon="30.0505370">
<ele>75.559921</ele>
<time>2026-04-24T22:41:43.002Z</time>
</trkpt>
<trkpt lat="59.0975660" lon="30.0507220">
<ele>75.712318</ele>
<time>2026-04-24T22:42:11.998Z</time>
</trkpt>
<trkpt lat="59.0974820" lon="30.0508080">
<ele>75.346558</ele>
<time>2026-04-24T22:42:36.000Z</time>
</trkpt>
<trkpt lat="59.0973450" lon="30.0508320">
<ele>75.133202</ele>
<time>2026-04-24T22:43:12.996Z</time>
</trkpt>
<trkpt lat="59.0970880" lon="30.0512180">
<ele>75.895203</ele>
<time>2026-04-24T22:44:17.002Z</time>
</trkpt>
<trkpt lat="59.0970140" lon="30.0512140">
<ele>74.980797</ele>
<time>2026-04-24T22:44:33.003Z</time>
</trkpt>
<trkpt lat="59.0969830" lon="30.0511650">
<ele>74.767441</ele>
<time>2026-04-24T22:44:57.998Z</time>
</trkpt>
<trkpt lat="59.0969220" lon="30.0512280">
<ele>74.767441</ele>
<time>2026-04-24T22:45:12.004Z</time>
</trkpt>
<trkpt lat="59.0967440" lon="30.0510660">
<ele>74.615044</ele>
<time>2026-04-24T22:45:50.003Z</time>
</trkpt>
<trkpt lat="59.0967610" lon="30.0511120">
<ele>74.462639</ele>
<time>2026-04-24T22:46:51.001Z</time>
</trkpt>
<trkpt lat="59.0967220" lon="30.0510700">
<ele>74.767441</ele>
<time>2026-04-24T22:48:59.996Z</time>
</trkpt>
<trkpt lat="59.0966490" lon="30.0513350">
<ele>74.889359</ele>
<time>2026-04-24T22:50:05.004Z</time>
</trkpt>
<trkpt lat="59.0963660" lon="30.0513920">
<ele>74.858879</ele>
<time>2026-04-24T22:50:55.997Z</time>
</trkpt>
<trkpt lat="59.0963140" lon="30.0514590">
<ele>71.688957</ele>
<time>2026-04-24T22:51:07.998Z</time>
</trkpt>
<trkpt lat="59.0962060" lon="30.0518590">
<ele>74.858879</ele>
<time>2026-04-24T22:51:46.999Z</time>
</trkpt>
<trkpt lat="59.0960360" lon="30.0519330">
<ele>74.889359</ele>
<time>2026-04-24T22:52:30.000Z</time>
</trkpt>
<trkpt lat="59.0959700" lon="30.0520600">
<ele>75.041756</ele>
<time>2026-04-24T22:52:55.004Z</time>
</trkpt>
<trkpt lat="59.0958980" lon="30.0520560">
<ele>74.767441</ele>
<time>2026-04-24T22:53:20.000Z</time>
</trkpt>
<trkpt lat="59.0956120" lon="30.0523100">
<ele>75.559921</ele>
<time>2026-04-24T22:54:19.002Z</time>
</trkpt>
<trkpt lat="59.0955690" lon="30.0523680">
<ele>75.498962</ele>
<time>2026-04-24T22:54:32.999Z</time>
</trkpt>
<trkpt lat="59.0955210" lon="30.0525350">
<ele>75.102715</ele>
<time>2026-04-24T22:54:55.999Z</time>
</trkpt>
<trkpt lat="59.0955230" lon="30.0526060">
<ele>75.224640</ele>
<time>2026-04-24T22:55:02.997Z</time>
</trkpt>
<trkpt lat="59.0954650" lon="30.0526610">
<ele>75.072243</ele>
<time>2026-04-24T22:55:30.999Z</time>
</trkpt>
<trkpt lat="59.0953550" lon="30.0528960">
<ele>75.041756</ele>
<time>2026-04-24T22:56:08.998Z</time>
</trkpt>
<trkpt lat="59.0953530" lon="30.0529660">
<ele>74.950317</ele>
<time>2026-04-24T22:56:19.003Z</time>
</trkpt>
<trkpt lat="59.0952920" lon="30.0530440">
<ele>74.889359</ele>
<time>2026-04-24T22:56:41.001Z</time>
</trkpt>
<trkpt lat="59.0951900" lon="30.0530760">
<ele>75.041756</ele>
<time>2026-04-24T22:57:05.996Z</time>
</trkpt>
<trkpt lat="59.0950900" lon="30.0532360">
<ele>74.828400</ele>
<time>2026-04-24T22:58:00.998Z</time>
</trkpt>
<trkpt lat="59.0949990" lon="30.0535120">
<ele>76.291443</ele>
<time>2026-04-24T23:00:15.998Z</time>
</trkpt>
<trkpt lat="59.0949190" lon="30.0533990">
<ele>75.194160</ele>
<time>2026-04-24T23:00:53.004Z</time>
</trkpt>
<trkpt lat="59.0948540" lon="30.0534400">
<ele>75.316078</ele>
<time>2026-04-24T23:01:12.003Z</time>
</trkpt>
<trkpt lat="59.0946230" lon="30.0523930">
<ele>74.218803</ele>
<time>2026-04-24T23:06:55.002Z</time>
</trkpt>
<trkpt lat="59.0945940" lon="30.0522580">
<ele>73.944481</ele>
<time>2026-04-24T23:07:07.003Z</time>
</trkpt>
<trkpt lat="59.0945860" lon="30.0519380">
<ele>73.487282</ele>
<time>2026-04-24T23:07:37.001Z</time>
</trkpt>
<trkpt lat="59.0945890" lon="30.0518190">
<ele>74.401680</ele>
<time>2026-04-24T23:07:49.002Z</time>
</trkpt>
<trkpt lat="59.0947400" lon="30.0517730">
<ele>74.249283</ele>
<time>2026-04-24T23:08:16.002Z</time>
</trkpt>
<trkpt lat="59.0947950" lon="30.0516320">
<ele>73.914001</ele>
<time>2026-04-24T23:08:44.998Z</time>
</trkpt>
<trkpt lat="59.0948780" lon="30.0515740">
<ele>74.249283</ele>
<time>2026-04-24T23:08:59.004Z</time>
</trkpt>
<trkpt lat="59.0949640" lon="30.0512190">
<ele>74.005440</ele>
<time>2026-04-24T23:09:38.998Z</time>
</trkpt>
<trkpt lat="59.0950020" lon="30.0512190">
<ele>74.401680</ele>
<time>2026-04-24T23:09:52.001Z</time>
</trkpt>
<trkpt lat="59.0950820" lon="30.0510120">
<ele>73.914001</ele>
<time>2026-04-24T23:10:16.997Z</time>
</trkpt>
<trkpt lat="59.0951540" lon="30.0510670">
<ele>73.517761</ele>
<time>2026-04-24T23:10:30.000Z</time>
</trkpt>
<trkpt lat="59.0952730" lon="30.0510100">
<ele>73.853043</ele>
<time>2026-04-24T23:10:54.002Z</time>
</trkpt>
<trkpt lat="59.0953180" lon="30.0511180">
<ele>73.761597</ele>
<time>2026-04-24T23:11:06.996Z</time>
</trkpt>
<trkpt lat="59.0955080" lon="30.0508280">
<ele>73.639679</ele>
<time>2026-04-24T23:12:04.003Z</time>
</trkpt>
<trkpt lat="59.0956400" lon="30.0508330">
<ele>70.713600</ele>
<time>2026-04-24T23:12:43.004Z</time>
</trkpt>
<trkpt lat="59.0957020" lon="30.0509130">
<ele>73.426315</ele>
<time>2026-04-24T23:12:58.997Z</time>
</trkpt>
<trkpt lat="59.0959710" lon="30.0505970">
<ele>73.091042</ele>
<time>2026-04-24T23:16:25.000Z</time>
</trkpt>
<trkpt lat="59.0961420" lon="30.0505520">
<ele>72.481438</ele>
<time>2026-04-24T23:17:13.004Z</time>
</trkpt>
<trkpt lat="59.0962090" lon="30.0504000">
<ele>72.268082</ele>
<time>2026-04-24T23:18:02.002Z</time>
</trkpt>
<trkpt lat="59.0962480" lon="30.0504420">
<ele>72.298561</ele>
<time>2026-04-24T23:18:29.002Z</time>
</trkpt>
<trkpt lat="59.0963830" lon="30.0502770">
<ele>72.268082</ele>
<time>2026-04-24T23:19:36.998Z</time>
</trkpt>
<trkpt lat="59.0964170" lon="30.0503210">
<ele>72.176643</ele>
<time>2026-04-24T23:19:48.999Z</time>
</trkpt>
<trkpt lat="59.0964190" lon="30.0502870">
<ele>72.268082</ele>
<time>2026-04-24T23:19:51.997Z</time>
</trkpt>
<trkpt lat="59.0965890" lon="30.0502310">
<ele>72.024239</ele>
<time>2026-04-24T23:21:16.998Z</time>
</trkpt>
<trkpt lat="59.0966410" lon="30.0502600">
<ele>72.359520</ele>
<time>2026-04-24T23:21:27.996Z</time>
</trkpt>
<trkpt lat="59.0968310" lon="30.0501400">
<ele>71.414642</ele>
<time>2026-04-24T23:22:24.001Z</time>
</trkpt>
<trkpt lat="59.0969590" lon="30.0499670">
<ele>71.506081</ele>
<time>2026-04-24T23:36:44.001Z</time>
</trkpt>
<trkpt lat="59.0973140" lon="30.0497720">
<ele>72.085197</ele>
<time>2026-04-24T23:37:51.004Z</time>
</trkpt>
<trkpt lat="59.0974390" lon="30.0495980">
<ele>71.475601</ele>
<time>2026-04-24T23:38:28.000Z</time>
</trkpt>
<trkpt lat="59.0975640" lon="30.0495710">
<ele>71.445122</ele>
<time>2026-04-24T23:38:52.002Z</time>
</trkpt>
<trkpt lat="59.0975750" lon="30.0494280">
<ele>71.719444</ele>
<time>2026-04-24T23:39:04.003Z</time>
</trkpt>
<trkpt lat="59.0976260" lon="30.0492750">
<ele>71.384155</ele>
<time>2026-04-24T23:39:19.002Z</time>
</trkpt>
<trkpt lat="59.0978620" lon="30.0488820">
<ele>71.749916</ele>
<time>2026-04-24T23:40:09.002Z</time>
</trkpt>
<trkpt lat="59.0979520" lon="30.0488410">
<ele>71.902321</ele>
<time>2026-04-24T23:40:29.004Z</time>
</trkpt>
<trkpt lat="59.0980040" lon="30.0488930">
<ele>71.749916</ele>
<time>2026-04-24T23:40:43.000Z</time>
</trkpt>
<trkpt lat="59.0980380" lon="30.0490070">
<ele>72.389999</ele>
<time>2026-04-24T23:40:55.001Z</time>
</trkpt>
<trkpt lat="59.0981390" lon="30.0490450">
<ele>72.024239</ele>
<time>2026-04-24T23:41:34.996Z</time>
</trkpt>
<trkpt lat="59.0982790" lon="30.0493680">
<ele>72.298561</ele>
<time>2026-04-24T23:44:47.003Z</time>
</trkpt>
<trkpt lat="59.0983600" lon="30.0493930">
<ele>72.389999</ele>
<time>2026-04-24T23:45:00.999Z</time>
</trkpt>
<trkpt lat="59.0984300" lon="30.0492690">
<ele>72.633842</ele>
<time>2026-04-24T23:45:14.996Z</time>
</trkpt>
<trkpt lat="59.0986130" lon="30.0493450">
<ele>71.048882</ele>
<time>2026-04-24T23:46:01.998Z</time>
</trkpt>
<trkpt lat="59.0986560" lon="30.0492690">
<ele>72.207115</ele>
<time>2026-04-24T23:46:26.000Z</time>
</trkpt>
<trkpt lat="59.0986630" lon="30.0490520">
<ele>71.445122</ele>
<time>2026-04-24T23:46:51.004Z</time>
</trkpt>
<trkpt lat="59.0987210" lon="30.0489600">
<ele>71.597519</ele>
<time>2026-04-24T23:47:02.996Z</time>
</trkpt>
<trkpt lat="59.0990440" lon="30.0488980">
<ele>71.993759</ele>
<time>2026-04-24T23:48:15.002Z</time>
</trkpt>
<trkpt lat="59.0990920" lon="30.0488310">
<ele>71.902321</ele>
<time>2026-04-24T23:48:26.001Z</time>
</trkpt>
<trkpt lat="59.0992350" lon="30.0483490">
<ele>72.389999</ele>
<time>2026-04-24T23:49:16.000Z</time>
</trkpt>
<trkpt lat="59.0994030" lon="30.0483080">
<ele>72.938644</ele>
<time>2026-04-24T23:49:44.996Z</time>
</trkpt>
<trkpt lat="59.0995510" lon="30.0485030">
<ele>73.091042</ele>
<time>2026-04-24T23:50:14.001Z</time>
</trkpt>
<trkpt lat="59.0997620" lon="30.0484950">
<ele>72.542397</ele>
<time>2026-04-24T23:50:54.997Z</time>
</trkpt>
<trkpt lat="59.0997650" lon="30.0485490">
<ele>72.664322</ele>
<time>2026-04-24T23:51:16.001Z</time>
</trkpt>
<trkpt lat="59.0997250" lon="30.0485820">
<ele>72.847198</ele>
<time>2026-04-24T23:51:48.997Z</time>
</trkpt>
<trkpt lat="59.0997840" lon="30.0484940">
<ele>73.304398</ele>
<time>2026-04-24T23:52:38.004Z</time>
</trkpt>
<trkpt lat="59.0998320" lon="30.0485110">
<ele>73.304398</ele>
<time>2026-04-24T23:52:56.001Z</time>
</trkpt>
<trkpt lat="59.1000020" lon="30.0484180">
<ele>72.908157</ele>
<time>2026-04-24T23:53:24.003Z</time>
</trkpt>
<trkpt lat="59.1001390" lon="30.0482470">
<ele>73.060562</ele>
<time>2026-04-24T23:53:51.003Z</time>
</trkpt>
<trkpt lat="59.1001620" lon="30.0483070">
<ele>73.091042</ele>
<time>2026-04-24T23:54:05.000Z</time>
</trkpt>
<trkpt lat="59.1001500" lon="30.0485020">
<ele>72.694801</ele>
<time>2026-04-24T23:54:25.001Z</time>
</trkpt>
<trkpt lat="59.1000900" lon="30.0486660">
<ele>72.938644</ele>
<time>2026-04-24T23:54:41.003Z</time>
</trkpt>
<trkpt lat="59.0999540" lon="30.0487280">
<ele>70.744080</ele>
<time>2026-04-24T23:55:01.998Z</time>
</trkpt>
<trkpt lat="59.0998480" lon="30.0491970">
<ele>73.304398</ele>
<time>2026-04-24T23:55:39.996Z</time>
</trkpt>
<trkpt lat="59.0997760" lon="30.0492370">
<ele>73.273918</ele>
<time>2026-04-24T23:55:51.997Z</time>
</trkpt>
<trkpt lat="59.0997300" lon="30.0493480">
<ele>73.365356</ele>
<time>2026-04-24T23:56:06.003Z</time>
</trkpt>
<trkpt lat="59.0996890" lon="30.0495150">
<ele>73.243439</ele>
<time>2026-04-24T23:56:22.004Z</time>
</trkpt>
<trkpt lat="59.0996950" lon="30.0497500">
<ele>73.060562</ele>
<time>2026-04-24T23:56:40.001Z</time>
</trkpt>
<trkpt lat="59.0996490" lon="30.0499620">
<ele>73.212959</ele>
<time>2026-04-24T23:56:56.996Z</time>
</trkpt>
<trkpt lat="59.0994440" lon="30.0505630">
<ele>73.121521</ele>
<time>2026-04-24T23:57:58.003Z</time>
</trkpt>
<trkpt lat="59.0994460" lon="30.0504990">
<ele>73.395844</ele>
<time>2026-04-24T23:58:14.998Z</time>
</trkpt>
<trkpt lat="59.0994430" lon="30.0508530">
<ele>73.456802</ele>
<time>2026-04-24T23:59:03.002Z</time>
</trkpt>
<trkpt lat="59.0994120" lon="30.0509450">
<ele>73.639679</ele>
<time>2026-04-24T23:59:18.001Z</time>
</trkpt>
<trkpt lat="59.0993580" lon="30.0509550">
<ele>73.883514</ele>
<time>2026-04-25T00:00:05.996Z</time>
</trkpt>
<trkpt lat="59.0993930" lon="30.0509120">
<ele>74.096878</ele>
<time>2026-04-25T00:00:59.003Z</time>
</trkpt>
<trkpt lat="59.0994220" lon="30.0509530">
<ele>74.676003</ele>
<time>2026-04-25T00:02:12.002Z</time>
</trkpt>
<trkpt lat="59.0994640" lon="30.0511540">
<ele>74.767441</ele>
<time>2026-04-25T00:02:44.998Z</time>
</trkpt>
<trkpt lat="59.0994010" lon="30.0512530">
<ele>75.194160</ele>
<time>2026-04-25T00:03:14.003Z</time>
</trkpt>
<trkpt lat="59.0993050" lon="30.0512810">
<ele>74.858879</ele>
<time>2026-04-25T00:03:36.000Z</time>
</trkpt>
<trkpt lat="59.0990890" lon="30.0517070">
<ele>75.834244</ele>
<time>2026-04-25T00:04:47.004Z</time>
</trkpt>
<trkpt lat="59.0989630" lon="30.0522170">
<ele>76.108559</ele>
<time>2026-04-25T00:05:51.000Z</time>
</trkpt>
<trkpt lat="59.0989530" lon="30.0524350">
<ele>75.864716</ele>
<time>2026-04-25T00:06:50.996Z</time>
</trkpt>
<trkpt lat="59.0989980" lon="30.0525400">
<ele>75.834244</ele>
<time>2026-04-25T00:07:26.999Z</time>
</trkpt>
<trkpt lat="59.0989920" lon="30.0526750">
<ele>76.382881</ele>
<time>2026-04-25T00:07:47.001Z</time>
</trkpt>
<trkpt lat="59.0989300" lon="30.0527910">
<ele>76.657204</ele>
<time>2026-04-25T00:08:00.004Z</time>
</trkpt>
<trkpt lat="59.0989730" lon="30.0529960">
<ele>76.657204</ele>
<time>2026-04-25T00:08:27.004Z</time>
</trkpt>
<trkpt lat="59.0990560" lon="30.0530740">
<ele>76.657204</ele>
<time>2026-04-25T00:08:45.001Z</time>
</trkpt>
<trkpt lat="59.0991490" lon="30.0530830">
<ele>76.961998</ele>
<time>2026-04-25T00:09:01.002Z</time>
</trkpt>
<trkpt lat="59.0992010" lon="30.0527720">
<ele>76.779121</ele>
<time>2026-04-25T00:09:29.998Z</time>
</trkpt>
<trkpt lat="59.0992390" lon="30.0527850">
<ele>76.901039</ele>
<time>2026-04-25T00:09:48.997Z</time>
</trkpt>
<trkpt lat="59.0992650" lon="30.0526390">
<ele>76.840080</ele>
<time>2026-04-25T00:10:19.004Z</time>
</trkpt>
<trkpt lat="59.0993310" lon="30.0526260">
<ele>75.986641</ele>
<time>2026-04-25T00:10:33.001Z</time>
</trkpt>
<trkpt lat="59.0994510" lon="30.0522780">
<ele>76.474319</ele>
<time>2026-04-25T00:11:13.998Z</time>
</trkpt>
<trkpt lat="59.0996930" lon="30.0519040">
<ele>77.449684</ele>
<time>2026-04-25T00:12:30.004Z</time>
</trkpt>
<trkpt lat="59.0996990" lon="30.0517490">
<ele>76.504799</ele>
<time>2026-04-25T00:12:45.003Z</time>
</trkpt>
<trkpt lat="59.0997350" lon="30.0516460">
<ele>77.083916</ele>
<time>2026-04-25T00:12:59.000Z</time>
</trkpt>
<trkpt lat="59.0997350" lon="30.0515120">
<ele>76.901039</ele>
<time>2026-04-25T00:13:12.996Z</time>
</trkpt>
<trkpt lat="59.0997180" lon="30.0514600">
<ele>76.535278</ele>
<time>2026-04-25T00:13:24.997Z</time>
</trkpt>
<trkpt lat="59.0997310" lon="30.0515180">
<ele>76.961998</ele>
<time>2026-04-25T00:14:37.003Z</time>
</trkpt>
<trkpt lat="59.0997010" lon="30.0515240">
<ele>77.114403</ele>
<time>2026-04-25T00:15:45.000Z</time>
</trkpt>
<trkpt lat="59.0996800" lon="30.0513790">
<ele>77.449684</ele>
<time>2026-04-25T00:16:13.002Z</time>
</trkpt>
<trkpt lat="59.0997770" lon="30.0511340">
<ele>78.028801</ele>
<time>2026-04-25T00:16:41.998Z</time>
</trkpt>
<trkpt lat="59.0997790" lon="30.0509920">
<ele>78.272636</ele>
<time>2026-04-25T00:16:56.004Z</time>
</trkpt>
<trkpt lat="59.0998720" lon="30.0506540">
<ele>78.668884</ele>
<time>2026-04-25T00:17:42.996Z</time>
</trkpt>
<trkpt lat="59.1000170" lon="30.0504670">
<ele>78.272636</ele>
<time>2026-04-25T00:18:13.003Z</time>
</trkpt>
<trkpt lat="59.1001040" lon="30.0502200">
<ele>78.943199</ele>
<time>2026-04-25T00:18:44.997Z</time>
</trkpt>
<trkpt lat="59.1002740" lon="30.0493670">
<ele>79.430885</ele>
<time>2026-04-25T00:20:08.002Z</time>
</trkpt>
<trkpt lat="59.1003210" lon="30.0492400">
<ele>79.522316</ele>
<time>2026-04-25T00:20:21.998Z</time>
</trkpt>
<trkpt lat="59.1004440" lon="30.0491400">
<ele>79.705200</ele>
<time>2026-04-25T00:20:51.003Z</time>
</trkpt>
<trkpt lat="59.1004760" lon="30.0490140">
<ele>79.461365</ele>
<time>2026-04-25T00:21:03.997Z</time>
</trkpt>
<trkpt lat="59.1004720" lon="30.0488900">
<ele>79.278481</ele>
<time>2026-04-25T00:21:18.996Z</time>
</trkpt>
<trkpt lat="59.1004500" lon="30.0489150">
<ele>79.126083</ele>
<time>2026-04-25T00:21:34.998Z</time>
</trkpt>
<trkpt lat="59.1005470" lon="30.0488280">
<ele>79.126083</ele>
<time>2026-04-25T00:21:49.003Z</time>
</trkpt>
<trkpt lat="59.1006610" lon="30.0486090">
<ele>79.613762</ele>
<time>2026-04-25T00:22:36.998Z</time>
</trkpt>
<trkpt lat="59.1007310" lon="30.0483600">
<ele>79.278481</ele>
<time>2026-04-25T00:23:05.001Z</time>
</trkpt>
<trkpt lat="59.1007860" lon="30.0482940">
<ele>79.369919</ele>
<time>2026-04-25T00:23:20.000Z</time>
</trkpt>
<trkpt lat="59.1008410" lon="30.0483480">
<ele>78.912720</ele>
<time>2026-04-25T00:23:34.999Z</time>
</trkpt>
<trkpt lat="59.1009480" lon="30.0481780">
<ele>79.766167</ele>
<time>2026-04-25T00:24:04.003Z</time>
</trkpt>
<trkpt lat="59.1010590" lon="30.0478290">
<ele>78.973679</ele>
<time>2026-04-25T00:24:46.002Z</time>
</trkpt>
<trkpt lat="59.1011240" lon="30.0478790">
<ele>79.156563</ele>
<time>2026-04-25T00:24:59.999Z</time>
</trkpt>
<trkpt lat="59.1011440" lon="30.0480360">
<ele>79.613762</ele>
<time>2026-04-25T00:25:13.996Z</time>
</trkpt>
<trkpt lat="59.1011210" lon="30.0482500">
<ele>80.131920</ele>
<time>2026-04-25T00:25:59.002Z</time>
</trkpt>
<trkpt lat="59.1011040" lon="30.0482300">
<ele>79.735680</ele>
<time>2026-04-25T00:26:46.997Z</time>
</trkpt>
<trkpt lat="59.1011400" lon="30.0482850">
<ele>79.766167</ele>
<time>2026-04-25T00:27:24.002Z</time>
</trkpt>
<trkpt lat="59.1007280" lon="30.0488480">
<ele>80.192879</ele>
<time>2026-04-25T00:28:38.004Z</time>
</trkpt>
<trkpt lat="59.1007510" lon="30.0490510">
<ele>80.070961</ele>
<time>2026-04-25T00:28:53.003Z</time>
</trkpt>
<trkpt lat="59.1008100" lon="30.0492200">
<ele>79.949036</ele>
<time>2026-04-25T00:29:11.000Z</time>
</trkpt>
<trkpt lat="59.1006580" lon="30.0494570">
<ele>79.461365</ele>
<time>2026-04-25T00:29:47.996Z</time>
</trkpt>
<trkpt lat="59.1007130" lon="30.0498520">
<ele>80.467201</ele>
<time>2026-04-25T00:30:23.999Z</time>
</trkpt>
<trkpt lat="59.1005020" lon="30.0502310">
<ele>80.619598</ele>
<time>2026-04-25T00:31:09.998Z</time>
</trkpt>
<trkpt lat="59.1005580" lon="30.0504570">
<ele>80.375763</ele>
<time>2026-04-25T00:31:31.002Z</time>
</trkpt>
<trkpt lat="59.1005360" lon="30.0506570">
<ele>80.497681</ele>
<time>2026-04-25T00:31:47.004Z</time>
</trkpt>
<trkpt lat="59.1004170" lon="30.0509970">
<ele>80.772003</ele>
<time>2026-04-25T00:32:22.004Z</time>
</trkpt>
<trkpt lat="59.1004290" lon="30.0511270">
<ele>80.040482</ele>
<time>2026-04-25T00:32:37.003Z</time>
</trkpt>
<trkpt lat="59.1005060" lon="30.0509650">
<ele>80.497681</ele>
<time>2026-04-25T00:33:12.004Z</time>
</trkpt>
<trkpt lat="59.1005770" lon="30.0509300">
<ele>80.467201</ele>
<time>2026-04-25T00:33:27.996Z</time>
</trkpt>
<trkpt lat="59.1005470" lon="30.0508930">
<ele>80.528160</ele>
<time>2026-04-25T00:33:34.001Z</time>
</trkpt>
<trkpt lat="59.1005810" lon="30.0507690">
<ele>80.954880</ele>
<time>2026-04-25T00:33:47.998Z</time>
</trkpt>
<trkpt lat="59.1011060" lon="30.0500690">
<ele>80.711037</ele>
<time>2026-04-25T00:35:35.998Z</time>
</trkpt>
<trkpt lat="59.1012080" lon="30.0497940">
<ele>80.893921</ele>
<time>2026-04-25T00:36:31.000Z</time>
</trkpt>
<trkpt lat="59.1011980" lon="30.0496870">
<ele>81.229202</ele>
<time>2026-04-25T00:37:04.999Z</time>
</trkpt>
<trkpt lat="59.1012470" lon="30.0495890">
<ele>80.924400</ele>
<time>2026-04-25T00:37:57.003Z</time>
</trkpt>
<trkpt lat="59.1011610" lon="30.0496190">
<ele>81.991203</ele>
<time>2026-04-25T00:38:51.003Z</time>
</trkpt>
<trkpt lat="59.1011930" lon="30.0496670">
<ele>82.265518</ele>
<time>2026-04-25T00:39:40.000Z</time>
</trkpt>
<trkpt lat="59.1012320" lon="30.0495840">
<ele>82.600800</ele>
<time>2026-04-25T00:40:03.000Z</time>
</trkpt>
<trkpt lat="59.1012590" lon="30.0497300">
<ele>82.844635</ele>
<time>2026-04-25T00:41:06.003Z</time>
</trkpt>
<trkpt lat="59.1013210" lon="30.0497580">
<ele>82.844635</ele>
<time>2026-04-25T00:41:22.004Z</time>
</trkpt>
<trkpt lat="59.1014170" lon="30.0494580">
<ele>82.783684</ele>
<time>2026-04-25T00:41:49.004Z</time>
</trkpt>
<trkpt lat="59.1015930" lon="30.0491840">
<ele>82.539833</ele>
<time>2026-04-25T00:42:26.001Z</time>
</trkpt>
<trkpt lat="59.1017050" lon="30.0484390">
<ele>81.869286</ele>
<time>2026-04-25T00:43:36.002Z</time>
</trkpt>
<trkpt lat="59.1017230" lon="30.0478180">
<ele>81.290161</ele>
<time>2026-04-25T00:44:29.000Z</time>
</trkpt>
<trkpt lat="59.1018540" lon="30.0476680">
<ele>81.259682</ele>
<time>2026-04-25T00:44:58.004Z</time>
</trkpt>
<trkpt lat="59.1018940" lon="30.0477340">
<ele>80.802483</ele>
<time>2026-04-25T00:46:15.997Z</time>
</trkpt>
<trkpt lat="59.1019490" lon="30.0476110">
<ele>81.320633</ele>
<time>2026-04-25T00:47:05.997Z</time>
</trkpt>
<trkpt lat="59.1021770" lon="30.0476290">
<ele>81.076797</ele>
<time>2026-04-25T00:47:40.998Z</time>
</trkpt>
<trkpt lat="59.1024110" lon="30.0474950">
<ele>81.076797</ele>
<time>2026-04-25T00:48:14.003Z</time>
</trkpt>
<trkpt lat="59.1026180" lon="30.0474990">
<ele>80.924400</ele>
<time>2026-04-25T00:48:45.003Z</time>
</trkpt>
<trkpt lat="59.1027020" lon="30.0474130">
<ele>81.229202</ele>
<time>2026-04-25T00:49:03.000Z</time>
</trkpt>
<trkpt lat="59.1027450" lon="30.0471580">
<ele>211.592163</ele>
<time>2026-04-25T00:51:41.000Z</time>
</trkpt>
<trkpt lat="59.1026940" lon="30.0472850">
<ele>193.487030</ele>
<time>2026-04-25T00:51:50.996Z</time>
</trkpt>
</trkseg>
</trk>
<trk>
 <name>20260425_Lisa78</name>
 <desc>20260425_Lisa78</desc>
<trkseg>
<trkpt lat="59.1041020" lon="30.0526740">
<ele>71.048882</ele>
<time>2026-04-24T22:31:17.000Z</time>
</trkpt>
<trkpt lat="59.1040810" lon="30.0527640">
<ele>69.433441</ele>
<time>2026-04-24T22:31:58.999Z</time>
</trkpt>
<trkpt lat="59.1039430" lon="30.0526040">
<ele>70.957443</ele>
<time>2026-04-24T22:32:50.001Z</time>
</trkpt>
<trkpt lat="59.1038680" lon="30.0526120">
<ele>70.164963</ele>
<time>2026-04-24T22:33:22.997Z</time>
</trkpt>
<trkpt lat="59.1036450" lon="30.0528720">
<ele>72.511917</ele>
<time>2026-04-24T22:34:40.999Z</time>
</trkpt>
<trkpt lat="59.1036420" lon="30.0528060">
<ele>71.567039</ele>
<time>2026-04-24T22:36:19.996Z</time>
</trkpt>
<trkpt lat="59.1036330" lon="30.0528560">
<ele>71.262238</ele>
<time>2026-04-24T22:37:03.999Z</time>
</trkpt>
<trkpt lat="59.1035290" lon="30.0528960">
<ele>71.353683</ele>
<time>2026-04-24T22:37:37.998Z</time>
</trkpt>
<trkpt lat="59.1034890" lon="30.0529530">
<ele>72.237602</ele>
<time>2026-04-24T22:38:08.998Z</time>
</trkpt>
<trkpt lat="59.1034420" lon="30.0528720">
<ele>72.207115</ele>
<time>2026-04-24T22:38:22.001Z</time>
</trkpt>
<trkpt lat="59.1033890" lon="30.0525850">
<ele>73.792084</ele>
<time>2026-04-24T22:38:57.002Z</time>
</trkpt>
<trkpt lat="59.1032540" lon="30.0523920">
<ele>73.304398</ele>
<time>2026-04-24T22:40:52.000Z</time>
</trkpt>
<trkpt lat="59.1032640" lon="30.0519980">
<ele>70.865997</ele>
<time>2026-04-24T22:42:38.998Z</time>
</trkpt>
<trkpt lat="59.1031000" lon="30.0514450">
<ele>76.017120</ele>
<time>2026-04-24T22:46:14.998Z</time>
</trkpt>
<trkpt lat="59.1031190" lon="30.0513200">
<ele>76.260956</ele>
<time>2026-04-24T22:46:32.002Z</time>
</trkpt>
<trkpt lat="59.1030620" lon="30.0512720">
<ele>76.504799</ele>
<time>2026-04-24T22:46:44.996Z</time>
</trkpt>
<trkpt lat="59.1030050" lon="30.0511060">
<ele>74.615044</ele>
<time>2026-04-24T22:47:19.997Z</time>
</trkpt>
<trkpt lat="59.1029860" lon="30.0509100">
<ele>73.761597</ele>
<time>2026-04-24T22:48:06.998Z</time>
</trkpt>
<trkpt lat="59.1030090" lon="30.0509450">
<ele>75.834244</ele>
<time>2026-04-24T22:48:25.998Z</time>
</trkpt>
<trkpt lat="59.1029480" lon="30.0510360">
<ele>74.889359</ele>
<time>2026-04-24T22:50:11.000Z</time>
</trkpt>
<trkpt lat="59.1029460" lon="30.0509330">
<ele>76.017120</ele>
<time>2026-04-24T22:50:33.999Z</time>
</trkpt>
<trkpt lat="59.1030190" lon="30.0505980">
<ele>70.164963</ele>
<time>2026-04-24T22:51:06.002Z</time>
</trkpt>
<trkpt lat="59.1030090" lon="30.0504690">
<ele>70.164963</ele>
<time>2026-04-24T22:51:21.001Z</time>
</trkpt>
<trkpt lat="59.1029020" lon="30.0503360">
<ele>74.035919</ele>
<time>2026-04-24T22:51:46.999Z</time>
</trkpt>
<trkpt lat="59.1028540" lon="30.0503350">
<ele>75.468483</ele>
<time>2026-04-24T22:52:04.996Z</time>
</trkpt>
<trkpt lat="59.1028140" lon="30.0502380">
<ele>75.407516</ele>
<time>2026-04-24T22:52:17.999Z</time>
</trkpt>
<trkpt lat="59.1028730" lon="30.0500950">
<ele>76.291443</ele>
<time>2026-04-24T22:52:31.996Z</time>
</trkpt>
<trkpt lat="59.1027280" lon="30.0501960">
<ele>74.188316</ele>
<time>2026-04-24T22:53:33.003Z</time>
</trkpt>
<trkpt lat="59.1026470" lon="30.0499110">
<ele>69.433441</ele>
<time>2026-04-24T22:55:22.999Z</time>
</trkpt>
<trkpt lat="59.1026120" lon="30.0499760">
<ele>68.610481</ele>
<time>2026-04-24T22:56:15.996Z</time>
</trkpt>
<trkpt lat="59.1026270" lon="30.0500400">
<ele>68.214241</ele>
<time>2026-04-24T22:57:01.996Z</time>
</trkpt>
<trkpt lat="59.1026160" lon="30.0499380">
<ele>68.519043</ele>
<time>2026-04-24T22:58:22.002Z</time>
</trkpt>
<trkpt lat="59.1025970" lon="30.0500410">
<ele>69.098160</ele>
<time>2026-04-24T23:01:00.002Z</time>
</trkpt>
<trkpt lat="59.1025050" lon="30.0499790">
<ele>65.989197</ele>
<time>2026-04-24T23:02:22.004Z</time>
</trkpt>
<trkpt lat="59.1025250" lon="30.0498140">
<ele>69.402962</ele>
<time>2026-04-24T23:02:38.999Z</time>
</trkpt>
<trkpt lat="59.1025790" lon="30.0496870">
<ele>69.860161</ele>
<time>2026-04-24T23:02:53.998Z</time>
</trkpt>
<trkpt lat="59.1025020" lon="30.0495220">
<ele>74.462639</ele>
<time>2026-04-24T23:03:09.999Z</time>
</trkpt>
<trkpt lat="59.1024640" lon="30.0496020">
<ele>73.578720</ele>
<time>2026-04-24T23:03:26.001Z</time>
</trkpt>
<trkpt lat="59.1024670" lon="30.0493610">
<ele>74.401680</ele>
<time>2026-04-24T23:04:01.001Z</time>
</trkpt>
<trkpt lat="59.1023900" lon="30.0490140">
<ele>73.517761</ele>
<time>2026-04-24T23:05:07.996Z</time>
</trkpt>
<trkpt lat="59.1023490" lon="30.0490820">
<ele>73.517761</ele>
<time>2026-04-24T23:05:22.001Z</time>
</trkpt>
<trkpt lat="59.1023600" lon="30.0491900">
<ele>73.670158</ele>
<time>2026-04-24T23:05:34.996Z</time>
</trkpt>
<trkpt lat="59.1022870" lon="30.0492670">
<ele>72.877686</ele>
<time>2026-04-24T23:06:10.999Z</time>
</trkpt>
<trkpt lat="59.1022260" lon="30.0492650">
<ele>72.146156</ele>
<time>2026-04-24T23:06:29.998Z</time>
</trkpt>
<trkpt lat="59.1022920" lon="30.0489120">
<ele>71.841362</ele>
<time>2026-04-24T23:07:03.003Z</time>
</trkpt>
<trkpt lat="59.1022310" lon="30.0487820">
<ele>71.018402</ele>
<time>2026-04-24T23:07:52.000Z</time>
</trkpt>
<trkpt lat="59.1022650" lon="30.0488200">
<ele>73.365356</ele>
<time>2026-04-24T23:08:47.996Z</time>
</trkpt>
<trkpt lat="59.1022540" lon="30.0487720">
<ele>71.536560</ele>
<time>2026-04-24T23:09:29.002Z</time>
</trkpt>
<trkpt lat="59.1020370" lon="30.0491100">
<ele>74.310242</ele>
<time>2026-04-24T23:12:54.996Z</time>
</trkpt>
<trkpt lat="59.1020410" lon="30.0491500">
<ele>74.736961</ele>
<time>2026-04-24T23:13:25.003Z</time>
</trkpt>
<trkpt lat="59.1020380" lon="30.0490270">
<ele>73.974960</ele>
<time>2026-04-24T23:14:14.001Z</time>
</trkpt>
<trkpt lat="59.1020590" lon="30.0491180">
<ele>75.651360</ele>
<time>2026-04-24T23:15:33.998Z</time>
</trkpt>
<trkpt lat="59.1021430" lon="30.0490400">
<ele>74.950317</ele>
<time>2026-04-24T23:15:47.002Z</time>
</trkpt>
<trkpt lat="59.1021430" lon="30.0491310">
<ele>73.609200</ele>
<time>2026-04-24T23:16:03.003Z</time>
</trkpt>
<trkpt lat="59.1020460" lon="30.0493630">
<ele>73.974960</ele>
<time>2026-04-24T23:16:49.996Z</time>
</trkpt>
<trkpt lat="59.1020010" lon="30.0492980">
<ele>74.432159</ele>
<time>2026-04-24T23:17:02.999Z</time>
</trkpt>
<trkpt lat="59.1020140" lon="30.0495220">
<ele>73.670158</ele>
<time>2026-04-24T23:17:52.999Z</time>
</trkpt>
<trkpt lat="59.1019840" lon="30.0497590">
<ele>73.273918</ele>
<time>2026-04-24T23:18:41.996Z</time>
</trkpt>
<trkpt lat="59.1020090" lon="30.0497620">
<ele>75.011284</ele>
<time>2026-04-24T23:19:28.998Z</time>
</trkpt>
<trkpt lat="59.1019770" lon="30.0497690">
<ele>76.047600</ele>
<time>2026-04-24T23:19:43.003Z</time>
</trkpt>
<trkpt lat="59.1020000" lon="30.0498850">
<ele>75.651360</ele>
<time>2026-04-24T23:19:58.002Z</time>
</trkpt>
<trkpt lat="59.1021090" lon="30.0500730">
<ele>78.089767</ele>
<time>2026-04-24T23:20:37.997Z</time>
</trkpt>
<trkpt lat="59.1021620" lon="30.0500640">
<ele>75.559921</ele>
<time>2026-04-24T23:20:56.003Z</time>
</trkpt>
<trkpt lat="59.1020780" lon="30.0503440">
<ele>78.059280</ele>
<time>2026-04-24T23:22:06.997Z</time>
</trkpt>
<trkpt lat="59.1021920" lon="30.0504220">
<ele>80.528160</ele>
<time>2026-04-24T23:22:22.999Z</time>
</trkpt>
<trkpt lat="59.1022520" lon="30.0505490">
<ele>79.613762</ele>
<time>2026-04-24T23:22:37.004Z</time>
</trkpt>
<trkpt lat="59.1023150" lon="30.0505430">
<ele>78.821281</ele>
<time>2026-04-24T23:22:48.996Z</time>
</trkpt>
<trkpt lat="59.1023280" lon="30.0506030">
<ele>77.784958</ele>
<time>2026-04-24T23:23:04.998Z</time>
</trkpt>
<trkpt lat="59.1022790" lon="30.0508200">
<ele>71.871841</ele>
<time>2026-04-24T23:24:52.998Z</time>
</trkpt>
<trkpt lat="59.1022840" lon="30.0507450">
<ele>72.908157</ele>
<time>2026-04-24T23:25:50.998Z</time>
</trkpt>
<trkpt lat="59.1023130" lon="30.0507540">
<ele>73.152000</ele>
<time>2026-04-24T23:26:35.002Z</time>
</trkpt>
<trkpt lat="59.1022930" lon="30.0508160">
<ele>72.542397</ele>
<time>2026-04-24T23:26:55.003Z</time>
</trkpt>
<trkpt lat="59.1023380" lon="30.0507750">
<ele>73.639679</ele>
<time>2026-04-24T23:28:26.000Z</time>
</trkpt>
<trkpt lat="59.1024690" lon="30.0509450">
<ele>72.938644</ele>
<time>2026-04-24T23:29:25.002Z</time>
</trkpt>
<trkpt lat="59.1025320" lon="30.0511390">
<ele>74.615044</ele>
<time>2026-04-24T23:29:55.000Z</time>
</trkpt>
<trkpt lat="59.1025370" lon="30.0512810">
<ele>74.127357</ele>
<time>2026-04-24T23:30:08.997Z</time>
</trkpt>
<trkpt lat="59.1026400" lon="30.0515460">
<ele>72.268082</ele>
<time>2026-04-24T23:31:02.004Z</time>
</trkpt>
<trkpt lat="59.1026330" lon="30.0517540">
<ele>72.024239</ele>
<time>2026-04-24T23:31:40.996Z</time>
</trkpt>
<trkpt lat="59.1027240" lon="30.0519730">
<ele>71.201279</ele>
<time>2026-04-24T23:32:30.002Z</time>
</trkpt>
<trkpt lat="59.1027160" lon="30.0520570">
<ele>73.121521</ele>
<time>2026-04-24T23:34:07.997Z</time>
</trkpt>
<trkpt lat="59.1026960" lon="30.0520110">
<ele>71.719444</ele>
<time>2026-04-24T23:35:36.004Z</time>
</trkpt>
<trkpt lat="59.1028170" lon="30.0520110">
<ele>73.212959</ele>
<time>2026-04-24T23:37:12.003Z</time>
</trkpt>
<trkpt lat="59.1028490" lon="30.0520830">
<ele>72.877686</ele>
<time>2026-04-24T23:37:24.997Z</time>
</trkpt>
<trkpt lat="59.1027990" lon="30.0521880">
<ele>71.810883</ele>
<time>2026-04-24T23:37:39.003Z</time>
</trkpt>
<trkpt lat="59.1028080" lon="30.0523150">
<ele>71.292717</ele>
<time>2026-04-24T23:37:57.000Z</time>
</trkpt>
<trkpt lat="59.1029020" lon="30.0523250">
<ele>72.146156</ele>
<time>2026-04-24T23:38:32.001Z</time>
</trkpt>
<trkpt lat="59.1029030" lon="30.0525790">
<ele>71.445122</ele>
<time>2026-04-24T23:39:27.003Z</time>
</trkpt>
<trkpt lat="59.1028460" lon="30.0527390">
<ele>72.024239</ele>
<time>2026-04-24T23:39:54.003Z</time>
</trkpt>
<trkpt lat="59.1028730" lon="30.0528840">
<ele>73.212959</ele>
<time>2026-04-24T23:40:24.001Z</time>
</trkpt>
<trkpt lat="59.1028370" lon="30.0528930">
<ele>72.481438</ele>
<time>2026-04-24T23:42:31.000Z</time>
</trkpt>
<trkpt lat="59.1028840" lon="30.0528320">
<ele>71.292717</ele>
<time>2026-04-24T23:43:34.997Z</time>
</trkpt>
<trkpt lat="59.1028120" lon="30.0528730">
<ele>71.627998</ele>
<time>2026-04-24T23:43:49.996Z</time>
</trkpt>
<trkpt lat="59.1027130" lon="30.0527370">
<ele>70.103996</ele>
<time>2026-04-24T23:44:40.004Z</time>
</trkpt>
<trkpt lat="59.1025660" lon="30.0526630">
<ele>70.926956</ele>
<time>2026-04-24T23:47:29.996Z</time>
</trkpt>
<trkpt lat="59.1025360" lon="30.0524200">
<ele>69.585838</ele>
<time>2026-04-24T23:48:19.996Z</time>
</trkpt>
<trkpt lat="59.1024840" lon="30.0524170">
<ele>69.494400</ele>
<time>2026-04-24T23:48:34.001Z</time>
</trkpt>
<trkpt lat="59.1024310" lon="30.0525140">
<ele>69.250557</ele>
<time>2026-04-24T23:48:50.003Z</time>
</trkpt>
<trkpt lat="59.1023640" lon="30.0524130">
<ele>68.336159</ele>
<time>2026-04-24T23:49:06.997Z</time>
</trkpt>
<trkpt lat="59.1023550" lon="30.0522660">
<ele>68.336159</ele>
<time>2026-04-24T23:49:20.001Z</time>
</trkpt>
<trkpt lat="59.1023110" lon="30.0521650">
<ele>68.945763</ele>
<time>2026-04-24T23:49:30.999Z</time>
</trkpt>
<trkpt lat="59.1023010" lon="30.0518140">
<ele>69.281044</ele>
<time>2026-04-24T23:50:16.999Z</time>
</trkpt>
<trkpt lat="59.1022500" lon="30.0517630">
<ele>73.091042</ele>
<time>2026-04-24T23:51:09.003Z</time>
</trkpt>
<trkpt lat="59.1022810" lon="30.0517470">
<ele>72.024239</ele>
<time>2026-04-24T23:51:43.001Z</time>
</trkpt>
<trkpt lat="59.1022330" lon="30.0516770">
<ele>72.908157</ele>
<time>2026-04-24T23:51:56.998Z</time>
</trkpt>
<trkpt lat="59.1022110" lon="30.0512690">
<ele>71.627998</ele>
<time>2026-04-24T23:52:52.000Z</time>
</trkpt>
<trkpt lat="59.1023250" lon="30.0512410">
<ele>73.304398</ele>
<time>2026-04-24T23:53:40.998Z</time>
</trkpt>
<trkpt lat="59.1021590" lon="30.0512070">
<ele>73.273918</ele>
<time>2026-04-24T23:56:09.001Z</time>
</trkpt>
<trkpt lat="59.1020820" lon="30.0507330">
<ele>76.108559</ele>
<time>2026-04-24T23:57:14.000Z</time>
</trkpt>
<trkpt lat="59.1020080" lon="30.0506710">
<ele>74.615044</ele>
<time>2026-04-24T23:57:43.998Z</time>
</trkpt>
<trkpt lat="59.1019280" lon="30.0504130">
<ele>75.255119</ele>
<time>2026-04-24T23:58:16.000Z</time>
</trkpt>
<trkpt lat="59.1018690" lon="30.0501750">
<ele>75.346558</ele>
<time>2026-04-24T23:58:44.003Z</time>
</trkpt>
<trkpt lat="59.1018930" lon="30.0499330">
<ele>76.840080</ele>
<time>2026-04-24T23:59:19.003Z</time>
</trkpt>
<trkpt lat="59.1019530" lon="30.0498590">
<ele>78.394562</ele>
<time>2026-04-24T23:59:31.998Z</time>
</trkpt>
<trkpt lat="59.1019360" lon="30.0498900">
<ele>76.565758</ele>
<time>2026-04-24T23:59:57.002Z</time>
</trkpt>
<trkpt lat="59.1019220" lon="30.0498370">
<ele>78.089767</ele>
<time>2026-04-25T00:00:44.997Z</time>
</trkpt>
<trkpt lat="59.1019070" lon="30.0498720">
<ele>78.394562</ele>
<time>2026-04-25T00:01:45.002Z</time>
</trkpt>
<trkpt lat="59.1017510" lon="30.0497340">
<ele>78.394562</ele>
<time>2026-04-25T00:02:52.999Z</time>
</trkpt>
<trkpt lat="59.1016650" lon="30.0497580">
<ele>78.516479</ele>
<time>2026-04-25T00:03:27.999Z</time>
</trkpt>
<trkpt lat="59.1016160" lon="30.0496630">
<ele>77.693520</ele>
<time>2026-04-25T00:03:44.001Z</time>
</trkpt>
<trkpt lat="59.1014800" lon="30.0499120">
<ele>76.840080</ele>
<time>2026-04-25T00:04:32.998Z</time>
</trkpt>
<trkpt lat="59.1014760" lon="30.0499730">
<ele>78.211685</ele>
<time>2026-04-25T00:04:51.004Z</time>
</trkpt>
<trkpt lat="59.1013730" lon="30.0500770">
<ele>77.083916</ele>
<time>2026-04-25T00:05:48.002Z</time>
</trkpt>
<trkpt lat="59.1014250" lon="30.0504310">
<ele>76.565758</ele>
<time>2026-04-25T00:06:58.003Z</time>
</trkpt>
<trkpt lat="59.1015410" lon="30.0505340">
<ele>75.864716</ele>
<time>2026-04-25T00:07:29.997Z</time>
</trkpt>
<trkpt lat="59.1014760" lon="30.0507750">
<ele>73.578720</ele>
<time>2026-04-25T00:09:08.001Z</time>
</trkpt>
<trkpt lat="59.1014770" lon="30.0506910">
<ele>70.256401</ele>
<time>2026-04-25T00:10:03.003Z</time>
</trkpt>
<trkpt lat="59.1014940" lon="30.0508280">
<ele>70.622162</ele>
<time>2026-04-25T00:10:50.998Z</time>
</trkpt>
<trkpt lat="59.1015200" lon="30.0508070">
<ele>72.146156</ele>
<time>2026-04-25T00:11:27.001Z</time>
</trkpt>
<trkpt lat="59.1014610" lon="30.0508380">
<ele>73.304398</ele>
<time>2026-04-25T00:11:47.003Z</time>
</trkpt>
<trkpt lat="59.1015210" lon="30.0507240">
<ele>74.980797</ele>
<time>2026-04-25T00:13:12.996Z</time>
</trkpt>
<trkpt lat="59.1015540" lon="30.0507890">
<ele>80.650085</ele>
<time>2026-04-25T00:14:26.998Z</time>
</trkpt>
<trkpt lat="59.1015720" lon="30.0507290">
<ele>80.893921</ele>
<time>2026-04-25T00:14:53.998Z</time>
</trkpt>
<trkpt lat="59.1015470" lon="30.0507840">
<ele>81.533997</ele>
<time>2026-04-25T00:18:12.001Z</time>
</trkpt>
<trkpt lat="59.1015290" lon="30.0507070">
<ele>81.046318</ele>
<time>2026-04-25T00:18:36.996Z</time>
</trkpt>
<trkpt lat="59.1015370" lon="30.0507940">
<ele>76.321915</ele>
<time>2026-04-25T00:21:26.997Z</time>
</trkpt>
<trkpt lat="59.1015130" lon="30.0508180">
<ele>76.382881</ele>
<time>2026-04-25T00:21:53.997Z</time>
</trkpt>
<trkpt lat="59.1015540" lon="30.0507510">
<ele>77.784958</ele>
<time>2026-04-25T00:22:43.997Z</time>
</trkpt>
<trkpt lat="59.1015200" lon="30.0507220">
<ele>75.742798</ele>
<time>2026-04-25T00:23:48.002Z</time>
</trkpt>
<trkpt lat="59.1014620" lon="30.0508740">
<ele>73.914001</ele>
<time>2026-04-25T00:24:23.996Z</time>
</trkpt>
<trkpt lat="59.1014840" lon="30.0510050">
<ele>72.450958</ele>
<time>2026-04-25T00:24:42.002Z</time>
</trkpt>
<trkpt lat="59.1015390" lon="30.0510760">
<ele>72.146156</ele>
<time>2026-04-25T00:24:57.001Z</time>
</trkpt>
<trkpt lat="59.1015120" lon="30.0513030">
<ele>70.347839</ele>
<time>2026-04-25T00:25:28.001Z</time>
</trkpt>
<trkpt lat="59.1015630" lon="30.0513560">
<ele>71.384155</ele>
<time>2026-04-25T00:25:44.996Z</time>
</trkpt>
<trkpt lat="59.1016190" lon="30.0513230">
<ele>71.627998</ele>
<time>2026-04-25T00:26:03.002Z</time>
</trkpt>
<trkpt lat="59.1016710" lon="30.0514580">
<ele>74.980797</ele>
<time>2026-04-25T00:26:41.001Z</time>
</trkpt>
<trkpt lat="59.1016390" lon="30.0515050">
<ele>75.285599</ele>
<time>2026-04-25T00:28:23.998Z</time>
</trkpt>
<trkpt lat="59.1017170" lon="30.0515030">
<ele>75.011284</ele>
<time>2026-04-25T00:28:38.004Z</time>
</trkpt>
<trkpt lat="59.1017240" lon="30.0517960">
<ele>68.000885</ele>
<time>2026-04-25T00:29:23.001Z</time>
</trkpt>
<trkpt lat="59.1018500" lon="30.0518780">
<ele>68.945763</ele>
<time>2026-04-25T00:29:51.003Z</time>
</trkpt>
<trkpt lat="59.1018560" lon="30.0519790">
<ele>66.812157</ele>
<time>2026-04-25T00:30:10.996Z</time>
</trkpt>
<trkpt lat="59.1019530" lon="30.0521010">
<ele>68.701920</ele>
<time>2026-04-25T00:30:44.001Z</time>
</trkpt>
<trkpt lat="59.1021660" lon="30.0526400">
<ele>67.635117</ele>
<time>2026-04-25T00:32:22.998Z</time>
</trkpt>
<trkpt lat="59.1021030" lon="30.0526680">
<ele>67.147438</ele>
<time>2026-04-25T00:32:40.001Z</time>
</trkpt>
<trkpt lat="59.1021060" lon="30.0526310">
<ele>66.903603</ele>
<time>2026-04-25T00:32:52.996Z</time>
</trkpt>
<trkpt lat="59.1020600" lon="30.0526450">
<ele>66.354958</ele>
<time>2026-04-25T00:33:50.996Z</time>
</trkpt>
<trkpt lat="59.1020720" lon="30.0525930">
<ele>67.116959</ele>
<time>2026-04-25T00:34:33.004Z</time>
</trkpt>
<trkpt lat="59.1019900" lon="30.0527360">
<ele>67.421761</ele>
<time>2026-04-25T00:35:58.998Z</time>
</trkpt>
<trkpt lat="59.1018460" lon="30.0524440">
<ele>67.330315</ele>
<time>2026-04-25T00:36:58.000Z</time>
</trkpt>
<trkpt lat="59.1016980" lon="30.0524940">
<ele>67.177917</ele>
<time>2026-04-25T00:37:31.999Z</time>
</trkpt>
<trkpt lat="59.1016290" lon="30.0524630">
<ele>66.659760</ele>
<time>2026-04-25T00:37:49.996Z</time>
</trkpt>
<trkpt lat="59.1015900" lon="30.0523760">
<ele>65.714882</ele>
<time>2026-04-25T00:38:05.997Z</time>
</trkpt>
<trkpt lat="59.1015860" lon="30.0522570">
<ele>66.446404</ele>
<time>2026-04-25T00:38:21.998Z</time>
</trkpt>
<trkpt lat="59.1014730" lon="30.0518360">
<ele>63.215519</ele>
<time>2026-04-25T00:39:59.000Z</time>
</trkpt>
<trkpt lat="59.1014990" lon="30.0518900">
<ele>62.179199</ele>
<time>2026-04-25T00:40:16.003Z</time>
</trkpt>
<trkpt lat="59.1014890" lon="30.0519470">
<ele>62.331600</ele>
<time>2026-04-25T00:41:49.998Z</time>
</trkpt>
<trkpt lat="59.1015370" lon="30.0516140">
<ele>68.823837</ele>
<time>2026-04-25T00:42:32.999Z</time>
</trkpt>
<trkpt lat="59.1016000" lon="30.0516150">
<ele>58.155842</ele>
<time>2026-04-25T00:47:32.004Z</time>
</trkpt>
<trkpt lat="59.1015570" lon="30.0515900">
<ele>62.453518</ele>
<time>2026-04-25T00:47:47.003Z</time>
</trkpt>
<trkpt lat="59.1014590" lon="30.0518080">
<ele>72.603355</ele>
<time>2026-04-25T00:48:38.998Z</time>
</trkpt>
<trkpt lat="59.1012530" lon="30.0517920">
<ele>70.987915</ele>
<time>2026-04-25T00:49:39.003Z</time>
</trkpt>
<trkpt lat="59.1012870" lon="30.0516700">
<ele>69.860161</ele>
<time>2026-04-25T00:49:53.000Z</time>
</trkpt>
<trkpt lat="59.1011730" lon="30.0515040">
<ele>73.548241</ele>
<time>2026-04-25T00:50:41.004Z</time>
</trkpt>
<trkpt lat="59.1011680" lon="30.0514090">
<ele>72.359520</ele>
<time>2026-04-25T00:50:52.996Z</time>
</trkpt>
<trkpt lat="59.1011030" lon="30.0513920">
<ele>72.481438</ele>
<time>2026-04-25T00:51:04.003Z</time>
</trkpt>
<trkpt lat="59.1010600" lon="30.0512650">
<ele>73.030083</ele>
<time>2026-04-25T00:51:18.000Z</time>
</trkpt>
<trkpt lat="59.1011600" lon="30.0513300">
<ele>71.871841</ele>
<time>2026-04-25T00:51:45.000Z</time>
</trkpt>
<trkpt lat="59.1011100" lon="30.0514950">
<ele>75.072243</ele>
<time>2026-04-25T00:52:17.996Z</time>
</trkpt>
<trkpt lat="59.1010630" lon="30.0514370">
<ele>77.449684</ele>
<time>2026-04-25T00:52:55.001Z</time>
</trkpt>
<trkpt lat="59.1010740" lon="30.0512480">
<ele>75.407516</ele>
<time>2026-04-25T00:53:19.003Z</time>
</trkpt>
<trkpt lat="59.1010310" lon="30.0511370">
<ele>73.822556</ele>
<time>2026-04-25T00:53:34.002Z</time>
</trkpt>
<trkpt lat="59.1010590" lon="30.0507730">
<ele>71.262238</ele>
<time>2026-04-25T00:54:20.002Z</time>
</trkpt>
<trkpt lat="59.1009810" lon="30.0506990">
<ele>70.561203</ele>
<time>2026-04-25T00:54:44.004Z</time>
</trkpt>
<trkpt lat="59.1008690" lon="30.0507270">
<ele>71.323196</ele>
<time>2026-04-25T00:55:11.997Z</time>
</trkpt>
<trkpt lat="59.1007870" lon="30.0509130">
<ele>70.439285</ele>
<time>2026-04-25T00:55:41.002Z</time>
</trkpt>
<trkpt lat="59.1007670" lon="30.0510670">
<ele>68.884804</ele>
<time>2026-04-25T00:56:06.999Z</time>
</trkpt>
<trkpt lat="59.1007920" lon="30.0512640">
<ele>70.012558</ele>
<time>2026-04-25T00:56:24.003Z</time>
</trkpt>
<trkpt lat="59.1008620" lon="30.0512990">
<ele>69.738243</ele>
<time>2026-04-25T00:56:40.004Z</time>
</trkpt>
<trkpt lat="59.1010320" lon="30.0517360">
<ele>69.616318</ele>
<time>2026-04-25T00:58:08.996Z</time>
</trkpt>
<trkpt lat="59.1011000" lon="30.0517620">
<ele>71.963280</ele>
<time>2026-04-25T00:58:24.997Z</time>
</trkpt>
<trkpt lat="59.1011430" lon="30.0516610">
<ele>75.590401</ele>
<time>2026-04-25T00:59:15.999Z</time>
</trkpt>
<trkpt lat="59.1011640" lon="30.0517640">
<ele>69.982079</ele>
<time>2026-04-25T00:59:41.997Z</time>
</trkpt>
<trkpt lat="59.1011230" lon="30.0517190">
<ele>71.445122</ele>
<time>2026-04-25T01:00:23.996Z</time>
</trkpt>
<trkpt lat="59.1011280" lon="30.0518590">
<ele>70.469757</ele>
<time>2026-04-25T01:00:39.997Z</time>
</trkpt>
<trkpt lat="59.1012530" lon="30.0521250">
<ele>71.963280</ele>
<time>2026-04-25T01:01:25.997Z</time>
</trkpt>
<trkpt lat="59.1011830" lon="30.0522240">
<ele>70.073517</ele>
<time>2026-04-25T01:01:51.001Z</time>
</trkpt>
<trkpt lat="59.1011880" lon="30.0524480">
<ele>73.974960</ele>
<time>2026-04-25T01:02:12.998Z</time>
</trkpt>
<trkpt lat="59.1011450" lon="30.0525650">
<ele>72.816719</ele>
<time>2026-04-25T01:02:30.002Z</time>
</trkpt>
<trkpt lat="59.1010950" lon="30.0525730">
<ele>71.597519</ele>
<time>2026-04-25T01:02:46.003Z</time>
</trkpt>
<trkpt lat="59.1010500" lon="30.0524490">
<ele>71.384155</ele>
<time>2026-04-25T01:03:00.000Z</time>
</trkpt>
<trkpt lat="59.1009460" lon="30.0523810">
<ele>69.646797</ele>
<time>2026-04-25T01:03:27.000Z</time>
</trkpt>
<trkpt lat="59.1008120" lon="30.0523830">
<ele>68.701920</ele>
<time>2026-04-25T01:04:15.004Z</time>
</trkpt>
<trkpt lat="59.1007930" lon="30.0522940">
<ele>67.818001</ele>
<time>2026-04-25T01:05:11.000Z</time>
</trkpt>
<trkpt lat="59.1007320" lon="30.0522650">
<ele>67.238884</ele>
<time>2026-04-25T01:05:55.997Z</time>
</trkpt>
<trkpt lat="59.1007760" lon="30.0522670">
<ele>68.153282</ele>
<time>2026-04-25T01:06:48.001Z</time>
</trkpt>
<trkpt lat="59.1005440" lon="30.0518130">
<ele>68.976242</ele>
<time>2026-04-25T01:08:03.998Z</time>
</trkpt>
<trkpt lat="59.1004600" lon="30.0517940">
<ele>68.884804</ele>
<time>2026-04-25T01:08:24.000Z</time>
</trkpt>
<trkpt lat="59.1004520" lon="30.0516250">
<ele>66.659760</ele>
<time>2026-04-25T01:08:57.998Z</time>
</trkpt>
<trkpt lat="59.1003530" lon="30.0518670">
<ele>66.293999</ele>
<time>2026-04-25T01:10:55.001Z</time>
</trkpt>
<trkpt lat="59.1003560" lon="30.0518100">
<ele>65.867279</ele>
<time>2026-04-25T01:11:16.999Z</time>
</trkpt>
<trkpt lat="59.1003030" lon="30.0518450">
<ele>66.111115</ele>
<time>2026-04-25T01:11:46.997Z</time>
</trkpt>
<trkpt lat="59.1002990" lon="30.0516990">
<ele>64.434715</ele>
<time>2026-04-25T01:12:17.997Z</time>
</trkpt>
<trkpt lat="59.1002510" lon="30.0517170">
<ele>65.349121</ele>
<time>2026-04-25T01:12:32.003Z</time>
</trkpt>
<trkpt lat="59.0999380" lon="30.0522070">
<ele>70.408798</ele>
<time>2026-04-25T01:15:18.996Z</time>
</trkpt>
<trkpt lat="59.1000570" lon="30.0518830">
<ele>69.402962</ele>
<time>2026-04-25T01:18:09.999Z</time>
</trkpt>
<trkpt lat="59.1011850" lon="30.0501520">
<ele>77.571602</ele>
<time>2026-04-25T01:21:23.000Z</time>
</trkpt>
<trkpt lat="59.1016410" lon="30.0496100">
<ele>78.882233</ele>
<time>2026-04-25T01:22:22.002Z</time>
</trkpt>
<trkpt lat="59.1016510" lon="30.0494920">
<ele>78.912720</ele>
<time>2026-04-25T01:22:39.999Z</time>
</trkpt>
<trkpt lat="59.1019130" lon="30.0493070">
<ele>74.858879</ele>
<time>2026-04-25T01:23:29.999Z</time>
</trkpt>
<trkpt lat="59.1019610" lon="30.0493870">
<ele>75.133202</ele>
<time>2026-04-25T01:23:48.998Z</time>
</trkpt>
<trkpt lat="59.1021590" lon="30.0491240">
<ele>75.072243</ele>
<time>2026-04-25T01:24:57.997Z</time>
</trkpt>
<trkpt lat="59.1022900" lon="30.0487400">
<ele>74.767441</ele>
<time>2026-04-25T01:25:30.000Z</time>
</trkpt>
<trkpt lat="59.1027570" lon="30.0480420">
<ele>75.620880</ele>
<time>2026-04-25T01:26:42.999Z</time>
</trkpt>
<trkpt lat="59.1028680" lon="30.0477490">
<ele>75.925682</ele>
<time>2026-04-25T01:26:59.001Z</time>
</trkpt>
</trkseg>
</trk>
<trk>
 <name>20260425_Lisa79</name>
 <desc>20260425_Lisa79</desc>
<trkseg>
<trkpt lat="59.0853730" lon="29.9916880">
<ele>89.428322</ele>
<time>2026-04-24T21:42:47.998Z</time>
</trkpt>
<trkpt lat="59.0853660" lon="29.9922180">
<ele>81.473038</ele>
<time>2026-04-24T21:44:43.999Z</time>
</trkpt>
<trkpt lat="59.0853220" lon="29.9923830">
<ele>80.711037</ele>
<time>2026-04-24T21:45:14.999Z</time>
</trkpt>
<trkpt lat="59.0854030" lon="29.9924910">
<ele>85.039200</ele>
<time>2026-04-24T21:46:38.004Z</time>
</trkpt>
<trkpt lat="59.0852980" lon="29.9924470">
<ele>84.002884</ele>
<time>2026-04-24T21:47:00.001Z</time>
</trkpt>
<trkpt lat="59.0855300" lon="29.9927510">
<ele>89.824562</ele>
<time>2026-04-24T21:48:53.004Z</time>
</trkpt>
<trkpt lat="59.0855670" lon="29.9929240">
<ele>88.361519</ele>
<time>2026-04-24T21:49:11.001Z</time>
</trkpt>
<trkpt lat="59.0855370" lon="29.9930250">
<ele>88.879684</ele>
<time>2026-04-24T21:49:26.000Z</time>
</trkpt>
<trkpt lat="59.0855310" lon="29.9932210">
<ele>88.270081</ele>
<time>2026-04-24T21:49:42.001Z</time>
</trkpt>
<trkpt lat="59.0854970" lon="29.9934280">
<ele>88.117683</ele>
<time>2026-04-24T21:50:02.003Z</time>
</trkpt>
<trkpt lat="59.0854590" lon="29.9934900">
<ele>89.580719</ele>
<time>2026-04-24T21:50:21.002Z</time>
</trkpt>
<trkpt lat="59.0854740" lon="29.9936610">
<ele>89.885521</ele>
<time>2026-04-24T21:50:40.001Z</time>
</trkpt>
<trkpt lat="59.0853930" lon="29.9938470">
<ele>90.708481</ele>
<time>2026-04-24T21:51:19.002Z</time>
</trkpt>
<trkpt lat="59.0854060" lon="29.9939640">
<ele>90.738960</ele>
<time>2026-04-24T21:51:46.996Z</time>
</trkpt>
<trkpt lat="59.0854990" lon="29.9943180">
<ele>90.464638</ele>
<time>2026-04-24T21:52:24.001Z</time>
</trkpt>
<trkpt lat="59.0856350" lon="29.9945360">
<ele>92.171516</ele>
<time>2026-04-24T21:53:22.001Z</time>
</trkpt>
<trkpt lat="59.0856820" lon="29.9945060">
<ele>91.958160</ele>
<time>2026-04-24T21:53:47.999Z</time>
</trkpt>
<trkpt lat="59.0856060" lon="29.9946620">
<ele>95.219521</ele>
<time>2026-04-24T21:54:32.996Z</time>
</trkpt>
<trkpt lat="59.0857310" lon="29.9946100">
<ele>95.158562</ele>
<time>2026-04-24T21:55:08.999Z</time>
</trkpt>
<trkpt lat="59.0856420" lon="29.9946310">
<ele>95.067116</ele>
<time>2026-04-24T21:55:46.004Z</time>
</trkpt>
<trkpt lat="59.0856560" lon="29.9947010">
<ele>96.316803</ele>
<time>2026-04-24T21:56:38.000Z</time>
</trkpt>
<trkpt lat="59.0855870" lon="29.9948870">
<ele>96.012001</ele>
<time>2026-04-24T21:57:19.999Z</time>
</trkpt>
<trkpt lat="59.0856290" lon="29.9954160">
<ele>92.445839</ele>
<time>2026-04-24T21:58:19.001Z</time>
</trkpt>
<trkpt lat="59.0855770" lon="29.9956550">
<ele>89.489281</ele>
<time>2026-04-24T21:58:42.001Z</time>
</trkpt>
<trkpt lat="59.0853710" lon="29.9960470">
<ele>90.251282</ele>
<time>2026-04-24T21:59:53.998Z</time>
</trkpt>
<trkpt lat="59.0854100" lon="29.9961950">
<ele>92.720161</ele>
<time>2026-04-24T22:00:18.000Z</time>
</trkpt>
<trkpt lat="59.0853960" lon="29.9961930">
<ele>96.164398</ele>
<time>2026-04-24T22:00:46.996Z</time>
</trkpt>
<trkpt lat="59.0854040" lon="29.9961160">
<ele>94.823280</ele>
<time>2026-04-24T22:01:17.996Z</time>
</trkpt>
<trkpt lat="59.0856120" lon="29.9961340">
<ele>92.019119</ele>
<time>2026-04-24T22:01:53.999Z</time>
</trkpt>
<trkpt lat="59.0857380" lon="29.9963480">
<ele>89.519760</ele>
<time>2026-04-24T22:02:33.000Z</time>
</trkpt>
<trkpt lat="59.0859350" lon="29.9964450">
<ele>90.738960</ele>
<time>2026-04-24T22:03:32.996Z</time>
</trkpt>
<trkpt lat="59.0859170" lon="29.9967560">
<ele>91.135201</ele>
<time>2026-04-24T22:04:34.003Z</time>
</trkpt>
<trkpt lat="59.0858040" lon="29.9972800">
<ele>86.776566</ele>
<time>2026-04-24T22:05:24.996Z</time>
</trkpt>
<trkpt lat="59.0857970" lon="29.9976140">
<ele>87.294716</ele>
<time>2026-04-24T22:05:56.999Z</time>
</trkpt>
<trkpt lat="59.0858410" lon="29.9976760">
<ele>88.148163</ele>
<time>2026-04-24T22:06:27.999Z</time>
</trkpt>
<trkpt lat="59.0857970" lon="29.9976420">
<ele>90.982803</ele>
<time>2026-04-24T22:07:31.002Z</time>
</trkpt>
<trkpt lat="59.0858340" lon="29.9976550">
<ele>89.550240</ele>
<time>2026-04-24T22:08:05.001Z</time>
</trkpt>
<trkpt lat="59.0858430" lon="29.9978570">
<ele>88.971115</ele>
<time>2026-04-24T22:08:51.000Z</time>
</trkpt>
<trkpt lat="59.0859750" lon="29.9979680">
<ele>86.471764</ele>
<time>2026-04-24T22:09:15.002Z</time>
</trkpt>
<trkpt lat="59.0860290" lon="29.9981720">
<ele>85.770721</ele>
<time>2026-04-24T22:11:02.000Z</time>
</trkpt>
<trkpt lat="59.0859740" lon="29.9983000">
<ele>84.947762</ele>
<time>2026-04-24T22:11:20.999Z</time>
</trkpt>
<trkpt lat="59.0859090" lon="29.9983290">
<ele>87.447121</ele>
<time>2026-04-24T22:12:32.003Z</time>
</trkpt>
<trkpt lat="59.0858410" lon="29.9980410">
<ele>86.258400</ele>
<time>2026-04-24T22:13:07.997Z</time>
</trkpt>
<trkpt lat="59.0858180" lon="29.9976500">
<ele>84.246719</ele>
<time>2026-04-24T22:14:05.997Z</time>
</trkpt>
<trkpt lat="59.0858510" lon="29.9978030">
<ele>82.936081</ele>
<time>2026-04-24T22:14:56.999Z</time>
</trkpt>
<trkpt lat="59.0858720" lon="29.9981590">
<ele>80.375763</ele>
<time>2026-04-24T22:15:32.000Z</time>
</trkpt>
<trkpt lat="59.0857790" lon="29.9982500">
<ele>82.966560</ele>
<time>2026-04-24T22:15:57.997Z</time>
</trkpt>
<trkpt lat="59.0857890" lon="29.9983770">
<ele>83.027519</ele>
<time>2026-04-24T22:16:21.999Z</time>
</trkpt>
<trkpt lat="59.0857550" lon="29.9984310">
<ele>82.235039</ele>
<time>2026-04-24T22:16:35.003Z</time>
</trkpt>
<trkpt lat="59.0857150" lon="29.9983460">
<ele>80.528160</ele>
<time>2026-04-24T22:16:50.002Z</time>
</trkpt>
<trkpt lat="59.0856430" lon="29.9983600">
<ele>78.638397</ele>
<time>2026-04-24T22:17:05.001Z</time>
</trkpt>
<trkpt lat="59.0855060" lon="29.9985800">
<ele>82.417915</ele>
<time>2026-04-24T22:17:45.004Z</time>
</trkpt>
<trkpt lat="59.0854420" lon="29.9986040">
<ele>84.825836</ele>
<time>2026-04-24T22:18:00.996Z</time>
</trkpt>
<trkpt lat="59.0854510" lon="29.9987440">
<ele>85.435440</ele>
<time>2026-04-24T22:18:16.004Z</time>
</trkpt>
<trkpt lat="59.0855320" lon="29.9989190">
<ele>84.002884</ele>
<time>2026-04-24T22:19:10.998Z</time>
</trkpt>
<trkpt lat="59.0855270" lon="29.9988040">
<ele>81.107285</ele>
<time>2026-04-24T22:19:56.997Z</time>
</trkpt>
<trkpt lat="59.0854980" lon="29.9987520">
<ele>78.821281</ele>
<time>2026-04-24T22:20:24.999Z</time>
</trkpt>
<trkpt lat="59.0855180" lon="29.9986630">
<ele>78.973679</ele>
<time>2026-04-24T22:21:23.000Z</time>
</trkpt>
<trkpt lat="59.0855560" lon="29.9986670">
<ele>80.131920</ele>
<time>2026-04-24T22:21:48.997Z</time>
</trkpt>
<trkpt lat="59.0855340" lon="29.9985830">
<ele>82.417915</ele>
<time>2026-04-24T22:22:49.002Z</time>
</trkpt>
<trkpt lat="59.0854860" lon="29.9986610">
<ele>83.911438</ele>
<time>2026-04-24T22:23:17.998Z</time>
</trkpt>
<trkpt lat="59.0854860" lon="29.9985960">
<ele>87.203285</ele>
<time>2026-04-24T22:24:10.996Z</time>
</trkpt>
<trkpt lat="59.0855050" lon="29.9986730">
<ele>87.294716</ele>
<time>2026-04-24T22:24:52.001Z</time>
</trkpt>
<trkpt lat="59.0854740" lon="29.9987340">
<ele>86.715599</ele>
<time>2026-04-24T22:25:42.001Z</time>
</trkpt>
<trkpt lat="59.0855800" lon="29.9988330">
<ele>85.709763</ele>
<time>2026-04-24T22:26:30.998Z</time>
</trkpt>
<trkpt lat="59.0855150" lon="29.9988890">
<ele>84.185760</ele>
<time>2026-04-24T22:27:00.003Z</time>
</trkpt>
<trkpt lat="59.0855210" lon="29.9990320">
<ele>82.174080</ele>
<time>2026-04-24T22:27:24.998Z</time>
</trkpt>
<trkpt lat="59.0855920" lon="29.9992610">
<ele>80.467201</ele>
<time>2026-04-24T22:28:37.998Z</time>
</trkpt>
<trkpt lat="59.0856290" lon="29.9991630">
<ele>80.985367</ele>
<time>2026-04-24T22:29:04.004Z</time>
</trkpt>
<trkpt lat="59.0855550" lon="29.9993450">
<ele>82.082634</ele>
<time>2026-04-24T22:29:34.002Z</time>
</trkpt>
<trkpt lat="59.0855810" lon="29.9993750">
<ele>81.625435</ele>
<time>2026-04-24T22:30:06.998Z</time>
</trkpt>
<trkpt lat="59.0857020" lon="29.9992690">
<ele>80.436722</ele>
<time>2026-04-24T22:30:52.004Z</time>
</trkpt>
<trkpt lat="59.0857230" lon="29.9990660">
<ele>82.539833</ele>
<time>2026-04-24T22:31:53.003Z</time>
</trkpt>
<trkpt lat="59.0856710" lon="29.9992560">
<ele>81.046318</ele>
<time>2026-04-24T22:33:42.998Z</time>
</trkpt>
<trkpt lat="59.0855670" lon="29.9993560">
<ele>79.583282</ele>
<time>2026-04-24T22:34:08.003Z</time>
</trkpt>
<trkpt lat="59.0855580" lon="29.9994200">
<ele>82.753197</ele>
<time>2026-04-24T22:34:31.996Z</time>
</trkpt>
<trkpt lat="59.0856880" lon="29.9993530">
<ele>84.063835</ele>
<time>2026-04-24T22:36:26.001Z</time>
</trkpt>
<trkpt lat="59.0857570" lon="29.9992420">
<ele>83.240883</ele>
<time>2026-04-24T22:36:43.004Z</time>
</trkpt>
<trkpt lat="59.0857940" lon="29.9988720">
<ele>82.265518</ele>
<time>2026-04-24T22:37:28.001Z</time>
</trkpt>
<trkpt lat="59.0858100" lon="29.9989220">
<ele>82.844635</ele>
<time>2026-04-24T22:37:59.002Z</time>
</trkpt>
<trkpt lat="59.0857950" lon="29.9990580">
<ele>85.191597</ele>
<time>2026-04-24T22:38:31.004Z</time>
</trkpt>
<trkpt lat="59.0857640" lon="29.9987070">
<ele>87.690964</ele>
<time>2026-04-24T22:40:50.998Z</time>
</trkpt>
<trkpt lat="59.0859040" lon="29.9984860">
<ele>86.654633</ele>
<time>2026-04-24T22:42:17.001Z</time>
</trkpt>
<trkpt lat="59.0859370" lon="29.9982380">
<ele>84.185760</ele>
<time>2026-04-24T22:43:24.997Z</time>
</trkpt>
<trkpt lat="59.0860050" lon="29.9983010">
<ele>80.650085</ele>
<time>2026-04-24T22:44:56.003Z</time>
</trkpt>
<trkpt lat="59.0860550" lon="29.9984260">
<ele>80.223366</ele>
<time>2026-04-24T22:45:12.997Z</time>
</trkpt>
<trkpt lat="59.0861590" lon="29.9984130">
<ele>83.210403</ele>
<time>2026-04-24T22:47:07.002Z</time>
</trkpt>
<trkpt lat="59.0861110" lon="29.9985540">
<ele>85.100166</ele>
<time>2026-04-24T22:47:38.996Z</time>
</trkpt>
<trkpt lat="59.0857250" lon="29.9990000">
<ele>76.291443</ele>
<time>2026-04-24T22:50:00.001Z</time>
</trkpt>
<trkpt lat="59.0855960" lon="29.9992060">
<ele>77.937363</ele>
<time>2026-04-24T22:51:00.999Z</time>
</trkpt>
<trkpt lat="59.0859030" lon="29.9995500">
<ele>77.205841</ele>
<time>2026-04-24T22:52:43.003Z</time>
</trkpt>
<trkpt lat="59.0860810" lon="29.9995070">
<ele>78.516479</ele>
<time>2026-04-24T22:53:25.002Z</time>
</trkpt>
<trkpt lat="59.0861620" lon="29.9993300">
<ele>79.308960</ele>
<time>2026-04-24T22:53:56.996Z</time>
</trkpt>
<trkpt lat="59.0862150" lon="29.9998640">
<ele>80.040482</ele>
<time>2026-04-24T22:55:53.999Z</time>
</trkpt>
<trkpt lat="59.0862730" lon="29.9998150">
<ele>78.577438</ele>
<time>2026-04-24T22:56:10.000Z</time>
</trkpt>
<trkpt lat="59.0861470" lon="30.0002990">
<ele>79.522316</ele>
<time>2026-04-24T22:59:11.000Z</time>
</trkpt>
<trkpt lat="59.0862000" lon="30.0002670">
<ele>83.606636</ele>
<time>2026-04-24T23:00:36.000Z</time>
</trkpt>
<trkpt lat="59.0861430" lon="30.0003320">
<ele>80.558640</ele>
<time>2026-04-24T23:02:20.000Z</time>
</trkpt>
<trkpt lat="59.0861790" lon="30.0004910">
<ele>81.808319</ele>
<time>2026-04-24T23:03:03.001Z</time>
</trkpt>
<trkpt lat="59.0861800" lon="30.0007210">
<ele>82.722717</ele>
<time>2026-04-24T23:03:23.003Z</time>
</trkpt>
<trkpt lat="59.0861160" lon="30.0011760">
<ele>80.528160</ele>
<time>2026-04-24T23:03:59.999Z</time>
</trkpt>
<trkpt lat="59.0861400" lon="30.0014550">
<ele>77.967842</ele>
<time>2026-04-24T23:04:36.002Z</time>
</trkpt>
<trkpt lat="59.0861000" lon="30.0015280">
<ele>78.150719</ele>
<time>2026-04-24T23:04:52.003Z</time>
</trkpt>
<trkpt lat="59.0860880" lon="30.0017640">
<ele>75.590401</ele>
<time>2026-04-24T23:05:34.002Z</time>
</trkpt>
<trkpt lat="59.0861570" lon="30.0021580">
<ele>68.854317</ele>
<time>2026-04-24T23:06:05.003Z</time>
</trkpt>
<trkpt lat="59.0862280" lon="30.0022830">
<ele>69.890640</ele>
<time>2026-04-24T23:06:25.004Z</time>
</trkpt>
<trkpt lat="59.0864330" lon="30.0021530">
<ele>71.688957</ele>
<time>2026-04-24T23:07:02.001Z</time>
</trkpt>
<trkpt lat="59.0864940" lon="30.0021290">
<ele>74.188316</ele>
<time>2026-04-24T23:07:26.996Z</time>
</trkpt>
<trkpt lat="59.0865000" lon="30.0021780">
<ele>74.554085</ele>
<time>2026-04-24T23:07:48.000Z</time>
</trkpt>
<trkpt lat="59.0865090" lon="30.0024540">
<ele>74.340721</ele>
<time>2026-04-24T23:08:21.998Z</time>
</trkpt>
<trkpt lat="59.0864680" lon="30.0028760">
<ele>74.066399</ele>
<time>2026-04-24T23:09:21.001Z</time>
</trkpt>
<trkpt lat="59.0864000" lon="30.0029830">
<ele>74.919838</ele>
<time>2026-04-24T23:09:37.002Z</time>
</trkpt>
<trkpt lat="59.0862880" lon="30.0036100">
<ele>74.096878</ele>
<time>2026-04-24T23:10:59.998Z</time>
</trkpt>
<trkpt lat="59.0863150" lon="30.0036660">
<ele>74.249283</ele>
<time>2026-04-24T23:11:14.004Z</time>
</trkpt>
<trkpt lat="59.0863630" lon="30.0036460">
<ele>74.218803</ele>
<time>2026-04-24T23:11:29.003Z</time>
</trkpt>
<trkpt lat="59.0863970" lon="30.0037240">
<ele>74.066399</ele>
<time>2026-04-24T23:11:49.998Z</time>
</trkpt>
<trkpt lat="59.0866440" lon="30.0037550">
<ele>74.340721</ele>
<time>2026-04-24T23:13:05.002Z</time>
</trkpt>
<trkpt lat="59.0865510" lon="30.0041700">
<ele>72.237602</ele>
<time>2026-04-24T23:14:20.999Z</time>
</trkpt>
<trkpt lat="59.0866260" lon="30.0047060">
<ele>71.109840</ele>
<time>2026-04-24T23:15:40.003Z</time>
</trkpt>
<trkpt lat="59.0865610" lon="30.0049210">
<ele>71.353683</ele>
<time>2026-04-24T23:16:57.003Z</time>
</trkpt>
<trkpt lat="59.0864820" lon="30.0049360">
<ele>74.706482</ele>
<time>2026-04-24T23:18:11.998Z</time>
</trkpt>
<trkpt lat="59.0865610" lon="30.0049560">
<ele>73.883514</ele>
<time>2026-04-24T23:18:49.997Z</time>
</trkpt>
<trkpt lat="59.0867930" lon="30.0048680">
<ele>72.085197</ele>
<time>2026-04-24T23:20:10.997Z</time>
</trkpt>
<trkpt lat="59.0868280" lon="30.0047810">
<ele>71.932800</ele>
<time>2026-04-24T23:20:25.002Z</time>
</trkpt>
<trkpt lat="59.0868210" lon="30.0046290">
<ele>75.133202</ele>
<time>2026-04-24T23:20:51.000Z</time>
</trkpt>
<trkpt lat="59.0868490" lon="30.0046680">
<ele>77.175362</ele>
<time>2026-04-24T23:21:16.998Z</time>
</trkpt>
<trkpt lat="59.0867500" lon="30.0046590">
<ele>76.961998</ele>
<time>2026-04-24T23:21:35.004Z</time>
</trkpt>
<trkpt lat="59.0866630" lon="30.0045310">
<ele>72.268082</ele>
<time>2026-04-24T23:22:09.002Z</time>
</trkpt>
<trkpt lat="59.0865940" lon="30.0046190">
<ele>72.664322</ele>
<time>2026-04-24T23:23:00.004Z</time>
</trkpt>
<trkpt lat="59.0865520" lon="30.0049180">
<ele>71.506081</ele>
<time>2026-04-24T23:24:02.998Z</time>
</trkpt>
<trkpt lat="59.0865770" lon="30.0049500">
<ele>71.627998</ele>
<time>2026-04-24T23:24:20.002Z</time>
</trkpt>
<trkpt lat="59.0865910" lon="30.0051520">
<ele>69.524879</ele>
<time>2026-04-24T23:25:03.003Z</time>
</trkpt>
<trkpt lat="59.0866280" lon="30.0053190">
<ele>71.201279</ele>
<time>2026-04-24T23:25:38.004Z</time>
</trkpt>
<trkpt lat="59.0865890" lon="30.0051880">
<ele>71.170799</ele>
<time>2026-04-24T23:26:39.002Z</time>
</trkpt>
<trkpt lat="59.0866250" lon="30.0051580">
<ele>75.011284</ele>
<time>2026-04-24T23:27:37.996Z</time>
</trkpt>
<trkpt lat="59.0865120" lon="30.0051350">
<ele>72.298561</ele>
<time>2026-04-24T23:28:16.003Z</time>
</trkpt>
<trkpt lat="59.0864120" lon="30.0051440">
<ele>70.439285</ele>
<time>2026-04-24T23:28:35.003Z</time>
</trkpt>
<trkpt lat="59.0860550" lon="30.0054670">
<ele>66.111115</ele>
<time>2026-04-24T23:29:42.999Z</time>
</trkpt>
<trkpt lat="59.0860200" lon="30.0053550">
<ele>67.147438</ele>
<time>2026-04-24T23:29:56.003Z</time>
</trkpt>
<trkpt lat="59.0860460" lon="30.0052180">
<ele>68.244720</ele>
<time>2026-04-24T23:30:32.999Z</time>
</trkpt>
<trkpt lat="59.0860320" lon="30.0052860">
<ele>67.147438</ele>
<time>2026-04-24T23:31:06.997Z</time>
</trkpt>
<trkpt lat="59.0860200" lon="30.0048680">
<ele>67.208397</ele>
<time>2026-04-24T23:32:14.001Z</time>
</trkpt>
<trkpt lat="59.0859130" lon="30.0043980">
<ele>67.421761</ele>
<time>2026-04-24T23:33:08.001Z</time>
</trkpt>
<trkpt lat="59.0858730" lon="30.0037710">
<ele>69.128639</ele>
<time>2026-04-24T23:34:30.003Z</time>
</trkpt>
<trkpt lat="59.0857400" lon="30.0035610">
<ele>72.786240</ele>
<time>2026-04-24T23:35:00.001Z</time>
</trkpt>
<trkpt lat="59.0857820" lon="30.0034150">
<ele>72.969116</ele>
<time>2026-04-24T23:35:16.002Z</time>
</trkpt>
<trkpt lat="59.0858590" lon="30.0034440">
<ele>77.693520</ele>
<time>2026-04-24T23:36:00.999Z</time>
</trkpt>
<trkpt lat="59.0857630" lon="30.0030490">
<ele>86.715599</ele>
<time>2026-04-24T23:38:06.996Z</time>
</trkpt>
<trkpt lat="59.0856500" lon="30.0030810">
<ele>85.222084</ele>
<time>2026-04-24T23:38:38.999Z</time>
</trkpt>
<trkpt lat="59.0856730" lon="30.0028940">
<ele>81.503517</ele>
<time>2026-04-24T23:38:56.996Z</time>
</trkpt>
<trkpt lat="59.0856500" lon="30.0028510">
<ele>81.625435</ele>
<time>2026-04-24T23:39:14.000Z</time>
</trkpt>
<trkpt lat="59.0857270" lon="30.0027780">
<ele>82.661766</ele>
<time>2026-04-24T23:39:36.999Z</time>
</trkpt>
<trkpt lat="59.0857960" lon="30.0026300">
<ele>81.808319</ele>
<time>2026-04-24T23:39:54.996Z</time>
</trkpt>
<trkpt lat="59.0857770" lon="30.0024180">
<ele>81.381599</ele>
<time>2026-04-24T23:40:14.998Z</time>
</trkpt>
<trkpt lat="59.0857180" lon="30.0022460">
<ele>79.491837</ele>
<time>2026-04-24T23:40:33.004Z</time>
</trkpt>
<trkpt lat="59.0855570" lon="30.0014640">
<ele>76.382881</ele>
<time>2026-04-24T23:41:42.996Z</time>
</trkpt>
<trkpt lat="59.0855410" lon="30.0009670">
<ele>81.168236</ele>
<time>2026-04-24T23:42:54.000Z</time>
</trkpt>
<trkpt lat="59.0855840" lon="30.0006830">
<ele>80.497681</ele>
<time>2026-04-24T23:43:30.996Z</time>
</trkpt>
<trkpt lat="59.0854940" lon="30.0003830">
<ele>82.082634</ele>
<time>2026-04-24T23:44:05.004Z</time>
</trkpt>
<trkpt lat="59.0856670" lon="30.0001400">
<ele>79.644234</ele>
<time>2026-04-24T23:45:03.997Z</time>
</trkpt>
<trkpt lat="59.0856440" lon="30.0000420">
<ele>79.308960</ele>
<time>2026-04-24T23:45:15.998Z</time>
</trkpt>
<trkpt lat="59.0855100" lon="29.9998780">
<ele>78.272636</ele>
<time>2026-04-24T23:45:42.998Z</time>
</trkpt>
<trkpt lat="59.0855270" lon="29.9996470">
<ele>78.790802</ele>
<time>2026-04-24T23:46:05.998Z</time>
</trkpt>
<trkpt lat="59.0855720" lon="29.9995770">
<ele>80.375763</ele>
<time>2026-04-24T23:46:24.004Z</time>
</trkpt>
<trkpt lat="59.0854880" lon="29.9994760">
<ele>84.063835</ele>
<time>2026-04-24T23:47:59.001Z</time>
</trkpt>
<trkpt lat="59.0855020" lon="29.9993450">
<ele>83.911438</ele>
<time>2026-04-24T23:48:14.000Z</time>
</trkpt>
<trkpt lat="59.0853710" lon="29.9990600">
<ele>83.118965</ele>
<time>2026-04-24T23:49:26.999Z</time>
</trkpt>
<trkpt lat="59.0853380" lon="29.9987720">
<ele>84.612480</ele>
<time>2026-04-24T23:50:00.004Z</time>
</trkpt>
<trkpt lat="59.0854370" lon="29.9985880">
<ele>82.600800</ele>
<time>2026-04-24T23:51:47.002Z</time>
</trkpt>
<trkpt lat="59.0855050" lon="29.9985630">
<ele>81.564484</ele>
<time>2026-04-24T23:52:07.003Z</time>
</trkpt>
<trkpt lat="59.0853740" lon="29.9982960">
<ele>81.198715</ele>
<time>2026-04-24T23:52:37.001Z</time>
</trkpt>
<trkpt lat="59.0853670" lon="29.9981300">
<ele>80.131920</ele>
<time>2026-04-24T23:52:53.003Z</time>
</trkpt>
<trkpt lat="59.0853050" lon="29.9979490">
<ele>77.083916</ele>
<time>2026-04-24T23:53:13.004Z</time>
</trkpt>
<trkpt lat="59.0853120" lon="29.9975500">
<ele>75.011284</ele>
<time>2026-04-24T23:53:46.000Z</time>
</trkpt>
<trkpt lat="59.0852800" lon="29.9973910">
<ele>73.670158</ele>
<time>2026-04-24T23:54:02.002Z</time>
</trkpt>
<trkpt lat="59.0851130" lon="29.9970370">
<ele>76.779121</ele>
<time>2026-04-24T23:54:57.997Z</time>
</trkpt>
<trkpt lat="59.0851970" lon="29.9968260">
<ele>79.217522</ele>
<time>2026-04-24T23:55:15.001Z</time>
</trkpt>
<trkpt lat="59.0852330" lon="29.9965400">
<ele>79.004166</ele>
<time>2026-04-24T23:55:42.001Z</time>
</trkpt>
<trkpt lat="59.0852100" lon="29.9962650">
<ele>83.728561</ele>
<time>2026-04-24T23:56:29.003Z</time>
</trkpt>
<trkpt lat="59.0852300" lon="29.9962260">
<ele>84.033363</ele>
<time>2026-04-24T23:56:44.002Z</time>
</trkpt>
<trkpt lat="59.0851410" lon="29.9960560">
<ele>84.917282</ele>
<time>2026-04-24T23:57:19.996Z</time>
</trkpt>
<trkpt lat="59.0851400" lon="29.9958210">
<ele>83.088478</ele>
<time>2026-04-24T23:58:40.996Z</time>
</trkpt>
<trkpt lat="59.0850620" lon="29.9955730">
<ele>82.905602</ele>
<time>2026-04-24T23:59:31.004Z</time>
</trkpt>
<trkpt lat="59.0850950" lon="29.9955390">
<ele>85.404961</ele>
<time>2026-04-25T00:00:35.001Z</time>
</trkpt>
<trkpt lat="59.0851010" lon="29.9954340">
<ele>88.056717</ele>
<time>2026-04-25T00:00:54.000Z</time>
</trkpt>
<trkpt lat="59.0850420" lon="29.9952610">
<ele>87.325203</ele>
<time>2026-04-25T00:01:15.997Z</time>
</trkpt>
<trkpt lat="59.0849800" lon="29.9946110">
<ele>87.325203</ele>
<time>2026-04-25T00:02:54.001Z</time>
</trkpt>
<trkpt lat="59.0850420" lon="29.9942070">
<ele>90.251282</ele>
<time>2026-04-25T00:03:45.003Z</time>
</trkpt>
<trkpt lat="59.0848900" lon="29.9940760">
<ele>89.123520</ele>
<time>2026-04-25T00:04:12.003Z</time>
</trkpt>
<trkpt lat="59.0848760" lon="29.9936810">
<ele>87.142319</ele>
<time>2026-04-25T00:04:48.999Z</time>
</trkpt>
<trkpt lat="59.0847770" lon="29.9933160">
<ele>89.062561</ele>
<time>2026-04-25T00:05:30.998Z</time>
</trkpt>
<trkpt lat="59.0847670" lon="29.9931710">
<ele>90.281761</ele>
<time>2026-04-25T00:05:52.002Z</time>
</trkpt>
<trkpt lat="59.0847190" lon="29.9930730">
<ele>91.561920</ele>
<time>2026-04-25T00:06:11.002Z</time>
</trkpt>
<trkpt lat="59.0847760" lon="29.9929920">
<ele>91.622879</ele>
<time>2026-04-25T00:06:24.998Z</time>
</trkpt>
<trkpt lat="59.0847740" lon="29.9928100">
<ele>90.617035</ele>
<time>2026-04-25T00:06:43.998Z</time>
</trkpt>
<trkpt lat="59.0847140" lon="29.9928860">
<ele>91.043762</ele>
<time>2026-04-25T00:07:13.002Z</time>
</trkpt>
<trkpt lat="59.0846840" lon="29.9923510">
<ele>88.087196</ele>
<time>2026-04-25T00:08:24.999Z</time>
</trkpt>
<trkpt lat="59.0846030" lon="29.9919040">
<ele>87.355682</ele>
<time>2026-04-25T00:09:18.999Z</time>
</trkpt>
<trkpt lat="59.0843930" lon="29.9916890">
<ele>84.856316</ele>
<time>2026-04-25T00:10:25.000Z</time>
</trkpt>
<trkpt lat="59.0841400" lon="29.9916850">
<ele>80.436722</ele>
<time>2026-04-25T00:11:09.004Z</time>
</trkpt>
<trkpt lat="59.0839680" lon="29.9918190">
<ele>81.046318</ele>
<time>2026-04-25T00:11:43.002Z</time>
</trkpt>
<trkpt lat="59.0839100" lon="29.9917530">
<ele>80.314796</ele>
<time>2026-04-25T00:12:02.002Z</time>
</trkpt>
<trkpt lat="59.0838640" lon="29.9915360">
<ele>79.065117</ele>
<time>2026-04-25T00:13:35.996Z</time>
</trkpt>
<trkpt lat="59.0836930" lon="29.9916350">
<ele>80.711037</ele>
<time>2026-04-25T00:15:19.996Z</time>
</trkpt>
<trkpt lat="59.0836810" lon="29.9917350">
<ele>84.612480</ele>
<time>2026-04-25T00:16:56.997Z</time>
</trkpt>
<trkpt lat="59.0836300" lon="29.9916550">
<ele>85.283035</ele>
<time>2026-04-25T00:17:15.003Z</time>
</trkpt>
<trkpt lat="59.0837890" lon="29.9918800">
<ele>83.759033</ele>
<time>2026-04-25T00:17:53.002Z</time>
</trkpt>
<trkpt lat="59.0838120" lon="29.9926970">
<ele>76.718163</ele>
<time>2026-04-25T00:19:07.997Z</time>
</trkpt>
<trkpt lat="59.0838740" lon="29.9928850">
<ele>75.925682</ele>
<time>2026-04-25T00:19:26.996Z</time>
</trkpt>
<trkpt lat="59.0838950" lon="29.9931350">
<ele>75.895203</ele>
<time>2026-04-25T00:19:46.998Z</time>
</trkpt>
<trkpt lat="59.0838110" lon="29.9933530">
<ele>72.786240</ele>
<time>2026-04-25T00:20:08.002Z</time>
</trkpt>
<trkpt lat="59.0836690" lon="29.9935320">
<ele>74.950317</ele>
<time>2026-04-25T00:20:28.997Z</time>
</trkpt>
<trkpt lat="59.0839680" lon="29.9931960">
<ele>85.130638</ele>
<time>2026-04-25T00:21:07.998Z</time>
</trkpt>
<trkpt lat="59.0840030" lon="29.9932540">
<ele>89.153999</ele>
<time>2026-04-25T00:21:26.004Z</time>
</trkpt>
<trkpt lat="59.0839080" lon="29.9937570">
<ele>88.940636</ele>
<time>2026-04-25T00:22:08.003Z</time>
</trkpt>
<trkpt lat="59.0839910" lon="29.9942030">
<ele>83.850479</ele>
<time>2026-04-25T00:22:44.999Z</time>
</trkpt>
<trkpt lat="59.0840130" lon="29.9947400">
<ele>84.642967</ele>
<time>2026-04-25T00:23:42.999Z</time>
</trkpt>
<trkpt lat="59.0841720" lon="29.9952110">
<ele>82.753197</ele>
<time>2026-04-25T00:24:23.003Z</time>
</trkpt>
<trkpt lat="59.0841480" lon="29.9955320">
<ele>77.754478</ele>
<time>2026-04-25T00:24:59.999Z</time>
</trkpt>
<trkpt lat="59.0840950" lon="29.9958120">
<ele>76.535278</ele>
<time>2026-04-25T00:25:24.001Z</time>
</trkpt>
<trkpt lat="59.0842120" lon="29.9959890">
<ele>75.834244</ele>
<time>2026-04-25T00:26:00.004Z</time>
</trkpt>
<trkpt lat="59.0842690" lon="29.9962150">
<ele>75.864716</ele>
<time>2026-04-25T00:26:19.997Z</time>
</trkpt>
<trkpt lat="59.0842320" lon="29.9966330">
<ele>75.255119</ele>
<time>2026-04-25T00:27:21.004Z</time>
</trkpt>
<trkpt lat="59.0843080" lon="29.9968960">
<ele>75.925682</ele>
<time>2026-04-25T00:27:56.998Z</time>
</trkpt>
<trkpt lat="59.0843580" lon="29.9967940">
<ele>78.089767</ele>
<time>2026-04-25T00:28:54.998Z</time>
</trkpt>
<trkpt lat="59.0843970" lon="29.9968640">
<ele>79.857597</ele>
<time>2026-04-25T00:29:25.999Z</time>
</trkpt>
<trkpt lat="59.0843270" lon="29.9969390">
<ele>82.875114</ele>
<time>2026-04-25T00:29:51.996Z</time>
</trkpt>
<trkpt lat="59.0842840" lon="29.9972620">
<ele>82.235039</ele>
<time>2026-04-25T00:30:14.003Z</time>
</trkpt>
<trkpt lat="59.0843850" lon="29.9977130">
<ele>81.991203</ele>
<time>2026-04-25T00:30:54.999Z</time>
</trkpt>
<trkpt lat="59.0844470" lon="29.9982420">
<ele>78.059280</ele>
<time>2026-04-25T00:32:17.002Z</time>
</trkpt>
<trkpt lat="59.0843660" lon="29.9985250">
<ele>81.473038</ele>
<time>2026-04-25T00:33:20.998Z</time>
</trkpt>
<trkpt lat="59.0845580" lon="29.9987810">
<ele>79.644234</ele>
<time>2026-04-25T00:34:02.004Z</time>
</trkpt>
<trkpt lat="59.0845140" lon="29.9989410">
<ele>79.979515</ele>
<time>2026-04-25T00:34:21.003Z</time>
</trkpt>
<trkpt lat="59.0845120" lon="29.9993000">
<ele>78.028801</ele>
<time>2026-04-25T00:34:56.997Z</time>
</trkpt>
<trkpt lat="59.0844400" lon="29.9994000">
<ele>81.869286</ele>
<time>2026-04-25T00:35:50.997Z</time>
</trkpt>
<trkpt lat="59.0845300" lon="29.9995030">
<ele>81.960716</ele>
<time>2026-04-25T00:36:08.001Z</time>
</trkpt>
<trkpt lat="59.0846250" lon="29.9999170">
<ele>83.454239</ele>
<time>2026-04-25T00:36:48.997Z</time>
</trkpt>
<trkpt lat="59.0846440" lon="30.0005060">
<ele>80.101433</ele>
<time>2026-04-25T00:37:46.998Z</time>
</trkpt>
<trkpt lat="59.0846070" lon="30.0006420">
<ele>80.345284</ele>
<time>2026-04-25T00:38:09.004Z</time>
</trkpt>
<trkpt lat="59.0847280" lon="30.0008570">
<ele>79.278481</ele>
<time>2026-04-25T00:38:47.996Z</time>
</trkpt>
<trkpt lat="59.0846720" lon="30.0011080">
<ele>79.857597</ele>
<time>2026-04-25T00:39:21.001Z</time>
</trkpt>
<trkpt lat="59.0847500" lon="30.0014910">
<ele>78.912720</ele>
<time>2026-04-25T00:40:17.999Z</time>
</trkpt>
<trkpt lat="59.0846960" lon="30.0015580">
<ele>77.388718</ele>
<time>2026-04-25T00:40:40.999Z</time>
</trkpt>
<trkpt lat="59.0847560" lon="30.0016380">
<ele>76.779121</ele>
<time>2026-04-25T00:41:01.000Z</time>
</trkpt>
<trkpt lat="59.0847640" lon="30.0017660">
<ele>75.041756</ele>
<time>2026-04-25T00:41:18.004Z</time>
</trkpt>
<trkpt lat="59.0847250" lon="30.0018610">
<ele>75.194160</ele>
<time>2026-04-25T00:41:34.999Z</time>
</trkpt>
<trkpt lat="59.0847770" lon="30.0021820">
<ele>76.596237</ele>
<time>2026-04-25T00:42:27.003Z</time>
</trkpt>
<trkpt lat="59.0847740" lon="30.0023040">
<ele>76.047600</ele>
<time>2026-04-25T00:42:42.002Z</time>
</trkpt>
<trkpt lat="59.0848450" lon="30.0023750">
<ele>77.114403</ele>
<time>2026-04-25T00:43:01.001Z</time>
</trkpt>
<trkpt lat="59.0849810" lon="30.0026600">
<ele>76.535278</ele>
<time>2026-04-25T00:43:37.004Z</time>
</trkpt>
<trkpt lat="59.0848950" lon="30.0026800">
<ele>75.255119</ele>
<time>2026-04-25T00:43:56.004Z</time>
</trkpt>
<trkpt lat="59.0848580" lon="30.0027540">
<ele>74.676003</ele>
<time>2026-04-25T00:44:12.998Z</time>
</trkpt>
<trkpt lat="59.0847700" lon="30.0033450">
<ele>76.382881</ele>
<time>2026-04-25T00:45:21.004Z</time>
</trkpt>
<trkpt lat="59.0847620" lon="30.0034160">
<ele>76.291443</ele>
<time>2026-04-25T00:45:43.001Z</time>
</trkpt>
<trkpt lat="59.0848140" lon="30.0034590">
<ele>76.901039</ele>
<time>2026-04-25T00:46:00.998Z</time>
</trkpt>
<trkpt lat="59.0849990" lon="30.0034290">
<ele>78.089767</ele>
<time>2026-04-25T00:46:37.001Z</time>
</trkpt>
<trkpt lat="59.0850400" lon="30.0035640">
<ele>78.546967</ele>
<time>2026-04-25T00:46:53.003Z</time>
</trkpt>
<trkpt lat="59.0850150" lon="30.0037130">
<ele>77.723999</ele>
<time>2026-04-25T00:47:09.004Z</time>
</trkpt>
<trkpt lat="59.0848940" lon="30.0039480">
<ele>76.840080</ele>
<time>2026-04-25T00:47:46.000Z</time>
</trkpt>
<trkpt lat="59.0849950" lon="30.0040590">
<ele>76.870560</ele>
<time>2026-04-25T00:48:05.000Z</time>
</trkpt>
<trkpt lat="59.0851050" lon="30.0045100">
<ele>77.419197</ele>
<time>2026-04-25T00:49:01.004Z</time>
</trkpt>
<trkpt lat="59.0849950" lon="30.0045670">
<ele>76.840080</ele>
<time>2026-04-25T00:49:31.002Z</time>
</trkpt>
<trkpt lat="59.0849090" lon="30.0047990">
<ele>77.388718</ele>
<time>2026-04-25T00:49:51.997Z</time>
</trkpt>
<trkpt lat="59.0849860" lon="30.0049740">
<ele>75.925682</ele>
<time>2026-04-25T00:50:09.001Z</time>
</trkpt>
<trkpt lat="59.0850990" lon="30.0049170">
<ele>75.102715</ele>
<time>2026-04-25T00:50:29.003Z</time>
</trkpt>
<trkpt lat="59.0851770" lon="30.0049560">
<ele>72.877686</ele>
<time>2026-04-25T00:50:44.002Z</time>
</trkpt>
<trkpt lat="59.0851940" lon="30.0052410">
<ele>69.921120</ele>
<time>2026-04-25T00:51:14.000Z</time>
</trkpt>
<trkpt lat="59.0851310" lon="30.0055420">
<ele>70.164963</ele>
<time>2026-04-25T00:51:46.996Z</time>
</trkpt>
<trkpt lat="59.0852460" lon="30.0060060">
<ele>72.024239</ele>
<time>2026-04-25T00:52:44.996Z</time>
</trkpt>
<trkpt lat="59.0851610" lon="30.0060060">
<ele>78.394562</ele>
<time>2026-04-25T00:55:03.003Z</time>
</trkpt>
<trkpt lat="59.0846230" lon="30.0063230">
<ele>78.242165</ele>
<time>2026-04-25T00:56:47.003Z</time>
</trkpt>
<trkpt lat="59.0846150" lon="30.0062500">
<ele>79.979515</ele>
<time>2026-04-25T00:57:32.000Z</time>
</trkpt>
<trkpt lat="59.0846850" lon="30.0061420">
<ele>82.631279</ele>
<time>2026-04-25T00:58:34.000Z</time>
</trkpt>
<trkpt lat="59.0845380" lon="30.0058190">
<ele>83.698082</ele>
<time>2026-04-25T00:59:10.997Z</time>
</trkpt>
<trkpt lat="59.0845370" lon="30.0056630">
<ele>83.271362</ele>
<time>2026-04-25T00:59:29.003Z</time>
</trkpt>
<trkpt lat="59.0845970" lon="30.0055440">
<ele>82.295998</ele>
<time>2026-04-25T00:59:48.002Z</time>
</trkpt>
<trkpt lat="59.0844820" lon="30.0050550">
<ele>82.753197</ele>
<time>2026-04-25T01:00:43.004Z</time>
</trkpt>
<trkpt lat="59.0844720" lon="30.0045240">
<ele>84.399117</ele>
<time>2026-04-25T01:01:59.002Z</time>
</trkpt>
<trkpt lat="59.0844340" lon="30.0042880">
<ele>84.307678</ele>
<time>2026-04-25T01:02:27.997Z</time>
</trkpt>
<trkpt lat="59.0843500" lon="30.0040320">
<ele>86.563202</ele>
<time>2026-04-25T01:02:56.000Z</time>
</trkpt>
<trkpt lat="59.0842410" lon="30.0039150">
<ele>86.227921</ele>
<time>2026-04-25T01:03:32.003Z</time>
</trkpt>
<trkpt lat="59.0843020" lon="30.0038090">
<ele>84.673439</ele>
<time>2026-04-25T01:03:48.997Z</time>
</trkpt>
<trkpt lat="59.0843200" lon="30.0036810">
<ele>82.113121</ele>
<time>2026-04-25T01:04:15.997Z</time>
</trkpt>
<trkpt lat="59.0842500" lon="30.0033870">
<ele>83.179916</ele>
<time>2026-04-25T01:05:06.999Z</time>
</trkpt>
<trkpt lat="59.0843260" lon="30.0031440">
<ele>80.954880</ele>
<time>2026-04-25T01:05:43.996Z</time>
</trkpt>
<trkpt lat="59.0844070" lon="30.0030510">
<ele>79.004166</ele>
<time>2026-04-25T01:06:02.002Z</time>
</trkpt>
<trkpt lat="59.0842590" lon="30.0029290">
<ele>80.619598</ele>
<time>2026-04-25T01:06:34.004Z</time>
</trkpt>
<trkpt lat="59.0843160" lon="30.0024710">
<ele>84.825836</ele>
<time>2026-04-25T01:07:48.999Z</time>
</trkpt>
<trkpt lat="59.0842650" lon="30.0025130">
<ele>85.801201</ele>
<time>2026-04-25T01:08:02.003Z</time>
</trkpt>
<trkpt lat="59.0841970" lon="30.0024160">
<ele>87.172798</ele>
<time>2026-04-25T01:08:20.000Z</time>
</trkpt>
<trkpt lat="59.0841300" lon="30.0019010">
<ele>93.695518</ele>
<time>2026-04-25T01:09:32.999Z</time>
</trkpt>
<trkpt lat="59.0840520" lon="30.0017690">
<ele>92.293434</ele>
<time>2026-04-25T01:09:49.000Z</time>
</trkpt>
<trkpt lat="59.0840630" lon="30.0013530">
<ele>90.738960</ele>
<time>2026-04-25T01:10:44.003Z</time>
</trkpt>
<trkpt lat="59.0840250" lon="30.0012460">
<ele>89.702637</ele>
<time>2026-04-25T01:11:02.000Z</time>
</trkpt>
<trkpt lat="59.0840410" lon="30.0011650">
<ele>88.239601</ele>
<time>2026-04-25T01:11:18.001Z</time>
</trkpt>
<trkpt lat="59.0840280" lon="30.0012380">
<ele>87.508080</ele>
<time>2026-04-25T01:11:43.999Z</time>
</trkpt>
<trkpt lat="59.0839830" lon="30.0010690">
<ele>85.191597</ele>
<time>2026-04-25T01:12:27.000Z</time>
</trkpt>
<trkpt lat="59.0840220" lon="30.0010150">
<ele>83.545685</ele>
<time>2026-04-25T01:12:40.003Z</time>
</trkpt>
<trkpt lat="59.0839240" lon="30.0006950">
<ele>82.509361</ele>
<time>2026-04-25T01:13:15.997Z</time>
</trkpt>
<trkpt lat="59.0839950" lon="30.0004470">
<ele>81.960716</ele>
<time>2026-04-25T01:13:53.996Z</time>
</trkpt>
<trkpt lat="59.0840090" lon="30.0002680">
<ele>82.692238</ele>
<time>2026-04-25T01:14:11.000Z</time>
</trkpt>
<trkpt lat="59.0839120" lon="30.0002570">
<ele>88.148163</ele>
<time>2026-04-25T01:14:29.999Z</time>
</trkpt>
<trkpt lat="59.0838800" lon="30.0001600">
<ele>88.422485</ele>
<time>2026-04-25T01:14:47.996Z</time>
</trkpt>
<trkpt lat="59.0839620" lon="29.9999510">
<ele>88.452965</ele>
<time>2026-04-25T01:15:22.003Z</time>
</trkpt>
<trkpt lat="59.0839200" lon="29.9996110">
<ele>88.422485</ele>
<time>2026-04-25T01:16:08.996Z</time>
</trkpt>
<trkpt lat="59.0839190" lon="29.9993330">
<ele>84.429604</ele>
<time>2026-04-25T01:16:58.002Z</time>
</trkpt>
<trkpt lat="59.0838100" lon="29.9992700">
<ele>85.008720</ele>
<time>2026-04-25T01:17:30.998Z</time>
</trkpt>
<trkpt lat="59.0838640" lon="29.9990540">
<ele>83.880966</ele>
<time>2026-04-25T01:18:04.997Z</time>
</trkpt>
<trkpt lat="59.0838180" lon="29.9988060">
<ele>85.709763</ele>
<time>2026-04-25T01:18:23.996Z</time>
</trkpt>
<trkpt lat="59.0837390" lon="29.9986950">
<ele>84.429604</ele>
<time>2026-04-25T01:18:41.000Z</time>
</trkpt>
<trkpt lat="59.0837540" lon="29.9985320">
<ele>80.558640</ele>
<time>2026-04-25T01:18:58.003Z</time>
</trkpt>
<trkpt lat="59.0838030" lon="29.9984060">
<ele>79.004166</ele>
<time>2026-04-25T01:19:16.000Z</time>
</trkpt>
<trkpt lat="59.0839030" lon="29.9984330">
<ele>79.979515</ele>
<time>2026-04-25T01:19:37.998Z</time>
</trkpt>
<trkpt lat="59.0839310" lon="29.9983330">
<ele>79.796638</ele>
<time>2026-04-25T01:19:56.004Z</time>
</trkpt>
<trkpt lat="59.0837450" lon="29.9982480">
<ele>85.130638</ele>
<time>2026-04-25T01:21:29.998Z</time>
</trkpt>
<trkpt lat="59.0837100" lon="29.9977230">
<ele>87.050880</ele>
<time>2026-04-25T01:22:15.997Z</time>
</trkpt>
<trkpt lat="59.0836300" lon="29.9976210">
<ele>87.386162</ele>
<time>2026-04-25T01:22:34.997Z</time>
</trkpt>
<trkpt lat="59.0835970" lon="29.9976530">
<ele>87.233765</ele>
<time>2026-04-25T01:22:58.999Z</time>
</trkpt>
<trkpt lat="59.0836470" lon="29.9976460">
<ele>88.391998</ele>
<time>2026-04-25T01:23:28.997Z</time>
</trkpt>
<trkpt lat="59.0836110" lon="29.9973850">
<ele>88.239601</ele>
<time>2026-04-25T01:24:10.996Z</time>
</trkpt>
<trkpt lat="59.0836100" lon="29.9971110">
<ele>89.367363</ele>
<time>2026-04-25T01:24:41.996Z</time>
</trkpt>
<trkpt lat="59.0835930" lon="29.9970090">
<ele>89.946480</ele>
<time>2026-04-25T01:25:04.996Z</time>
</trkpt>
<trkpt lat="59.0835380" lon="29.9969610">
<ele>90.738960</ele>
<time>2026-04-25T01:25:27.002Z</time>
</trkpt>
<trkpt lat="59.0835450" lon="29.9964340">
<ele>88.971115</ele>
<time>2026-04-25T01:26:14.997Z</time>
</trkpt>
<trkpt lat="59.0834770" lon="29.9963680">
<ele>89.306396</ele>
<time>2026-04-25T01:26:33.996Z</time>
</trkpt>
<trkpt lat="59.0835240" lon="29.9961920">
<ele>87.233765</ele>
<time>2026-04-25T01:26:52.002Z</time>
</trkpt>
<trkpt lat="59.0835190" lon="29.9960690">
<ele>85.465919</ele>
<time>2026-04-25T01:27:14.000Z</time>
</trkpt>
<trkpt lat="59.0833990" lon="29.9955690">
<ele>87.477600</ele>
<time>2026-04-25T01:28:10.004Z</time>
</trkpt>
<trkpt lat="59.0834700" lon="29.9948100">
<ele>89.672165</ele>
<time>2026-04-25T01:29:38.996Z</time>
</trkpt>
<trkpt lat="59.0833720" lon="29.9948740">
<ele>89.733116</ele>
<time>2026-04-25T01:29:57.002Z</time>
</trkpt>
<trkpt lat="59.0834680" lon="29.9951950">
<ele>82.905602</ele>
<time>2026-04-25T01:30:41.999Z</time>
</trkpt>
<trkpt lat="59.0834000" lon="29.9948850">
<ele>83.820000</ele>
<time>2026-04-25T01:31:10.001Z</time>
</trkpt>
<trkpt lat="59.0834360" lon="29.9946470">
<ele>83.637115</ele>
<time>2026-04-25T01:31:26.003Z</time>
</trkpt>
<trkpt lat="59.0833050" lon="29.9944910">
<ele>88.056717</ele>
<time>2026-04-25T01:32:00.001Z</time>
</trkpt>
<trkpt lat="59.0832660" lon="29.9943160">
<ele>88.849197</ele>
<time>2026-04-25T01:32:16.996Z</time>
</trkpt>
<trkpt lat="59.0832190" lon="29.9939140">
<ele>89.489281</ele>
<time>2026-04-25T01:32:56.999Z</time>
</trkpt>
<trkpt lat="59.0832790" lon="29.9937430">
<ele>88.513916</ele>
<time>2026-04-25T01:33:15.998Z</time>
</trkpt>
<trkpt lat="59.0832200" lon="29.9935700">
<ele>87.264236</ele>
<time>2026-04-25T01:33:37.002Z</time>
</trkpt>
<trkpt lat="59.0831480" lon="29.9934800">
<ele>87.508080</ele>
<time>2026-04-25T01:33:57.004Z</time>
</trkpt>
<trkpt lat="59.0831160" lon="29.9928630">
<ele>86.593681</ele>
<time>2026-04-25T01:34:57.000Z</time>
</trkpt>
<trkpt lat="59.0831740" lon="29.9925770">
<ele>88.635834</ele>
<time>2026-04-25T01:35:41.004Z</time>
</trkpt>
<trkpt lat="59.0831430" lon="29.9925610">
<ele>89.032082</ele>
<time>2026-04-25T01:36:08.004Z</time>
</trkpt>
<trkpt lat="59.0831870" lon="29.9925030">
<ele>91.287598</ele>
<time>2026-04-25T01:37:06.997Z</time>
</trkpt>
<trkpt lat="59.0831670" lon="29.9924010">
<ele>99.120964</ele>
<time>2026-04-25T01:37:37.998Z</time>
</trkpt>
<trkpt lat="59.0832590" lon="29.9923340">
<ele>97.261681</ele>
<time>2026-04-25T01:38:02.000Z</time>
</trkpt>
<trkpt lat="59.0831220" lon="29.9925790">
<ele>93.207840</ele>
<time>2026-04-25T01:38:37.000Z</time>
</trkpt>
<trkpt lat="59.0831190" lon="29.9926960">
<ele>92.994484</ele>
<time>2026-04-25T01:38:58.998Z</time>
</trkpt>
<trkpt lat="59.0830620" lon="29.9925300">
<ele>92.506798</ele>
<time>2026-04-25T01:39:16.001Z</time>
</trkpt>
<trkpt lat="59.0830080" lon="29.9920660">
<ele>87.599518</ele>
<time>2026-04-25T01:39:55.002Z</time>
</trkpt>
<trkpt lat="59.0830530" lon="29.9918540">
<ele>83.789520</ele>
<time>2026-04-25T01:40:17.000Z</time>
</trkpt>
<trkpt lat="59.0829900" lon="29.9914880">
<ele>81.198715</ele>
<time>2026-04-25T01:41:19.000Z</time>
</trkpt>
<trkpt lat="59.0829900" lon="29.9912650">
<ele>80.131920</ele>
<time>2026-04-25T01:41:36.997Z</time>
</trkpt>
<trkpt lat="59.0830260" lon="29.9910690">
<ele>78.851761</ele>
<time>2026-04-25T01:41:55.997Z</time>
</trkpt>
<trkpt lat="59.0829400" lon="29.9910610">
<ele>77.998322</ele>
<time>2026-04-25T01:43:01.004Z</time>
</trkpt>
</trkseg>
</trk>
<trk>
 <name>20260425_Lisa81</name>
 <desc>20260425_Lisa81</desc>
<trkseg>
<trkpt lat="59.1018850" lon="30.0418340">
<ele>49.011841</ele>
<time>2026-04-24T23:09:26.004Z</time>
</trkpt>
<trkpt lat="59.1019900" lon="30.0421320">
<ele>46.847759</ele>
<time>2026-04-24T23:09:48.001Z</time>
</trkpt>
<trkpt lat="59.1020540" lon="30.0431350">
<ele>39.776402</ele>
<time>2026-04-24T23:10:39.003Z</time>
</trkpt>
<trkpt lat="59.1022080" lon="30.0434920">
<ele>40.294559</ele>
<time>2026-04-24T23:11:03.998Z</time>
</trkpt>
<trkpt lat="59.1022540" lon="30.0438400">
<ele>53.461918</ele>
<time>2026-04-24T23:11:44.002Z</time>
</trkpt>
<trkpt lat="59.1022710" lon="30.0437840">
<ele>52.517040</ele>
<time>2026-04-24T23:12:08.004Z</time>
</trkpt>
<trkpt lat="59.1022740" lon="30.0440640">
<ele>57.607201</ele>
<time>2026-04-24T23:12:26.001Z</time>
</trkpt>
<trkpt lat="59.1023660" lon="30.0447760">
<ele>59.893200</ele>
<time>2026-04-24T23:13:21.996Z</time>
</trkpt>
<trkpt lat="59.1023540" lon="30.0448210">
<ele>62.301117</ele>
<time>2026-04-24T23:13:41.998Z</time>
</trkpt>
<trkpt lat="59.1022960" lon="30.0446680">
<ele>66.111115</ele>
<time>2026-04-24T23:14:22.001Z</time>
</trkpt>
<trkpt lat="59.1023220" lon="30.0446240">
<ele>67.391281</ele>
<time>2026-04-24T23:14:37.000Z</time>
</trkpt>
<trkpt lat="59.1022880" lon="30.0445350">
<ele>66.903603</ele>
<time>2026-04-24T23:14:50.004Z</time>
</trkpt>
<trkpt lat="59.1022600" lon="30.0445770">
<ele>66.934082</ele>
<time>2026-04-24T23:15:48.997Z</time>
</trkpt>
<trkpt lat="59.1022730" lon="30.0446180">
<ele>67.635117</ele>
<time>2026-04-24T23:16:33.001Z</time>
</trkpt>
<trkpt lat="59.1021690" lon="30.0447010">
<ele>69.311516</ele>
<time>2026-04-24T23:18:27.999Z</time>
</trkpt>
<trkpt lat="59.1019690" lon="30.0450250">
<ele>63.489841</ele>
<time>2026-04-24T23:19:51.004Z</time>
</trkpt>
<trkpt lat="59.1019030" lon="30.0453700">
<ele>61.447681</ele>
<time>2026-04-24T23:20:47.000Z</time>
</trkpt>
<trkpt lat="59.1017860" lon="30.0455690">
<ele>60.624718</ele>
<time>2026-04-24T23:22:06.997Z</time>
</trkpt>
<trkpt lat="59.1018250" lon="30.0455750">
<ele>62.301117</ele>
<time>2026-04-24T23:22:48.996Z</time>
</trkpt>
<trkpt lat="59.1018070" lon="30.0455040">
<ele>66.568321</ele>
<time>2026-04-24T23:25:45.002Z</time>
</trkpt>
<trkpt lat="59.1018630" lon="30.0453440">
<ele>66.233040</ele>
<time>2026-04-24T23:26:24.003Z</time>
</trkpt>
<trkpt lat="59.1019210" lon="30.0453620">
<ele>66.141602</ele>
<time>2026-04-24T23:26:54.001Z</time>
</trkpt>
<trkpt lat="59.1019550" lon="30.0453050">
<ele>67.177917</ele>
<time>2026-04-24T23:27:13.000Z</time>
</trkpt>
<trkpt lat="59.1019470" lon="30.0450210">
<ele>62.453518</ele>
<time>2026-04-24T23:27:44.001Z</time>
</trkpt>
<trkpt lat="59.1019230" lon="30.0448780">
<ele>61.539120</ele>
<time>2026-04-24T23:28:01.998Z</time>
</trkpt>
<trkpt lat="59.1019250" lon="30.0447000">
<ele>60.198002</ele>
<time>2026-04-24T23:28:55.998Z</time>
</trkpt>
<trkpt lat="59.1019050" lon="30.0446660">
<ele>61.539120</ele>
<time>2026-04-24T23:29:29.996Z</time>
</trkpt>
<trkpt lat="59.1019510" lon="30.0446250">
<ele>61.173359</ele>
<time>2026-04-24T23:29:59.001Z</time>
</trkpt>
<trkpt lat="59.1019080" lon="30.0446600">
<ele>61.843918</ele>
<time>2026-04-24T23:30:24.998Z</time>
</trkpt>
<trkpt lat="59.1019600" lon="30.0447190">
<ele>61.935360</ele>
<time>2026-04-24T23:31:02.997Z</time>
</trkpt>
<trkpt lat="59.1020960" lon="30.0443320">
<ele>64.099442</ele>
<time>2026-04-24T23:32:15.996Z</time>
</trkpt>
<trkpt lat="59.1021560" lon="30.0442700">
<ele>64.983360</ele>
<time>2026-04-24T23:32:58.998Z</time>
</trkpt>
<trkpt lat="59.1021260" lon="30.0441120">
<ele>63.977520</ele>
<time>2026-04-24T23:33:36.003Z</time>
</trkpt>
<trkpt lat="59.1021420" lon="30.0439250">
<ele>64.038483</ele>
<time>2026-04-24T23:34:08.999Z</time>
</trkpt>
<trkpt lat="59.1020540" lon="30.0438540">
<ele>65.410080</ele>
<time>2026-04-24T23:35:11.000Z</time>
</trkpt>
<trkpt lat="59.1020360" lon="30.0438770">
<ele>65.867279</ele>
<time>2026-04-24T23:36:14.003Z</time>
</trkpt>
<trkpt lat="59.1020460" lon="30.0438460">
<ele>64.861443</ele>
<time>2026-04-24T23:36:48.001Z</time>
</trkpt>
<trkpt lat="59.1019560" lon="30.0437320">
<ele>70.713600</ele>
<time>2026-04-24T23:39:00.996Z</time>
</trkpt>
<trkpt lat="59.1018960" lon="30.0430950">
<ele>69.738243</ele>
<time>2026-04-24T23:40:21.003Z</time>
</trkpt>
<trkpt lat="59.1018050" lon="30.0426460">
<ele>68.336159</ele>
<time>2026-04-24T23:41:58.998Z</time>
</trkpt>
<trkpt lat="59.1017950" lon="30.0426870">
<ele>69.372482</ele>
<time>2026-04-24T23:43:21.000Z</time>
</trkpt>
<trkpt lat="59.1018280" lon="30.0427190">
<ele>70.683121</ele>
<time>2026-04-24T23:43:53.003Z</time>
</trkpt>
<trkpt lat="59.1017960" lon="30.0427220">
<ele>69.555359</ele>
<time>2026-04-24T23:44:47.003Z</time>
</trkpt>
<trkpt lat="59.1017730" lon="30.0428770">
<ele>69.128639</ele>
<time>2026-04-24T23:45:30.997Z</time>
</trkpt>
<trkpt lat="59.1016620" lon="30.0430450">
<ele>71.079361</ele>
<time>2026-04-24T23:46:39.003Z</time>
</trkpt>
<trkpt lat="59.1016610" lon="30.0431620">
<ele>71.323196</ele>
<time>2026-04-24T23:47:22.004Z</time>
</trkpt>
<trkpt lat="59.1017090" lon="30.0433350">
<ele>71.506081</ele>
<time>2026-04-24T23:48:05.999Z</time>
</trkpt>
<trkpt lat="59.1017020" lon="30.0436080">
<ele>71.323196</ele>
<time>2026-04-24T23:49:26.999Z</time>
</trkpt>
<trkpt lat="59.1017070" lon="30.0435400">
<ele>71.688957</ele>
<time>2026-04-24T23:51:28.002Z</time>
</trkpt>
<trkpt lat="59.1016600" lon="30.0435980">
<ele>70.987915</ele>
<time>2026-04-24T23:52:11.004Z</time>
</trkpt>
<trkpt lat="59.1017120" lon="30.0437590">
<ele>70.896484</ele>
<time>2026-04-24T23:52:57.996Z</time>
</trkpt>
<trkpt lat="59.1016660" lon="30.0439550">
<ele>72.298561</ele>
<time>2026-04-24T23:54:09.000Z</time>
</trkpt>
<trkpt lat="59.1016690" lon="30.0440600">
<ele>72.420479</ele>
<time>2026-04-24T23:55:00.002Z</time>
</trkpt>
<trkpt lat="59.1015990" lon="30.0441470">
<ele>72.329041</ele>
<time>2026-04-24T23:55:42.001Z</time>
</trkpt>
<trkpt lat="59.1015620" lon="30.0444170">
<ele>72.938644</ele>
<time>2026-04-24T23:57:15.002Z</time>
</trkpt>
<trkpt lat="59.1015820" lon="30.0443750">
<ele>72.085197</ele>
<time>2026-04-24T23:57:31.003Z</time>
</trkpt>
<trkpt lat="59.1015990" lon="30.0444490">
<ele>68.793358</ele>
<time>2026-04-24T23:58:52.003Z</time>
</trkpt>
<trkpt lat="59.1015510" lon="30.0443960">
<ele>69.707756</ele>
<time>2026-04-24T23:59:46.997Z</time>
</trkpt>
<trkpt lat="59.1015750" lon="30.0444590">
<ele>70.164963</ele>
<time>2026-04-25T00:00:27.000Z</time>
</trkpt>
<trkpt lat="59.1015480" lon="30.0446040">
<ele>69.707756</ele>
<time>2026-04-25T00:01:22.002Z</time>
</trkpt>
<trkpt lat="59.1015580" lon="30.0446650">
<ele>75.895203</ele>
<time>2026-04-25T00:02:46.000Z</time>
</trkpt>
<trkpt lat="59.1015840" lon="30.0446300">
<ele>73.121521</ele>
<time>2026-04-25T00:04:00.002Z</time>
</trkpt>
<trkpt lat="59.1014870" lon="30.0447100">
<ele>70.317360</ele>
<time>2026-04-25T00:04:51.004Z</time>
</trkpt>
<trkpt lat="59.1014630" lon="30.0448330">
<ele>69.768715</ele>
<time>2026-04-25T00:05:15.999Z</time>
</trkpt>
<trkpt lat="59.1013650" lon="30.0450000">
<ele>70.073517</ele>
<time>2026-04-25T00:06:00.996Z</time>
</trkpt>
<trkpt lat="59.1014260" lon="30.0451840">
<ele>70.164963</ele>
<time>2026-04-25T00:07:36.002Z</time>
</trkpt>
<trkpt lat="59.1014440" lon="30.0450820">
<ele>70.195442</ele>
<time>2026-04-25T00:07:52.997Z</time>
</trkpt>
<trkpt lat="59.1014220" lon="30.0451360">
<ele>70.530716</ele>
<time>2026-04-25T00:08:20.999Z</time>
</trkpt>
<trkpt lat="59.1014450" lon="30.0451780">
<ele>70.622162</ele>
<time>2026-04-25T00:09:13.997Z</time>
</trkpt>
<trkpt lat="59.1013740" lon="30.0451990">
<ele>70.408798</ele>
<time>2026-04-25T00:10:07.003Z</time>
</trkpt>
<trkpt lat="59.1013040" lon="30.0455090">
<ele>71.140320</ele>
<time>2026-04-25T00:11:56.999Z</time>
</trkpt>
<trkpt lat="59.1012520" lon="30.0455850">
<ele>70.561203</ele>
<time>2026-04-25T00:12:36.000Z</time>
</trkpt>
<trkpt lat="59.1012030" lon="30.0460730">
<ele>73.609200</ele>
<time>2026-04-25T00:15:12.004Z</time>
</trkpt>
<trkpt lat="59.1012260" lon="30.0460870">
<ele>74.249283</ele>
<time>2026-04-25T00:15:34.001Z</time>
</trkpt>
<trkpt lat="59.1012270" lon="30.0460240">
<ele>74.066399</ele>
<time>2026-04-25T00:15:55.999Z</time>
</trkpt>
<trkpt lat="59.1012710" lon="30.0459900">
<ele>74.676003</ele>
<time>2026-04-25T00:16:57.999Z</time>
</trkpt>
<trkpt lat="59.1013240" lon="30.0460610">
<ele>77.358238</ele>
<time>2026-04-25T00:17:31.004Z</time>
</trkpt>
<trkpt lat="59.1012170" lon="30.0459470">
<ele>74.279762</ele>
<time>2026-04-25T00:18:25.004Z</time>
</trkpt>
<trkpt lat="59.1010920" lon="30.0459990">
<ele>75.895203</ele>
<time>2026-04-25T00:19:25.000Z</time>
</trkpt>
<trkpt lat="59.1010970" lon="30.0458980">
<ele>75.895203</ele>
<time>2026-04-25T00:20:01.003Z</time>
</trkpt>
<trkpt lat="59.1010100" lon="30.0459140">
<ele>75.651360</ele>
<time>2026-04-25T00:20:54.001Z</time>
</trkpt>
<trkpt lat="59.1010180" lon="30.0459990">
<ele>75.773285</ele>
<time>2026-04-25T00:21:52.001Z</time>
</trkpt>
<trkpt lat="59.1010510" lon="30.0459760">
<ele>75.438004</ele>
<time>2026-04-25T00:22:39.003Z</time>
</trkpt>
<trkpt lat="59.1010490" lon="30.0459360">
<ele>74.980797</ele>
<time>2026-04-25T00:22:58.002Z</time>
</trkpt>
<trkpt lat="59.1009480" lon="30.0458570">
<ele>74.950317</ele>
<time>2026-04-25T00:24:14.000Z</time>
</trkpt>
<trkpt lat="59.1009230" lon="30.0458620">
<ele>77.114403</ele>
<time>2026-04-25T00:24:39.004Z</time>
</trkpt>
<trkpt lat="59.1009230" lon="30.0459550">
<ele>76.047600</ele>
<time>2026-04-25T00:25:16.000Z</time>
</trkpt>
<trkpt lat="59.1008400" lon="30.0460840">
<ele>76.870560</ele>
<time>2026-04-25T00:26:38.003Z</time>
</trkpt>
<trkpt lat="59.1008780" lon="30.0460770">
<ele>76.352402</ele>
<time>2026-04-25T00:27:33.998Z</time>
</trkpt>
<trkpt lat="59.1008250" lon="30.0460660">
<ele>74.736961</ele>
<time>2026-04-25T00:28:15.004Z</time>
</trkpt>
<trkpt lat="59.1008070" lon="30.0460130">
<ele>72.786240</ele>
<time>2026-04-25T00:28:46.004Z</time>
</trkpt>
<trkpt lat="59.1008550" lon="30.0460050">
<ele>72.877686</ele>
<time>2026-04-25T00:29:16.996Z</time>
</trkpt>
<trkpt lat="59.1008340" lon="30.0459170">
<ele>72.816719</ele>
<time>2026-04-25T00:29:38.000Z</time>
</trkpt>
<trkpt lat="59.1009210" lon="30.0458720">
<ele>73.609200</ele>
<time>2026-04-25T00:30:21.001Z</time>
</trkpt>
<trkpt lat="59.1009080" lon="30.0458250">
<ele>73.914001</ele>
<time>2026-04-25T00:30:40.000Z</time>
</trkpt>
<trkpt lat="59.1009750" lon="30.0456860">
<ele>74.188316</ele>
<time>2026-04-25T00:31:35.003Z</time>
</trkpt>
<trkpt lat="59.1009380" lon="30.0455730">
<ele>73.304398</ele>
<time>2026-04-25T00:32:33.996Z</time>
</trkpt>
<trkpt lat="59.1009300" lon="30.0452510">
<ele>73.334885</ele>
<time>2026-04-25T00:34:29.997Z</time>
</trkpt>
<trkpt lat="59.1009640" lon="30.0451330">
<ele>72.847198</ele>
<time>2026-04-25T00:35:04.998Z</time>
</trkpt>
<trkpt lat="59.1010130" lon="30.0452130">
<ele>72.572884</ele>
<time>2026-04-25T00:36:28.996Z</time>
</trkpt>
<trkpt lat="59.1009650" lon="30.0451110">
<ele>71.993759</ele>
<time>2026-04-25T00:36:52.998Z</time>
</trkpt>
<trkpt lat="59.1009470" lon="30.0451710">
<ele>74.279762</ele>
<time>2026-04-25T00:37:46.998Z</time>
</trkpt>
<trkpt lat="59.1010110" lon="30.0451810">
<ele>71.567039</ele>
<time>2026-04-25T00:41:48.002Z</time>
</trkpt>
<trkpt lat="59.1010000" lon="30.0451450">
<ele>71.536560</ele>
<time>2026-04-25T00:42:08.004Z</time>
</trkpt>
<trkpt lat="59.1009220" lon="30.0451070">
<ele>72.115685</ele>
<time>2026-04-25T00:44:33.000Z</time>
</trkpt>
<trkpt lat="59.1009600" lon="30.0451370">
<ele>70.987915</ele>
<time>2026-04-25T00:45:27.000Z</time>
</trkpt>
<trkpt lat="59.1009680" lon="30.0449010">
<ele>69.402962</ele>
<time>2026-04-25T00:46:17.000Z</time>
</trkpt>
<trkpt lat="59.1010140" lon="30.0448050">
<ele>69.402962</ele>
<time>2026-04-25T00:46:50.998Z</time>
</trkpt>
<trkpt lat="59.1010230" lon="30.0448500">
<ele>70.286880</ele>
<time>2026-04-25T00:47:11.000Z</time>
</trkpt>
<trkpt lat="59.1010590" lon="30.0448370">
<ele>71.353683</ele>
<time>2026-04-25T00:47:25.999Z</time>
</trkpt>
<trkpt lat="59.1010760" lon="30.0447360">
<ele>72.298561</ele>
<time>2026-04-25T00:48:06.002Z</time>
</trkpt>
<trkpt lat="59.1011390" lon="30.0446940">
<ele>74.127357</ele>
<time>2026-04-25T00:49:01.998Z</time>
</trkpt>
<trkpt lat="59.1011280" lon="30.0444550">
<ele>73.060562</ele>
<time>2026-04-25T00:50:57.998Z</time>
</trkpt>
<trkpt lat="59.1010910" lon="30.0443380">
<ele>71.963280</ele>
<time>2026-04-25T00:51:35.997Z</time>
</trkpt>
<trkpt lat="59.1011460" lon="30.0442820">
<ele>72.633842</ele>
<time>2026-04-25T00:52:33.997Z</time>
</trkpt>
<trkpt lat="59.1010850" lon="30.0440420">
<ele>71.079361</ele>
<time>2026-04-25T00:53:06.000Z</time>
</trkpt>
<trkpt lat="59.1011160" lon="30.0439360">
<ele>69.433441</ele>
<time>2026-04-25T00:54:13.997Z</time>
</trkpt>
<trkpt lat="59.1010840" lon="30.0438780">
<ele>68.275200</ele>
<time>2026-04-25T00:55:17.000Z</time>
</trkpt>
<trkpt lat="59.1010880" lon="30.0437920">
<ele>70.591682</ele>
<time>2026-04-25T00:56:20.003Z</time>
</trkpt>
<trkpt lat="59.1011360" lon="30.0434770">
<ele>72.450958</ele>
<time>2026-04-25T00:57:22.997Z</time>
</trkpt>
<trkpt lat="59.1012930" lon="30.0430770">
<ele>73.822556</ele>
<time>2026-04-25T00:58:35.003Z</time>
</trkpt>
<trkpt lat="59.1013170" lon="30.0427020">
<ele>71.536560</ele>
<time>2026-04-25T00:59:37.997Z</time>
</trkpt>
<trkpt lat="59.1013350" lon="30.0426920">
<ele>73.670158</ele>
<time>2026-04-25T01:00:28.999Z</time>
</trkpt>
<trkpt lat="59.1012830" lon="30.0427420">
<ele>71.445122</ele>
<time>2026-04-25T01:02:03.002Z</time>
</trkpt>
<trkpt lat="59.1012310" lon="30.0426490">
<ele>71.567039</ele>
<time>2026-04-25T01:02:19.003Z</time>
</trkpt>
<trkpt lat="59.1010420" lon="30.0425170">
<ele>70.774559</ele>
<time>2026-04-25T01:03:28.996Z</time>
</trkpt>
<trkpt lat="59.1010630" lon="30.0425060">
<ele>70.591682</ele>
<time>2026-04-25T01:04:25.000Z</time>
</trkpt>
<trkpt lat="59.1009310" lon="30.0429320">
<ele>69.281044</ele>
<time>2026-04-25T01:06:17.001Z</time>
</trkpt>
<trkpt lat="59.1008260" lon="30.0437010">
<ele>69.189598</ele>
<time>2026-04-25T01:07:51.997Z</time>
</trkpt>
<trkpt lat="59.1007320" lon="30.0440720">
<ele>69.555359</ele>
<time>2026-04-25T01:10:47.001Z</time>
</trkpt>
<trkpt lat="59.1007030" lon="30.0443550">
<ele>68.519043</ele>
<time>2026-04-25T01:11:31.998Z</time>
</trkpt>
<trkpt lat="59.1006070" lon="30.0446890">
<ele>68.214241</ele>
<time>2026-04-25T01:14:59.004Z</time>
</trkpt>
<trkpt lat="59.1006010" lon="30.0448500">
<ele>69.220085</ele>
<time>2026-04-25T01:15:26.004Z</time>
</trkpt>
<trkpt lat="59.1005000" lon="30.0453690">
<ele>69.890640</ele>
<time>2026-04-25T01:17:32.001Z</time>
</trkpt>
<trkpt lat="59.1005270" lon="30.0453490">
<ele>70.835518</ele>
<time>2026-04-25T01:18:42.002Z</time>
</trkpt>
<trkpt lat="59.1005230" lon="30.0454210">
<ele>70.957443</ele>
<time>2026-04-25T01:19:01.001Z</time>
</trkpt>
<trkpt lat="59.1005640" lon="30.0454590">
<ele>72.146156</ele>
<time>2026-04-25T01:19:48.996Z</time>
</trkpt>
<trkpt lat="59.1005770" lon="30.0455550">
<ele>71.201279</ele>
<time>2026-04-25T01:20:18.001Z</time>
</trkpt>
<trkpt lat="59.1005230" lon="30.0454160">
<ele>73.456802</ele>
<time>2026-04-25T01:21:05.003Z</time>
</trkpt>
<trkpt lat="59.1004130" lon="30.0453020">
<ele>70.805038</ele>
<time>2026-04-25T01:22:50.998Z</time>
</trkpt>
<trkpt lat="59.1004450" lon="30.0453350">
<ele>70.500244</ele>
<time>2026-04-25T01:23:42.000Z</time>
</trkpt>
<trkpt lat="59.1004880" lon="30.0452320">
<ele>70.469757</ele>
<time>2026-04-25T01:25:20.997Z</time>
</trkpt>
<trkpt lat="59.1004430" lon="30.0451870">
<ele>72.603355</ele>
<time>2026-04-25T01:26:29.003Z</time>
</trkpt>
<trkpt lat="59.1004680" lon="30.0451400">
<ele>71.780403</ele>
<time>2026-04-25T01:26:44.002Z</time>
</trkpt>
<trkpt lat="59.1004310" lon="30.0450500">
<ele>69.982079</ele>
<time>2026-04-25T01:27:42.002Z</time>
</trkpt>
<trkpt lat="59.1004390" lon="30.0448630">
<ele>69.616318</ele>
<time>2026-04-25T01:29:00.004Z</time>
</trkpt>
<trkpt lat="59.1004220" lon="30.0448730">
<ele>70.286880</ele>
<time>2026-04-25T01:29:53.002Z</time>
</trkpt>
<trkpt lat="59.1004610" lon="30.0448010">
<ele>69.738243</ele>
<time>2026-04-25T01:31:37.001Z</time>
</trkpt>
<trkpt lat="59.1004510" lon="30.0446500">
<ele>69.951599</ele>
<time>2026-04-25T01:32:04.001Z</time>
</trkpt>
<trkpt lat="59.1004100" lon="30.0445630">
<ele>70.164963</ele>
<time>2026-04-25T01:32:31.001Z</time>
</trkpt>
<trkpt lat="59.1004880" lon="30.0442060">
<ele>68.945763</ele>
<time>2026-04-25T01:34:17.999Z</time>
</trkpt>
<trkpt lat="59.1004930" lon="30.0437530">
<ele>69.524879</ele>
<time>2026-04-25T01:35:14.997Z</time>
</trkpt>
<trkpt lat="59.1005150" lon="30.0438140">
<ele>69.951599</ele>
<time>2026-04-25T01:38:15.003Z</time>
</trkpt>
<trkpt lat="59.1004970" lon="30.0437430">
<ele>68.580002</ele>
<time>2026-04-25T01:40:38.997Z</time>
</trkpt>
<trkpt lat="59.1005470" lon="30.0436010">
<ele>66.812157</ele>
<time>2026-04-25T01:41:31.001Z</time>
</trkpt>
<trkpt lat="59.1006480" lon="30.0426690">
<ele>65.623444</ele>
<time>2026-04-25T01:43:12.996Z</time>
</trkpt>
<trkpt lat="59.1006920" lon="30.0426680">
<ele>68.092316</ele>
<time>2026-04-25T01:44:49.004Z</time>
</trkpt>
<trkpt lat="59.1006450" lon="30.0427240">
<ele>68.976242</ele>
<time>2026-04-25T01:45:08.997Z</time>
</trkpt>
<trkpt lat="59.1006550" lon="30.0427760">
<ele>70.652641</ele>
<time>2026-04-25T01:45:23.996Z</time>
</trkpt>
<trkpt lat="59.1006090" lon="30.0426990">
<ele>72.146156</ele>
<time>2026-04-25T01:46:32.002Z</time>
</trkpt>
<trkpt lat="59.1007370" lon="30.0425450">
<ele>72.207115</ele>
<time>2026-04-25T01:49:26.996Z</time>
</trkpt>
<trkpt lat="59.1008250" lon="30.0426420">
<ele>70.805038</ele>
<time>2026-04-25T01:49:52.000Z</time>
</trkpt>
<trkpt lat="59.1010520" lon="30.0425320">
<ele>66.598801</ele>
<time>2026-04-25T01:50:46.000Z</time>
</trkpt>
<trkpt lat="59.1011650" lon="30.0424530">
<ele>67.818001</ele>
<time>2026-04-25T01:51:22.997Z</time>
</trkpt>
<trkpt lat="59.1012390" lon="30.0422120">
<ele>66.446404</ele>
<time>2026-04-25T01:51:52.001Z</time>
</trkpt>
<trkpt lat="59.1014610" lon="30.0421280">
<ele>64.800484</ele>
<time>2026-04-25T01:54:26.001Z</time>
</trkpt>
<trkpt lat="59.1016400" lon="30.0419430">
<ele>69.220085</ele>
<time>2026-04-25T01:56:07.002Z</time>
</trkpt>
<trkpt lat="59.1017030" lon="30.0419710">
<ele>70.805038</ele>
<time>2026-04-25T01:57:00.000Z</time>
</trkpt>
<trkpt lat="59.1017770" lon="30.0419090">
<ele>70.408798</ele>
<time>2026-04-25T01:57:17.997Z</time>
</trkpt>
<trkpt lat="59.1018150" lon="30.0420890">
<ele>69.677284</ele>
<time>2026-04-25T01:57:48.997Z</time>
</trkpt>
<trkpt lat="59.1018610" lon="30.0420740">
<ele>68.640961</ele>
<time>2026-04-25T01:58:10.001Z</time>
</trkpt>
<trkpt lat="59.1019080" lon="30.0419770">
<ele>70.256401</ele>
<time>2026-04-25T01:59:15.000Z</time>
</trkpt>
<trkpt lat="59.1019360" lon="30.0420320">
<ele>71.902321</ele>
<time>2026-04-25T02:01:12.996Z</time>
</trkpt>
<trkpt lat="59.1019330" lon="30.0419760">
<ele>72.542397</ele>
<time>2026-04-25T02:01:43.997Z</time>
</trkpt>
<trkpt lat="59.1019660" lon="30.0419830">
<ele>73.060562</ele>
<time>2026-04-25T02:03:04.003Z</time>
</trkpt>
<trkpt lat="59.1019630" lon="30.0420740">
<ele>72.115685</ele>
<time>2026-04-25T02:03:32.999Z</time>
</trkpt>
<trkpt lat="59.1020020" lon="30.0421930">
<ele>71.627998</ele>
<time>2026-04-25T02:03:54.003Z</time>
</trkpt>
<trkpt lat="59.1019570" lon="30.0420790">
<ele>71.079361</ele>
<time>2026-04-25T02:04:33.004Z</time>
</trkpt>
</trkseg>
</trk>
<trk>
 <name>20260425_Lisa82</name>
 <desc>20260425_Lisa82</desc>
<trkseg>
<trkpt lat="59.0991830" lon="30.0532080">
<ele>69.616318</ele>
<time>2026-04-24T23:28:35.996Z</time>
</trkpt>
<trkpt lat="59.0990910" lon="30.0534500">
<ele>74.493118</ele>
<time>2026-04-24T23:30:35.997Z</time>
</trkpt>
<trkpt lat="59.0992220" lon="30.0531050">
<ele>75.498962</ele>
<time>2026-04-24T23:30:57.001Z</time>
</trkpt>
<trkpt lat="59.0991950" lon="30.0529950">
<ele>74.035919</ele>
<time>2026-04-24T23:31:28.001Z</time>
</trkpt>
<trkpt lat="59.0992310" lon="30.0529640">
<ele>74.340721</ele>
<time>2026-04-24T23:31:53.999Z</time>
</trkpt>
<trkpt lat="59.0993000" lon="30.0530410">
<ele>77.053444</ele>
<time>2026-04-24T23:32:39.998Z</time>
</trkpt>
<trkpt lat="59.0992370" lon="30.0530130">
<ele>76.352402</ele>
<time>2026-04-24T23:33:14.999Z</time>
</trkpt>
<trkpt lat="59.0992550" lon="30.0530330">
<ele>77.632561</ele>
<time>2026-04-24T23:34:57.003Z</time>
</trkpt>
<trkpt lat="59.0993360" lon="30.0530770">
<ele>81.747360</ele>
<time>2026-04-24T23:35:59.997Z</time>
</trkpt>
<trkpt lat="59.0993310" lon="30.0530320">
<ele>82.265518</ele>
<time>2026-04-24T23:36:37.996Z</time>
</trkpt>
<trkpt lat="59.0993270" lon="30.0531470">
<ele>85.008720</ele>
<time>2026-04-24T23:37:46.001Z</time>
</trkpt>
<trkpt lat="59.0992910" lon="30.0530680">
<ele>87.050880</ele>
<time>2026-04-24T23:38:13.001Z</time>
</trkpt>
<trkpt lat="59.0993120" lon="30.0531390">
<ele>87.569038</ele>
<time>2026-04-24T23:38:41.004Z</time>
</trkpt>
<trkpt lat="59.0992700" lon="30.0531060">
<ele>83.545685</ele>
<time>2026-04-24T23:39:43.004Z</time>
</trkpt>
<trkpt lat="59.0993300" lon="30.0530560">
<ele>81.107285</ele>
<time>2026-04-24T23:40:40.996Z</time>
</trkpt>
<trkpt lat="59.0993230" lon="30.0531240">
<ele>79.126083</ele>
<time>2026-04-24T23:41:10.000Z</time>
</trkpt>
<trkpt lat="59.0992560" lon="30.0531210">
<ele>80.131920</ele>
<time>2026-04-24T23:42:09.003Z</time>
</trkpt>
<trkpt lat="59.0993050" lon="30.0530740">
<ele>80.741516</ele>
<time>2026-04-24T23:42:56.998Z</time>
</trkpt>
<trkpt lat="59.0993120" lon="30.0531980">
<ele>81.320633</ele>
<time>2026-04-24T23:44:32.997Z</time>
</trkpt>
<trkpt lat="59.0992810" lon="30.0531940">
<ele>81.594963</ele>
<time>2026-04-24T23:45:07.004Z</time>
</trkpt>
<trkpt lat="59.0993160" lon="30.0532840">
<ele>80.802483</ele>
<time>2026-04-24T23:45:32.000Z</time>
</trkpt>
<trkpt lat="59.0995720" lon="30.0535010">
<ele>74.615044</ele>
<time>2026-04-24T23:46:13.999Z</time>
</trkpt>
<trkpt lat="59.0999250" lon="30.0533920">
<ele>67.056000</ele>
<time>2026-04-24T23:46:55.998Z</time>
</trkpt>
<trkpt lat="59.1000450" lon="30.0533080">
<ele>88.666321</ele>
<time>2026-04-24T23:48:32.999Z</time>
</trkpt>
<trkpt lat="59.1000850" lon="30.0532250">
<ele>90.403679</ele>
<time>2026-04-24T23:49:05.002Z</time>
</trkpt>
<trkpt lat="59.1000700" lon="30.0533390">
<ele>94.823280</ele>
<time>2026-04-24T23:49:33.997Z</time>
</trkpt>
<trkpt lat="59.1004840" lon="30.0536790">
<ele>83.850479</ele>
<time>2026-04-24T23:50:38.996Z</time>
</trkpt>
<trkpt lat="59.1005900" lon="30.0535540">
<ele>82.174080</ele>
<time>2026-04-24T23:50:54.997Z</time>
</trkpt>
<trkpt lat="59.1005890" lon="30.0532590">
<ele>75.712318</ele>
<time>2026-04-24T23:51:40.003Z</time>
</trkpt>
<trkpt lat="59.1005400" lon="30.0533470">
<ele>67.726563</ele>
<time>2026-04-24T23:53:42.000Z</time>
</trkpt>
<trkpt lat="59.1008750" lon="30.0533690">
<ele>60.228481</ele>
<time>2026-04-24T23:54:23.999Z</time>
</trkpt>
<trkpt lat="59.1011870" lon="30.0535370">
<ele>70.530716</ele>
<time>2026-04-24T23:55:24.997Z</time>
</trkpt>
<trkpt lat="59.1012230" lon="30.0534300">
<ele>73.334885</ele>
<time>2026-04-24T23:57:55.999Z</time>
</trkpt>
<trkpt lat="59.1012510" lon="30.0535180">
<ele>70.987915</ele>
<time>2026-04-24T23:58:48.003Z</time>
</trkpt>
<trkpt lat="59.1013770" lon="30.0535760">
<ele>70.652641</ele>
<time>2026-04-24T23:59:10.000Z</time>
</trkpt>
<trkpt lat="59.1015530" lon="30.0535450">
<ele>69.555359</ele>
<time>2026-04-24T23:59:51.999Z</time>
</trkpt>
<trkpt lat="59.1016620" lon="30.0536370">
<ele>68.701920</ele>
<time>2026-04-25T00:00:12.001Z</time>
</trkpt>
<trkpt lat="59.1017680" lon="30.0536210">
<ele>68.610481</ele>
<time>2026-04-25T00:00:27.000Z</time>
</trkpt>
<trkpt lat="59.1018150" lon="30.0534340">
<ele>71.384155</ele>
<time>2026-04-25T00:00:47.002Z</time>
</trkpt>
<trkpt lat="59.1018450" lon="30.0534670">
<ele>72.542397</ele>
<time>2026-04-25T00:01:12.999Z</time>
</trkpt>
<trkpt lat="59.1019050" lon="30.0533900">
<ele>75.712318</ele>
<time>2026-04-25T00:01:42.997Z</time>
</trkpt>
<trkpt lat="59.1018580" lon="30.0533950">
<ele>74.554085</ele>
<time>2026-04-25T00:02:48.998Z</time>
</trkpt>
<trkpt lat="59.1018890" lon="30.0534770">
<ele>78.546967</ele>
<time>2026-04-25T00:04:46.001Z</time>
</trkpt>
<trkpt lat="59.1020050" lon="30.0535740">
<ele>77.297279</ele>
<time>2026-04-25T00:05:11.999Z</time>
</trkpt>
<trkpt lat="59.1021550" lon="30.0536000">
<ele>75.407516</ele>
<time>2026-04-25T00:05:29.996Z</time>
</trkpt>
<trkpt lat="59.1024150" lon="30.0535280">
<ele>76.230484</ele>
<time>2026-04-25T00:06:14.000Z</time>
</trkpt>
<trkpt lat="59.1024910" lon="30.0533660">
<ele>82.814163</ele>
<time>2026-04-25T00:07:37.004Z</time>
</trkpt>
<trkpt lat="59.1026110" lon="30.0534780">
<ele>86.441284</ele>
<time>2026-04-25T00:08:31.998Z</time>
</trkpt>
<trkpt lat="59.1029840" lon="30.0536280">
<ele>78.303116</ele>
<time>2026-04-25T00:09:27.000Z</time>
</trkpt>
<trkpt lat="59.1030570" lon="30.0536000">
<ele>83.301834</ele>
<time>2026-04-25T00:10:25.000Z</time>
</trkpt>
<trkpt lat="59.1030520" lon="30.0534960">
<ele>82.600800</ele>
<time>2026-04-25T00:10:57.003Z</time>
</trkpt>
<trkpt lat="59.1030380" lon="30.0535860">
<ele>82.844635</ele>
<time>2026-04-25T00:11:32.004Z</time>
</trkpt>
<trkpt lat="59.1030950" lon="30.0536730">
<ele>81.716881</ele>
<time>2026-04-25T00:12:00.999Z</time>
</trkpt>
<trkpt lat="59.1032780" lon="30.0537200">
<ele>76.901039</ele>
<time>2026-04-25T00:12:34.998Z</time>
</trkpt>
<trkpt lat="59.1034600" lon="30.0538450">
<ele>72.268082</ele>
<time>2026-04-25T00:12:53.997Z</time>
</trkpt>
<trkpt lat="59.1035940" lon="30.0538320">
<ele>74.584557</ele>
<time>2026-04-25T00:13:13.999Z</time>
</trkpt>
<trkpt lat="59.1036510" lon="30.0537310">
<ele>78.943199</ele>
<time>2026-04-25T00:14:20.000Z</time>
</trkpt>
<trkpt lat="59.1036350" lon="30.0539140">
<ele>81.930237</ele>
<time>2026-04-25T00:15:31.997Z</time>
</trkpt>
<trkpt lat="59.1036090" lon="30.0539730">
<ele>85.039200</ele>
<time>2026-04-25T00:16:32.002Z</time>
</trkpt>
<trkpt lat="59.1035800" lon="30.0538990">
<ele>83.941917</ele>
<time>2026-04-25T00:17:00.997Z</time>
</trkpt>
<trkpt lat="59.1036640" lon="30.0538350">
<ele>84.460083</ele>
<time>2026-04-25T00:17:30.002Z</time>
</trkpt>
<trkpt lat="59.1035760" lon="30.0539470">
<ele>82.661766</ele>
<time>2026-04-25T00:17:58.004Z</time>
</trkpt>
<trkpt lat="59.1035790" lon="30.0539150">
<ele>81.442566</ele>
<time>2026-04-25T00:18:23.000Z</time>
</trkpt>
<trkpt lat="59.1036490" lon="30.0539180">
<ele>81.229202</ele>
<time>2026-04-25T00:18:50.000Z</time>
</trkpt>
<trkpt lat="59.1037580" lon="30.0540520">
<ele>84.734398</ele>
<time>2026-04-25T00:19:48.000Z</time>
</trkpt>
<trkpt lat="59.1037410" lon="30.0539990">
<ele>85.039200</ele>
<time>2026-04-25T00:20:43.002Z</time>
</trkpt>
<trkpt lat="59.1036890" lon="30.0540500">
<ele>83.423767</ele>
<time>2026-04-25T00:21:37.002Z</time>
</trkpt>
<trkpt lat="59.1036560" lon="30.0539050">
<ele>82.722717</ele>
<time>2026-04-25T00:21:57.004Z</time>
</trkpt>
<trkpt lat="59.1036720" lon="30.0538490">
<ele>82.692238</ele>
<time>2026-04-25T00:22:21.999Z</time>
</trkpt>
<trkpt lat="59.1037600" lon="30.0538820">
<ele>82.235039</ele>
<time>2026-04-25T00:22:50.002Z</time>
</trkpt>
<trkpt lat="59.1042870" lon="30.0537450">
<ele>76.565758</ele>
<time>2026-04-25T00:24:36.999Z</time>
</trkpt>
<trkpt lat="59.1044100" lon="30.0538330">
<ele>82.509361</ele>
<time>2026-04-25T00:25:41.998Z</time>
</trkpt>
<trkpt lat="59.1043630" lon="30.0538470">
<ele>82.905602</ele>
<time>2026-04-25T00:26:11.996Z</time>
</trkpt>
<trkpt lat="59.1048860" lon="30.0537720">
<ele>75.956161</ele>
<time>2026-04-25T00:27:37.999Z</time>
</trkpt>
<trkpt lat="59.1049540" lon="30.0536890">
<ele>74.889359</ele>
<time>2026-04-25T00:28:33.001Z</time>
</trkpt>
<trkpt lat="59.1049220" lon="30.0537610">
<ele>74.005440</ele>
<time>2026-04-25T00:29:29.999Z</time>
</trkpt>
<trkpt lat="59.1049200" lon="30.0541110">
<ele>75.803757</ele>
<time>2026-04-25T00:30:45.996Z</time>
</trkpt>
<trkpt lat="59.1049880" lon="30.0544470">
<ele>72.877686</ele>
<time>2026-04-25T00:31:12.003Z</time>
</trkpt>
<trkpt lat="59.1050050" lon="30.0548460">
<ele>69.250557</ele>
<time>2026-04-25T00:31:32.998Z</time>
</trkpt>
<trkpt lat="59.1050860" lon="30.0548890">
<ele>74.035919</ele>
<time>2026-04-25T00:32:09.001Z</time>
</trkpt>
<trkpt lat="59.1050810" lon="30.0549320">
<ele>73.487282</ele>
<time>2026-04-25T00:32:24.000Z</time>
</trkpt>
<trkpt lat="59.1050560" lon="30.0548870">
<ele>74.828400</ele>
<time>2026-04-25T00:33:05.999Z</time>
</trkpt>
<trkpt lat="59.1050880" lon="30.0548680">
<ele>77.266800</ele>
<time>2026-04-25T00:33:50.003Z</time>
</trkpt>
<trkpt lat="59.1050570" lon="30.0549130">
<ele>78.943199</ele>
<time>2026-04-25T00:35:04.998Z</time>
</trkpt>
<trkpt lat="59.1049420" lon="30.0548880">
<ele>76.199997</ele>
<time>2026-04-25T00:35:57.002Z</time>
</trkpt>
<trkpt lat="59.1048280" lon="30.0547470">
<ele>74.889359</ele>
<time>2026-04-25T00:36:18.999Z</time>
</trkpt>
<trkpt lat="59.1045110" lon="30.0547480">
<ele>74.371201</ele>
<time>2026-04-25T00:36:58.000Z</time>
</trkpt>
<trkpt lat="59.1043920" lon="30.0546660">
<ele>76.992485</ele>
<time>2026-04-25T00:37:46.004Z</time>
</trkpt>
<trkpt lat="59.1043880" lon="30.0547330">
<ele>77.358238</ele>
<time>2026-04-25T00:38:16.002Z</time>
</trkpt>
<trkpt lat="59.1043830" lon="30.0546640">
<ele>79.705200</ele>
<time>2026-04-25T00:39:45.003Z</time>
</trkpt>
<trkpt lat="59.1042710" lon="30.0547790">
<ele>79.552803</ele>
<time>2026-04-25T00:40:15.001Z</time>
</trkpt>
<trkpt lat="59.1038020" lon="30.0545580">
<ele>78.120239</ele>
<time>2026-04-25T00:40:54.002Z</time>
</trkpt>
<trkpt lat="59.1036890" lon="30.0545890">
<ele>77.632561</ele>
<time>2026-04-25T00:41:45.004Z</time>
</trkpt>
<trkpt lat="59.1036110" lon="30.0543790">
<ele>79.187035</ele>
<time>2026-04-25T00:42:18.000Z</time>
</trkpt>
<trkpt lat="59.1036490" lon="30.0544130">
<ele>79.827118</ele>
<time>2026-04-25T00:42:47.998Z</time>
</trkpt>
<trkpt lat="59.1036480" lon="30.0544930">
<ele>77.723999</ele>
<time>2026-04-25T00:43:20.001Z</time>
</trkpt>
<trkpt lat="59.1036880" lon="30.0545210">
<ele>75.895203</ele>
<time>2026-04-25T00:43:48.003Z</time>
</trkpt>
<trkpt lat="59.1033910" lon="30.0545800">
<ele>74.310242</ele>
<time>2026-04-25T00:44:37.000Z</time>
</trkpt>
<trkpt lat="59.1030090" lon="30.0545440">
<ele>76.718163</ele>
<time>2026-04-25T00:46:21.000Z</time>
</trkpt>
<trkpt lat="59.1030670" lon="30.0545910">
<ele>80.802483</ele>
<time>2026-04-25T00:47:17.998Z</time>
</trkpt>
<trkpt lat="59.1029120" lon="30.0545120">
<ele>44.714161</ele>
<time>2026-04-25T00:49:30.000Z</time>
</trkpt>
<trkpt lat="59.1029790" lon="30.0546110">
<ele>78.882233</ele>
<time>2026-04-25T00:49:58.996Z</time>
</trkpt>
<trkpt lat="59.1028900" lon="30.0545930">
<ele>77.998322</ele>
<time>2026-04-25T00:50:18.997Z</time>
</trkpt>
<trkpt lat="59.1026130" lon="30.0544840">
<ele>76.840080</ele>
<time>2026-04-25T00:50:56.996Z</time>
</trkpt>
<trkpt lat="59.1022950" lon="30.0542910">
<ele>74.615044</ele>
<time>2026-04-25T00:51:23.996Z</time>
</trkpt>
<trkpt lat="59.1021860" lon="30.0543060">
<ele>72.359520</ele>
<time>2026-04-25T00:52:45.998Z</time>
</trkpt>
<trkpt lat="59.1021970" lon="30.0542510">
<ele>73.395844</ele>
<time>2026-04-25T00:54:02.998Z</time>
</trkpt>
<trkpt lat="59.1021680" lon="30.0541920">
<ele>76.017120</ele>
<time>2026-04-25T00:54:32.003Z</time>
</trkpt>
<trkpt lat="59.1021720" lon="30.0542660">
<ele>77.144882</ele>
<time>2026-04-25T00:55:03.003Z</time>
</trkpt>
<trkpt lat="59.1019420" lon="30.0541160">
<ele>78.516479</ele>
<time>2026-04-25T00:56:08.002Z</time>
</trkpt>
<trkpt lat="59.1015890" lon="30.0540990">
<ele>76.626717</ele>
<time>2026-04-25T00:57:13.000Z</time>
</trkpt>
<trkpt lat="59.1015880" lon="30.0539780">
<ele>75.834244</ele>
<time>2026-04-25T00:57:27.999Z</time>
</trkpt>
<trkpt lat="59.1016070" lon="30.0541840">
<ele>72.268082</ele>
<time>2026-04-25T00:57:41.996Z</time>
</trkpt>
<trkpt lat="59.1015630" lon="30.0544610">
<ele>70.805038</ele>
<time>2026-04-25T00:58:17.999Z</time>
</trkpt>
<trkpt lat="59.1016800" lon="30.0544450">
<ele>73.426315</ele>
<time>2026-04-25T00:59:20.000Z</time>
</trkpt>
<trkpt lat="59.1015550" lon="30.0544530">
<ele>78.882233</ele>
<time>2026-04-25T00:59:52.996Z</time>
</trkpt>
<trkpt lat="59.1015330" lon="30.0543980">
<ele>79.827118</ele>
<time>2026-04-25T01:00:24.998Z</time>
</trkpt>
<trkpt lat="59.1015040" lon="30.0544460">
<ele>80.101433</ele>
<time>2026-04-25T01:00:54.003Z</time>
</trkpt>
<trkpt lat="59.1015720" lon="30.0545200">
<ele>82.356964</ele>
<time>2026-04-25T01:01:48.996Z</time>
</trkpt>
<trkpt lat="59.1015140" lon="30.0544220">
<ele>83.393280</ele>
<time>2026-04-25T01:02:16.999Z</time>
</trkpt>
<trkpt lat="59.1015690" lon="30.0544810">
<ele>84.856316</ele>
<time>2026-04-25T01:02:43.999Z</time>
</trkpt>
<trkpt lat="59.1015230" lon="30.0544940">
<ele>85.008720</ele>
<time>2026-04-25T01:03:14.999Z</time>
</trkpt>
<trkpt lat="59.1015080" lon="30.0543980">
<ele>84.429604</ele>
<time>2026-04-25T01:03:47.002Z</time>
</trkpt>
<trkpt lat="59.1015480" lon="30.0545070">
<ele>83.637115</ele>
<time>2026-04-25T01:04:35.999Z</time>
</trkpt>
<trkpt lat="59.1015400" lon="30.0544020">
<ele>83.911438</ele>
<time>2026-04-25T01:05:06.999Z</time>
</trkpt>
<trkpt lat="59.1015840" lon="30.0544280">
<ele>83.362801</ele>
<time>2026-04-25T01:06:45.003Z</time>
</trkpt>
<trkpt lat="59.1015680" lon="30.0544910">
<ele>84.368637</ele>
<time>2026-04-25T01:07:15.001Z</time>
</trkpt>
<trkpt lat="59.1015000" lon="30.0545180">
<ele>84.155281</ele>
<time>2026-04-25T01:07:43.003Z</time>
</trkpt>
<trkpt lat="59.1014760" lon="30.0544000">
<ele>82.448402</ele>
<time>2026-04-25T01:08:41.997Z</time>
</trkpt>
<trkpt lat="59.1015310" lon="30.0543960">
<ele>82.113121</ele>
<time>2026-04-25T01:09:12.004Z</time>
</trkpt>
<trkpt lat="59.1015780" lon="30.0544770">
<ele>82.875114</ele>
<time>2026-04-25T01:09:42.002Z</time>
</trkpt>
<trkpt lat="59.1015400" lon="30.0544060">
<ele>81.808319</ele>
<time>2026-04-25T01:10:37.004Z</time>
</trkpt>
<trkpt lat="59.1012620" lon="30.0545520">
<ele>82.509361</ele>
<time>2026-04-25T01:12:28.002Z</time>
</trkpt>
<trkpt lat="59.1008690" lon="30.0546160">
<ele>80.314796</ele>
<time>2026-04-25T01:13:42.997Z</time>
</trkpt>
<trkpt lat="59.1008620" lon="30.0544820">
<ele>81.046318</ele>
<time>2026-04-25T01:13:58.999Z</time>
</trkpt>
<trkpt lat="59.1008220" lon="30.0544580">
<ele>80.680565</ele>
<time>2026-04-25T01:14:24.996Z</time>
</trkpt>
<trkpt lat="59.1009040" lon="30.0544800">
<ele>74.493118</ele>
<time>2026-04-25T01:16:24.004Z</time>
</trkpt>
<trkpt lat="59.1007980" lon="30.0544060">
<ele>74.615044</ele>
<time>2026-04-25T01:17:45.997Z</time>
</trkpt>
<trkpt lat="59.1007750" lon="30.0544560">
<ele>75.377045</ele>
<time>2026-04-25T01:20:06.000Z</time>
</trkpt>
<trkpt lat="59.1007900" lon="30.0544760">
<ele>76.840080</ele>
<time>2026-04-25T01:20:34.002Z</time>
</trkpt>
<trkpt lat="59.1004140" lon="30.0545830">
<ele>77.327759</ele>
<time>2026-04-25T01:21:59.003Z</time>
</trkpt>
<trkpt lat="59.1001980" lon="30.0543930">
<ele>75.224640</ele>
<time>2026-04-25T01:22:30.996Z</time>
</trkpt>
<trkpt lat="59.1002310" lon="30.0543500">
<ele>76.443840</ele>
<time>2026-04-25T01:23:00.001Z</time>
</trkpt>
<trkpt lat="59.1001960" lon="30.0543590">
<ele>74.615044</ele>
<time>2026-04-25T01:23:43.002Z</time>
</trkpt>
<trkpt lat="59.1001940" lon="30.0543280">
<ele>73.914001</ele>
<time>2026-04-25T01:24:42.998Z</time>
</trkpt>
<trkpt lat="59.0998420" lon="30.0544860">
<ele>70.225922</ele>
<time>2026-04-25T01:26:03.998Z</time>
</trkpt>
<trkpt lat="59.0996770" lon="30.0545100">
<ele>67.970398</ele>
<time>2026-04-25T01:26:22.004Z</time>
</trkpt>
<trkpt lat="59.0995380" lon="30.0544460">
<ele>70.225922</ele>
<time>2026-04-25T01:26:56.003Z</time>
</trkpt>
<trkpt lat="59.0995310" lon="30.0544850">
<ele>73.304398</ele>
<time>2026-04-25T01:27:54.003Z</time>
</trkpt>
<trkpt lat="59.0995090" lon="30.0544830">
<ele>78.638397</ele>
<time>2026-04-25T01:29:20.999Z</time>
</trkpt>
<trkpt lat="59.0995110" lon="30.0543920">
<ele>79.644234</ele>
<time>2026-04-25T01:29:46.997Z</time>
</trkpt>
<trkpt lat="59.0992250" lon="30.0542410">
<ele>78.760315</ele>
<time>2026-04-25T01:30:25.998Z</time>
</trkpt>
<trkpt lat="59.0990460" lon="30.0542190">
<ele>76.443840</ele>
<time>2026-04-25T01:30:47.002Z</time>
</trkpt>
<trkpt lat="59.0989260" lon="30.0540710">
<ele>75.773285</ele>
<time>2026-04-25T01:31:30.003Z</time>
</trkpt>
<trkpt lat="59.0988540" lon="30.0536860">
<ele>74.828400</ele>
<time>2026-04-25T01:33:36.000Z</time>
</trkpt>
<trkpt lat="59.0988340" lon="30.0537250">
<ele>72.908157</ele>
<time>2026-04-25T01:33:59.000Z</time>
</trkpt>
<trkpt lat="59.0989010" lon="30.0537450">
<ele>74.645515</ele>
<time>2026-04-25T01:34:51.004Z</time>
</trkpt>
<trkpt lat="59.0988520" lon="30.0538030">
<ele>74.218803</ele>
<time>2026-04-25T01:35:14.004Z</time>
</trkpt>
<trkpt lat="59.0988360" lon="30.0537240">
<ele>76.260956</ele>
<time>2026-04-25T01:36:08.004Z</time>
</trkpt>
<trkpt lat="59.0988250" lon="30.0537680">
<ele>75.956161</ele>
<time>2026-04-25T01:36:45.000Z</time>
</trkpt>
<trkpt lat="59.0989090" lon="30.0536490">
<ele>75.803757</ele>
<time>2026-04-25T01:40:38.997Z</time>
</trkpt>
<trkpt lat="59.0989220" lon="30.0534990">
<ele>79.857597</ele>
<time>2026-04-25T01:41:09.004Z</time>
</trkpt>
<trkpt lat="59.0988760" lon="30.0535290">
<ele>77.602081</ele>
<time>2026-04-25T01:42:05.000Z</time>
</trkpt>
<trkpt lat="59.0989160" lon="30.0534510">
<ele>79.705200</ele>
<time>2026-04-25T01:43:17.999Z</time>
</trkpt>
<trkpt lat="59.0989010" lon="30.0535470">
<ele>76.321915</ele>
<time>2026-04-25T01:43:51.997Z</time>
</trkpt>
</trkseg>
</trk>
<trk>
 <name>20260425_Lisa83</name>
 <desc>20260425_Lisa83</desc>
<trkseg>
<trkpt lat="59.1044190" lon="29.9857380">
<ele>69.799202</ele>
<time>2026-04-24T21:37:10.001Z</time>
</trkpt>
<trkpt lat="59.1045530" lon="29.9862890">
<ele>69.128639</ele>
<time>2026-04-24T21:38:11.000Z</time>
</trkpt>
<trkpt lat="59.1045930" lon="29.9866050">
<ele>68.945763</ele>
<time>2026-04-24T21:38:43.002Z</time>
</trkpt>
<trkpt lat="59.1045260" lon="29.9866320">
<ele>69.311516</ele>
<time>2026-04-24T21:39:14.003Z</time>
</trkpt>
<trkpt lat="59.1046640" lon="29.9873040">
<ele>68.732399</ele>
<time>2026-04-24T21:40:24.004Z</time>
</trkpt>
<trkpt lat="59.1046820" lon="29.9875750">
<ele>67.360802</ele>
<time>2026-04-24T21:40:43.003Z</time>
</trkpt>
<trkpt lat="59.1047200" lon="29.9876590">
<ele>69.220085</ele>
<time>2026-04-24T21:40:59.998Z</time>
</trkpt>
<trkpt lat="59.1047040" lon="29.9876620">
<ele>69.555359</ele>
<time>2026-04-24T21:42:45.000Z</time>
</trkpt>
<trkpt lat="59.1047250" lon="29.9876690">
<ele>69.494400</ele>
<time>2026-04-24T21:43:36.002Z</time>
</trkpt>
<trkpt lat="59.1048000" lon="29.9880580">
<ele>70.683121</ele>
<time>2026-04-24T21:44:07.002Z</time>
</trkpt>
<trkpt lat="59.1048410" lon="29.9888220">
<ele>69.342003</ele>
<time>2026-04-24T21:45:28.996Z</time>
</trkpt>
<trkpt lat="59.1049930" lon="29.9898550">
<ele>68.793358</ele>
<time>2026-04-24T21:48:23.999Z</time>
</trkpt>
<trkpt lat="59.1049750" lon="29.9899710">
<ele>66.842644</ele>
<time>2026-04-24T21:50:02.996Z</time>
</trkpt>
<trkpt lat="59.1050740" lon="29.9903330">
<ele>68.549515</ele>
<time>2026-04-24T21:52:37.004Z</time>
</trkpt>
<trkpt lat="59.1051710" lon="29.9910200">
<ele>67.970398</ele>
<time>2026-04-24T21:53:54.997Z</time>
</trkpt>
<trkpt lat="59.1051790" lon="29.9912830">
<ele>67.421761</ele>
<time>2026-04-24T21:55:03.996Z</time>
</trkpt>
<trkpt lat="59.1052520" lon="29.9915350">
<ele>67.391281</ele>
<time>2026-04-24T21:55:33.001Z</time>
</trkpt>
<trkpt lat="59.1052330" lon="29.9914670">
<ele>68.640961</ele>
<time>2026-04-24T21:56:40.998Z</time>
</trkpt>
<trkpt lat="59.1052310" lon="29.9915970">
<ele>65.592957</ele>
<time>2026-04-24T21:57:03.997Z</time>
</trkpt>
<trkpt lat="59.1052760" lon="29.9917820">
<ele>64.922401</ele>
<time>2026-04-24T21:58:19.001Z</time>
</trkpt>
<trkpt lat="59.1056460" lon="29.9921770">
<ele>68.945763</ele>
<time>2026-04-24T22:00:57.001Z</time>
</trkpt>
<trkpt lat="59.1056770" lon="29.9923270">
<ele>67.818001</ele>
<time>2026-04-24T22:01:28.001Z</time>
</trkpt>
<trkpt lat="59.1057610" lon="29.9924890">
<ele>69.220085</ele>
<time>2026-04-24T22:01:45.998Z</time>
</trkpt>
<trkpt lat="59.1058180" lon="29.9929240">
<ele>65.897758</ele>
<time>2026-04-24T22:02:54.997Z</time>
</trkpt>
<trkpt lat="59.1058730" lon="29.9930770">
<ele>66.354958</ele>
<time>2026-04-24T22:04:02.001Z</time>
</trkpt>
<trkpt lat="59.1058330" lon="29.9931970">
<ele>67.238884</ele>
<time>2026-04-24T22:04:26.003Z</time>
</trkpt>
<trkpt lat="59.1056520" lon="29.9934050">
<ele>66.659760</ele>
<time>2026-04-24T22:07:01.004Z</time>
</trkpt>
<trkpt lat="59.1056840" lon="29.9934250">
<ele>65.471039</ele>
<time>2026-04-24T22:08:10.003Z</time>
</trkpt>
<trkpt lat="59.1057260" lon="29.9936030">
<ele>70.347839</ele>
<time>2026-04-24T22:08:56.003Z</time>
</trkpt>
<trkpt lat="59.1057180" lon="29.9940030">
<ele>69.098160</ele>
<time>2026-04-24T22:10:08.000Z</time>
</trkpt>
<trkpt lat="59.1056850" lon="29.9939820">
<ele>68.519043</ele>
<time>2026-04-24T22:10:56.997Z</time>
</trkpt>
<trkpt lat="59.1057520" lon="29.9943250">
<ele>67.604637</ele>
<time>2026-04-24T22:11:46.997Z</time>
</trkpt>
<trkpt lat="59.1057510" lon="29.9944320">
<ele>65.044319</ele>
<time>2026-04-24T22:12:14.999Z</time>
</trkpt>
<trkpt lat="59.1057950" lon="29.9944660">
<ele>64.221359</ele>
<time>2026-04-24T22:12:39.001Z</time>
</trkpt>
<trkpt lat="59.1057480" lon="29.9944620">
<ele>64.739517</ele>
<time>2026-04-24T22:13:03.003Z</time>
</trkpt>
<trkpt lat="59.1057110" lon="29.9947700">
<ele>61.020958</ele>
<time>2026-04-24T22:13:44.000Z</time>
</trkpt>
<trkpt lat="59.1057870" lon="29.9952680">
<ele>68.092316</ele>
<time>2026-04-24T22:14:39.002Z</time>
</trkpt>
<trkpt lat="59.1058020" lon="29.9952470">
<ele>68.244720</ele>
<time>2026-04-24T22:15:10.002Z</time>
</trkpt>
<trkpt lat="59.1057120" lon="29.9947500">
<ele>72.359520</ele>
<time>2026-04-24T22:16:00.002Z</time>
</trkpt>
<trkpt lat="59.1057150" lon="29.9945300">
<ele>72.176643</ele>
<time>2026-04-24T22:16:34.000Z</time>
</trkpt>
<trkpt lat="59.1057320" lon="29.9946060">
<ele>71.688957</ele>
<time>2026-04-24T22:17:02.996Z</time>
</trkpt>
<trkpt lat="59.1056620" lon="29.9947060">
<ele>71.902321</ele>
<time>2026-04-24T22:17:56.003Z</time>
</trkpt>
<trkpt lat="59.1054510" lon="29.9947620">
<ele>71.353683</ele>
<time>2026-04-24T22:21:50.000Z</time>
</trkpt>
<trkpt lat="59.1054840" lon="29.9947910">
<ele>73.914001</ele>
<time>2026-04-24T22:22:34.997Z</time>
</trkpt>
<trkpt lat="59.1054630" lon="29.9948250">
<ele>75.102715</ele>
<time>2026-04-24T22:23:08.002Z</time>
</trkpt>
<trkpt lat="59.1054660" lon="29.9949140">
<ele>74.676003</ele>
<time>2026-04-24T22:25:12.996Z</time>
</trkpt>
<trkpt lat="59.1054660" lon="29.9948630">
<ele>76.078079</ele>
<time>2026-04-24T22:26:25.996Z</time>
</trkpt>
<trkpt lat="59.1053030" lon="29.9948750">
<ele>77.998322</ele>
<time>2026-04-24T22:27:43.998Z</time>
</trkpt>
<trkpt lat="59.1052240" lon="29.9951270">
<ele>75.468483</ele>
<time>2026-04-24T22:28:29.997Z</time>
</trkpt>
<trkpt lat="59.1052620" lon="29.9953170">
<ele>73.334885</ele>
<time>2026-04-24T22:29:42.996Z</time>
</trkpt>
<trkpt lat="59.1052410" lon="29.9952280">
<ele>73.273918</ele>
<time>2026-04-24T22:30:09.996Z</time>
</trkpt>
<trkpt lat="59.1051700" lon="29.9951710">
<ele>76.809601</ele>
<time>2026-04-24T22:31:25.000Z</time>
</trkpt>
<trkpt lat="59.1051550" lon="29.9952200">
<ele>77.114403</ele>
<time>2026-04-24T22:31:54.998Z</time>
</trkpt>
<trkpt lat="59.1050320" lon="29.9952550">
<ele>77.723999</ele>
<time>2026-04-24T22:33:30.997Z</time>
</trkpt>
<trkpt lat="59.1050680" lon="29.9954570">
<ele>76.413361</ele>
<time>2026-04-24T22:35:09.001Z</time>
</trkpt>
<trkpt lat="59.1050020" lon="29.9955580">
<ele>78.303116</ele>
<time>2026-04-24T22:36:58.997Z</time>
</trkpt>
<trkpt lat="59.1050590" lon="29.9953080">
<ele>76.931519</ele>
<time>2026-04-24T22:37:47.001Z</time>
</trkpt>
<trkpt lat="59.1051240" lon="29.9951680">
<ele>76.961998</ele>
<time>2026-04-24T22:38:15.003Z</time>
</trkpt>
<trkpt lat="59.1051400" lon="29.9949400">
<ele>75.163681</ele>
<time>2026-04-24T22:38:33.000Z</time>
</trkpt>
<trkpt lat="59.1051730" lon="29.9948670">
<ele>75.864716</ele>
<time>2026-04-24T22:38:58.998Z</time>
</trkpt>
<trkpt lat="59.1053970" lon="29.9949450">
<ele>74.127357</ele>
<time>2026-04-24T22:39:52.998Z</time>
</trkpt>
<trkpt lat="59.1054980" lon="29.9947850">
<ele>72.755760</ele>
<time>2026-04-24T22:40:30.996Z</time>
</trkpt>
<trkpt lat="59.1054860" lon="29.9946540">
<ele>73.548241</ele>
<time>2026-04-24T22:41:32.004Z</time>
</trkpt>
<trkpt lat="59.1057040" lon="29.9946610">
<ele>72.999603</ele>
<time>2026-04-24T22:42:37.002Z</time>
</trkpt>
<trkpt lat="59.1057950" lon="29.9944910">
<ele>71.749916</ele>
<time>2026-04-24T22:43:20.004Z</time>
</trkpt>
<trkpt lat="59.1058400" lon="29.9945180">
<ele>69.799202</ele>
<time>2026-04-24T22:43:43.997Z</time>
</trkpt>
<trkpt lat="59.1057490" lon="29.9943130">
<ele>71.780403</ele>
<time>2026-04-24T22:44:40.001Z</time>
</trkpt>
<trkpt lat="59.1057310" lon="29.9941010">
<ele>72.176643</ele>
<time>2026-04-24T22:44:56.996Z</time>
</trkpt>
<trkpt lat="59.1057760" lon="29.9938660">
<ele>72.999603</ele>
<time>2026-04-24T22:45:20.998Z</time>
</trkpt>
<trkpt lat="59.1057490" lon="29.9934370">
<ele>73.456802</ele>
<time>2026-04-24T22:45:58.997Z</time>
</trkpt>
<trkpt lat="59.1057790" lon="29.9933140">
<ele>76.748642</ele>
<time>2026-04-24T22:46:14.998Z</time>
</trkpt>
<trkpt lat="59.1059540" lon="29.9930170">
<ele>74.950317</ele>
<time>2026-04-24T22:46:51.001Z</time>
</trkpt>
<trkpt lat="59.1061830" lon="29.9921810">
<ele>73.853043</ele>
<time>2026-04-24T22:47:58.998Z</time>
</trkpt>
<trkpt lat="59.1060460" lon="29.9927340">
<ele>74.005440</ele>
<time>2026-04-24T22:48:55.996Z</time>
</trkpt>
<trkpt lat="59.1060610" lon="29.9929780">
<ele>76.535278</ele>
<time>2026-04-24T22:49:45.002Z</time>
</trkpt>
<trkpt lat="59.1059050" lon="29.9930630">
<ele>75.041756</ele>
<time>2026-04-24T22:50:20.996Z</time>
</trkpt>
<trkpt lat="59.1056980" lon="29.9923110">
<ele>73.334885</ele>
<time>2026-04-24T22:51:23.999Z</time>
</trkpt>
<trkpt lat="59.1055930" lon="29.9921280">
<ele>72.908157</ele>
<time>2026-04-24T22:51:45.003Z</time>
</trkpt>
<trkpt lat="59.1054170" lon="29.9919930">
<ele>73.152000</ele>
<time>2026-04-24T22:52:03.000Z</time>
</trkpt>
<trkpt lat="59.1052630" lon="29.9916340">
<ele>77.571602</ele>
<time>2026-04-24T22:52:53.000Z</time>
</trkpt>
<trkpt lat="59.1051870" lon="29.9913660">
<ele>77.053444</ele>
<time>2026-04-24T22:53:07.999Z</time>
</trkpt>
<trkpt lat="59.1051970" lon="29.9909410">
<ele>77.083916</ele>
<time>2026-04-24T22:53:40.001Z</time>
</trkpt>
<trkpt lat="59.1051720" lon="29.9906430">
<ele>75.194160</ele>
<time>2026-04-24T22:53:57.998Z</time>
</trkpt>
<trkpt lat="59.1050190" lon="29.9900110">
<ele>72.969116</ele>
<time>2026-04-24T22:54:23.003Z</time>
</trkpt>
<trkpt lat="59.1050220" lon="29.9898700">
<ele>73.091042</ele>
<time>2026-04-24T22:54:28.999Z</time>
</trkpt>
<trkpt lat="59.1048570" lon="29.9888470">
<ele>73.792084</ele>
<time>2026-04-24T22:55:56.004Z</time>
</trkpt>
<trkpt lat="59.1048200" lon="29.9878360">
<ele>73.609200</ele>
<time>2026-04-24T22:57:10.999Z</time>
</trkpt>
<trkpt lat="59.1047190" lon="29.9875810">
<ele>74.005440</ele>
<time>2026-04-24T22:57:40.997Z</time>
</trkpt>
<trkpt lat="59.1046280" lon="29.9870590">
<ele>75.681839</ele>
<time>2026-04-24T22:58:11.004Z</time>
</trkpt>
</trkseg>
</trk>
<trk>
 <name>20260425_Lisa84</name>
 <desc>20260425_Lisa84</desc>
<trkseg>
<trkpt lat="59.0891290" lon="29.9809600">
<ele>116.707916</ele>
<time>2026-04-24T23:03:16.998Z</time>
</trkpt>
<trkpt lat="59.0890470" lon="29.9811040">
<ele>116.372635</ele>
<time>2026-04-24T23:03:30.001Z</time>
</trkpt>
<trkpt lat="59.0890140" lon="29.9812810">
<ele>116.189766</ele>
<time>2026-04-24T23:03:43.998Z</time>
</trkpt>
<trkpt lat="59.0890250" lon="29.9814500">
<ele>116.464081</ele>
<time>2026-04-24T23:03:51.998Z</time>
</trkpt>
<trkpt lat="59.0889790" lon="29.9816890">
<ele>116.098320</ele>
<time>2026-04-24T23:04:06.004Z</time>
</trkpt>
<trkpt lat="59.0890040" lon="29.9820410">
<ele>115.732567</ele>
<time>2026-04-24T23:04:29.004Z</time>
</trkpt>
<trkpt lat="59.0891180" lon="29.9826340">
<ele>114.665764</ele>
<time>2026-04-24T23:05:10.000Z</time>
</trkpt>
<trkpt lat="59.0890660" lon="29.9829330">
<ele>114.574318</ele>
<time>2026-04-24T23:05:34.002Z</time>
</trkpt>
<trkpt lat="59.0890040" lon="29.9835170">
<ele>114.269516</ele>
<time>2026-04-24T23:06:17.997Z</time>
</trkpt>
<trkpt lat="59.0890290" lon="29.9835230">
<ele>111.130081</ele>
<time>2026-04-24T23:06:56.998Z</time>
</trkpt>
<trkpt lat="59.0889960" lon="29.9835410">
<ele>112.257835</ele>
<time>2026-04-24T23:07:42.004Z</time>
</trkpt>
<trkpt lat="59.0889090" lon="29.9833960">
<ele>110.672882</ele>
<time>2026-04-24T23:09:21.001Z</time>
</trkpt>
<trkpt lat="59.0889000" lon="29.9827930">
<ele>108.204002</ele>
<time>2026-04-24T23:12:28.999Z</time>
</trkpt>
<trkpt lat="59.0888570" lon="29.9826230">
<ele>107.624886</ele>
<time>2026-04-24T23:12:53.001Z</time>
</trkpt>
<trkpt lat="59.0889220" lon="29.9823030">
<ele>107.137199</ele>
<time>2026-04-24T23:13:26.999Z</time>
</trkpt>
<trkpt lat="59.0888780" lon="29.9819290">
<ele>104.576881</ele>
<time>2026-04-24T23:16:38.997Z</time>
</trkpt>
<trkpt lat="59.0889140" lon="29.9814500">
<ele>104.302567</ele>
<time>2026-04-24T23:17:36.997Z</time>
</trkpt>
<trkpt lat="59.0888780" lon="29.9812230">
<ele>104.393997</ele>
<time>2026-04-24T23:18:06.002Z</time>
</trkpt>
<trkpt lat="59.0888940" lon="29.9812390">
<ele>102.290878</ele>
<time>2026-04-24T23:20:52.996Z</time>
</trkpt>
<trkpt lat="59.0889120" lon="29.9808790">
<ele>102.047035</ele>
<time>2026-04-24T23:21:30.001Z</time>
</trkpt>
<trkpt lat="59.0888540" lon="29.9807760">
<ele>101.772720</ele>
<time>2026-04-24T23:21:59.999Z</time>
</trkpt>
<trkpt lat="59.0887950" lon="29.9805340">
<ele>101.772720</ele>
<time>2026-04-24T23:22:29.997Z</time>
</trkpt>
<trkpt lat="59.0888180" lon="29.9800410">
<ele>100.736397</ele>
<time>2026-04-24T23:24:43.001Z</time>
</trkpt>
<trkpt lat="59.0887810" lon="29.9799100">
<ele>100.065834</ele>
<time>2026-04-24T23:25:49.996Z</time>
</trkpt>
<trkpt lat="59.0887700" lon="29.9793720">
<ele>99.486717</ele>
<time>2026-04-24T23:26:32.004Z</time>
</trkpt>
<trkpt lat="59.0887330" lon="29.9792220">
<ele>99.547684</ele>
<time>2026-04-24T23:26:44.998Z</time>
</trkpt>
<trkpt lat="59.0887210" lon="29.9789890">
<ele>98.999039</ele>
<time>2026-04-24T23:27:15.998Z</time>
</trkpt>
<trkpt lat="59.0887360" lon="29.9787990">
<ele>98.602798</ele>
<time>2026-04-24T23:29:02.003Z</time>
</trkpt>
<trkpt lat="59.0886790" lon="29.9784650">
<ele>97.322639</ele>
<time>2026-04-24T23:31:05.002Z</time>
</trkpt>
<trkpt lat="59.0886800" lon="29.9779710">
<ele>96.956879</ele>
<time>2026-04-24T23:31:56.004Z</time>
</trkpt>
<trkpt lat="59.0885400" lon="29.9775610">
<ele>96.286316</ele>
<time>2026-04-24T23:33:23.000Z</time>
</trkpt>
<trkpt lat="59.0885870" lon="29.9773970">
<ele>96.834961</ele>
<time>2026-04-24T23:33:52.004Z</time>
</trkpt>
<trkpt lat="59.0885340" lon="29.9772630">
<ele>94.823280</ele>
<time>2026-04-24T23:35:40.998Z</time>
</trkpt>
<trkpt lat="59.0885370" lon="29.9771620">
<ele>94.731834</ele>
<time>2026-04-24T23:36:23.999Z</time>
</trkpt>
<trkpt lat="59.0885840" lon="29.9771190">
<ele>94.670883</ele>
<time>2026-04-24T23:37:00.002Z</time>
</trkpt>
<trkpt lat="59.0885930" lon="29.9771620">
<ele>93.573601</ele>
<time>2026-04-24T23:39:01.999Z</time>
</trkpt>
<trkpt lat="59.0886440" lon="29.9770010">
<ele>93.329765</ele>
<time>2026-04-24T23:40:03.999Z</time>
</trkpt>
<trkpt lat="59.0886480" lon="29.9768480">
<ele>93.329765</ele>
<time>2026-04-24T23:40:21.003Z</time>
</trkpt>
<trkpt lat="59.0885840" lon="29.9766830">
<ele>92.994484</ele>
<time>2026-04-24T23:40:52.003Z</time>
</trkpt>
<trkpt lat="59.0885450" lon="29.9763780">
<ele>92.872566</ele>
<time>2026-04-24T23:41:37.000Z</time>
</trkpt>
<trkpt lat="59.0887350" lon="29.9763610">
<ele>93.177361</ele>
<time>2026-04-24T23:42:20.002Z</time>
</trkpt>
<trkpt lat="59.0887860" lon="29.9762980">
<ele>93.055435</ele>
<time>2026-04-24T23:42:52.998Z</time>
</trkpt>
<trkpt lat="59.0887570" lon="29.9761940">
<ele>93.177361</ele>
<time>2026-04-24T23:43:07.003Z</time>
</trkpt>
<trkpt lat="59.0887550" lon="29.9760450">
<ele>93.085915</ele>
<time>2026-04-24T23:43:21.000Z</time>
</trkpt>
<trkpt lat="59.0888100" lon="29.9758540">
<ele>93.146881</ele>
<time>2026-04-24T23:43:58.999Z</time>
</trkpt>
<trkpt lat="59.0888140" lon="29.9754520">
<ele>92.537285</ele>
<time>2026-04-24T23:47:10.003Z</time>
</trkpt>
<trkpt lat="59.0886810" lon="29.9753540">
<ele>92.384880</ele>
<time>2026-04-24T23:47:32.001Z</time>
</trkpt>
<trkpt lat="59.0886120" lon="29.9753820">
<ele>92.354401</ele>
<time>2026-04-24T23:47:44.002Z</time>
</trkpt>
<trkpt lat="59.0887010" lon="29.9754620">
<ele>92.415367</ele>
<time>2026-04-24T23:47:52.002Z</time>
</trkpt>
<trkpt lat="59.0887890" lon="29.9754670">
<ele>93.024963</ele>
<time>2026-04-24T23:48:00.003Z</time>
</trkpt>
<trkpt lat="59.0887830" lon="29.9750830">
<ele>92.933517</ele>
<time>2026-04-24T23:48:30.001Z</time>
</trkpt>
<trkpt lat="59.0887440" lon="29.9748030">
<ele>93.604080</ele>
<time>2026-04-24T23:49:01.001Z</time>
</trkpt>
<trkpt lat="59.0887580" lon="29.9743850">
<ele>94.152718</ele>
<time>2026-04-24T23:49:40.002Z</time>
</trkpt>
<trkpt lat="59.0887360" lon="29.9742890">
<ele>94.030800</ele>
<time>2026-04-24T23:49:52.997Z</time>
</trkpt>
<trkpt lat="59.0886760" lon="29.9742870">
<ele>93.939362</ele>
<time>2026-04-24T23:50:34.996Z</time>
</trkpt>
<trkpt lat="59.0886300" lon="29.9743510">
<ele>94.518478</ele>
<time>2026-04-24T23:50:46.003Z</time>
</trkpt>
<trkpt lat="59.0885460" lon="29.9742690">
<ele>94.122238</ele>
<time>2026-04-24T23:51:05.003Z</time>
</trkpt>
<trkpt lat="59.0882580" lon="29.9742270">
<ele>94.000320</ele>
<time>2026-04-24T23:51:59.996Z</time>
</trkpt>
<trkpt lat="59.0882380" lon="29.9738040">
<ele>86.776566</ele>
<time>2026-04-24T23:55:04.002Z</time>
</trkpt>
<trkpt lat="59.0882010" lon="29.9740660">
<ele>90.921837</ele>
<time>2026-04-24T23:55:39.996Z</time>
</trkpt>
<trkpt lat="59.0882050" lon="29.9743240">
<ele>92.963997</ele>
<time>2026-04-24T23:56:03.998Z</time>
</trkpt>
<trkpt lat="59.0881690" lon="29.9743870">
<ele>92.110565</ele>
<time>2026-04-24T23:56:57.998Z</time>
</trkpt>
<trkpt lat="59.0881890" lon="29.9744190">
<ele>91.836235</ele>
<time>2026-04-24T23:58:10.004Z</time>
</trkpt>
<trkpt lat="59.0881810" lon="29.9748020">
<ele>91.927681</ele>
<time>2026-04-25T00:00:00.000Z</time>
</trkpt>
<trkpt lat="59.0882240" lon="29.9749870">
<ele>90.220802</ele>
<time>2026-04-25T00:00:24.002Z</time>
</trkpt>
<trkpt lat="59.0882670" lon="29.9749960">
<ele>89.916000</ele>
<time>2026-04-25T00:00:39.001Z</time>
</trkpt>
<trkpt lat="59.0882380" lon="29.9751180">
<ele>89.855034</ele>
<time>2026-04-25T00:00:52.004Z</time>
</trkpt>
<trkpt lat="59.0882560" lon="29.9757870">
<ele>89.153999</ele>
<time>2026-04-25T00:01:49.002Z</time>
</trkpt>
<trkpt lat="59.0883430" lon="29.9761830">
<ele>89.184479</ele>
<time>2026-04-25T00:02:28.003Z</time>
</trkpt>
<trkpt lat="59.0883340" lon="29.9767730">
<ele>88.300560</ele>
<time>2026-04-25T00:06:23.003Z</time>
</trkpt>
<trkpt lat="59.0883890" lon="29.9768130">
<ele>88.391998</ele>
<time>2026-04-25T00:06:35.004Z</time>
</trkpt>
<trkpt lat="59.0883210" lon="29.9770210">
<ele>88.209122</ele>
<time>2026-04-25T00:07:18.998Z</time>
</trkpt>
<trkpt lat="59.0883180" lon="29.9771400">
<ele>88.148163</ele>
<time>2026-04-25T00:07:36.002Z</time>
</trkpt>
<trkpt lat="59.0883660" lon="29.9773780">
<ele>88.331039</ele>
<time>2026-04-25T00:08:04.004Z</time>
</trkpt>
<trkpt lat="59.0883610" lon="29.9775320">
<ele>88.117683</ele>
<time>2026-04-25T00:08:54.997Z</time>
</trkpt>
<trkpt lat="59.0883790" lon="29.9775220">
<ele>88.026237</ele>
<time>2026-04-25T00:09:48.004Z</time>
</trkpt>
<trkpt lat="59.0883730" lon="29.9778100">
<ele>88.239601</ele>
<time>2026-04-25T00:11:13.004Z</time>
</trkpt>
<trkpt lat="59.0884380" lon="29.9779960">
<ele>88.574883</ele>
<time>2026-04-25T00:11:31.001Z</time>
</trkpt>
<trkpt lat="59.0883590" lon="29.9784730">
<ele>88.513916</ele>
<time>2026-04-25T00:12:10.996Z</time>
</trkpt>
<trkpt lat="59.0883840" lon="29.9789460">
<ele>88.971115</ele>
<time>2026-04-25T00:15:24.998Z</time>
</trkpt>
<trkpt lat="59.0883620" lon="29.9790830">
<ele>88.849197</ele>
<time>2026-04-25T00:15:39.997Z</time>
</trkpt>
<trkpt lat="59.0884630" lon="29.9794670">
<ele>88.910164</ele>
<time>2026-04-25T00:16:32.002Z</time>
</trkpt>
<trkpt lat="59.0885820" lon="29.9796030">
<ele>88.696800</ele>
<time>2026-04-25T00:17:04.998Z</time>
</trkpt>
<trkpt lat="59.0886030" lon="29.9797240">
<ele>88.635834</ele>
<time>2026-04-25T00:17:22.001Z</time>
</trkpt>
<trkpt lat="59.0884650" lon="29.9799760">
<ele>88.666321</ele>
<time>2026-04-25T00:18:06.998Z</time>
</trkpt>
<trkpt lat="59.0884790" lon="29.9800520">
<ele>88.849197</ele>
<time>2026-04-25T00:18:25.004Z</time>
</trkpt>
<trkpt lat="59.0885900" lon="29.9802220">
<ele>88.361519</ele>
<time>2026-04-25T00:19:41.002Z</time>
</trkpt>
<trkpt lat="59.0885740" lon="29.9804570">
<ele>88.087196</ele>
<time>2026-04-25T00:21:30.997Z</time>
</trkpt>
<trkpt lat="59.0885130" lon="29.9804490">
<ele>88.056717</ele>
<time>2026-04-25T00:21:45.996Z</time>
</trkpt>
<trkpt lat="59.0883970" lon="29.9805580">
<ele>88.270081</ele>
<time>2026-04-25T00:22:31.996Z</time>
</trkpt>
<trkpt lat="59.0883810" lon="29.9806730">
<ele>88.209122</ele>
<time>2026-04-25T00:22:47.997Z</time>
</trkpt>
<trkpt lat="59.0884070" lon="29.9811930">
<ele>88.056717</ele>
<time>2026-04-25T00:23:53.998Z</time>
</trkpt>
<trkpt lat="59.0884530" lon="29.9813170">
<ele>88.178635</ele>
<time>2026-04-25T00:24:12.997Z</time>
</trkpt>
<trkpt lat="59.0884290" lon="29.9813830">
<ele>87.904320</ele>
<time>2026-04-25T00:24:43.004Z</time>
</trkpt>
<trkpt lat="59.0884520" lon="29.9814620">
<ele>87.629997</ele>
<time>2026-04-25T00:26:58.004Z</time>
</trkpt>
<trkpt lat="59.0884150" lon="29.9815500">
<ele>87.416634</ele>
<time>2026-04-25T00:27:05.996Z</time>
</trkpt>
<trkpt lat="59.0884840" lon="29.9819820">
<ele>87.508080</ele>
<time>2026-04-25T00:28:03.996Z</time>
</trkpt>
<trkpt lat="59.0885680" lon="29.9821270">
<ele>87.538567</ele>
<time>2026-04-25T00:28:35.999Z</time>
</trkpt>
<trkpt lat="59.0885540" lon="29.9826200">
<ele>86.715599</ele>
<time>2026-04-25T00:30:22.003Z</time>
</trkpt>
<trkpt lat="59.0885290" lon="29.9826520">
<ele>86.776566</ele>
<time>2026-04-25T00:30:37.996Z</time>
</trkpt>
<trkpt lat="59.0885420" lon="29.9827610">
<ele>86.807037</ele>
<time>2026-04-25T00:30:49.997Z</time>
</trkpt>
<trkpt lat="59.0885870" lon="29.9828230">
<ele>86.715599</ele>
<time>2026-04-25T00:31:04.002Z</time>
</trkpt>
<trkpt lat="59.0885940" lon="29.9827720">
<ele>86.349838</ele>
<time>2026-04-25T00:31:31.002Z</time>
</trkpt>
<trkpt lat="59.0884960" lon="29.9828480">
<ele>86.014565</ele>
<time>2026-04-25T00:33:23.996Z</time>
</trkpt>
<trkpt lat="59.0884440" lon="29.9829640">
<ele>85.923119</ele>
<time>2026-04-25T00:33:35.997Z</time>
</trkpt>
<trkpt lat="59.0882450" lon="29.9829720">
<ele>85.770721</ele>
<time>2026-04-25T00:34:28.001Z</time>
</trkpt>
<trkpt lat="59.0881120" lon="29.9824530">
<ele>86.166962</ele>
<time>2026-04-25T00:35:31.998Z</time>
</trkpt>
<trkpt lat="59.0879020" lon="29.9823470">
<ele>85.801201</ele>
<time>2026-04-25T00:36:21.004Z</time>
</trkpt>
<trkpt lat="59.0878650" lon="29.9824450">
<ele>85.801201</ele>
<time>2026-04-25T00:36:52.998Z</time>
</trkpt>
<trkpt lat="59.0878890" lon="29.9823640">
<ele>85.465919</ele>
<time>2026-04-25T00:38:05.997Z</time>
</trkpt>
<trkpt lat="59.0879150" lon="29.9824400">
<ele>85.648804</ele>
<time>2026-04-25T00:39:22.997Z</time>
</trkpt>
<trkpt lat="59.0878820" lon="29.9823350">
<ele>85.648804</ele>
<time>2026-04-25T00:39:34.998Z</time>
</trkpt>
<trkpt lat="59.0879150" lon="29.9822120">
<ele>85.374481</ele>
<time>2026-04-25T00:39:49.997Z</time>
</trkpt>
<trkpt lat="59.0878720" lon="29.9819770">
<ele>85.496399</ele>
<time>2026-04-25T00:40:16.003Z</time>
</trkpt>
<trkpt lat="59.0878800" lon="29.9818600">
<ele>85.404961</ele>
<time>2026-04-25T00:40:28.998Z</time>
</trkpt>
<trkpt lat="59.0879360" lon="29.9818040">
<ele>85.344002</ele>
<time>2026-04-25T00:40:47.997Z</time>
</trkpt>
<trkpt lat="59.0879180" lon="29.9816870">
<ele>85.404961</ele>
<time>2026-04-25T00:40:59.998Z</time>
</trkpt>
<trkpt lat="59.0878700" lon="29.9817000">
<ele>85.039200</ele>
<time>2026-04-25T00:41:40.001Z</time>
</trkpt>
<trkpt lat="59.0878270" lon="29.9813430">
<ele>85.069679</ele>
<time>2026-04-25T00:42:23.003Z</time>
</trkpt>
<trkpt lat="59.0879030" lon="29.9812070">
<ele>85.069679</ele>
<time>2026-04-25T00:42:51.998Z</time>
</trkpt>
<trkpt lat="59.0878900" lon="29.9809160">
<ele>85.008720</ele>
<time>2026-04-25T00:44:31.004Z</time>
</trkpt>
<trkpt lat="59.0879060" lon="29.9809300">
<ele>84.795364</ele>
<time>2026-04-25T00:44:57.002Z</time>
</trkpt>
<trkpt lat="59.0878390" lon="29.9807350">
<ele>84.399117</ele>
<time>2026-04-25T00:48:34.004Z</time>
</trkpt>
<trkpt lat="59.0878710" lon="29.9803420">
<ele>84.521034</ele>
<time>2026-04-25T00:49:20.004Z</time>
</trkpt>
<trkpt lat="59.0878420" lon="29.9799710">
<ele>84.917282</ele>
<time>2026-04-25T00:49:51.997Z</time>
</trkpt>
<trkpt lat="59.0878970" lon="29.9797280">
<ele>85.100166</ele>
<time>2026-04-25T00:50:20.000Z</time>
</trkpt>
<trkpt lat="59.0879290" lon="29.9797540">
<ele>85.008720</ele>
<time>2026-04-25T00:50:57.998Z</time>
</trkpt>
<trkpt lat="59.0878870" lon="29.9794290">
<ele>84.368637</ele>
<time>2026-04-25T00:53:06.000Z</time>
</trkpt>
<trkpt lat="59.0879440" lon="29.9789730">
<ele>84.368637</ele>
<time>2026-04-25T00:54:05.003Z</time>
</trkpt>
<trkpt lat="59.0878990" lon="29.9788400">
<ele>84.246719</ele>
<time>2026-04-25T00:54:24.002Z</time>
</trkpt>
<trkpt lat="59.0878870" lon="29.9783590">
<ele>84.917282</ele>
<time>2026-04-25T00:55:18.002Z</time>
</trkpt>
<trkpt lat="59.0878390" lon="29.9781030">
<ele>84.642967</ele>
<time>2026-04-25T00:55:48.000Z</time>
</trkpt>
<trkpt lat="59.0878790" lon="29.9776950">
<ele>84.277199</ele>
<time>2026-04-25T00:57:27.999Z</time>
</trkpt>
<trkpt lat="59.0878580" lon="29.9772940">
<ele>83.728561</ele>
<time>2026-04-25T00:59:13.001Z</time>
</trkpt>
<trkpt lat="59.0877450" lon="29.9769550">
<ele>83.820000</ele>
<time>2026-04-25T01:00:16.004Z</time>
</trkpt>
<trkpt lat="59.0876430" lon="29.9767810">
<ele>82.905602</ele>
<time>2026-04-25T01:00:47.998Z</time>
</trkpt>
<trkpt lat="59.0877640" lon="29.9765920">
<ele>84.094315</ele>
<time>2026-04-25T01:01:28.001Z</time>
</trkpt>
<trkpt lat="59.0877420" lon="29.9765680">
<ele>83.545685</ele>
<time>2026-04-25T01:02:34.996Z</time>
</trkpt>
<trkpt lat="59.0877750" lon="29.9765740">
<ele>82.844635</ele>
<time>2026-04-25T01:05:16.002Z</time>
</trkpt>
<trkpt lat="59.0877690" lon="29.9764860">
<ele>83.637115</ele>
<time>2026-04-25T01:05:35.002Z</time>
</trkpt>
<trkpt lat="59.0877020" lon="29.9764260">
<ele>83.911438</ele>
<time>2026-04-25T01:05:46.000Z</time>
</trkpt>
<trkpt lat="59.0876740" lon="29.9763230">
<ele>83.759033</ele>
<time>2026-04-25T01:06:00.999Z</time>
</trkpt>
<trkpt lat="59.0876620" lon="29.9760580">
<ele>83.941917</ele>
<time>2026-04-25T01:06:33.002Z</time>
</trkpt>
<trkpt lat="59.0877010" lon="29.9760310">
<ele>83.545685</ele>
<time>2026-04-25T01:06:49.003Z</time>
</trkpt>
<trkpt lat="59.0877380" lon="29.9758660">
<ele>83.240883</ele>
<time>2026-04-25T01:07:04.996Z</time>
</trkpt>
<trkpt lat="59.0878250" lon="29.9758000">
<ele>83.423767</ele>
<time>2026-04-25T01:07:42.001Z</time>
</trkpt>
<trkpt lat="59.0878440" lon="29.9759960">
<ele>83.271362</ele>
<time>2026-04-25T01:08:10.997Z</time>
</trkpt>
<trkpt lat="59.0878240" lon="29.9758890">
<ele>83.484718</ele>
<time>2026-04-25T01:08:28.000Z</time>
</trkpt>
<trkpt lat="59.0877660" lon="29.9759740">
<ele>83.698082</ele>
<time>2026-04-25T01:08:40.001Z</time>
</trkpt>
<trkpt lat="59.0877790" lon="29.9761270">
<ele>83.454239</ele>
<time>2026-04-25T01:08:55.000Z</time>
</trkpt>
<trkpt lat="59.0879100" lon="29.9760580">
<ele>83.637115</ele>
<time>2026-04-25T01:09:23.003Z</time>
</trkpt>
<trkpt lat="59.0879280" lon="29.9761480">
<ele>83.576164</ele>
<time>2026-04-25T01:09:30.001Z</time>
</trkpt>
<trkpt lat="59.0880560" lon="29.9763220">
<ele>83.484718</ele>
<time>2026-04-25T01:10:06.004Z</time>
</trkpt>
<trkpt lat="59.0881730" lon="29.9762420">
<ele>83.941917</ele>
<time>2026-04-25T01:10:21.003Z</time>
</trkpt>
<trkpt lat="59.0881760" lon="29.9761010">
<ele>83.637115</ele>
<time>2026-04-25T01:10:33.997Z</time>
</trkpt>
<trkpt lat="59.0882590" lon="29.9759940">
<ele>83.606636</ele>
<time>2026-04-25T01:10:48.003Z</time>
</trkpt>
<trkpt lat="59.0882050" lon="29.9757180">
<ele>83.667603</ele>
<time>2026-04-25T01:11:10.000Z</time>
</trkpt>
<trkpt lat="59.0880700" lon="29.9754070">
<ele>83.850479</ele>
<time>2026-04-25T01:11:45.001Z</time>
</trkpt>
<trkpt lat="59.0879720" lon="29.9753990">
<ele>83.515198</ele>
<time>2026-04-25T01:12:01.996Z</time>
</trkpt>
<trkpt lat="59.0878810" lon="29.9752590">
<ele>83.362801</ele>
<time>2026-04-25T01:12:17.004Z</time>
</trkpt>
<trkpt lat="59.0878040" lon="29.9752530">
<ele>83.240883</ele>
<time>2026-04-25T01:12:32.996Z</time>
</trkpt>
<trkpt lat="59.0877700" lon="29.9751670">
<ele>82.997040</ele>
<time>2026-04-25T01:12:47.002Z</time>
</trkpt>
<trkpt lat="59.0877250" lon="29.9751680">
<ele>83.759033</ele>
<time>2026-04-25T01:12:59.003Z</time>
</trkpt>
<trkpt lat="59.0876830" lon="29.9748640">
<ele>83.820000</ele>
<time>2026-04-25T01:15:32.000Z</time>
</trkpt>
<trkpt lat="59.0876290" lon="29.9748140">
<ele>83.667603</ele>
<time>2026-04-25T01:15:45.003Z</time>
</trkpt>
<trkpt lat="59.0876700" lon="29.9747370">
<ele>84.703918</ele>
<time>2026-04-25T01:16:00.002Z</time>
</trkpt>
<trkpt lat="59.0876920" lon="29.9742910">
<ele>85.557365</ele>
<time>2026-04-25T01:16:34.000Z</time>
</trkpt>
<trkpt lat="59.0877600" lon="29.9742070">
<ele>86.136482</ele>
<time>2026-04-25T01:16:50.002Z</time>
</trkpt>
<trkpt lat="59.0877950" lon="29.9740760">
<ele>85.862167</ele>
<time>2026-04-25T01:17:02.003Z</time>
</trkpt>
<trkpt lat="59.0877540" lon="29.9739790">
<ele>86.045036</ele>
<time>2026-04-25T01:17:17.002Z</time>
</trkpt>
<trkpt lat="59.0876860" lon="29.9740760">
<ele>86.532715</ele>
<time>2026-04-25T01:17:52.996Z</time>
</trkpt>
<trkpt lat="59.0876130" lon="29.9740890">
<ele>86.441284</ele>
<time>2026-04-25T01:18:05.999Z</time>
</trkpt>
<trkpt lat="59.0875140" lon="29.9740260">
<ele>86.349838</ele>
<time>2026-04-25T01:18:18.000Z</time>
</trkpt>
<trkpt lat="59.0872510" lon="29.9740110">
<ele>85.648804</ele>
<time>2026-04-25T01:18:54.003Z</time>
</trkpt>
<trkpt lat="59.0870780" lon="29.9739420">
<ele>86.075516</ele>
<time>2026-04-25T01:19:21.003Z</time>
</trkpt>
<trkpt lat="59.0870640" lon="29.9739030">
<ele>85.740234</ele>
<time>2026-04-25T01:19:37.004Z</time>
</trkpt>
<trkpt lat="59.0871500" lon="29.9744690">
<ele>83.941917</ele>
<time>2026-04-25T01:22:12.999Z</time>
</trkpt>
<trkpt lat="59.0872030" lon="29.9745480">
<ele>83.179916</ele>
<time>2026-04-25T01:22:25.000Z</time>
</trkpt>
<trkpt lat="59.0872210" lon="29.9746990">
<ele>83.118965</ele>
<time>2026-04-25T01:22:44.000Z</time>
</trkpt>
<trkpt lat="59.0872990" lon="29.9746250">
<ele>82.722717</ele>
<time>2026-04-25T01:22:57.996Z</time>
</trkpt>
<trkpt lat="59.0873080" lon="29.9746710">
<ele>82.509361</ele>
<time>2026-04-25T01:23:02.999Z</time>
</trkpt>
<trkpt lat="59.0872050" lon="29.9750270">
<ele>82.265518</ele>
<time>2026-04-25T01:23:43.002Z</time>
</trkpt>
<trkpt lat="59.0870980" lon="29.9748180">
<ele>82.387436</ele>
<time>2026-04-25T01:24:17.001Z</time>
</trkpt>
<trkpt lat="59.0870150" lon="29.9751340">
<ele>81.869286</ele>
<time>2026-04-25T01:24:57.997Z</time>
</trkpt>
<trkpt lat="59.0870580" lon="29.9753170">
<ele>82.509361</ele>
<time>2026-04-25T01:25:20.004Z</time>
</trkpt>
<trkpt lat="59.0871440" lon="29.9753940">
<ele>82.295998</ele>
<time>2026-04-25T01:25:32.998Z</time>
</trkpt>
<trkpt lat="59.0871980" lon="29.9753610">
<ele>84.947762</ele>
<time>2026-04-25T01:27:34.001Z</time>
</trkpt>
<trkpt lat="59.0871890" lon="29.9753250">
<ele>81.808319</ele>
<time>2026-04-25T01:28:29.004Z</time>
</trkpt>
<trkpt lat="59.0871910" lon="29.9756440">
<ele>82.113121</ele>
<time>2026-04-25T01:29:07.002Z</time>
</trkpt>
<trkpt lat="59.0872320" lon="29.9757540">
<ele>81.777840</ele>
<time>2026-04-25T01:29:19.997Z</time>
</trkpt>
<trkpt lat="59.0871890" lon="29.9761850">
<ele>82.661766</ele>
<time>2026-04-25T01:29:58.998Z</time>
</trkpt>
<trkpt lat="59.0871520" lon="29.9763110">
<ele>82.235039</ele>
<time>2026-04-25T01:30:24.002Z</time>
</trkpt>
<trkpt lat="59.0872080" lon="29.9770420">
<ele>82.875114</ele>
<time>2026-04-25T01:31:57.003Z</time>
</trkpt>
<trkpt lat="59.0872290" lon="29.9770190">
<ele>83.118965</ele>
<time>2026-04-25T01:33:32.000Z</time>
</trkpt>
<trkpt lat="59.0872170" lon="29.9774250">
<ele>83.088478</ele>
<time>2026-04-25T01:34:16.003Z</time>
</trkpt>
<trkpt lat="59.0872400" lon="29.9775800">
<ele>83.179916</ele>
<time>2026-04-25T01:34:32.998Z</time>
</trkpt>
<trkpt lat="59.0873470" lon="29.9778670">
<ele>83.240883</ele>
<time>2026-04-25T01:34:59.998Z</time>
</trkpt>
<trkpt lat="59.0873540" lon="29.9781070">
<ele>83.393280</ele>
<time>2026-04-25T01:35:25.996Z</time>
</trkpt>
<trkpt lat="59.0873040" lon="29.9782050">
<ele>83.149437</ele>
<time>2026-04-25T01:35:38.999Z</time>
</trkpt>
<trkpt lat="59.0872950" lon="29.9785790">
<ele>83.057999</ele>
<time>2026-04-25T01:36:14.000Z</time>
</trkpt>
<trkpt lat="59.0873370" lon="29.9788200">
<ele>82.966560</ele>
<time>2026-04-25T01:36:43.004Z</time>
</trkpt>
<trkpt lat="59.0873120" lon="29.9788820">
<ele>82.966560</ele>
<time>2026-04-25T01:37:03.999Z</time>
</trkpt>
<trkpt lat="59.0872970" lon="29.9788100">
<ele>83.423767</ele>
<time>2026-04-25T01:39:00.000Z</time>
</trkpt>
<trkpt lat="59.0873850" lon="29.9790640">
<ele>83.271362</ele>
<time>2026-04-25T01:40:53.003Z</time>
</trkpt>
<trkpt lat="59.0874020" lon="29.9794790">
<ele>83.515198</ele>
<time>2026-04-25T01:41:33.999Z</time>
</trkpt>
<trkpt lat="59.0873160" lon="29.9798870">
<ele>83.149437</ele>
<time>2026-04-25T01:42:14.003Z</time>
</trkpt>
<trkpt lat="59.0872890" lon="29.9801920">
<ele>83.423767</ele>
<time>2026-04-25T01:45:57.001Z</time>
</trkpt>
<trkpt lat="59.0873600" lon="29.9806050">
<ele>83.362801</ele>
<time>2026-04-25T01:46:57.999Z</time>
</trkpt>
<trkpt lat="59.0873220" lon="29.9808350">
<ele>83.362801</ele>
<time>2026-04-25T01:47:22.001Z</time>
</trkpt>
<trkpt lat="59.0873510" lon="29.9810490">
<ele>83.698082</ele>
<time>2026-04-25T01:50:20.003Z</time>
</trkpt>
<trkpt lat="59.0873250" lon="29.9810510">
<ele>83.820000</ele>
<time>2026-04-25T01:53:18.004Z</time>
</trkpt>
<trkpt lat="59.0873720" lon="29.9811580">
<ele>84.033363</ele>
<time>2026-04-25T01:53:29.003Z</time>
</trkpt>
<trkpt lat="59.0873870" lon="29.9815270">
<ele>83.789520</ele>
<time>2026-04-25T01:53:59.001Z</time>
</trkpt>
<trkpt lat="59.0875010" lon="29.9823300">
<ele>83.759033</ele>
<time>2026-04-25T01:55:08.000Z</time>
</trkpt>
<trkpt lat="59.0875170" lon="29.9826080">
<ele>83.545685</ele>
<time>2026-04-25T01:56:02.000Z</time>
</trkpt>
<trkpt lat="59.0875370" lon="29.9825610">
<ele>83.667603</ele>
<time>2026-04-25T01:57:58.000Z</time>
</trkpt>
<trkpt lat="59.0874870" lon="29.9821660">
<ele>83.423767</ele>
<time>2026-04-25T01:58:26.003Z</time>
</trkpt>
<trkpt lat="59.0874280" lon="29.9820420">
<ele>83.484718</ele>
<time>2026-04-25T01:58:35.999Z</time>
</trkpt>
<trkpt lat="59.0870960" lon="29.9822900">
<ele>83.637115</ele>
<time>2026-04-25T01:59:32.997Z</time>
</trkpt>
<trkpt lat="59.0869080" lon="29.9823600">
<ele>84.033363</ele>
<time>2026-04-25T02:00:18.003Z</time>
</trkpt>
<trkpt lat="59.0869260" lon="29.9822770">
<ele>85.435440</ele>
<time>2026-04-25T02:03:16.004Z</time>
</trkpt>
<trkpt lat="59.0868890" lon="29.9819420">
<ele>84.002884</ele>
<time>2026-04-25T02:03:46.002Z</time>
</trkpt>
<trkpt lat="59.0869290" lon="29.9818190">
<ele>84.155281</ele>
<time>2026-04-25T02:03:58.997Z</time>
</trkpt>
<trkpt lat="59.0869760" lon="29.9814030">
<ele>83.759033</ele>
<time>2026-04-25T02:04:39.000Z</time>
</trkpt>
<trkpt lat="59.0869940" lon="29.9808580">
<ele>84.094315</ele>
<time>2026-04-25T02:05:27.004Z</time>
</trkpt>
<trkpt lat="59.0868160" lon="29.9805120">
<ele>83.941917</ele>
<time>2026-04-25T02:08:01.003Z</time>
</trkpt>
<trkpt lat="59.0867640" lon="29.9801800">
<ele>84.338165</ele>
<time>2026-04-25T02:08:32.004Z</time>
</trkpt>
<trkpt lat="59.0869350" lon="29.9798510">
<ele>84.795364</ele>
<time>2026-04-25T02:09:32.000Z</time>
</trkpt>
<trkpt lat="59.0869490" lon="29.9796660">
<ele>84.582001</ele>
<time>2026-04-25T02:09:46.999Z</time>
</trkpt>
<trkpt lat="59.0869050" lon="29.9794610">
<ele>84.917282</ele>
<time>2026-04-25T02:10:12.996Z</time>
</trkpt>
<trkpt lat="59.0868320" lon="29.9793200">
<ele>84.825836</ele>
<time>2026-04-25T02:10:26.000Z</time>
</trkpt>
<trkpt lat="59.0868250" lon="29.9793630">
<ele>84.856316</ele>
<time>2026-04-25T02:10:48.999Z</time>
</trkpt>
<trkpt lat="59.0867810" lon="29.9790970">
<ele>85.344002</ele>
<time>2026-04-25T02:13:06.997Z</time>
</trkpt>
<trkpt lat="59.0867760" lon="29.9788300">
<ele>85.618317</ele>
<time>2026-04-25T02:13:33.997Z</time>
</trkpt>
<trkpt lat="59.0866520" lon="29.9784360">
<ele>85.801201</ele>
<time>2026-04-25T02:14:16.999Z</time>
</trkpt>
<trkpt lat="59.0866440" lon="29.9782530">
<ele>85.770721</ele>
<time>2026-04-25T02:14:38.996Z</time>
</trkpt>
<trkpt lat="59.0867500" lon="29.9775250">
<ele>86.136482</ele>
<time>2026-04-25T02:16:04.999Z</time>
</trkpt>
<trkpt lat="59.0867510" lon="29.9773420">
<ele>86.349838</ele>
<time>2026-04-25T02:16:25.000Z</time>
</trkpt>
<trkpt lat="59.0867020" lon="29.9771210">
<ele>86.136482</ele>
<time>2026-04-25T02:16:39.999Z</time>
</trkpt>
<trkpt lat="59.0867080" lon="29.9768060">
<ele>86.807037</ele>
<time>2026-04-25T02:17:47.996Z</time>
</trkpt>
<trkpt lat="59.0867410" lon="29.9767840">
<ele>86.989922</ele>
<time>2026-04-25T02:21:08.004Z</time>
</trkpt>
<trkpt lat="59.0867460" lon="29.9766380">
<ele>86.624161</ele>
<time>2026-04-25T02:21:38.002Z</time>
</trkpt>
<trkpt lat="59.0867140" lon="29.9761570">
<ele>86.410797</ele>
<time>2026-04-25T02:22:13.002Z</time>
</trkpt>
<trkpt lat="59.0866750" lon="29.9760230">
<ele>86.807037</ele>
<time>2026-04-25T02:22:25.003Z</time>
</trkpt>
<trkpt lat="59.0866440" lon="29.9751260">
<ele>86.106003</ele>
<time>2026-04-25T02:23:53.002Z</time>
</trkpt>
<trkpt lat="59.0866720" lon="29.9751860">
<ele>86.685120</ele>
<time>2026-04-25T02:26:51.003Z</time>
</trkpt>
<trkpt lat="59.0866440" lon="29.9751540">
<ele>86.471764</ele>
<time>2026-04-25T02:27:32.000Z</time>
</trkpt>
<trkpt lat="59.0867080" lon="29.9751160">
<ele>86.593681</ele>
<time>2026-04-25T02:28:07.000Z</time>
</trkpt>
<trkpt lat="59.0868620" lon="29.9746580">
<ele>86.807037</ele>
<time>2026-04-25T02:28:51.997Z</time>
</trkpt>
<trkpt lat="59.0869850" lon="29.9744520">
<ele>87.934799</ele>
<time>2026-04-25T02:29:18.997Z</time>
</trkpt>
<trkpt lat="59.0867910" lon="29.9742460">
<ele>89.001602</ele>
<time>2026-04-25T02:30:05.999Z</time>
</trkpt>
<trkpt lat="59.0867280" lon="29.9739940">
<ele>90.556084</ele>
<time>2026-04-25T02:30:38.002Z</time>
</trkpt>
<trkpt lat="59.0865570" lon="29.9736960">
<ele>90.464638</ele>
<time>2026-04-25T02:31:03.999Z</time>
</trkpt>
<trkpt lat="59.0862880" lon="29.9736110">
<ele>90.617035</ele>
<time>2026-04-25T02:31:40.002Z</time>
</trkpt>
<trkpt lat="59.0860080" lon="29.9736390">
<ele>90.403679</ele>
<time>2026-04-25T02:32:11.003Z</time>
</trkpt>
<trkpt lat="59.0859300" lon="29.9742090">
<ele>88.300560</ele>
<time>2026-04-25T02:32:54.004Z</time>
</trkpt>
<trkpt lat="59.0859190" lon="29.9746750">
<ele>87.264236</ele>
<time>2026-04-25T02:33:32.996Z</time>
</trkpt>
<trkpt lat="59.0859610" lon="29.9749690">
<ele>87.111839</ele>
<time>2026-04-25T02:34:00.998Z</time>
</trkpt>
<trkpt lat="59.0859530" lon="29.9752050">
<ele>88.117683</ele>
<time>2026-04-25T02:34:25.000Z</time>
</trkpt>
<trkpt lat="59.0858720" lon="29.9756910">
<ele>87.904320</ele>
<time>2026-04-25T02:35:32.997Z</time>
</trkpt>
<trkpt lat="59.0858620" lon="29.9756430">
<ele>87.995766</ele>
<time>2026-04-25T02:35:52.999Z</time>
</trkpt>
<trkpt lat="59.0858900" lon="29.9757330">
<ele>87.477600</ele>
<time>2026-04-25T02:36:40.000Z</time>
</trkpt>
<trkpt lat="59.0858380" lon="29.9758800">
<ele>87.873833</ele>
<time>2026-04-25T02:36:53.997Z</time>
</trkpt>
<trkpt lat="59.0859120" lon="29.9760410">
<ele>87.569038</ele>
<time>2026-04-25T02:37:16.003Z</time>
</trkpt>
<trkpt lat="59.0859360" lon="29.9761880">
<ele>87.965279</ele>
<time>2026-04-25T02:37:28.998Z</time>
</trkpt>
<trkpt lat="59.0859320" lon="29.9766180">
<ele>88.056717</ele>
<time>2026-04-25T02:38:07.999Z</time>
</trkpt>
<trkpt lat="59.0860220" lon="29.9768990">
<ele>87.904320</ele>
<time>2026-04-25T02:38:47.000Z</time>
</trkpt>
<trkpt lat="59.0860890" lon="29.9769300">
<ele>87.873833</ele>
<time>2026-04-25T02:38:57.998Z</time>
</trkpt>
<trkpt lat="59.0861080" lon="29.9770640">
<ele>88.026237</ele>
<time>2026-04-25T02:39:11.002Z</time>
</trkpt>
<trkpt lat="59.0860610" lon="29.9772420">
<ele>87.873833</ele>
<time>2026-04-25T02:39:30.001Z</time>
</trkpt>
<trkpt lat="59.0860800" lon="29.9774560">
<ele>87.721436</ele>
<time>2026-04-25T02:39:59.999Z</time>
</trkpt>
<trkpt lat="59.0860530" lon="29.9774670">
<ele>87.934799</ele>
<time>2026-04-25T02:41:26.002Z</time>
</trkpt>
<trkpt lat="59.0860560" lon="29.9783700">
<ele>87.660484</ele>
<time>2026-04-25T02:42:54.000Z</time>
</trkpt>
<trkpt lat="59.0860360" lon="29.9785360">
<ele>87.965279</ele>
<time>2026-04-25T02:43:03.003Z</time>
</trkpt>
<trkpt lat="59.0859630" lon="29.9786640">
<ele>87.447121</ele>
<time>2026-04-25T02:43:19.004Z</time>
</trkpt>
<trkpt lat="59.0860260" lon="29.9792320">
<ele>87.386162</ele>
<time>2026-04-25T02:44:16.996Z</time>
</trkpt>
<trkpt lat="59.0859810" lon="29.9797530">
<ele>87.020401</ele>
<time>2026-04-25T02:44:55.003Z</time>
</trkpt>
<trkpt lat="59.0860260" lon="29.9798890">
<ele>87.020401</ele>
<time>2026-04-25T02:45:07.004Z</time>
</trkpt>
<trkpt lat="59.0860580" lon="29.9799000">
<ele>87.020401</ele>
<time>2026-04-25T02:46:59.998Z</time>
</trkpt>
<trkpt lat="59.0861410" lon="29.9802370">
<ele>86.867996</ele>
<time>2026-04-25T02:47:29.996Z</time>
</trkpt>
<trkpt lat="59.0861570" lon="29.9808560">
<ele>86.928963</ele>
<time>2026-04-25T02:48:23.996Z</time>
</trkpt>
<trkpt lat="59.0860230" lon="29.9811360">
<ele>87.142319</ele>
<time>2026-04-25T02:49:06.004Z</time>
</trkpt>
<trkpt lat="59.0860160" lon="29.9812470">
<ele>87.233765</ele>
<time>2026-04-25T02:49:18.998Z</time>
</trkpt>
<trkpt lat="59.0861450" lon="29.9816860">
<ele>87.142319</ele>
<time>2026-04-25T02:50:04.998Z</time>
</trkpt>
<trkpt lat="59.0861870" lon="29.9817370">
<ele>87.325203</ele>
<time>2026-04-25T02:50:19.003Z</time>
</trkpt>
<trkpt lat="59.0862140" lon="29.9817060">
<ele>87.508080</ele>
<time>2026-04-25T02:50:27.004Z</time>
</trkpt>
<trkpt lat="59.0862510" lon="29.9817600">
<ele>87.142319</ele>
<time>2026-04-25T02:50:39.998Z</time>
</trkpt>
<trkpt lat="59.0862580" lon="29.9817110">
<ele>87.782402</ele>
<time>2026-04-25T02:51:51.002Z</time>
</trkpt>
<trkpt lat="59.0863240" lon="29.9820490">
<ele>88.148163</ele>
<time>2026-04-25T02:52:54.998Z</time>
</trkpt>
<trkpt lat="59.0863490" lon="29.9822300">
<ele>88.361519</ele>
<time>2026-04-25T02:53:09.997Z</time>
</trkpt>
<trkpt lat="59.0862120" lon="29.9826090">
<ele>88.056717</ele>
<time>2026-04-25T02:53:42.000Z</time>
</trkpt>
<trkpt lat="59.0862400" lon="29.9829410">
<ele>88.574883</ele>
<time>2026-04-25T02:53:59.004Z</time>
</trkpt>
<trkpt lat="59.0862830" lon="29.9830880">
<ele>88.391998</ele>
<time>2026-04-25T02:54:10.996Z</time>
</trkpt>
<trkpt lat="59.0862650" lon="29.9831220">
<ele>88.270081</ele>
<time>2026-04-25T02:54:25.001Z</time>
</trkpt>
<trkpt lat="59.0863130" lon="29.9830340">
<ele>88.300560</ele>
<time>2026-04-25T02:56:52.996Z</time>
</trkpt>
<trkpt lat="59.0862760" lon="29.9827680">
<ele>88.178635</ele>
<time>2026-04-25T02:57:05.999Z</time>
</trkpt>
<trkpt lat="59.0863130" lon="29.9825260">
<ele>88.391998</ele>
<time>2026-04-25T02:57:20.998Z</time>
</trkpt>
<trkpt lat="59.0865930" lon="29.9824990">
<ele>87.904320</ele>
<time>2026-04-25T02:57:50.996Z</time>
</trkpt>
<trkpt lat="59.0866990" lon="29.9823600">
<ele>88.026237</ele>
<time>2026-04-25T02:58:06.004Z</time>
</trkpt>
<trkpt lat="59.0867790" lon="29.9824290">
<ele>88.300560</ele>
<time>2026-04-25T02:58:14.998Z</time>
</trkpt>
<trkpt lat="59.0869580" lon="29.9823400">
<ele>87.904320</ele>
<time>2026-04-25T02:58:37.998Z</time>
</trkpt>
<trkpt lat="59.0870900" lon="29.9823810">
<ele>88.026237</ele>
<time>2026-04-25T02:58:52.997Z</time>
</trkpt>
<trkpt lat="59.0871770" lon="29.9822220">
<ele>87.965279</ele>
<time>2026-04-25T02:59:04.998Z</time>
</trkpt>
<trkpt lat="59.0876690" lon="29.9818220">
<ele>88.209122</ele>
<time>2026-04-25T03:00:05.996Z</time>
</trkpt>
<trkpt lat="59.0879360" lon="29.9816960">
<ele>87.843361</ele>
<time>2026-04-25T03:00:32.996Z</time>
</trkpt>
<trkpt lat="59.0881480" lon="29.9814470">
<ele>87.934799</ele>
<time>2026-04-25T03:01:03.996Z</time>
</trkpt>
<trkpt lat="59.0885740" lon="29.9813270">
<ele>87.812881</ele>
<time>2026-04-25T03:01:52.000Z</time>
</trkpt>
<trkpt lat="59.0885930" lon="29.9814510">
<ele>87.995766</ele>
<time>2026-04-25T03:02:05.004Z</time>
</trkpt>
<trkpt lat="59.0886870" lon="29.9814660">
<ele>87.843361</ele>
<time>2026-04-25T03:02:20.003Z</time>
</trkpt>
<trkpt lat="59.0886950" lon="29.9812460">
<ele>87.416634</ele>
<time>2026-04-25T03:02:35.002Z</time>
</trkpt>
<trkpt lat="59.0888980" lon="29.9812400">
<ele>87.233765</ele>
<time>2026-04-25T03:02:55.003Z</time>
</trkpt>
<trkpt lat="59.0891930" lon="29.9808980">
<ele>87.081367</ele>
<time>2026-04-25T03:03:32.000Z</time>
</trkpt>
</trkseg>
</trk>
<trk>
 <name>20260425_Lisa85</name>
 <desc>20260425_Lisa85</desc>
<trkseg>
<trkpt lat="59.0922030" lon="29.9861180">
<ele>78.943199</ele>
<time>2026-04-24T23:54:17.001Z</time>
</trkpt>
<trkpt lat="59.0923030" lon="29.9869940">
<ele>78.394562</ele>
<time>2026-04-24T23:54:36.000Z</time>
</trkpt>
<trkpt lat="59.0924260" lon="29.9877600">
<ele>75.224640</ele>
<time>2026-04-25T00:00:48.997Z</time>
</trkpt>
<trkpt lat="59.0923870" lon="29.9878710">
<ele>72.329041</ele>
<time>2026-04-25T00:01:50.998Z</time>
</trkpt>
<trkpt lat="59.0922940" lon="29.9879440">
<ele>73.731117</ele>
<time>2026-04-25T00:02:31.001Z</time>
</trkpt>
<trkpt lat="59.0922770" lon="29.9880180">
<ele>75.224640</ele>
<time>2026-04-25T00:03:10.996Z</time>
</trkpt>
<trkpt lat="59.0922130" lon="29.9879760">
<ele>73.121521</ele>
<time>2026-04-25T00:03:59.000Z</time>
</trkpt>
<trkpt lat="59.0921770" lon="29.9882460">
<ele>74.035919</ele>
<time>2026-04-25T00:05:05.001Z</time>
</trkpt>
<trkpt lat="59.0921460" lon="29.9883120">
<ele>74.706482</ele>
<time>2026-04-25T00:05:34.999Z</time>
</trkpt>
<trkpt lat="59.0921660" lon="29.9883690">
<ele>77.571602</ele>
<time>2026-04-25T00:07:08.000Z</time>
</trkpt>
<trkpt lat="59.0920330" lon="29.9885200">
<ele>73.700638</ele>
<time>2026-04-25T00:09:21.997Z</time>
</trkpt>
<trkpt lat="59.0919790" lon="29.9886570">
<ele>77.723999</ele>
<time>2026-04-25T00:10:10.001Z</time>
</trkpt>
<trkpt lat="59.0919280" lon="29.9886840">
<ele>76.291443</ele>
<time>2026-04-25T00:10:31.999Z</time>
</trkpt>
<trkpt lat="59.0919100" lon="29.9886390">
<ele>76.657204</ele>
<time>2026-04-25T00:10:53.996Z</time>
</trkpt>
<trkpt lat="59.0919180" lon="29.9887550">
<ele>83.088478</ele>
<time>2026-04-25T00:13:20.004Z</time>
</trkpt>
<trkpt lat="59.0918930" lon="29.9887270">
<ele>80.528160</ele>
<time>2026-04-25T00:13:39.996Z</time>
</trkpt>
<trkpt lat="59.0919350" lon="29.9887910">
<ele>79.339439</ele>
<time>2026-04-25T00:14:34.999Z</time>
</trkpt>
<trkpt lat="59.0918730" lon="29.9890630">
<ele>77.602081</ele>
<time>2026-04-25T00:16:08.000Z</time>
</trkpt>
<trkpt lat="59.0919090" lon="29.9890990">
<ele>84.642967</ele>
<time>2026-04-25T00:16:36.002Z</time>
</trkpt>
<trkpt lat="59.0918620" lon="29.9890700">
<ele>81.259682</ele>
<time>2026-04-25T00:17:03.002Z</time>
</trkpt>
<trkpt lat="59.0921860" lon="29.9890570">
<ele>74.279762</ele>
<time>2026-04-25T00:20:44.998Z</time>
</trkpt>
<trkpt lat="59.0922560" lon="29.9892620">
<ele>74.188316</ele>
<time>2026-04-25T00:21:45.003Z</time>
</trkpt>
<trkpt lat="59.0922850" lon="29.9892500">
<ele>72.969116</ele>
<time>2026-04-25T00:22:24.997Z</time>
</trkpt>
<trkpt lat="59.0922570" lon="29.9893980">
<ele>75.681839</ele>
<time>2026-04-25T00:23:51.000Z</time>
</trkpt>
<trkpt lat="59.0923170" lon="29.9894390">
<ele>77.602081</ele>
<time>2026-04-25T00:24:16.998Z</time>
</trkpt>
<trkpt lat="59.0923160" lon="29.9895300">
<ele>75.255119</ele>
<time>2026-04-25T00:25:30.999Z</time>
</trkpt>
<trkpt lat="59.0923640" lon="29.9895400">
<ele>76.108559</ele>
<time>2026-04-25T00:26:47.999Z</time>
</trkpt>
<trkpt lat="59.0925260" lon="29.9893790">
<ele>74.218803</ele>
<time>2026-04-25T00:28:22.002Z</time>
</trkpt>
<trkpt lat="59.0926560" lon="29.9893880">
<ele>74.615044</ele>
<time>2026-04-25T00:30:22.003Z</time>
</trkpt>
<trkpt lat="59.0926550" lon="29.9894160">
<ele>72.450958</ele>
<time>2026-04-25T00:30:48.001Z</time>
</trkpt>
<trkpt lat="59.0926290" lon="29.9893740">
<ele>74.858879</ele>
<time>2026-04-25T00:31:35.996Z</time>
</trkpt>
<trkpt lat="59.0926650" lon="29.9893360">
<ele>76.870560</ele>
<time>2026-04-25T00:32:02.003Z</time>
</trkpt>
<trkpt lat="59.0926740" lon="29.9893830">
<ele>72.176643</ele>
<time>2026-04-25T00:32:30.998Z</time>
</trkpt>
<trkpt lat="59.0926670" lon="29.9894260">
<ele>76.901039</ele>
<time>2026-04-25T00:35:29.000Z</time>
</trkpt>
<trkpt lat="59.0926670" lon="29.9893170">
<ele>75.224640</ele>
<time>2026-04-25T00:36:29.998Z</time>
</trkpt>
<trkpt lat="59.0925970" lon="29.9891430">
<ele>72.329041</ele>
<time>2026-04-25T00:37:07.003Z</time>
</trkpt>
<trkpt lat="59.0926560" lon="29.9888900">
<ele>73.670158</ele>
<time>2026-04-25T00:37:45.002Z</time>
</trkpt>
<trkpt lat="59.0925290" lon="29.9881840">
<ele>74.828400</ele>
<time>2026-04-25T00:38:47.003Z</time>
</trkpt>
<trkpt lat="59.0924780" lon="29.9880710">
<ele>70.347839</ele>
<time>2026-04-25T00:39:21.001Z</time>
</trkpt>
<trkpt lat="59.0923250" lon="29.9870170">
<ele>76.047600</ele>
<time>2026-04-25T00:40:12.003Z</time>
</trkpt>
<trkpt lat="59.0922510" lon="29.9868730">
<ele>75.438004</ele>
<time>2026-04-25T00:40:24.997Z</time>
</trkpt>
<trkpt lat="59.0922070" lon="29.9863830">
<ele>76.078079</ele>
<time>2026-04-25T00:41:14.997Z</time>
</trkpt>
<trkpt lat="59.0922100" lon="29.9857600">
<ele>74.736961</ele>
<time>2026-04-25T00:41:45.997Z</time>
</trkpt>
<trkpt lat="59.0914900" lon="29.9854420">
<ele>71.993759</ele>
<time>2026-04-25T00:42:46.996Z</time>
</trkpt>
<trkpt lat="59.0911930" lon="29.9854900">
<ele>69.098160</ele>
<time>2026-04-25T00:43:17.003Z</time>
</trkpt>
<trkpt lat="59.0908960" lon="29.9854340">
<ele>68.183762</ele>
<time>2026-04-25T00:43:44.996Z</time>
</trkpt>
<trkpt lat="59.0905680" lon="29.9855140">
<ele>69.524879</ele>
<time>2026-04-25T00:44:16.999Z</time>
</trkpt>
<trkpt lat="59.0904420" lon="29.9856190">
<ele>72.847198</ele>
<time>2026-04-25T00:44:58.004Z</time>
</trkpt>
<trkpt lat="59.0901430" lon="29.9856310">
<ele>70.896484</ele>
<time>2026-04-25T00:45:28.002Z</time>
</trkpt>
<trkpt lat="59.0900630" lon="29.9854340">
<ele>72.481438</ele>
<time>2026-04-25T00:45:44.004Z</time>
</trkpt>
<trkpt lat="59.0899630" lon="29.9848080">
<ele>77.632561</ele>
<time>2026-04-25T00:46:54.998Z</time>
</trkpt>
<trkpt lat="59.0898200" lon="29.9848420">
<ele>77.784958</ele>
<time>2026-04-25T00:47:13.998Z</time>
</trkpt>
<trkpt lat="59.0897360" lon="29.9849240">
<ele>79.126083</ele>
<time>2026-04-25T00:47:28.997Z</time>
</trkpt>
<trkpt lat="59.0896910" lon="29.9851120">
<ele>76.809601</ele>
<time>2026-04-25T00:48:03.997Z</time>
</trkpt>
<trkpt lat="59.0897170" lon="29.9852800">
<ele>72.176643</ele>
<time>2026-04-25T00:48:23.999Z</time>
</trkpt>
<trkpt lat="59.0895590" lon="29.9854520">
<ele>70.347839</ele>
<time>2026-04-25T00:48:57.997Z</time>
</trkpt>
<trkpt lat="59.0895120" lon="29.9854770">
<ele>74.310242</ele>
<time>2026-04-25T00:49:17.999Z</time>
</trkpt>
<trkpt lat="59.0895310" lon="29.9854520">
<ele>75.712318</ele>
<time>2026-04-25T00:49:47.997Z</time>
</trkpt>
<trkpt lat="59.0894780" lon="29.9852870">
<ele>75.346558</ele>
<time>2026-04-25T00:50:06.003Z</time>
</trkpt>
<trkpt lat="59.0894800" lon="29.9851140">
<ele>81.229202</ele>
<time>2026-04-25T00:50:45.997Z</time>
</trkpt>
<trkpt lat="59.0895410" lon="29.9853200">
<ele>75.559921</ele>
<time>2026-04-25T00:51:03.001Z</time>
</trkpt>
<trkpt lat="59.0895060" lon="29.9854200">
<ele>76.169518</ele>
<time>2026-04-25T00:51:19.002Z</time>
</trkpt>
<trkpt lat="59.0893670" lon="29.9854900">
<ele>75.559921</ele>
<time>2026-04-25T00:51:38.002Z</time>
</trkpt>
<trkpt lat="59.0888180" lon="29.9855220">
<ele>80.101433</ele>
<time>2026-04-25T00:52:53.999Z</time>
</trkpt>
<trkpt lat="59.0885850" lon="29.9853390">
<ele>93.482162</ele>
<time>2026-04-25T00:53:31.998Z</time>
</trkpt>
<trkpt lat="59.0885210" lon="29.9850150">
<ele>86.227921</ele>
<time>2026-04-25T00:55:03.996Z</time>
</trkpt>
<trkpt lat="59.0883770" lon="29.9847020">
<ele>84.033363</ele>
<time>2026-04-25T00:56:05.997Z</time>
</trkpt>
<trkpt lat="59.0882390" lon="29.9845600">
<ele>86.746078</ele>
<time>2026-04-25T00:56:56.999Z</time>
</trkpt>
<trkpt lat="59.0878940" lon="29.9845570">
<ele>85.100166</ele>
<time>2026-04-25T00:58:53.000Z</time>
</trkpt>
<trkpt lat="59.0878650" lon="29.9843490">
<ele>91.013283</ele>
<time>2026-04-25T01:00:08.997Z</time>
</trkpt>
<trkpt lat="59.0877630" lon="29.9841190">
<ele>88.666321</ele>
<time>2026-04-25T01:00:39.004Z</time>
</trkpt>
<trkpt lat="59.0876800" lon="29.9841010">
<ele>96.103439</ele>
<time>2026-04-25T01:01:09.002Z</time>
</trkpt>
<trkpt lat="59.0876890" lon="29.9838510">
<ele>88.087196</ele>
<time>2026-04-25T01:02:20.999Z</time>
</trkpt>
<trkpt lat="59.0875470" lon="29.9836210">
<ele>89.976967</ele>
<time>2026-04-25T01:03:06.998Z</time>
</trkpt>
<trkpt lat="59.0873530" lon="29.9835730">
<ele>96.316803</ele>
<time>2026-04-25T01:05:08.002Z</time>
</trkpt>
<trkpt lat="59.0874090" lon="29.9836870">
<ele>92.598236</ele>
<time>2026-04-25T01:06:41.996Z</time>
</trkpt>
<trkpt lat="59.0873560" lon="29.9841160">
<ele>87.721436</ele>
<time>2026-04-25T01:08:22.998Z</time>
</trkpt>
<trkpt lat="59.0873750" lon="29.9842500">
<ele>91.043762</ele>
<time>2026-04-25T01:08:44.002Z</time>
</trkpt>
<trkpt lat="59.0875150" lon="29.9844680">
<ele>92.689682</ele>
<time>2026-04-25T01:09:20.998Z</time>
</trkpt>
<trkpt lat="59.0875430" lon="29.9846350">
<ele>89.611198</ele>
<time>2026-04-25T01:10:13.002Z</time>
</trkpt>
<trkpt lat="59.0876480" lon="29.9848060">
<ele>88.026237</ele>
<time>2026-04-25T01:10:53.999Z</time>
</trkpt>
<trkpt lat="59.0876500" lon="29.9849430">
<ele>88.331039</ele>
<time>2026-04-25T01:12:17.997Z</time>
</trkpt>
<trkpt lat="59.0875900" lon="29.9852400">
<ele>86.807037</ele>
<time>2026-04-25T01:13:33.001Z</time>
</trkpt>
<trkpt lat="59.0876980" lon="29.9857880">
<ele>86.258400</ele>
<time>2026-04-25T01:15:10.996Z</time>
</trkpt>
<trkpt lat="59.0877090" lon="29.9858910">
<ele>85.039200</ele>
<time>2026-04-25T01:15:34.998Z</time>
</trkpt>
<trkpt lat="59.0876730" lon="29.9861010">
<ele>83.698082</ele>
<time>2026-04-25T01:16:20.004Z</time>
</trkpt>
<trkpt lat="59.0876970" lon="29.9861940">
<ele>81.290161</ele>
<time>2026-04-25T01:16:43.003Z</time>
</trkpt>
<trkpt lat="59.0877550" lon="29.9862570">
<ele>92.811600</ele>
<time>2026-04-25T01:17:33.003Z</time>
</trkpt>
<trkpt lat="59.0876660" lon="29.9867100">
<ele>89.580719</ele>
<time>2026-04-25T01:18:54.996Z</time>
</trkpt>
<trkpt lat="59.0876470" lon="29.9873080">
<ele>96.194885</ele>
<time>2026-04-25T01:20:07.002Z</time>
</trkpt>
<trkpt lat="59.0877010" lon="29.9873120">
<ele>95.463364</ele>
<time>2026-04-25T01:20:29.000Z</time>
</trkpt>
<trkpt lat="59.0877530" lon="29.9874950">
<ele>92.384880</ele>
<time>2026-04-25T01:21:00.000Z</time>
</trkpt>
<trkpt lat="59.0878240" lon="29.9875870">
<ele>92.019119</ele>
<time>2026-04-25T01:21:24.002Z</time>
</trkpt>
<trkpt lat="59.0878840" lon="29.9879120">
<ele>89.885521</ele>
<time>2026-04-25T01:22:07.997Z</time>
</trkpt>
<trkpt lat="59.0878870" lon="29.9881230">
<ele>89.946480</ele>
<time>2026-04-25T01:23:06.999Z</time>
</trkpt>
<trkpt lat="59.0881860" lon="29.9880110">
<ele>91.104721</ele>
<time>2026-04-25T01:24:05.000Z</time>
</trkpt>
<trkpt lat="59.0883120" lon="29.9881200">
<ele>87.111839</ele>
<time>2026-04-25T01:24:57.997Z</time>
</trkpt>
<trkpt lat="59.0883830" lon="29.9881250">
<ele>85.344002</ele>
<time>2026-04-25T01:25:23.002Z</time>
</trkpt>
<trkpt lat="59.0884530" lon="29.9879200">
<ele>77.327759</ele>
<time>2026-04-25T01:25:58.996Z</time>
</trkpt>
<trkpt lat="59.0885580" lon="29.9877620">
<ele>88.544403</ele>
<time>2026-04-25T01:26:52.996Z</time>
</trkpt>
<trkpt lat="59.0884040" lon="29.9880720">
<ele>87.843361</ele>
<time>2026-04-25T01:28:22.999Z</time>
</trkpt>
<trkpt lat="59.0884340" lon="29.9882290">
<ele>90.007439</ele>
<time>2026-04-25T01:29:50.004Z</time>
</trkpt>
<trkpt lat="59.0883990" lon="29.9881580">
<ele>89.824562</ele>
<time>2026-04-25T01:30:45.999Z</time>
</trkpt>
<trkpt lat="59.0884130" lon="29.9881190">
<ele>86.989922</ele>
<time>2026-04-25T01:31:25.000Z</time>
</trkpt>
<trkpt lat="59.0885700" lon="29.9886800">
<ele>79.278481</ele>
<time>2026-04-25T01:32:48.998Z</time>
</trkpt>
<trkpt lat="59.0885580" lon="29.9888350">
<ele>88.757767</ele>
<time>2026-04-25T01:33:40.000Z</time>
</trkpt>
<trkpt lat="59.0885850" lon="29.9889650">
<ele>78.577438</ele>
<time>2026-04-25T01:35:02.003Z</time>
</trkpt>
<trkpt lat="59.0885410" lon="29.9891300">
<ele>89.062561</ele>
<time>2026-04-25T01:35:56.003Z</time>
</trkpt>
<trkpt lat="59.0885820" lon="29.9892180">
<ele>85.709763</ele>
<time>2026-04-25T01:36:16.004Z</time>
</trkpt>
<trkpt lat="59.0885760" lon="29.9893540">
<ele>85.984085</ele>
<time>2026-04-25T01:36:39.997Z</time>
</trkpt>
<trkpt lat="59.0886280" lon="29.9895860">
<ele>83.545685</ele>
<time>2026-04-25T01:36:58.003Z</time>
</trkpt>
<trkpt lat="59.0887260" lon="29.9897010">
<ele>88.513916</ele>
<time>2026-04-25T01:37:53.999Z</time>
</trkpt>
<trkpt lat="59.0886930" lon="29.9896920">
<ele>91.805763</ele>
<time>2026-04-25T01:38:20.999Z</time>
</trkpt>
<trkpt lat="59.0887130" lon="29.9897680">
<ele>89.214966</ele>
<time>2026-04-25T01:39:21.004Z</time>
</trkpt>
<trkpt lat="59.0887620" lon="29.9896780">
<ele>92.354401</ele>
<time>2026-04-25T01:40:08.999Z</time>
</trkpt>
<trkpt lat="59.0887620" lon="29.9897590">
<ele>98.267517</ele>
<time>2026-04-25T01:40:35.999Z</time>
</trkpt>
<trkpt lat="59.0886480" lon="29.9898890">
<ele>88.910164</ele>
<time>2026-04-25T01:41:59.004Z</time>
</trkpt>
<trkpt lat="59.0887060" lon="29.9898890">
<ele>86.197433</ele>
<time>2026-04-25T01:42:26.997Z</time>
</trkpt>
<trkpt lat="59.0887300" lon="29.9899440">
<ele>85.740234</ele>
<time>2026-04-25T01:42:41.003Z</time>
</trkpt>
<trkpt lat="59.0887490" lon="29.9903750">
<ele>89.885521</ele>
<time>2026-04-25T01:43:24.997Z</time>
</trkpt>
<trkpt lat="59.0888880" lon="29.9908170">
<ele>84.917282</ele>
<time>2026-04-25T01:44:45.004Z</time>
</trkpt>
<trkpt lat="59.0889460" lon="29.9908490">
<ele>83.332321</ele>
<time>2026-04-25T01:45:41.000Z</time>
</trkpt>
<trkpt lat="59.0888990" lon="29.9908750">
<ele>92.476318</ele>
<time>2026-04-25T01:46:12.000Z</time>
</trkpt>
<trkpt lat="59.0889240" lon="29.9908650">
<ele>85.618317</ele>
<time>2026-04-25T01:46:39.000Z</time>
</trkpt>
<trkpt lat="59.0889810" lon="29.9910820">
<ele>81.259682</ele>
<time>2026-04-25T01:47:29.000Z</time>
</trkpt>
<trkpt lat="59.0890000" lon="29.9913020">
<ele>78.821281</ele>
<time>2026-04-25T01:48:05.996Z</time>
</trkpt>
<trkpt lat="59.0891250" lon="29.9914090">
<ele>78.699364</ele>
<time>2026-04-25T01:48:52.004Z</time>
</trkpt>
<trkpt lat="59.0892000" lon="29.9913260">
<ele>76.596237</ele>
<time>2026-04-25T01:49:12.999Z</time>
</trkpt>
<trkpt lat="59.0892120" lon="29.9912020">
<ele>76.535278</ele>
<time>2026-04-25T01:49:37.001Z</time>
</trkpt>
<trkpt lat="59.0893930" lon="29.9912830">
<ele>75.102715</ele>
<time>2026-04-25T01:50:52.999Z</time>
</trkpt>
<trkpt lat="59.0895970" lon="29.9914770">
<ele>75.407516</ele>
<time>2026-04-25T01:51:41.996Z</time>
</trkpt>
<trkpt lat="59.0898210" lon="29.9913250">
<ele>76.321915</ele>
<time>2026-04-25T01:53:32.001Z</time>
</trkpt>
<trkpt lat="59.0898440" lon="29.9912320">
<ele>81.168236</ele>
<time>2026-04-25T01:54:26.001Z</time>
</trkpt>
<trkpt lat="59.0897650" lon="29.9911300">
<ele>75.651360</ele>
<time>2026-04-25T01:55:03.999Z</time>
</trkpt>
<trkpt lat="59.0896530" lon="29.9906910">
<ele>76.443840</ele>
<time>2026-04-25T01:57:28.996Z</time>
</trkpt>
<trkpt lat="59.0896530" lon="29.9904310">
<ele>76.961998</ele>
<time>2026-04-25T01:58:48.000Z</time>
</trkpt>
<trkpt lat="59.0895370" lon="29.9903620">
<ele>77.510643</ele>
<time>2026-04-25T02:00:18.996Z</time>
</trkpt>
<trkpt lat="59.0894350" lon="29.9900890">
<ele>81.015839</ele>
<time>2026-04-25T02:01:47.004Z</time>
</trkpt>
<trkpt lat="59.0892460" lon="29.9899030">
<ele>76.443840</ele>
<time>2026-04-25T02:02:55.000Z</time>
</trkpt>
<trkpt lat="59.0891950" lon="29.9894860">
<ele>81.076797</ele>
<time>2026-04-25T02:04:24.001Z</time>
</trkpt>
<trkpt lat="59.0892080" lon="29.9893750">
<ele>77.144882</ele>
<time>2026-04-25T02:05:06.000Z</time>
</trkpt>
<trkpt lat="59.0890610" lon="29.9889460">
<ele>77.602081</ele>
<time>2026-04-25T02:07:14.002Z</time>
</trkpt>
<trkpt lat="59.0888960" lon="29.9887100">
<ele>79.430885</ele>
<time>2026-04-25T02:08:52.999Z</time>
</trkpt>
<trkpt lat="59.0888900" lon="29.9884410">
<ele>81.076797</ele>
<time>2026-04-25T02:10:43.997Z</time>
</trkpt>
<trkpt lat="59.0888840" lon="29.9885250">
<ele>81.930237</ele>
<time>2026-04-25T02:11:10.003Z</time>
</trkpt>
<trkpt lat="59.0888490" lon="29.9884550">
<ele>78.943199</ele>
<time>2026-04-25T02:11:52.996Z</time>
</trkpt>
<trkpt lat="59.0888470" lon="29.9885570">
<ele>78.181198</ele>
<time>2026-04-25T02:12:16.998Z</time>
</trkpt>
<trkpt lat="59.0887450" lon="29.9885120">
<ele>79.796638</ele>
<time>2026-04-25T02:13:08.000Z</time>
</trkpt>
<trkpt lat="59.0887830" lon="29.9883160">
<ele>83.515198</ele>
<time>2026-04-25T02:13:55.001Z</time>
</trkpt>
<trkpt lat="59.0887380" lon="29.9883310">
<ele>88.971115</ele>
<time>2026-04-25T02:14:23.004Z</time>
</trkpt>
<trkpt lat="59.0887930" lon="29.9882790">
<ele>78.577438</ele>
<time>2026-04-25T02:15:36.003Z</time>
</trkpt>
<trkpt lat="59.0887840" lon="29.9880910">
<ele>80.832962</ele>
<time>2026-04-25T02:16:22.002Z</time>
</trkpt>
<trkpt lat="59.0888310" lon="29.9879940">
<ele>78.242165</ele>
<time>2026-04-25T02:16:41.002Z</time>
</trkpt>
<trkpt lat="59.0888370" lon="29.9878260">
<ele>79.248001</ele>
<time>2026-04-25T02:17:16.996Z</time>
</trkpt>
<trkpt lat="59.0888740" lon="29.9877410">
<ele>78.668884</ele>
<time>2026-04-25T02:17:40.004Z</time>
</trkpt>
<trkpt lat="59.0888410" lon="29.9874730">
<ele>80.711037</ele>
<time>2026-04-25T02:18:17.001Z</time>
</trkpt>
<trkpt lat="59.0888290" lon="29.9873950">
<ele>84.185760</ele>
<time>2026-04-25T02:18:53.004Z</time>
</trkpt>
<trkpt lat="59.0887510" lon="29.9872810">
<ele>83.941917</ele>
<time>2026-04-25T02:19:13.999Z</time>
</trkpt>
<trkpt lat="59.0886230" lon="29.9863620">
<ele>88.666321</ele>
<time>2026-04-25T02:21:53.001Z</time>
</trkpt>
<trkpt lat="59.0885600" lon="29.9863650">
<ele>97.596962</ele>
<time>2026-04-25T02:22:21.003Z</time>
</trkpt>
<trkpt lat="59.0885720" lon="29.9864690">
<ele>82.783684</ele>
<time>2026-04-25T02:23:15.996Z</time>
</trkpt>
<trkpt lat="59.0886380" lon="29.9863840">
<ele>87.538567</ele>
<time>2026-04-25T02:24:04.000Z</time>
</trkpt>
<trkpt lat="59.0886250" lon="29.9862600">
<ele>86.471764</ele>
<time>2026-04-25T02:24:25.004Z</time>
</trkpt>
<trkpt lat="59.0883710" lon="29.9854160">
<ele>83.454239</ele>
<time>2026-04-25T02:26:02.999Z</time>
</trkpt>
<trkpt lat="59.0882810" lon="29.9850330">
<ele>81.137764</ele>
<time>2026-04-25T02:27:19.999Z</time>
</trkpt>
<trkpt lat="59.0882630" lon="29.9846930">
<ele>83.149437</ele>
<time>2026-04-25T02:28:03.000Z</time>
</trkpt>
<trkpt lat="59.0882110" lon="29.9846230">
<ele>89.641685</ele>
<time>2026-04-25T02:28:36.998Z</time>
</trkpt>
<trkpt lat="59.0882230" lon="29.9846710">
<ele>91.775284</ele>
<time>2026-04-25T02:29:02.003Z</time>
</trkpt>
<trkpt lat="59.0881960" lon="29.9846670">
<ele>93.604080</ele>
<time>2026-04-25T02:29:34.999Z</time>
</trkpt>
<trkpt lat="59.0880700" lon="29.9840580">
<ele>81.442566</ele>
<time>2026-04-25T02:31:10.998Z</time>
</trkpt>
<trkpt lat="59.0880220" lon="29.9836480">
<ele>82.722717</ele>
<time>2026-04-25T02:31:56.997Z</time>
</trkpt>
<trkpt lat="59.0879230" lon="29.9833240">
<ele>82.814163</ele>
<time>2026-04-25T02:32:54.004Z</time>
</trkpt>
<trkpt lat="59.0881550" lon="29.9833530">
<ele>81.473038</ele>
<time>2026-04-25T02:33:55.996Z</time>
</trkpt>
<trkpt lat="59.0882550" lon="29.9834410">
<ele>80.589119</ele>
<time>2026-04-25T02:34:12.999Z</time>
</trkpt>
<trkpt lat="59.0884480" lon="29.9834380">
<ele>79.126083</ele>
<time>2026-04-25T02:35:04.001Z</time>
</trkpt>
<trkpt lat="59.0884860" lon="29.9833200">
<ele>80.314796</ele>
<time>2026-04-25T02:35:20.996Z</time>
</trkpt>
<trkpt lat="59.0885280" lon="29.9833890">
<ele>82.875114</ele>
<time>2026-04-25T02:35:51.996Z</time>
</trkpt>
<trkpt lat="59.0885290" lon="29.9839520">
<ele>91.104721</ele>
<time>2026-04-25T02:37:47.997Z</time>
</trkpt>
<trkpt lat="59.0885520" lon="29.9838730">
<ele>87.477600</ele>
<time>2026-04-25T02:38:25.996Z</time>
</trkpt>
<trkpt lat="59.0885550" lon="29.9837830">
<ele>93.299278</ele>
<time>2026-04-25T02:39:16.998Z</time>
</trkpt>
<trkpt lat="59.0884890" lon="29.9839510">
<ele>92.567764</ele>
<time>2026-04-25T02:40:01.001Z</time>
</trkpt>
<trkpt lat="59.0885750" lon="29.9840740">
<ele>91.470482</ele>
<time>2026-04-25T02:40:35.000Z</time>
</trkpt>
<trkpt lat="59.0885820" lon="29.9844510">
<ele>85.740234</ele>
<time>2026-04-25T02:41:15.996Z</time>
</trkpt>
<trkpt lat="59.0887350" lon="29.9849110">
<ele>86.136482</ele>
<time>2026-04-25T02:42:16.001Z</time>
</trkpt>
<trkpt lat="59.0887420" lon="29.9850980">
<ele>85.526878</ele>
<time>2026-04-25T02:42:35.001Z</time>
</trkpt>
<trkpt lat="59.0888100" lon="29.9853510">
<ele>87.508080</ele>
<time>2026-04-25T02:43:10.001Z</time>
</trkpt>
<trkpt lat="59.0887830" lon="29.9855680">
<ele>80.131920</ele>
<time>2026-04-25T02:43:49.002Z</time>
</trkpt>
<trkpt lat="59.0888930" lon="29.9856160">
<ele>77.297279</ele>
<time>2026-04-25T02:44:09.004Z</time>
</trkpt>
<trkpt lat="59.0892420" lon="29.9855760">
<ele>71.963280</ele>
<time>2026-04-25T02:44:50.001Z</time>
</trkpt>
<trkpt lat="59.0896490" lon="29.9858960">
<ele>74.310242</ele>
<time>2026-04-25T02:46:05.998Z</time>
</trkpt>
<trkpt lat="59.0899670" lon="29.9857840">
<ele>73.578720</ele>
<time>2026-04-25T02:46:36.998Z</time>
</trkpt>
<trkpt lat="59.0900670" lon="29.9856900">
<ele>73.731117</ele>
<time>2026-04-25T02:46:55.998Z</time>
</trkpt>
<trkpt lat="59.0904470" lon="29.9856310">
<ele>73.334885</ele>
<time>2026-04-25T02:47:41.997Z</time>
</trkpt>
<trkpt lat="59.0908180" lon="29.9854940">
<ele>72.847198</ele>
<time>2026-04-25T02:48:18.000Z</time>
</trkpt>
<trkpt lat="59.0913040" lon="29.9855620">
<ele>71.780403</ele>
<time>2026-04-25T02:49:06.004Z</time>
</trkpt>
<trkpt lat="59.0914170" lon="29.9855000">
<ele>73.121521</ele>
<time>2026-04-25T02:49:16.000Z</time>
</trkpt>
<trkpt lat="59.0919240" lon="29.9856780">
<ele>65.775841</ele>
<time>2026-04-25T02:50:14.001Z</time>
</trkpt>
<trkpt lat="59.0921270" lon="29.9857740">
<ele>66.385445</ele>
<time>2026-04-25T02:50:31.998Z</time>
</trkpt>
<trkpt lat="59.0921550" lon="29.9862900">
<ele>66.111115</ele>
<time>2026-04-25T02:50:58.004Z</time>
</trkpt>
<trkpt lat="59.0923310" lon="29.9873160">
<ele>71.780403</ele>
<time>2026-04-25T02:52:06.001Z</time>
</trkpt>
<trkpt lat="59.0923180" lon="29.9873530">
<ele>72.755760</ele>
<time>2026-04-25T02:53:23.001Z</time>
</trkpt>
<trkpt lat="59.0922680" lon="29.9870250">
<ele>71.719444</ele>
<time>2026-04-25T02:54:41.003Z</time>
</trkpt>
<trkpt lat="59.0922980" lon="29.9870920">
<ele>73.517761</ele>
<time>2026-04-25T02:55:07.000Z</time>
</trkpt>
</trkseg>
</trk>
<trk>
 <name>20260425_Lisa75</name>
 <desc>20260425_Lisa75</desc>
<trkseg>
<trkpt lat="59.1010410" lon="30.0369890">
<ele>181.904633</ele>
<time>2026-04-24T21:36:31.000Z</time>
</trkpt>
<trkpt lat="59.1009870" lon="30.0370430">
<ele>181.173126</ele>
<time>2026-04-24T21:37:22.996Z</time>
</trkpt>
<trkpt lat="59.1010620" lon="30.0368890">
<ele>180.380630</ele>
<time>2026-04-24T21:38:09.997Z</time>
</trkpt>
<trkpt lat="59.1010470" lon="30.0369830">
<ele>181.416962</ele>
<time>2026-04-24T21:38:36.004Z</time>
</trkpt>
<trkpt lat="59.1007570" lon="30.0370600">
<ele>181.142639</ele>
<time>2026-04-24T21:39:57.004Z</time>
</trkpt>
<trkpt lat="59.1007810" lon="30.0370840">
<ele>181.112167</ele>
<time>2026-04-24T21:40:15.001Z</time>
</trkpt>
<trkpt lat="59.1007980" lon="30.0373880">
<ele>181.295029</ele>
<time>2026-04-24T21:40:47.004Z</time>
</trkpt>
<trkpt lat="59.1007320" lon="30.0375810">
<ele>180.441605</ele>
<time>2026-04-24T21:41:05.001Z</time>
</trkpt>
<trkpt lat="59.1006610" lon="30.0376180">
<ele>180.807358</ele>
<time>2026-04-24T21:41:41.004Z</time>
</trkpt>
<trkpt lat="59.1006760" lon="30.0376900">
<ele>180.746399</ele>
<time>2026-04-24T21:41:52.996Z</time>
</trkpt>
<trkpt lat="59.1008230" lon="30.0377890">
<ele>181.234070</ele>
<time>2026-04-24T21:42:34.001Z</time>
</trkpt>
<trkpt lat="59.1008540" lon="30.0377060">
<ele>180.959763</ele>
<time>2026-04-24T21:43:25.003Z</time>
</trkpt>
<trkpt lat="59.1008380" lon="30.0376510">
<ele>181.051193</ele>
<time>2026-04-24T21:43:53.999Z</time>
</trkpt>
<trkpt lat="59.1008420" lon="30.0377080">
<ele>181.782730</ele>
<time>2026-04-24T21:44:56.000Z</time>
</trkpt>
<trkpt lat="59.1008830" lon="30.0375900">
<ele>180.502563</ele>
<time>2026-04-24T21:45:25.004Z</time>
</trkpt>
<trkpt lat="59.1008340" lon="30.0377390">
<ele>179.527206</ele>
<time>2026-04-24T21:46:25.000Z</time>
</trkpt>
<trkpt lat="59.1008680" lon="30.0377290">
<ele>180.014877</ele>
<time>2026-04-24T21:46:48.000Z</time>
</trkpt>
<trkpt lat="59.1008440" lon="30.0377190">
<ele>180.807358</ele>
<time>2026-04-24T21:47:36.004Z</time>
</trkpt>
<trkpt lat="59.1008480" lon="30.0378310">
<ele>181.173126</ele>
<time>2026-04-24T21:48:03.997Z</time>
</trkpt>
<trkpt lat="59.1008760" lon="30.0378330">
<ele>181.538879</ele>
<time>2026-04-24T21:48:34.998Z</time>
</trkpt>
<trkpt lat="59.1008240" lon="30.0379600">
<ele>181.813202</ele>
<time>2026-04-24T21:48:53.004Z</time>
</trkpt>
<trkpt lat="59.1008450" lon="30.0376820">
<ele>181.112167</ele>
<time>2026-04-24T21:49:55.004Z</time>
</trkpt>
<trkpt lat="59.1008830" lon="30.0376750">
<ele>180.654968</ele>
<time>2026-04-24T21:50:17.002Z</time>
</trkpt>
<trkpt lat="59.1008300" lon="30.0377160">
<ele>181.173126</ele>
<time>2026-04-24T21:50:36.001Z</time>
</trkpt>
<trkpt lat="59.1008360" lon="30.0378840">
<ele>180.654968</ele>
<time>2026-04-24T21:50:56.003Z</time>
</trkpt>
<trkpt lat="59.1008600" lon="30.0378940">
<ele>180.533035</ele>
<time>2026-04-24T21:51:28.999Z</time>
</trkpt>
<trkpt lat="59.1008710" lon="30.0380270">
<ele>180.959763</ele>
<time>2026-04-24T21:51:53.001Z</time>
</trkpt>
<trkpt lat="59.1009630" lon="30.0382450">
<ele>181.234070</ele>
<time>2026-04-24T21:52:37.004Z</time>
</trkpt>
<trkpt lat="59.1009380" lon="30.0383350">
<ele>180.654968</ele>
<time>2026-04-24T21:52:56.997Z</time>
</trkpt>
<trkpt lat="59.1009650" lon="30.0383920">
<ele>180.411133</ele>
<time>2026-04-24T21:53:23.997Z</time>
</trkpt>
<trkpt lat="59.1009380" lon="30.0385970">
<ele>181.264557</ele>
<time>2026-04-24T21:53:57.002Z</time>
</trkpt>
<trkpt lat="59.1009550" lon="30.0386790">
<ele>180.837830</ele>
<time>2026-04-24T21:54:17.004Z</time>
</trkpt>
<trkpt lat="59.1009740" lon="30.0386040">
<ele>181.112167</ele>
<time>2026-04-24T21:54:40.003Z</time>
</trkpt>
<trkpt lat="59.1010780" lon="30.0385720">
<ele>180.533035</ele>
<time>2026-04-24T21:55:53.996Z</time>
</trkpt>
<trkpt lat="59.1010710" lon="30.0385080">
<ele>180.837830</ele>
<time>2026-04-24T21:56:23.001Z</time>
</trkpt>
<trkpt lat="59.1011000" lon="30.0384840">
<ele>180.228241</ele>
<time>2026-04-24T21:56:54.001Z</time>
</trkpt>
<trkpt lat="59.1010770" lon="30.0385290">
<ele>180.258728</ele>
<time>2026-04-24T21:57:29.002Z</time>
</trkpt>
<trkpt lat="59.1011050" lon="30.0386360">
<ele>180.654968</ele>
<time>2026-04-24T21:57:57.004Z</time>
</trkpt>
<trkpt lat="59.1010950" lon="30.0385620">
<ele>180.929276</ele>
<time>2026-04-24T21:58:24.004Z</time>
</trkpt>
<trkpt lat="59.1010470" lon="30.0385930">
<ele>180.593994</ele>
<time>2026-04-24T21:58:47.997Z</time>
</trkpt>
<trkpt lat="59.1009730" lon="30.0390310">
<ele>180.289200</ele>
<time>2026-04-24T22:00:22.000Z</time>
</trkpt>
<trkpt lat="59.1010420" lon="30.0391360">
<ele>180.837830</ele>
<time>2026-04-24T22:00:46.002Z</time>
</trkpt>
<trkpt lat="59.1010850" lon="30.0394190">
<ele>181.447433</ele>
<time>2026-04-24T22:01:32.002Z</time>
</trkpt>
<trkpt lat="59.1011770" lon="30.0393830">
<ele>180.380630</ele>
<time>2026-04-24T22:01:56.004Z</time>
</trkpt>
<trkpt lat="59.1012020" lon="30.0395180">
<ele>180.502563</ele>
<time>2026-04-24T22:02:45.001Z</time>
</trkpt>
<trkpt lat="59.1012640" lon="30.0395280">
<ele>181.325531</ele>
<time>2026-04-24T22:03:17.004Z</time>
</trkpt>
<trkpt lat="59.1012370" lon="30.0394630">
<ele>180.533035</ele>
<time>2026-04-24T22:03:40.997Z</time>
</trkpt>
<trkpt lat="59.1012010" lon="30.0394710">
<ele>180.136795</ele>
<time>2026-04-24T22:04:07.997Z</time>
</trkpt>
<trkpt lat="59.1013060" lon="30.0398840">
<ele>181.112167</ele>
<time>2026-04-24T22:05:16.996Z</time>
</trkpt>
<trkpt lat="59.1012710" lon="30.0401400">
<ele>181.051193</ele>
<time>2026-04-24T22:05:58.001Z</time>
</trkpt>
<trkpt lat="59.1013050" lon="30.0401140">
<ele>180.472076</ele>
<time>2026-04-24T22:06:26.997Z</time>
</trkpt>
<trkpt lat="59.1012710" lon="30.0402480">
<ele>180.715927</ele>
<time>2026-04-24T22:08:44.002Z</time>
</trkpt>
<trkpt lat="59.1013580" lon="30.0402300">
<ele>180.746399</ele>
<time>2026-04-24T22:09:38.002Z</time>
</trkpt>
<trkpt lat="59.1012790" lon="30.0402220">
<ele>181.020721</ele>
<time>2026-04-24T22:10:24.001Z</time>
</trkpt>
<trkpt lat="59.1013820" lon="30.0404290">
<ele>180.075836</ele>
<time>2026-04-24T22:10:45.998Z</time>
</trkpt>
<trkpt lat="59.1014320" lon="30.0408850">
<ele>181.112167</ele>
<time>2026-04-24T22:12:17.004Z</time>
</trkpt>
<trkpt lat="59.1014870" lon="30.0409330">
<ele>180.807358</ele>
<time>2026-04-24T22:12:43.001Z</time>
</trkpt>
<trkpt lat="59.1013970" lon="30.0410980">
<ele>181.142639</ele>
<time>2026-04-24T22:14:20.003Z</time>
</trkpt>
<trkpt lat="59.1014930" lon="30.0411160">
<ele>180.837830</ele>
<time>2026-04-24T22:15:57.004Z</time>
</trkpt>
<trkpt lat="59.1014170" lon="30.0413100">
<ele>180.502563</ele>
<time>2026-04-24T22:17:32.001Z</time>
</trkpt>
<trkpt lat="59.1014430" lon="30.0414920">
<ele>180.898804</ele>
<time>2026-04-24T22:17:49.998Z</time>
</trkpt>
<trkpt lat="59.1014290" lon="30.0415990">
<ele>180.776871</ele>
<time>2026-04-24T22:18:12.004Z</time>
</trkpt>
<trkpt lat="59.1013960" lon="30.0415850">
<ele>180.715927</ele>
<time>2026-04-24T22:19:52.003Z</time>
</trkpt>
<trkpt lat="59.1014330" lon="30.0416770">
<ele>181.325531</ele>
<time>2026-04-24T22:20:19.003Z</time>
</trkpt>
<trkpt lat="59.1014010" lon="30.0417390">
<ele>180.807358</ele>
<time>2026-04-24T22:20:53.002Z</time>
</trkpt>
<trkpt lat="59.1012490" lon="30.0414940">
<ele>181.295029</ele>
<time>2026-04-24T22:22:00.998Z</time>
</trkpt>
<trkpt lat="59.1012150" lon="30.0415340">
<ele>181.660797</ele>
<time>2026-04-24T22:22:23.998Z</time>
</trkpt>
<trkpt lat="59.1012420" lon="30.0415570">
<ele>181.416962</ele>
<time>2026-04-24T22:22:52.000Z</time>
</trkpt>
<trkpt lat="59.1012180" lon="30.0416190">
<ele>181.813202</ele>
<time>2026-04-24T22:23:16.002Z</time>
</trkpt>
<trkpt lat="59.1011470" lon="30.0412250">
<ele>182.422806</ele>
<time>2026-04-24T22:24:46.999Z</time>
</trkpt>
<trkpt lat="59.1010580" lon="30.0410700">
<ele>181.874161</ele>
<time>2026-04-24T22:25:39.003Z</time>
</trkpt>
<trkpt lat="59.1010890" lon="30.0410090">
<ele>181.874161</ele>
<time>2026-04-24T22:26:01.000Z</time>
</trkpt>
<trkpt lat="59.1010820" lon="30.0409000">
<ele>181.508408</ele>
<time>2026-04-24T22:26:20.000Z</time>
</trkpt>
<trkpt lat="59.1011000" lon="30.0409580">
<ele>181.264557</ele>
<time>2026-04-24T22:27:43.998Z</time>
</trkpt>
<trkpt lat="59.1010230" lon="30.0409970">
<ele>181.356003</ele>
<time>2026-04-24T22:28:37.004Z</time>
</trkpt>
<trkpt lat="59.1010180" lon="30.0409140">
<ele>181.630325</ele>
<time>2026-04-24T22:29:39.998Z</time>
</trkpt>
<trkpt lat="59.1010850" lon="30.0407620">
<ele>182.117996</ele>
<time>2026-04-24T22:30:40.003Z</time>
</trkpt>
<trkpt lat="59.1009660" lon="30.0408330">
<ele>182.453278</ele>
<time>2026-04-24T22:31:42.004Z</time>
</trkpt>
<trkpt lat="59.1010070" lon="30.0408960">
<ele>181.295029</ele>
<time>2026-04-24T22:32:05.004Z</time>
</trkpt>
<trkpt lat="59.1010690" lon="30.0408570">
<ele>181.752243</ele>
<time>2026-04-24T22:32:36.004Z</time>
</trkpt>
<trkpt lat="59.1011160" lon="30.0405100">
<ele>181.843674</ele>
<time>2026-04-24T22:33:18.003Z</time>
</trkpt>
<trkpt lat="59.1010500" lon="30.0402040">
<ele>181.813202</ele>
<time>2026-04-24T22:34:04.996Z</time>
</trkpt>
<trkpt lat="59.1009780" lon="30.0400870">
<ele>182.422806</ele>
<time>2026-04-24T22:34:51.004Z</time>
</trkpt>
<trkpt lat="59.1008490" lon="30.0399970">
<ele>182.819031</ele>
<time>2026-04-24T22:37:32.002Z</time>
</trkpt>
<trkpt lat="59.1007920" lon="30.0398760">
<ele>182.148468</ele>
<time>2026-04-24T22:37:56.997Z</time>
</trkpt>
<trkpt lat="59.1007700" lon="30.0395490">
<ele>182.270401</ele>
<time>2026-04-24T22:38:39.998Z</time>
</trkpt>
<trkpt lat="59.1008060" lon="30.0394580">
<ele>182.605667</ele>
<time>2026-04-24T22:39:09.996Z</time>
</trkpt>
<trkpt lat="59.1008310" lon="30.0395270">
<ele>182.361832</ele>
<time>2026-04-24T22:40:38.004Z</time>
</trkpt>
<trkpt lat="59.1007850" lon="30.0394320">
<ele>182.057037</ele>
<time>2026-04-24T22:41:33.999Z</time>
</trkpt>
<trkpt lat="59.1007910" lon="30.0390970">
<ele>182.300873</ele>
<time>2026-04-24T22:42:46.999Z</time>
</trkpt>
<trkpt lat="59.1005610" lon="30.0388910">
<ele>182.087524</ele>
<time>2026-04-24T22:43:44.999Z</time>
</trkpt>
<trkpt lat="59.1005610" lon="30.0388010">
<ele>181.752243</ele>
<time>2026-04-24T22:44:15.999Z</time>
</trkpt>
<trkpt lat="59.1005930" lon="30.0387920">
<ele>182.514236</ele>
<time>2026-04-24T22:44:41.997Z</time>
</trkpt>
<trkpt lat="59.1006130" lon="30.0386880">
<ele>183.154327</ele>
<time>2026-04-24T22:45:12.004Z</time>
</trkpt>
<trkpt lat="59.1006700" lon="30.0388320">
<ele>182.453278</ele>
<time>2026-04-24T22:45:47.998Z</time>
</trkpt>
<trkpt lat="59.1006760" lon="30.0387450">
<ele>182.819031</ele>
<time>2026-04-24T22:46:51.001Z</time>
</trkpt>
<trkpt lat="59.1006860" lon="30.0388210">
<ele>182.880005</ele>
<time>2026-04-24T22:47:18.001Z</time>
</trkpt>
<trkpt lat="59.1006080" lon="30.0385360">
<ele>181.965607</ele>
<time>2026-04-24T22:48:04.000Z</time>
</trkpt>
<trkpt lat="59.1006600" lon="30.0380880">
<ele>181.112167</ele>
<time>2026-04-24T22:49:11.997Z</time>
</trkpt>
<trkpt lat="59.1006310" lon="30.0376780">
<ele>182.300873</ele>
<time>2026-04-24T22:50:21.998Z</time>
</trkpt>
<trkpt lat="59.1005690" lon="30.0377330">
<ele>181.752243</ele>
<time>2026-04-24T22:50:46.000Z</time>
</trkpt>
<trkpt lat="59.1004940" lon="30.0376760">
<ele>182.422806</ele>
<time>2026-04-24T22:51:26.004Z</time>
</trkpt>
<trkpt lat="59.1004590" lon="30.0380060">
<ele>181.874161</ele>
<time>2026-04-24T22:52:39.003Z</time>
</trkpt>
<trkpt lat="59.1003930" lon="30.0378890">
<ele>182.819031</ele>
<time>2026-04-24T22:54:11.002Z</time>
</trkpt>
<trkpt lat="59.1004340" lon="30.0379210">
<ele>181.996078</ele>
<time>2026-04-24T22:55:13.996Z</time>
</trkpt>
<trkpt lat="59.1004840" lon="30.0378360">
<ele>181.569366</ele>
<time>2026-04-24T22:55:43.000Z</time>
</trkpt>
<trkpt lat="59.1005130" lon="30.0376600">
<ele>182.575195</ele>
<time>2026-04-24T22:56:31.004Z</time>
</trkpt>
<trkpt lat="59.1004110" lon="30.0373330">
<ele>182.514236</ele>
<time>2026-04-24T22:57:50.000Z</time>
</trkpt>
<trkpt lat="59.1004050" lon="30.0372600">
<ele>182.819031</ele>
<time>2026-04-24T22:58:19.004Z</time>
</trkpt>
<trkpt lat="59.1004350" lon="30.0372400">
<ele>181.112167</ele>
<time>2026-04-24T22:58:46.998Z</time>
</trkpt>
<trkpt lat="59.1004530" lon="30.0373400">
<ele>182.392334</ele>
<time>2026-04-24T22:59:13.998Z</time>
</trkpt>
<trkpt lat="59.1004300" lon="30.0373420">
<ele>182.575195</ele>
<time>2026-04-24T22:59:40.004Z</time>
</trkpt>
<trkpt lat="59.1004790" lon="30.0373600">
<ele>183.123840</ele>
<time>2026-04-24T23:00:11.998Z</time>
</trkpt>
<trkpt lat="59.1003880" lon="30.0372990">
<ele>183.123840</ele>
<time>2026-04-24T23:01:53.000Z</time>
</trkpt>
<trkpt lat="59.1003440" lon="30.0374580">
<ele>182.788559</ele>
<time>2026-04-24T23:02:22.004Z</time>
</trkpt>
<trkpt lat="59.1003730" lon="30.0373620">
<ele>182.636169</ele>
<time>2026-04-24T23:03:31.003Z</time>
</trkpt>
<trkpt lat="59.1003530" lon="30.0372650">
<ele>182.636169</ele>
<time>2026-04-24T23:03:57.001Z</time>
</trkpt>
<trkpt lat="59.1002370" lon="30.0372330">
<ele>183.032394</ele>
<time>2026-04-24T23:04:28.001Z</time>
</trkpt>
<trkpt lat="59.1001770" lon="30.0372820">
<ele>182.453278</ele>
<time>2026-04-24T23:04:51.001Z</time>
</trkpt>
<trkpt lat="59.1001450" lon="30.0374060">
<ele>182.697128</ele>
<time>2026-04-24T23:05:12.998Z</time>
</trkpt>
<trkpt lat="59.1001380" lon="30.0372890">
<ele>182.849533</ele>
<time>2026-04-24T23:05:31.998Z</time>
</trkpt>
<trkpt lat="59.1000260" lon="30.0373370">
<ele>182.300873</ele>
<time>2026-04-24T23:05:56.000Z</time>
</trkpt>
<trkpt lat="59.0999450" lon="30.0374690">
<ele>183.032394</ele>
<time>2026-04-24T23:07:12.999Z</time>
</trkpt>
<trkpt lat="59.0999340" lon="30.0374380">
<ele>182.849533</ele>
<time>2026-04-24T23:07:41.002Z</time>
</trkpt>
<trkpt lat="59.1000450" lon="30.0379870">
<ele>183.032394</ele>
<time>2026-04-24T23:09:19.999Z</time>
</trkpt>
<trkpt lat="59.1000310" lon="30.0381700">
<ele>183.398163</ele>
<time>2026-04-24T23:10:01.998Z</time>
</trkpt>
<trkpt lat="59.0999980" lon="30.0382030">
<ele>183.459122</ele>
<time>2026-04-24T23:10:43.003Z</time>
</trkpt>
<trkpt lat="59.1000710" lon="30.0382330">
<ele>183.581039</ele>
<time>2026-04-24T23:11:41.004Z</time>
</trkpt>
<trkpt lat="59.1000220" lon="30.0381620">
<ele>183.581039</ele>
<time>2026-04-24T23:12:09.999Z</time>
</trkpt>
<trkpt lat="59.1000880" lon="30.0383750">
<ele>183.581039</ele>
<time>2026-04-24T23:13:03.999Z</time>
</trkpt>
<trkpt lat="59.1001230" lon="30.0386770">
<ele>183.550568</ele>
<time>2026-04-24T23:14:10.000Z</time>
</trkpt>
<trkpt lat="59.1001660" lon="30.0388300">
<ele>183.459122</ele>
<time>2026-04-24T23:14:34.002Z</time>
</trkpt>
<trkpt lat="59.1001580" lon="30.0389870">
<ele>183.977280</ele>
<time>2026-04-24T23:16:26.003Z</time>
</trkpt>
<trkpt lat="59.1002150" lon="30.0389960">
<ele>183.885834</ele>
<time>2026-04-24T23:16:56.001Z</time>
</trkpt>
<trkpt lat="59.1002140" lon="30.0389130">
<ele>184.190643</ele>
<time>2026-04-24T23:17:23.001Z</time>
</trkpt>
<trkpt lat="59.1001270" lon="30.0390940">
<ele>184.068726</ele>
<time>2026-04-24T23:18:06.002Z</time>
</trkpt>
<trkpt lat="59.1002390" lon="30.0392460">
<ele>183.916321</ele>
<time>2026-04-24T23:19:23.002Z</time>
</trkpt>
<trkpt lat="59.1003480" lon="30.0395900">
<ele>184.160156</ele>
<time>2026-04-24T23:20:24.000Z</time>
</trkpt>
<trkpt lat="59.1002470" lon="30.0399230">
<ele>184.221130</ele>
<time>2026-04-24T23:22:16.000Z</time>
</trkpt>
<trkpt lat="59.1004610" lon="30.0398870">
<ele>184.495438</ele>
<time>2026-04-24T23:22:51.001Z</time>
</trkpt>
<trkpt lat="59.1005160" lon="30.0402980">
<ele>183.977280</ele>
<time>2026-04-24T23:24:14.999Z</time>
</trkpt>
<trkpt lat="59.1005480" lon="30.0403300">
<ele>184.312561</ele>
<time>2026-04-24T23:24:36.996Z</time>
</trkpt>
<trkpt lat="59.1005780" lon="30.0402740">
<ele>183.977280</ele>
<time>2026-04-24T23:25:08.999Z</time>
</trkpt>
<trkpt lat="59.1004820" lon="30.0401310">
<ele>184.251602</ele>
<time>2026-04-24T23:26:39.002Z</time>
</trkpt>
<trkpt lat="59.1005180" lon="30.0402370">
<ele>184.373520</ele>
<time>2026-04-24T23:26:55.003Z</time>
</trkpt>
<trkpt lat="59.1004960" lon="30.0403990">
<ele>184.404007</ele>
<time>2026-04-24T23:27:18.003Z</time>
</trkpt>
<trkpt lat="59.1005580" lon="30.0404050">
<ele>184.586868</ele>
<time>2026-04-24T23:27:41.003Z</time>
</trkpt>
<trkpt lat="59.1004920" lon="30.0405750">
<ele>184.800232</ele>
<time>2026-04-24T23:30:12.997Z</time>
</trkpt>
<trkpt lat="59.1005760" lon="30.0406330">
<ele>184.251602</ele>
<time>2026-04-24T23:30:58.003Z</time>
</trkpt>
<trkpt lat="59.1004630" lon="30.0410400">
<ele>184.434479</ele>
<time>2026-04-24T23:32:53.002Z</time>
</trkpt>
<trkpt lat="59.1004990" lon="30.0412290">
<ele>184.769760</ele>
<time>2026-04-24T23:33:36.996Z</time>
</trkpt>
<trkpt lat="59.1006110" lon="30.0412840">
<ele>184.343033</ele>
<time>2026-04-24T23:34:54.998Z</time>
</trkpt>
<trkpt lat="59.1005930" lon="30.0412730">
<ele>184.830734</ele>
<time>2026-04-24T23:35:23.001Z</time>
</trkpt>
<trkpt lat="59.1006320" lon="30.0412090">
<ele>184.434479</ele>
<time>2026-04-24T23:36:44.001Z</time>
</trkpt>
<trkpt lat="59.1006130" lon="30.0411720">
<ele>184.830734</ele>
<time>2026-04-24T23:37:04.996Z</time>
</trkpt>
<trkpt lat="59.1005610" lon="30.0413280">
<ele>183.824875</ele>
<time>2026-04-24T23:37:59.998Z</time>
</trkpt>
<trkpt lat="59.1006620" lon="30.0411710">
<ele>184.525925</ele>
<time>2026-04-24T23:38:25.996Z</time>
</trkpt>
<trkpt lat="59.1006360" lon="30.0412690">
<ele>184.190643</ele>
<time>2026-04-24T23:38:57.998Z</time>
</trkpt>
<trkpt lat="59.1006550" lon="30.0414490">
<ele>184.282074</ele>
<time>2026-04-24T23:39:46.996Z</time>
</trkpt>
<trkpt lat="59.1006050" lon="30.0415400">
<ele>184.404007</ele>
<time>2026-04-24T23:40:08.000Z</time>
</trkpt>
<trkpt lat="59.1006250" lon="30.0416250">
<ele>184.068726</ele>
<time>2026-04-24T23:40:33.004Z</time>
</trkpt>
<trkpt lat="59.1006010" lon="30.0418070">
<ele>184.160156</ele>
<time>2026-04-24T23:40:52.003Z</time>
</trkpt>
<trkpt lat="59.1006080" lon="30.0418780">
<ele>183.824875</ele>
<time>2026-04-24T23:41:15.003Z</time>
</trkpt>
<trkpt lat="59.1007150" lon="30.0420730">
<ele>183.885834</ele>
<time>2026-04-24T23:41:45.001Z</time>
</trkpt>
<trkpt lat="59.1006860" lon="30.0420530">
<ele>184.007767</ele>
<time>2026-04-24T23:42:39.001Z</time>
</trkpt>
<trkpt lat="59.1004940" lon="30.0421650">
<ele>183.459122</ele>
<time>2026-04-24T23:43:22.002Z</time>
</trkpt>
<trkpt lat="59.1004550" lon="30.0421080">
<ele>183.885834</ele>
<time>2026-04-24T23:43:48.000Z</time>
</trkpt>
<trkpt lat="59.1004130" lon="30.0421130">
<ele>184.617371</ele>
<time>2026-04-24T23:45:13.000Z</time>
</trkpt>
<trkpt lat="59.1004070" lon="30.0420320">
<ele>184.129669</ele>
<time>2026-04-24T23:45:42.998Z</time>
</trkpt>
<trkpt lat="59.1004460" lon="30.0420460">
<ele>183.489594</ele>
<time>2026-04-24T23:46:13.999Z</time>
</trkpt>
<trkpt lat="59.1003920" lon="30.0421180">
<ele>184.251602</ele>
<time>2026-04-24T23:47:01.000Z</time>
</trkpt>
<trkpt lat="59.1003420" lon="30.0423180">
<ele>183.245758</ele>
<time>2026-04-24T23:47:52.996Z</time>
</trkpt>
<trkpt lat="59.1003950" lon="30.0421870">
<ele>183.733429</ele>
<time>2026-04-24T23:48:54.996Z</time>
</trkpt>
<trkpt lat="59.1003850" lon="30.0422440">
<ele>183.916321</ele>
<time>2026-04-24T23:49:56.997Z</time>
</trkpt>
<trkpt lat="59.1004880" lon="30.0424650">
<ele>183.611526</ele>
<time>2026-04-24T23:50:46.003Z</time>
</trkpt>
<trkpt lat="59.1003540" lon="30.0421600">
<ele>184.007767</ele>
<time>2026-04-24T23:52:21.000Z</time>
</trkpt>
<trkpt lat="59.1004060" lon="30.0422550">
<ele>184.099197</ele>
<time>2026-04-24T23:53:01.997Z</time>
</trkpt>
<trkpt lat="59.1003360" lon="30.0421680">
<ele>184.099197</ele>
<time>2026-04-24T23:54:13.000Z</time>
</trkpt>
<trkpt lat="59.1003610" lon="30.0421500">
<ele>183.855362</ele>
<time>2026-04-24T23:56:02.003Z</time>
</trkpt>
<trkpt lat="59.1003750" lon="30.0422080">
<ele>183.794403</ele>
<time>2026-04-24T23:56:37.997Z</time>
</trkpt>
<trkpt lat="59.1003500" lon="30.0421200">
<ele>184.464966</ele>
<time>2026-04-24T23:58:17.996Z</time>
</trkpt>
<trkpt lat="59.1003160" lon="30.0420850">
<ele>183.916321</ele>
<time>2026-04-24T23:59:34.996Z</time>
</trkpt>
<trkpt lat="59.1003740" lon="30.0421800">
<ele>184.007767</ele>
<time>2026-04-25T00:00:14.999Z</time>
</trkpt>
<trkpt lat="59.1003440" lon="30.0421650">
<ele>184.922165</ele>
<time>2026-04-25T00:00:48.004Z</time>
</trkpt>
<trkpt lat="59.1003280" lon="30.0423000">
<ele>184.343033</ele>
<time>2026-04-25T00:01:42.004Z</time>
</trkpt>
<trkpt lat="59.1003370" lon="30.0422310">
<ele>184.068726</ele>
<time>2026-04-25T00:02:40.004Z</time>
</trkpt>
<trkpt lat="59.1002620" lon="30.0422520">
<ele>183.885834</ele>
<time>2026-04-25T00:03:36.000Z</time>
</trkpt>
<trkpt lat="59.1004010" lon="30.0422640">
<ele>184.739273</ele>
<time>2026-04-25T00:05:41.004Z</time>
</trkpt>
<trkpt lat="59.1003610" lon="30.0423650">
<ele>183.977280</ele>
<time>2026-04-25T00:07:14.998Z</time>
</trkpt>
<trkpt lat="59.1003970" lon="30.0424010">
<ele>183.581039</ele>
<time>2026-04-25T00:07:43.000Z</time>
</trkpt>
<trkpt lat="59.1003680" lon="30.0422990">
<ele>184.312561</ele>
<time>2026-04-25T00:10:15.997Z</time>
</trkpt>
<trkpt lat="59.1003580" lon="30.0420530">
<ele>185.074570</ele>
<time>2026-04-25T00:12:18.996Z</time>
</trkpt>
<trkpt lat="59.1002490" lon="30.0416910">
<ele>185.044067</ele>
<time>2026-04-25T00:12:50.999Z</time>
</trkpt>
<trkpt lat="59.1002410" lon="30.0413820">
<ele>185.958466</ele>
<time>2026-04-25T00:13:28.004Z</time>
</trkpt>
<trkpt lat="59.1001620" lon="30.0410600">
<ele>186.354721</ele>
<time>2026-04-25T00:15:23.003Z</time>
</trkpt>
<trkpt lat="59.1001530" lon="30.0411000">
<ele>186.324234</ele>
<time>2026-04-25T00:16:06.004Z</time>
</trkpt>
<trkpt lat="59.1001450" lon="30.0407450">
<ele>186.629044</ele>
<time>2026-04-25T00:17:10.000Z</time>
</trkpt>
<trkpt lat="59.1001750" lon="30.0406720">
<ele>187.025269</ele>
<time>2026-04-25T00:17:31.998Z</time>
</trkpt>
<trkpt lat="59.1001080" lon="30.0403280">
<ele>186.568069</ele>
<time>2026-04-25T00:18:35.001Z</time>
</trkpt>
<trkpt lat="59.1000240" lon="30.0402760">
<ele>187.055771</ele>
<time>2026-04-25T00:18:54.000Z</time>
</trkpt>
<trkpt lat="59.0999850" lon="30.0399790">
<ele>187.147202</ele>
<time>2026-04-25T00:19:33.001Z</time>
</trkpt>
<trkpt lat="59.0999270" lon="30.0398900">
<ele>186.842407</ele>
<time>2026-04-25T00:20:15.000Z</time>
</trkpt>
<trkpt lat="59.0999850" lon="30.0399000">
<ele>186.720474</ele>
<time>2026-04-25T00:21:18.003Z</time>
</trkpt>
<trkpt lat="59.0999640" lon="30.0398980">
<ele>186.964325</ele>
<time>2026-04-25T00:22:39.996Z</time>
</trkpt>
<trkpt lat="59.0999710" lon="30.0398490">
<ele>187.025269</ele>
<time>2026-04-25T00:23:10.003Z</time>
</trkpt>
<trkpt lat="59.0997890" lon="30.0396000">
<ele>186.598557</ele>
<time>2026-04-25T00:24:03.001Z</time>
</trkpt>
<trkpt lat="59.0998040" lon="30.0393380">
<ele>187.055771</ele>
<time>2026-04-25T00:24:38.002Z</time>
</trkpt>
<trkpt lat="59.0997540" lon="30.0390980">
<ele>186.659531</ele>
<time>2026-04-25T00:25:08.000Z</time>
</trkpt>
<trkpt lat="59.0997190" lon="30.0390220">
<ele>186.354721</ele>
<time>2026-04-25T00:25:29.004Z</time>
</trkpt>
<trkpt lat="59.0996750" lon="30.0390690">
<ele>187.482468</ele>
<time>2026-04-25T00:26:00.997Z</time>
</trkpt>
<trkpt lat="59.0996840" lon="30.0386980">
<ele>187.330078</ele>
<time>2026-04-25T00:27:21.004Z</time>
</trkpt>
<trkpt lat="59.0996460" lon="30.0387610">
<ele>187.330078</ele>
<time>2026-04-25T00:28:25.000Z</time>
</trkpt>
<trkpt lat="59.0996800" lon="30.0386550">
<ele>186.720474</ele>
<time>2026-04-25T00:30:41.996Z</time>
</trkpt>
<trkpt lat="59.0996690" lon="30.0385960">
<ele>186.811920</ele>
<time>2026-04-25T00:32:06.003Z</time>
</trkpt>
<trkpt lat="59.0996500" lon="30.0387050">
<ele>188.823593</ele>
<time>2026-04-25T00:33:47.998Z</time>
</trkpt>
<trkpt lat="59.0996530" lon="30.0386170">
<ele>187.451996</ele>
<time>2026-04-25T00:34:16.000Z</time>
</trkpt>
<trkpt lat="59.0997120" lon="30.0385120">
<ele>187.208160</ele>
<time>2026-04-25T00:34:33.997Z</time>
</trkpt>
<trkpt lat="59.0995750" lon="30.0382380">
<ele>187.634872</ele>
<time>2026-04-25T00:35:34.002Z</time>
</trkpt>
<trkpt lat="59.0995370" lon="30.0379630">
<ele>187.330078</ele>
<time>2026-04-25T00:36:09.003Z</time>
</trkpt>
<trkpt lat="59.0995890" lon="30.0378860">
<ele>187.360565</ele>
<time>2026-04-25T00:36:23.000Z</time>
</trkpt>
<trkpt lat="59.0995720" lon="30.0377800">
<ele>187.756805</ele>
<time>2026-04-25T00:36:48.004Z</time>
</trkpt>
<trkpt lat="59.0994880" lon="30.0376590">
<ele>188.549271</ele>
<time>2026-04-25T00:37:04.999Z</time>
</trkpt>
<trkpt lat="59.0993000" lon="30.0376430">
<ele>188.153030</ele>
<time>2026-04-25T00:38:27.001Z</time>
</trkpt>
<trkpt lat="59.0992840" lon="30.0376670">
<ele>188.396866</ele>
<time>2026-04-25T00:38:55.997Z</time>
</trkpt>
<trkpt lat="59.0993170" lon="30.0376750">
<ele>188.214005</ele>
<time>2026-04-25T00:40:23.002Z</time>
</trkpt>
<trkpt lat="59.0992830" lon="30.0377570">
<ele>189.158875</ele>
<time>2026-04-25T00:40:43.003Z</time>
</trkpt>
<trkpt lat="59.0991600" lon="30.0377920">
<ele>189.250320</ele>
<time>2026-04-25T00:41:02.003Z</time>
</trkpt>
<trkpt lat="59.0992400" lon="30.0381310">
<ele>188.396866</ele>
<time>2026-04-25T00:41:44.002Z</time>
</trkpt>
<trkpt lat="59.0993040" lon="30.0389650">
<ele>188.274963</ele>
<time>2026-04-25T00:43:56.997Z</time>
</trkpt>
<trkpt lat="59.0992430" lon="30.0389860">
<ele>188.396866</ele>
<time>2026-04-25T00:44:46.997Z</time>
</trkpt>
<trkpt lat="59.0992430" lon="30.0390670">
<ele>188.183533</ele>
<time>2026-04-25T00:46:25.000Z</time>
</trkpt>
<trkpt lat="59.0991840" lon="30.0390850">
<ele>188.427368</ele>
<time>2026-04-25T00:46:46.004Z</time>
</trkpt>
<trkpt lat="59.0993850" lon="30.0393820">
<ele>188.579758</ele>
<time>2026-04-25T00:47:24.996Z</time>
</trkpt>
<trkpt lat="59.0994240" lon="30.0395180">
<ele>188.366394</ele>
<time>2026-04-25T00:47:36.997Z</time>
</trkpt>
<trkpt lat="59.0994030" lon="30.0396400">
<ele>188.975998</ele>
<time>2026-04-25T00:47:47.003Z</time>
</trkpt>
<trkpt lat="59.0995960" lon="30.0399990">
<ele>189.372238</ele>
<time>2026-04-25T00:48:42.998Z</time>
</trkpt>
<trkpt lat="59.0995710" lon="30.0401250">
<ele>189.494171</ele>
<time>2026-04-25T00:50:45.997Z</time>
</trkpt>
<trkpt lat="59.0995710" lon="30.0400650">
<ele>189.677032</ele>
<time>2026-04-25T00:52:06.004Z</time>
</trkpt>
<trkpt lat="59.0996740" lon="30.0403770">
<ele>189.189362</ele>
<time>2026-04-25T00:52:45.998Z</time>
</trkpt>
<trkpt lat="59.0997770" lon="30.0404640">
<ele>188.823593</ele>
<time>2026-04-25T00:53:15.003Z</time>
</trkpt>
<trkpt lat="59.0997290" lon="30.0406580">
<ele>189.555130</ele>
<time>2026-04-25T00:53:35.998Z</time>
</trkpt>
<trkpt lat="59.0996960" lon="30.0410090">
<ele>189.951370</ele>
<time>2026-04-25T00:54:13.997Z</time>
</trkpt>
<trkpt lat="59.0997440" lon="30.0410930">
<ele>189.524643</ele>
<time>2026-04-25T00:54:32.996Z</time>
</trkpt>
<trkpt lat="59.0998200" lon="30.0411280">
<ele>189.097931</ele>
<time>2026-04-25T00:56:33.999Z</time>
</trkpt>
<trkpt lat="59.0997810" lon="30.0411470">
<ele>189.707535</ele>
<time>2026-04-25T00:57:09.000Z</time>
</trkpt>
<trkpt lat="59.0998510" lon="30.0411410">
<ele>190.103760</ele>
<time>2026-04-25T00:59:32.001Z</time>
</trkpt>
<trkpt lat="59.0998710" lon="30.0414270">
<ele>190.835266</ele>
<time>2026-04-25T01:02:12.998Z</time>
</trkpt>
<trkpt lat="59.0999510" lon="30.0416590">
<ele>190.926727</ele>
<time>2026-04-25T01:02:42.996Z</time>
</trkpt>
<trkpt lat="59.0999920" lon="30.0416150">
<ele>190.591431</ele>
<time>2026-04-25T01:03:09.996Z</time>
</trkpt>
<trkpt lat="59.1000320" lon="30.0420020">
<ele>191.170563</ele>
<time>2026-04-25T01:05:39.002Z</time>
</trkpt>
<trkpt lat="59.1000730" lon="30.0420750">
<ele>190.286636</ele>
<time>2026-04-25T01:05:54.001Z</time>
</trkpt>
<trkpt lat="59.1000410" lon="30.0422290">
<ele>190.652405</ele>
<time>2026-04-25T01:06:14.003Z</time>
</trkpt>
<trkpt lat="59.0999650" lon="30.0423090">
<ele>190.774323</ele>
<time>2026-04-25T01:06:30.004Z</time>
</trkpt>
<trkpt lat="59.0999580" lon="30.0424240">
<ele>190.926727</ele>
<time>2026-04-25T01:07:30.000Z</time>
</trkpt>
<trkpt lat="59.0999450" lon="30.0424000">
<ele>191.566803</ele>
<time>2026-04-25T01:09:12.004Z</time>
</trkpt>
<trkpt lat="59.0999680" lon="30.0423830">
<ele>191.536331</ele>
<time>2026-04-25T01:09:50.996Z</time>
</trkpt>
<trkpt lat="59.0998950" lon="30.0423740">
<ele>191.688721</ele>
<time>2026-04-25T01:10:16.000Z</time>
</trkpt>
<trkpt lat="59.0997850" lon="30.0424940">
<ele>191.292465</ele>
<time>2026-04-25T01:10:32.002Z</time>
</trkpt>
<trkpt lat="59.0996430" lon="30.0425140">
<ele>191.383926</ele>
<time>2026-04-25T01:10:48.996Z</time>
</trkpt>
<trkpt lat="59.0994870" lon="30.0423800">
<ele>192.206879</ele>
<time>2026-04-25T01:12:10.999Z</time>
</trkpt>
<trkpt lat="59.0995500" lon="30.0424200">
<ele>192.389771</ele>
<time>2026-04-25T01:14:04.001Z</time>
</trkpt>
<trkpt lat="59.0994910" lon="30.0424350">
<ele>192.298325</ele>
<time>2026-04-25T01:15:02.002Z</time>
</trkpt>
<trkpt lat="59.0995330" lon="30.0423870">
<ele>191.505829</ele>
<time>2026-04-25T01:17:01.000Z</time>
</trkpt>
<trkpt lat="59.0995190" lon="30.0423420">
<ele>191.719193</ele>
<time>2026-04-25T01:17:22.998Z</time>
</trkpt>
<trkpt lat="59.0994180" lon="30.0423120">
<ele>192.024002</ele>
<time>2026-04-25T01:17:41.997Z</time>
</trkpt>
<trkpt lat="59.0993140" lon="30.0421360">
<ele>191.322968</ele>
<time>2026-04-25T01:18:14.000Z</time>
</trkpt>
<trkpt lat="59.0993270" lon="30.0420830">
<ele>191.963043</ele>
<time>2026-04-25T01:18:20.998Z</time>
</trkpt>
<trkpt lat="59.0992070" lon="30.0419450">
<ele>191.627762</ele>
<time>2026-04-25T01:19:06.997Z</time>
</trkpt>
<trkpt lat="59.0991950" lon="30.0418550">
<ele>192.084961</ele>
<time>2026-04-25T01:19:44.996Z</time>
</trkpt>
<trkpt lat="59.0991560" lon="30.0418820">
<ele>192.084961</ele>
<time>2026-04-25T01:20:11.996Z</time>
</trkpt>
<trkpt lat="59.0992250" lon="30.0417550">
<ele>191.719193</ele>
<time>2026-04-25T01:20:58.004Z</time>
</trkpt>
<trkpt lat="59.0993590" lon="30.0416680">
<ele>192.237366</ele>
<time>2026-04-25T01:21:56.998Z</time>
</trkpt>
<trkpt lat="59.0993480" lon="30.0415440">
<ele>191.871597</ele>
<time>2026-04-25T01:23:00.001Z</time>
</trkpt>
<trkpt lat="59.0993830" lon="30.0416220">
<ele>191.719193</ele>
<time>2026-04-25T01:23:27.001Z</time>
</trkpt>
<trkpt lat="59.0993630" lon="30.0416120">
<ele>191.658234</ele>
<time>2026-04-25T01:24:03.004Z</time>
</trkpt>
<trkpt lat="59.0993570" lon="30.0417020">
<ele>191.780167</ele>
<time>2026-04-25T01:25:28.998Z</time>
</trkpt>
<trkpt lat="59.0993560" lon="30.0414120">
<ele>192.298325</ele>
<time>2026-04-25T01:27:03.001Z</time>
</trkpt>
<trkpt lat="59.0992350" lon="30.0408450">
<ele>191.719193</ele>
<time>2026-04-25T01:28:52.003Z</time>
</trkpt>
<trkpt lat="59.0991780" lon="30.0407630">
<ele>191.536331</ele>
<time>2026-04-25T01:29:39.998Z</time>
</trkpt>
<trkpt lat="59.0992210" lon="30.0408280">
<ele>191.658234</ele>
<time>2026-04-25T01:30:32.996Z</time>
</trkpt>
<trkpt lat="59.0992180" lon="30.0403770">
<ele>192.603134</ele>
<time>2026-04-25T01:31:57.003Z</time>
</trkpt>
<trkpt lat="59.0991840" lon="30.0403450">
<ele>192.024002</ele>
<time>2026-04-25T01:32:31.001Z</time>
</trkpt>
<trkpt lat="59.0991180" lon="30.0400250">
<ele>192.237366</ele>
<time>2026-04-25T01:33:36.000Z</time>
</trkpt>
<trkpt lat="59.0990430" lon="30.0400990">
<ele>192.816467</ele>
<time>2026-04-25T01:34:54.002Z</time>
</trkpt>
<trkpt lat="59.0990210" lon="30.0400720">
<ele>192.328796</ele>
<time>2026-04-25T01:35:38.999Z</time>
</trkpt>
<trkpt lat="59.0990850" lon="30.0400970">
<ele>192.389771</ele>
<time>2026-04-25T01:37:18.998Z</time>
</trkpt>
<trkpt lat="59.0990630" lon="30.0400710">
<ele>192.298325</ele>
<time>2026-04-25T01:37:47.001Z</time>
</trkpt>
<trkpt lat="59.0990940" lon="30.0399670">
<ele>192.694565</ele>
<time>2026-04-25T01:38:15.003Z</time>
</trkpt>
<trkpt lat="59.0990920" lon="30.0398600">
<ele>192.298325</ele>
<time>2026-04-25T01:38:37.000Z</time>
</trkpt>
<trkpt lat="59.0989830" lon="30.0393190">
<ele>193.334641</ele>
<time>2026-04-25T01:40:03.003Z</time>
</trkpt>
<trkpt lat="59.0990570" lon="30.0391180">
<ele>192.603134</ele>
<time>2026-04-25T01:40:42.997Z</time>
</trkpt>
<trkpt lat="59.0990120" lon="30.0389680">
<ele>192.633606</ele>
<time>2026-04-25T01:41:25.999Z</time>
</trkpt>
<trkpt lat="59.0989500" lon="30.0389030">
<ele>192.603134</ele>
<time>2026-04-25T01:42:13.000Z</time>
</trkpt>
<trkpt lat="59.0989480" lon="30.0387930">
<ele>192.694565</ele>
<time>2026-04-25T01:43:13.999Z</time>
</trkpt>
<trkpt lat="59.0989140" lon="30.0388010">
<ele>192.542160</ele>
<time>2026-04-25T01:43:46.001Z</time>
</trkpt>
<trkpt lat="59.0989410" lon="30.0387640">
<ele>192.694565</ele>
<time>2026-04-25T01:44:48.002Z</time>
</trkpt>
<trkpt lat="59.0988560" lon="30.0386780">
<ele>192.816467</ele>
<time>2026-04-25T01:45:54.003Z</time>
</trkpt>
<trkpt lat="59.0987630" lon="30.0384670">
<ele>193.243195</ele>
<time>2026-04-25T01:46:35.000Z</time>
</trkpt>
<trkpt lat="59.0987120" lon="30.0380440">
<ele>193.365128</ele>
<time>2026-04-25T01:47:49.001Z</time>
</trkpt>
<trkpt lat="59.0986570" lon="30.0380140">
<ele>193.182236</ele>
<time>2026-04-25T01:48:13.003Z</time>
</trkpt>
<trkpt lat="59.0983850" lon="30.0381350">
<ele>193.548004</ele>
<time>2026-04-25T01:49:03.996Z</time>
</trkpt>
<trkpt lat="59.0983080" lon="30.0380580">
<ele>194.188080</ele>
<time>2026-04-25T01:49:57.003Z</time>
</trkpt>
<trkpt lat="59.0982240" lon="30.0383060">
<ele>193.913757</ele>
<time>2026-04-25T01:50:42.000Z</time>
</trkpt>
<trkpt lat="59.0983440" lon="30.0379660">
<ele>193.639435</ele>
<time>2026-04-25T01:52:16.997Z</time>
</trkpt>
<trkpt lat="59.0984090" lon="30.0379610">
<ele>193.578476</ele>
<time>2026-04-25T01:52:47.004Z</time>
</trkpt>
<trkpt lat="59.0983530" lon="30.0381210">
<ele>193.365128</ele>
<time>2026-04-25T01:55:24.001Z</time>
</trkpt>
<trkpt lat="59.0982900" lon="30.0380930">
<ele>193.700394</ele>
<time>2026-04-25T01:55:52.997Z</time>
</trkpt>
<trkpt lat="59.0983310" lon="30.0383220">
<ele>193.395599</ele>
<time>2026-04-25T01:56:54.997Z</time>
</trkpt>
<trkpt lat="59.0982520" lon="30.0383110">
<ele>193.182236</ele>
<time>2026-04-25T01:57:25.998Z</time>
</trkpt>
<trkpt lat="59.0983200" lon="30.0382750">
<ele>193.304169</ele>
<time>2026-04-25T01:58:30.003Z</time>
</trkpt>
<trkpt lat="59.0982940" lon="30.0381630">
<ele>193.913757</ele>
<time>2026-04-25T01:58:56.001Z</time>
</trkpt>
<trkpt lat="59.0983290" lon="30.0381220">
<ele>193.456558</ele>
<time>2026-04-25T02:00:00.999Z</time>
</trkpt>
<trkpt lat="59.0983170" lon="30.0381520">
<ele>193.791840</ele>
<time>2026-04-25T02:00:34.998Z</time>
</trkpt>
<trkpt lat="59.0982960" lon="30.0381500">
<ele>193.334641</ele>
<time>2026-04-25T02:01:34.000Z</time>
</trkpt>
<trkpt lat="59.0983240" lon="30.0380970">
<ele>193.608963</ele>
<time>2026-04-25T02:02:02.996Z</time>
</trkpt>
<trkpt lat="59.0983030" lon="30.0381030">
<ele>193.334641</ele>
<time>2026-04-25T02:02:38.999Z</time>
</trkpt>
<trkpt lat="59.0983620" lon="30.0382170">
<ele>194.675766</ele>
<time>2026-04-25T02:03:36.999Z</time>
</trkpt>
<trkpt lat="59.0982830" lon="30.0379820">
<ele>193.243195</ele>
<time>2026-04-25T02:04:32.002Z</time>
</trkpt>
<trkpt lat="59.0982680" lon="30.0380350">
<ele>193.395599</ele>
<time>2026-04-25T02:05:03.002Z</time>
</trkpt>
<trkpt lat="59.0983520" lon="30.0381360">
<ele>194.066162</ele>
<time>2026-04-25T02:05:27.004Z</time>
</trkpt>
<trkpt lat="59.0983960" lon="30.0381340">
<ele>193.913757</ele>
<time>2026-04-25T02:06:14.999Z</time>
</trkpt>
<trkpt lat="59.0984070" lon="30.0379870">
<ele>194.249039</ele>
<time>2026-04-25T02:07:11.004Z</time>
</trkpt>
<trkpt lat="59.0983280" lon="30.0380800">
<ele>195.041534</ele>
<time>2026-04-25T02:08:47.996Z</time>
</trkpt>
<trkpt lat="59.0983880" lon="30.0380290">
<ele>194.584320</ele>
<time>2026-04-25T02:10:19.001Z</time>
</trkpt>
<trkpt lat="59.0983440" lon="30.0379570">
<ele>195.041534</ele>
<time>2026-04-25T02:11:17.002Z</time>
</trkpt>
<trkpt lat="59.0983360" lon="30.0379950">
<ele>194.431931</ele>
<time>2026-04-25T02:11:45.997Z</time>
</trkpt>
<trkpt lat="59.0983720" lon="30.0381510">
<ele>195.163437</ele>
<time>2026-04-25T02:12:18.000Z</time>
</trkpt>
<trkpt lat="59.0983570" lon="30.0384190">
<ele>194.431931</ele>
<time>2026-04-25T02:13:10.004Z</time>
</trkpt>
<trkpt lat="59.0985170" lon="30.0388290">
<ele>195.132965</ele>
<time>2026-04-25T02:14:22.001Z</time>
</trkpt>
<trkpt lat="59.0986370" lon="30.0394830">
<ele>194.675766</ele>
<time>2026-04-25T02:16:06.001Z</time>
</trkpt>
<trkpt lat="59.0985300" lon="30.0397740">
<ele>195.163437</ele>
<time>2026-04-25T02:17:24.996Z</time>
</trkpt>
<trkpt lat="59.0985500" lon="30.0397830">
<ele>195.315842</ele>
<time>2026-04-25T02:17:59.004Z</time>
</trkpt>
<trkpt lat="59.0985700" lon="30.0396310">
<ele>195.498734</ele>
<time>2026-04-25T02:18:26.004Z</time>
</trkpt>
<trkpt lat="59.0986230" lon="30.0396430">
<ele>195.529205</ele>
<time>2026-04-25T02:19:00.002Z</time>
</trkpt>
<trkpt lat="59.0986530" lon="30.0397700">
<ele>195.346329</ele>
<time>2026-04-25T02:19:20.004Z</time>
</trkpt>
<trkpt lat="59.0986540" lon="30.0399160">
<ele>196.230240</ele>
<time>2026-04-25T02:19:44.999Z</time>
</trkpt>
<trkpt lat="59.0987440" lon="30.0400930">
<ele>196.016876</ele>
<time>2026-04-25T02:20:28.000Z</time>
</trkpt>
<trkpt lat="59.0987990" lon="30.0403430">
<ele>196.352158</ele>
<time>2026-04-25T02:21:05.999Z</time>
</trkpt>
<trkpt lat="59.0988000" lon="30.0406430">
<ele>196.077835</ele>
<time>2026-04-25T02:21:31.997Z</time>
</trkpt>
<trkpt lat="59.0989920" lon="30.0412110">
<ele>196.291199</ele>
<time>2026-04-25T02:23:04.004Z</time>
</trkpt>
<trkpt lat="59.0989620" lon="30.0413260">
<ele>196.717926</ele>
<time>2026-04-25T02:24:50.000Z</time>
</trkpt>
<trkpt lat="59.0989910" lon="30.0413330">
<ele>196.413132</ele>
<time>2026-04-25T02:25:18.002Z</time>
</trkpt>
<trkpt lat="59.0989760" lon="30.0414190">
<ele>196.809357</ele>
<time>2026-04-25T02:25:44.000Z</time>
</trkpt>
<trkpt lat="59.0990200" lon="30.0417350">
<ele>196.474075</ele>
<time>2026-04-25T02:26:24.996Z</time>
</trkpt>
<trkpt lat="59.0992270" lon="30.0423950">
<ele>196.717926</ele>
<time>2026-04-25T02:28:38.001Z</time>
</trkpt>
<trkpt lat="59.0992200" lon="30.0425530">
<ele>196.504562</ele>
<time>2026-04-25T02:29:18.997Z</time>
</trkpt>
<trkpt lat="59.0990960" lon="30.0428400">
<ele>197.053207</ele>
<time>2026-04-25T02:30:16.004Z</time>
</trkpt>
<trkpt lat="59.0990540" lon="30.0428800">
<ele>197.053207</ele>
<time>2026-04-25T02:32:20.999Z</time>
</trkpt>
<trkpt lat="59.0990700" lon="30.0429910">
<ele>196.656967</ele>
<time>2026-04-25T02:33:05.996Z</time>
</trkpt>
<trkpt lat="59.0990250" lon="30.0430560">
<ele>197.540878</ele>
<time>2026-04-25T02:33:55.996Z</time>
</trkpt>
<trkpt lat="59.0990520" lon="30.0430130">
<ele>197.784729</ele>
<time>2026-04-25T02:34:50.998Z</time>
</trkpt>
<trkpt lat="59.0991870" lon="30.0430120">
<ele>198.912476</ele>
<time>2026-04-25T02:37:07.000Z</time>
</trkpt>
<trkpt lat="59.0990190" lon="30.0430780">
<ele>198.394333</ele>
<time>2026-04-25T02:38:33.003Z</time>
</trkpt>
<trkpt lat="59.0990610" lon="30.0429370">
<ele>198.942963</ele>
<time>2026-04-25T02:39:16.998Z</time>
</trkpt>
<trkpt lat="59.0989330" lon="30.0428130">
<ele>197.632324</ele>
<time>2026-04-25T02:40:01.001Z</time>
</trkpt>
<trkpt lat="59.0988720" lon="30.0428280">
<ele>198.302872</ele>
<time>2026-04-25T02:40:17.996Z</time>
</trkpt>
<trkpt lat="59.0987950" lon="30.0429310">
<ele>198.455276</ele>
<time>2026-04-25T02:40:40.002Z</time>
</trkpt>
<trkpt lat="59.0987430" lon="30.0428830">
<ele>198.577194</ele>
<time>2026-04-25T02:41:24.999Z</time>
</trkpt>
<trkpt lat="59.0987630" lon="30.0431380">
<ele>197.998077</ele>
<time>2026-04-25T02:42:58.000Z</time>
</trkpt>
<trkpt lat="59.0987850" lon="30.0429880">
<ele>198.059036</ele>
<time>2026-04-25T02:43:50.998Z</time>
</trkpt>
<trkpt lat="59.0986700" lon="30.0430970">
<ele>197.967606</ele>
<time>2026-04-25T02:45:00.999Z</time>
</trkpt>
<trkpt lat="59.0987350" lon="30.0431070">
<ele>197.388474</ele>
<time>2026-04-25T02:45:53.997Z</time>
</trkpt>
<trkpt lat="59.0987640" lon="30.0429700">
<ele>198.699127</ele>
<time>2026-04-25T02:46:26.000Z</time>
</trkpt>
<trkpt lat="59.0989050" lon="30.0427750">
<ele>198.333359</ele>
<time>2026-04-25T02:46:59.998Z</time>
</trkpt>
<trkpt lat="59.0989090" lon="30.0425090">
<ele>198.089523</ele>
<time>2026-04-25T02:47:45.004Z</time>
</trkpt>
<trkpt lat="59.0987290" lon="30.0422420">
<ele>199.369675</ele>
<time>2026-04-25T02:48:45.000Z</time>
</trkpt>
<trkpt lat="59.0986760" lon="30.0421110">
<ele>198.699127</ele>
<time>2026-04-25T02:49:09.002Z</time>
</trkpt>
<trkpt lat="59.0985750" lon="30.0415060">
<ele>199.643997</ele>
<time>2026-04-25T02:50:27.004Z</time>
</trkpt>
<trkpt lat="59.0984860" lon="30.0414030">
<ele>199.643997</ele>
<time>2026-04-25T02:51:23.000Z</time>
</trkpt>
<trkpt lat="59.0985410" lon="30.0413120">
<ele>200.009766</ele>
<time>2026-04-25T02:51:55.996Z</time>
</trkpt>
<trkpt lat="59.0986490" lon="30.0412600">
<ele>200.436478</ele>
<time>2026-04-25T02:52:19.004Z</time>
</trkpt>
<trkpt lat="59.0985890" lon="30.0411930">
<ele>199.796402</ele>
<time>2026-04-25T02:52:38.004Z</time>
</trkpt>
<trkpt lat="59.0985290" lon="30.0412860">
<ele>199.796402</ele>
<time>2026-04-25T02:52:46.004Z</time>
</trkpt>
<trkpt lat="59.0985340" lon="30.0415550">
<ele>200.527924</ele>
<time>2026-04-25T02:53:17.998Z</time>
</trkpt>
<trkpt lat="59.0984430" lon="30.0412880">
<ele>199.826874</ele>
<time>2026-04-25T02:54:03.997Z</time>
</trkpt>
<trkpt lat="59.0984440" lon="30.0411840">
<ele>199.918335</ele>
<time>2026-04-25T02:54:25.001Z</time>
</trkpt>
<trkpt lat="59.0983740" lon="30.0411540">
<ele>200.345032</ele>
<time>2026-04-25T02:54:45.996Z</time>
</trkpt>
<trkpt lat="59.0982530" lon="30.0409030">
<ele>200.558395</ele>
<time>2026-04-25T02:55:31.996Z</time>
</trkpt>
<trkpt lat="59.0981970" lon="30.0405770">
<ele>200.009766</ele>
<time>2026-04-25T02:56:15.999Z</time>
</trkpt>
<trkpt lat="59.0981710" lon="30.0401330">
<ele>199.979279</ele>
<time>2026-04-25T02:57:22.000Z</time>
</trkpt>
<trkpt lat="59.0982270" lon="30.0400210">
<ele>200.406006</ele>
<time>2026-04-25T02:57:43.004Z</time>
</trkpt>
<trkpt lat="59.0981990" lon="30.0399730">
<ele>200.649841</ele>
<time>2026-04-25T02:58:21.003Z</time>
</trkpt>
<trkpt lat="59.0982710" lon="30.0400200">
<ele>200.588867</ele>
<time>2026-04-25T02:59:24.999Z</time>
</trkpt>
<trkpt lat="59.0982800" lon="30.0399720">
<ele>200.527924</ele>
<time>2026-04-25T03:00:52.998Z</time>
</trkpt>
<trkpt lat="59.0982620" lon="30.0400940">
<ele>200.771759</ele>
<time>2026-04-25T03:01:25.000Z</time>
</trkpt>
<trkpt lat="59.0982640" lon="30.0400210">
<ele>200.558395</ele>
<time>2026-04-25T03:01:56.001Z</time>
</trkpt>
<trkpt lat="59.0981030" lon="30.0397030">
<ele>200.406006</ele>
<time>2026-04-25T03:03:00.999Z</time>
</trkpt>
<trkpt lat="59.0980430" lon="30.0394670">
<ele>199.613525</ele>
<time>2026-04-25T03:03:25.001Z</time>
</trkpt>
<trkpt lat="59.0980680" lon="30.0393150">
<ele>200.070724</ele>
<time>2026-04-25T03:03:45.003Z</time>
</trkpt>
<trkpt lat="59.0978860" lon="30.0387450">
<ele>200.284073</ele>
<time>2026-04-25T03:05:02.003Z</time>
</trkpt>
<trkpt lat="59.0978870" lon="30.0386360">
<ele>200.558395</ele>
<time>2026-04-25T03:05:24.000Z</time>
</trkpt>
<trkpt lat="59.0979300" lon="30.0385520">
<ele>200.466965</ele>
<time>2026-04-25T03:05:42.999Z</time>
</trkpt>
<trkpt lat="59.0978530" lon="30.0385330">
<ele>200.527924</ele>
<time>2026-04-25T03:06:11.002Z</time>
</trkpt>
<trkpt lat="59.0979620" lon="30.0384980">
<ele>200.649841</ele>
<time>2026-04-25T03:07:17.003Z</time>
</trkpt>
<trkpt lat="59.0978970" lon="30.0386220">
<ele>200.619370</ele>
<time>2026-04-25T03:08:54.997Z</time>
</trkpt>
<trkpt lat="59.0977040" lon="30.0386240">
<ele>200.863205</ele>
<time>2026-04-25T03:10:31.999Z</time>
</trkpt>
<trkpt lat="59.0976510" lon="30.0387770">
<ele>200.436478</ele>
<time>2026-04-25T03:11:01.003Z</time>
</trkpt>
<trkpt lat="59.0974640" lon="30.0388430">
<ele>200.832733</ele>
<time>2026-04-25T03:12:06.002Z</time>
</trkpt>
<trkpt lat="59.0974350" lon="30.0387500">
<ele>201.015594</ele>
<time>2026-04-25T03:12:33.002Z</time>
</trkpt>
<trkpt lat="59.0974360" lon="30.0386060">
<ele>200.588867</ele>
<time>2026-04-25T03:13:07.000Z</time>
</trkpt>
<trkpt lat="59.0972970" lon="30.0387630">
<ele>201.107040</ele>
<time>2026-04-25T03:13:55.004Z</time>
</trkpt>
<trkpt lat="59.0973370" lon="30.0387400">
<ele>201.259430</ele>
<time>2026-04-25T03:14:28.000Z</time>
</trkpt>
<trkpt lat="59.0973270" lon="30.0386890">
<ele>201.046066</ele>
<time>2026-04-25T03:14:41.004Z</time>
</trkpt>
<trkpt lat="59.0973740" lon="30.0386930">
<ele>201.076569</ele>
<time>2026-04-25T03:14:49.004Z</time>
</trkpt>
<trkpt lat="59.0973670" lon="30.0388900">
<ele>201.167999</ele>
<time>2026-04-25T03:15:18.000Z</time>
</trkpt>
<trkpt lat="59.0974360" lon="30.0387910">
<ele>200.954636</ele>
<time>2026-04-25T03:16:14.998Z</time>
</trkpt>
<trkpt lat="59.0974020" lon="30.0388250">
<ele>201.747131</ele>
<time>2026-04-25T03:17:23.997Z</time>
</trkpt>
<trkpt lat="59.0974720" lon="30.0389170">
<ele>201.198471</ele>
<time>2026-04-25T03:19:31.999Z</time>
</trkpt>
<trkpt lat="59.0975140" lon="30.0387650">
<ele>201.442322</ele>
<time>2026-04-25T03:20:05.004Z</time>
</trkpt>
<trkpt lat="59.0974950" lon="30.0388020">
<ele>200.893677</ele>
<time>2026-04-25T03:20:59.004Z</time>
</trkpt>
<trkpt lat="59.0974660" lon="30.0387530">
<ele>200.710800</ele>
<time>2026-04-25T03:21:41.996Z</time>
</trkpt>
<trkpt lat="59.0975090" lon="30.0387600">
<ele>200.527924</ele>
<time>2026-04-25T03:22:39.003Z</time>
</trkpt>
<trkpt lat="59.0975160" lon="30.0387070">
<ele>200.314560</ele>
<time>2026-04-25T03:23:52.002Z</time>
</trkpt>
<trkpt lat="59.0974990" lon="30.0387730">
<ele>201.076569</ele>
<time>2026-04-25T03:24:43.004Z</time>
</trkpt>
<trkpt lat="59.0975210" lon="30.0387190">
<ele>201.259430</ele>
<time>2026-04-25T03:25:06.004Z</time>
</trkpt>
<trkpt lat="59.0975110" lon="30.0387690">
<ele>201.076569</ele>
<time>2026-04-25T03:25:32.002Z</time>
</trkpt>
<trkpt lat="59.0975390" lon="30.0387580">
<ele>201.137527</ele>
<time>2026-04-25T03:26:04.004Z</time>
</trkpt>
<trkpt lat="59.0975430" lon="30.0386650">
<ele>201.228958</ele>
<time>2026-04-25T03:27:32.996Z</time>
</trkpt>
<trkpt lat="59.0974890" lon="30.0387550">
<ele>202.356720</ele>
<time>2026-04-25T03:29:51.003Z</time>
</trkpt>
<trkpt lat="59.0975290" lon="30.0386720">
<ele>202.051926</ele>
<time>2026-04-25T03:30:17.001Z</time>
</trkpt>
<trkpt lat="59.0975350" lon="30.0388470">
<ele>201.747131</ele>
<time>2026-04-25T03:31:11.001Z</time>
</trkpt>
<trkpt lat="59.0976860" lon="30.0395440">
<ele>202.265274</ele>
<time>2026-04-25T03:32:44.002Z</time>
</trkpt>
<trkpt lat="59.0976540" lon="30.0397250">
<ele>202.112869</ele>
<time>2026-04-25T03:33:27.996Z</time>
</trkpt>
<trkpt lat="59.0977590" lon="30.0399690">
<ele>202.082397</ele>
<time>2026-04-25T03:33:59.999Z</time>
</trkpt>
<trkpt lat="59.0978070" lon="30.0402160">
<ele>202.143356</ele>
<time>2026-04-25T03:35:02.000Z</time>
</trkpt>
<trkpt lat="59.0977790" lon="30.0401480">
<ele>202.143356</ele>
<time>2026-04-25T03:35:30.002Z</time>
</trkpt>
<trkpt lat="59.0977230" lon="30.0401530">
<ele>202.326233</ele>
<time>2026-04-25T03:35:57.002Z</time>
</trkpt>
<trkpt lat="59.0978240" lon="30.0401350">
<ele>201.594727</ele>
<time>2026-04-25T03:36:55.002Z</time>
</trkpt>
<trkpt lat="59.0978400" lon="30.0403470">
<ele>201.411835</ele>
<time>2026-04-25T03:38:02.999Z</time>
</trkpt>
<trkpt lat="59.0977900" lon="30.0405750">
<ele>202.661530</ele>
<time>2026-04-25T03:38:42.000Z</time>
</trkpt>
<trkpt lat="59.0978450" lon="30.0407190">
<ele>201.442322</ele>
<time>2026-04-25T03:39:11.998Z</time>
</trkpt>
<trkpt lat="59.0978230" lon="30.0406340">
<ele>201.777603</ele>
<time>2026-04-25T03:40:01.004Z</time>
</trkpt>
<trkpt lat="59.0978130" lon="30.0407550">
<ele>202.417679</ele>
<time>2026-04-25T03:40:27.002Z</time>
</trkpt>
<trkpt lat="59.0978520" lon="30.0406670">
<ele>202.295761</ele>
<time>2026-04-25T03:40:58.002Z</time>
</trkpt>
<trkpt lat="59.0979040" lon="30.0407420">
<ele>202.143356</ele>
<time>2026-04-25T03:41:53.998Z</time>
</trkpt>
<trkpt lat="59.0979040" lon="30.0406140">
<ele>202.752960</ele>
<time>2026-04-25T03:42:23.003Z</time>
</trkpt>
<trkpt lat="59.0979430" lon="30.0408010">
<ele>201.625198</ele>
<time>2026-04-25T03:42:43.998Z</time>
</trkpt>
<trkpt lat="59.0979650" lon="30.0411650">
<ele>203.027267</ele>
<time>2026-04-25T03:43:30.999Z</time>
</trkpt>
<trkpt lat="59.0980300" lon="30.0415390">
<ele>202.874878</ele>
<time>2026-04-25T03:44:27.997Z</time>
</trkpt>
<trkpt lat="59.0980940" lon="30.0416390">
<ele>202.692001</ele>
<time>2026-04-25T03:44:50.997Z</time>
</trkpt>
<trkpt lat="59.0980850" lon="30.0417130">
<ele>202.661530</ele>
<time>2026-04-25T03:45:13.003Z</time>
</trkpt>
<trkpt lat="59.0980180" lon="30.0416310">
<ele>202.448166</ele>
<time>2026-04-25T03:45:40.997Z</time>
</trkpt>
<trkpt lat="59.0980390" lon="30.0417450">
<ele>202.874878</ele>
<time>2026-04-25T03:46:07.003Z</time>
</trkpt>
<trkpt lat="59.0981150" lon="30.0417000">
<ele>202.539597</ele>
<time>2026-04-25T03:46:38.004Z</time>
</trkpt>
<trkpt lat="59.0980810" lon="30.0418370">
<ele>202.813934</ele>
<time>2026-04-25T03:47:06.999Z</time>
</trkpt>
<trkpt lat="59.0980280" lon="30.0417630">
<ele>202.417679</ele>
<time>2026-04-25T03:48:07.998Z</time>
</trkpt>
<trkpt lat="59.0980710" lon="30.0417950">
<ele>202.417679</ele>
<time>2026-04-25T03:48:30.997Z</time>
</trkpt>
<trkpt lat="59.0980660" lon="30.0419150">
<ele>202.661530</ele>
<time>2026-04-25T03:48:49.997Z</time>
</trkpt>
<trkpt lat="59.0982540" lon="30.0422020">
<ele>202.661530</ele>
<time>2026-04-25T03:49:47.004Z</time>
</trkpt>
<trkpt lat="59.0982480" lon="30.0423000">
<ele>202.478638</ele>
<time>2026-04-25T03:49:59.998Z</time>
</trkpt>
<trkpt lat="59.0983330" lon="30.0425210">
<ele>202.844406</ele>
<time>2026-04-25T03:50:49.004Z</time>
</trkpt>
<trkpt lat="59.0983480" lon="30.0428930">
<ele>203.027267</ele>
<time>2026-04-25T03:52:25.003Z</time>
</trkpt>
<trkpt lat="59.0983910" lon="30.0430070">
<ele>202.173843</ele>
<time>2026-04-25T03:52:48.003Z</time>
</trkpt>
<trkpt lat="59.0983760" lon="30.0431020">
<ele>202.509125</ele>
<time>2026-04-25T03:53:07.996Z</time>
</trkpt>
<trkpt lat="59.0982570" lon="30.0432460">
<ele>202.265274</ele>
<time>2026-04-25T03:55:50.998Z</time>
</trkpt>
<trkpt lat="59.0981980" lon="30.0432160">
<ele>202.265274</ele>
<time>2026-04-25T03:56:55.003Z</time>
</trkpt>
<trkpt lat="59.0979440" lon="30.0433510">
<ele>202.874878</ele>
<time>2026-04-25T03:58:16.003Z</time>
</trkpt>
<trkpt lat="59.0979030" lon="30.0434730">
<ele>202.813934</ele>
<time>2026-04-25T03:58:35.003Z</time>
</trkpt>
<trkpt lat="59.0978480" lon="30.0435000">
<ele>202.905365</ele>
<time>2026-04-25T03:58:51.997Z</time>
</trkpt>
<trkpt lat="59.0977150" lon="30.0431330">
<ele>202.082397</ele>
<time>2026-04-25T04:00:12.004Z</time>
</trkpt>
<trkpt lat="59.0976830" lon="30.0428550">
<ele>202.813934</ele>
<time>2026-04-25T04:00:58.003Z</time>
</trkpt>
<trkpt lat="59.0977140" lon="30.0427780">
<ele>202.874878</ele>
<time>2026-04-25T04:01:48.996Z</time>
</trkpt>
<trkpt lat="59.0976610" lon="30.0427650">
<ele>202.844406</ele>
<time>2026-04-25T04:02:18.001Z</time>
</trkpt>
<trkpt lat="59.0977310" lon="30.0425050">
<ele>203.271133</ele>
<time>2026-04-25T04:03:54.000Z</time>
</trkpt>
<trkpt lat="59.0977530" lon="30.0427510">
<ele>203.088242</ele>
<time>2026-04-25T04:04:44.000Z</time>
</trkpt>
<trkpt lat="59.0975110" lon="30.0425490">
<ele>203.057770</ele>
<time>2026-04-25T04:06:10.996Z</time>
</trkpt>
<trkpt lat="59.0974690" lon="30.0424210">
<ele>203.027267</ele>
<time>2026-04-25T04:06:33.002Z</time>
</trkpt>
<trkpt lat="59.0974950" lon="30.0421440">
<ele>204.002640</ele>
<time>2026-04-25T04:07:38.001Z</time>
</trkpt>
<trkpt lat="59.0973520" lon="30.0416320">
<ele>203.972168</ele>
<time>2026-04-25T04:09:01.999Z</time>
</trkpt>
<trkpt lat="59.0973590" lon="30.0415010">
<ele>204.033127</ele>
<time>2026-04-25T04:09:23.996Z</time>
</trkpt>
<trkpt lat="59.0974240" lon="30.0412340">
<ele>204.734161</ele>
<time>2026-04-25T04:10:06.997Z</time>
</trkpt>
<trkpt lat="59.0973950" lon="30.0408780">
<ele>204.612244</ele>
<time>2026-04-25T04:11:45.001Z</time>
</trkpt>
<trkpt lat="59.0974710" lon="30.0408740">
<ele>204.764633</ele>
<time>2026-04-25T04:12:02.998Z</time>
</trkpt>
<trkpt lat="59.0973660" lon="30.0409210">
<ele>205.587601</ele>
<time>2026-04-25T04:13:10.001Z</time>
</trkpt>
<trkpt lat="59.0974030" lon="30.0408120">
<ele>205.282806</ele>
<time>2026-04-25T04:13:58.999Z</time>
</trkpt>
<trkpt lat="59.0973400" lon="30.0403510">
<ele>205.008469</ele>
<time>2026-04-25T04:15:05.000Z</time>
</trkpt>
<trkpt lat="59.0972840" lon="30.0402080">
<ele>205.160873</ele>
<time>2026-04-25T04:15:30.997Z</time>
</trkpt>
<trkpt lat="59.0972080" lon="30.0397640">
<ele>205.160873</ele>
<time>2026-04-25T04:16:39.003Z</time>
</trkpt>
<trkpt lat="59.0971930" lon="30.0396230">
<ele>205.526642</ele>
<time>2026-04-25T04:16:58.002Z</time>
</trkpt>
<trkpt lat="59.0972170" lon="30.0395040">
<ele>205.160873</ele>
<time>2026-04-25T04:17:22.998Z</time>
</trkpt>
<trkpt lat="59.0970220" lon="30.0389880">
<ele>204.795120</ele>
<time>2026-04-25T04:18:42.002Z</time>
</trkpt>
<trkpt lat="59.0969230" lon="30.0389180">
<ele>205.343765</ele>
<time>2026-04-25T04:20:10.000Z</time>
</trkpt>
<trkpt lat="59.0969640" lon="30.0389070">
<ele>205.221832</ele>
<time>2026-04-25T04:20:39.998Z</time>
</trkpt>
<trkpt lat="59.0969480" lon="30.0390400">
<ele>205.496170</ele>
<time>2026-04-25T04:21:39.001Z</time>
</trkpt>
<trkpt lat="59.0967620" lon="30.0391100">
<ele>205.740005</ele>
<time>2026-04-25T04:22:19.998Z</time>
</trkpt>
<trkpt lat="59.0966160" lon="30.0392500">
<ele>205.343765</ele>
<time>2026-04-25T04:22:53.003Z</time>
</trkpt>
<trkpt lat="59.0965580" lon="30.0390110">
<ele>206.684875</ele>
<time>2026-04-25T04:23:59.004Z</time>
</trkpt>
<trkpt lat="59.0965860" lon="30.0391410">
<ele>205.618073</ele>
<time>2026-04-25T04:24:25.001Z</time>
</trkpt>
<trkpt lat="59.0967500" lon="30.0394130">
<ele>205.709534</ele>
<time>2026-04-25T04:24:54.999Z</time>
</trkpt>
<trkpt lat="59.0968370" lon="30.0396930">
<ele>205.404724</ele>
<time>2026-04-25T04:25:35.996Z</time>
</trkpt>
<trkpt lat="59.0968240" lon="30.0398460">
<ele>205.740005</ele>
<time>2026-04-25T04:25:57.000Z</time>
</trkpt>
<trkpt lat="59.0967750" lon="30.0398830">
<ele>205.587601</ele>
<time>2026-04-25T04:26:22.004Z</time>
</trkpt>
<trkpt lat="59.0967730" lon="30.0399660">
<ele>205.648560</ele>
<time>2026-04-25T04:26:49.998Z</time>
</trkpt>
<trkpt lat="59.0967690" lon="30.0398990">
<ele>205.618073</ele>
<time>2026-04-25T04:28:22.999Z</time>
</trkpt>
<trkpt lat="59.0968050" lon="30.0399250">
<ele>206.014328</ele>
<time>2026-04-25T04:28:48.996Z</time>
</trkpt>
<trkpt lat="59.0967840" lon="30.0401090">
<ele>205.831436</ele>
<time>2026-04-25T04:29:11.996Z</time>
</trkpt>
<trkpt lat="59.0969120" lon="30.0403970">
<ele>206.562958</ele>
<time>2026-04-25T04:29:50.997Z</time>
</trkpt>
<trkpt lat="59.0970640" lon="30.0410020">
<ele>205.587601</ele>
<time>2026-04-25T04:30:50.000Z</time>
</trkpt>
<trkpt lat="59.0971010" lon="30.0413800">
<ele>206.410568</ele>
<time>2026-04-25T04:31:23.998Z</time>
</trkpt>
<trkpt lat="59.0970670" lon="30.0415090">
<ele>206.684875</ele>
<time>2026-04-25T04:31:48.000Z</time>
</trkpt>
<trkpt lat="59.0971230" lon="30.0415130">
<ele>206.105759</ele>
<time>2026-04-25T04:32:19.000Z</time>
</trkpt>
<trkpt lat="59.0972030" lon="30.0416170">
<ele>206.105759</ele>
<time>2026-04-25T04:32:50.001Z</time>
</trkpt>
<trkpt lat="59.0971200" lon="30.0415360">
<ele>205.861923</ele>
<time>2026-04-25T04:33:49.003Z</time>
</trkpt>
<trkpt lat="59.0971420" lon="30.0414910">
<ele>206.837265</ele>
<time>2026-04-25T04:34:19.001Z</time>
</trkpt>
<trkpt lat="59.0970720" lon="30.0414820">
<ele>206.227676</ele>
<time>2026-04-25T04:35:13.001Z</time>
</trkpt>
<trkpt lat="59.0971450" lon="30.0416530">
<ele>206.105759</ele>
<time>2026-04-25T04:35:55.000Z</time>
</trkpt>
<trkpt lat="59.0972390" lon="30.0417220">
<ele>206.319122</ele>
<time>2026-04-25T04:36:15.002Z</time>
</trkpt>
<trkpt lat="59.0972630" lon="30.0420730">
<ele>206.410568</ele>
<time>2026-04-25T04:36:54.003Z</time>
</trkpt>
<trkpt lat="59.0973870" lon="30.0424210">
<ele>206.319122</ele>
<time>2026-04-25T04:37:33.004Z</time>
</trkpt>
<trkpt lat="59.0974490" lon="30.0428150">
<ele>206.593430</ele>
<time>2026-04-25T04:38:35.998Z</time>
</trkpt>
<trkpt lat="59.0975170" lon="30.0428510">
<ele>206.532471</ele>
<time>2026-04-25T04:38:57.002Z</time>
</trkpt>
<trkpt lat="59.0975740" lon="30.0430140">
<ele>206.258163</ele>
<time>2026-04-25T04:39:17.004Z</time>
</trkpt>
<trkpt lat="59.0975750" lon="30.0431750">
<ele>207.172562</ele>
<time>2026-04-25T04:39:35.001Z</time>
</trkpt>
<trkpt lat="59.0976370" lon="30.0433290">
<ele>206.806793</ele>
<time>2026-04-25T04:39:54.000Z</time>
</trkpt>
<trkpt lat="59.0976020" lon="30.0435420">
<ele>206.867767</ele>
<time>2026-04-25T04:40:37.001Z</time>
</trkpt>
<trkpt lat="59.0975330" lon="30.0436160">
<ele>206.806793</ele>
<time>2026-04-25T04:41:54.001Z</time>
</trkpt>
<trkpt lat="59.0974620" lon="30.0435560">
<ele>207.568802</ele>
<time>2026-04-25T04:43:35.996Z</time>
</trkpt>
<trkpt lat="59.0973820" lon="30.0436460">
<ele>206.928726</ele>
<time>2026-04-25T04:44:18.004Z</time>
</trkpt>
<trkpt lat="59.0973290" lon="30.0436090">
<ele>207.690735</ele>
<time>2026-04-25T04:44:41.997Z</time>
</trkpt>
<trkpt lat="59.0972330" lon="30.0437900">
<ele>207.782166</ele>
<time>2026-04-25T04:45:08.997Z</time>
</trkpt>
<trkpt lat="59.0971510" lon="30.0438280">
<ele>207.050629</ele>
<time>2026-04-25T04:45:53.001Z</time>
</trkpt>
<trkpt lat="59.0971220" lon="30.0434900">
<ele>208.727036</ele>
<time>2026-04-25T04:47:08.998Z</time>
</trkpt>
<trkpt lat="59.0969760" lon="30.0432470">
<ele>208.208878</ele>
<time>2026-04-25T04:47:53.002Z</time>
</trkpt>
<trkpt lat="59.0969830" lon="30.0431300">
<ele>208.178406</ele>
<time>2026-04-25T04:48:17.997Z</time>
</trkpt>
<trkpt lat="59.0969940" lon="30.0431910">
<ele>208.605133</ele>
<time>2026-04-25T04:48:44.997Z</time>
</trkpt>
<trkpt lat="59.0969580" lon="30.0432220">
<ele>208.544159</ele>
<time>2026-04-25T04:49:17.000Z</time>
</trkpt>
<trkpt lat="59.0969180" lon="30.0429350">
<ele>208.818466</ele>
<time>2026-04-25T04:50:23.001Z</time>
</trkpt>
<trkpt lat="59.0969440" lon="30.0431470">
<ele>208.666077</ele>
<time>2026-04-25T04:51:10.996Z</time>
</trkpt>
<trkpt lat="59.0969770" lon="30.0431350">
<ele>208.605133</ele>
<time>2026-04-25T04:51:41.996Z</time>
</trkpt>
<trkpt lat="59.0968080" lon="30.0426120">
<ele>209.824326</ele>
<time>2026-04-25T04:53:18.004Z</time>
</trkpt>
<trkpt lat="59.0968400" lon="30.0426040">
<ele>208.879440</ele>
<time>2026-04-25T04:53:49.004Z</time>
</trkpt>
<trkpt lat="59.0968090" lon="30.0425960">
<ele>209.306168</ele>
<time>2026-04-25T04:54:15.002Z</time>
</trkpt>
<trkpt lat="59.0967300" lon="30.0424270">
<ele>209.031830</ele>
<time>2026-04-25T04:54:55.999Z</time>
</trkpt>
<trkpt lat="59.0966110" lon="30.0416060">
<ele>209.245193</ele>
<time>2026-04-25T04:57:08.001Z</time>
</trkpt>
<trkpt lat="59.0966350" lon="30.0417420">
<ele>208.787994</ele>
<time>2026-04-25T04:57:59.003Z</time>
</trkpt>
<trkpt lat="59.0965810" lon="30.0417520">
<ele>209.245193</ele>
<time>2026-04-25T04:58:26.996Z</time>
</trkpt>
<trkpt lat="59.0966050" lon="30.0417640">
<ele>208.574631</ele>
<time>2026-04-25T04:58:58.999Z</time>
</trkpt>
<trkpt lat="59.0965820" lon="30.0416560">
<ele>209.214722</ele>
<time>2026-04-25T04:59:28.997Z</time>
</trkpt>
<trkpt lat="59.0965710" lon="30.0417180">
<ele>209.519531</ele>
<time>2026-04-25T05:00:00.999Z</time>
</trkpt>
<trkpt lat="59.0966160" lon="30.0415510">
<ele>208.574631</ele>
<time>2026-04-25T05:00:30.997Z</time>
</trkpt>
<trkpt lat="59.0963990" lon="30.0410670">
<ele>210.068161</ele>
<time>2026-04-25T05:02:03.998Z</time>
</trkpt>
<trkpt lat="59.0963350" lon="30.0408390">
<ele>209.793839</ele>
<time>2026-04-25T05:02:51.000Z</time>
</trkpt>
<trkpt lat="59.0963130" lon="30.0409590">
<ele>209.793839</ele>
<time>2026-04-25T05:03:18.000Z</time>
</trkpt>
<trkpt lat="59.0963750" lon="30.0410030">
<ele>209.976730</ele>
<time>2026-04-25T05:04:25.003Z</time>
</trkpt>
<trkpt lat="59.0964030" lon="30.0408900">
<ele>210.159607</ele>
<time>2026-04-25T05:04:53.999Z</time>
</trkpt>
<trkpt lat="59.0962270" lon="30.0403680">
<ele>210.037674</ele>
<time>2026-04-25T05:06:09.003Z</time>
</trkpt>
<trkpt lat="59.0961540" lon="30.0396870">
<ele>210.159607</ele>
<time>2026-04-25T05:07:44.000Z</time>
</trkpt>
<trkpt lat="59.0961520" lon="30.0394780">
<ele>210.220566</ele>
<time>2026-04-25T05:08:13.004Z</time>
</trkpt>
<trkpt lat="59.0962010" lon="30.0393670">
<ele>210.708237</ele>
<time>2026-04-25T05:08:36.997Z</time>
</trkpt>
<trkpt lat="59.0961920" lon="30.0394060">
<ele>210.708237</ele>
<time>2026-04-25T05:09:07.998Z</time>
</trkpt>
<trkpt lat="59.0961290" lon="30.0393140">
<ele>210.342468</ele>
<time>2026-04-25T05:09:36.000Z</time>
</trkpt>
<trkpt lat="59.0961960" lon="30.0392810">
<ele>210.708237</ele>
<time>2026-04-25T05:10:08.003Z</time>
</trkpt>
<trkpt lat="59.0961690" lon="30.0392930">
<ele>210.769196</ele>
<time>2026-04-25T05:10:39.996Z</time>
</trkpt>
<trkpt lat="59.0962210" lon="30.0392960">
<ele>210.769196</ele>
<time>2026-04-25T05:11:10.997Z</time>
</trkpt>
<trkpt lat="59.0962920" lon="30.0394120">
<ele>210.952072</ele>
<time>2026-04-25T05:11:38.999Z</time>
</trkpt>
<trkpt lat="59.0962730" lon="30.0392950">
<ele>210.403442</ele>
<time>2026-04-25T05:12:07.001Z</time>
</trkpt>
<trkpt lat="59.0965560" lon="30.0390680">
<ele>210.982559</ele>
<time>2026-04-25T05:13:16.000Z</time>
</trkpt>
<trkpt lat="59.0966290" lon="30.0391070">
<ele>210.281525</ele>
<time>2026-04-25T05:13:35.000Z</time>
</trkpt>
<trkpt lat="59.0967610" lon="30.0389930">
<ele>211.256866</ele>
<time>2026-04-25T05:14:03.002Z</time>
</trkpt>
<trkpt lat="59.0972370" lon="30.0387540">
<ele>211.317841</ele>
<time>2026-04-25T05:15:24.002Z</time>
</trkpt>
<trkpt lat="59.0973600" lon="30.0387330">
<ele>210.891129</ele>
<time>2026-04-25T05:15:43.001Z</time>
</trkpt>
<trkpt lat="59.0976450" lon="30.0385570">
<ele>210.159607</ele>
<time>2026-04-25T05:16:34.997Z</time>
</trkpt>
<trkpt lat="59.0978960" lon="30.0385100">
<ele>210.799667</ele>
<time>2026-04-25T05:17:09.997Z</time>
</trkpt>
<trkpt lat="59.0980200" lon="30.0383500">
<ele>210.281525</ele>
<time>2026-04-25T05:17:38.000Z</time>
</trkpt>
<trkpt lat="59.0981940" lon="30.0382870">
<ele>210.281525</ele>
<time>2026-04-25T05:18:10.002Z</time>
</trkpt>
<trkpt lat="59.0982940" lon="30.0381930">
<ele>210.403442</ele>
<time>2026-04-25T05:18:30.004Z</time>
</trkpt>
<trkpt lat="59.0985910" lon="30.0380990">
<ele>210.220566</ele>
<time>2026-04-25T05:19:12.003Z</time>
</trkpt>
<trkpt lat="59.0989660" lon="30.0378640">
<ele>210.494873</ele>
<time>2026-04-25T05:19:58.996Z</time>
</trkpt>
<trkpt lat="59.0990050" lon="30.0379080">
<ele>210.159607</ele>
<time>2026-04-25T05:20:07.999Z</time>
</trkpt>
<trkpt lat="59.0992490" lon="30.0377430">
<ele>210.190079</ele>
<time>2026-04-25T05:20:52.996Z</time>
</trkpt>
<trkpt lat="59.0994250" lon="30.0376980">
<ele>209.885269</ele>
<time>2026-04-25T05:21:16.998Z</time>
</trkpt>
<trkpt lat="59.0995520" lon="30.0377690">
<ele>210.159607</ele>
<time>2026-04-25T05:21:38.002Z</time>
</trkpt>
<trkpt lat="59.1001090" lon="30.0373510">
<ele>210.616806</ele>
<time>2026-04-25T05:23:08.998Z</time>
</trkpt>
<trkpt lat="59.1002010" lon="30.0373630">
<ele>210.525360</ele>
<time>2026-04-25T05:23:31.998Z</time>
</trkpt>
<trkpt lat="59.1007680" lon="30.0370260">
<ele>210.586334</ele>
<time>2026-04-25T05:24:51.002Z</time>
</trkpt>
<trkpt lat="59.1008120" lon="30.0370270">
<ele>210.952072</ele>
<time>2026-04-25T05:25:12.999Z</time>
</trkpt>
<trkpt lat="59.1007510" lon="30.0370540">
<ele>210.799667</ele>
<time>2026-04-25T05:25:33.001Z</time>
</trkpt>
<trkpt lat="59.1007520" lon="30.0371830">
<ele>210.281525</ele>
<time>2026-04-25T05:25:53.996Z</time>
</trkpt>
<trkpt lat="59.1007420" lon="30.0370390">
<ele>210.494873</ele>
<time>2026-04-25T05:26:48.998Z</time>
</trkpt>
<trkpt lat="59.1009150" lon="30.0370420">
<ele>210.891129</ele>
<time>2026-04-25T05:27:10.002Z</time>
</trkpt>
<trkpt lat="59.1010860" lon="30.0369380">
<ele>210.281525</ele>
<time>2026-04-25T05:27:37.002Z</time>
</trkpt>
<trkpt lat="59.1010970" lon="30.0370350">
<ele>210.677765</ele>
<time>2026-04-25T05:28:01.004Z</time>
</trkpt>
<trkpt lat="59.1010930" lon="30.0369840">
<ele>210.494873</ele>
<time>2026-04-25T05:28:26.000Z</time>
</trkpt>
<trkpt lat="59.1011540" lon="30.0369440">
<ele>210.921600</ele>
<time>2026-04-25T05:28:54.002Z</time>
</trkpt>
<trkpt lat="59.1011960" lon="30.0370950">
<ele>210.769196</ele>
<time>2026-04-25T05:29:25.002Z</time>
</trkpt>
<trkpt lat="59.1011420" lon="30.0369260">
<ele>211.013031</ele>
<time>2026-04-25T05:30:00.003Z</time>
</trkpt>
<trkpt lat="59.1010610" lon="30.0368900">
<ele>210.616806</ele>
<time>2026-04-25T05:30:58.997Z</time>
</trkpt>
<trkpt lat="59.1010830" lon="30.0370070">
<ele>211.439758</ele>
<time>2026-04-25T05:31:26.999Z</time>
</trkpt>
<trkpt lat="59.1011590" lon="30.0370150">
<ele>210.982559</ele>
<time>2026-04-25T05:32:38.996Z</time>
</trkpt>
<trkpt lat="59.1011440" lon="30.0369740">
<ele>210.982559</ele>
<time>2026-04-25T05:33:14.999Z</time>
</trkpt>
</trkseg>
<trkseg>
<trkpt lat="59.1011500" lon="30.0369040">
<ele>210.982559</ele>
<time>2026-04-25T05:33:44.997Z</time>
</trkpt>
<trkpt lat="59.1011540" lon="30.0369700">
<ele>211.165436</ele>
<time>2026-04-25T05:34:49.996Z</time>
</trkpt>
</trkseg>
</trk>
<trk>
 <name>20260425_Lisa80</name>
 <desc>20260425_Lisa80</desc>
<trkseg>
<trkpt lat="59.0962820" lon="30.0101040">
<ele>70.317360</ele>
<time>2026-04-24T21:37:06.001Z</time>
</trkpt>
<trkpt lat="59.0961590" lon="30.0102080">
<ele>74.645515</ele>
<time>2026-04-24T21:37:22.996Z</time>
</trkpt>
<trkpt lat="59.0958640" lon="30.0102500">
<ele>74.279762</ele>
<time>2026-04-24T21:37:54.998Z</time>
</trkpt>
<trkpt lat="59.0957750" lon="30.0105630">
<ele>74.005440</ele>
<time>2026-04-24T21:38:13.004Z</time>
</trkpt>
<trkpt lat="59.0957070" lon="30.0101600">
<ele>73.304398</ele>
<time>2026-04-24T21:39:03.004Z</time>
</trkpt>
<trkpt lat="59.0955640" lon="30.0100330">
<ele>73.152000</ele>
<time>2026-04-24T21:39:18.003Z</time>
</trkpt>
<trkpt lat="59.0950350" lon="30.0105230">
<ele>77.876404</ele>
<time>2026-04-24T21:40:28.004Z</time>
</trkpt>
<trkpt lat="59.0950590" lon="30.0104850">
<ele>79.949036</ele>
<time>2026-04-24T21:42:00.996Z</time>
</trkpt>
<trkpt lat="59.0950810" lon="30.0105020">
<ele>79.827118</ele>
<time>2026-04-24T21:42:30.001Z</time>
</trkpt>
<trkpt lat="59.0950720" lon="30.0104650">
<ele>77.327759</ele>
<time>2026-04-24T21:44:12.998Z</time>
</trkpt>
<trkpt lat="59.0950780" lon="30.0105020">
<ele>79.949036</ele>
<time>2026-04-24T21:46:10.001Z</time>
</trkpt>
<trkpt lat="59.0949900" lon="30.0106030">
<ele>80.954880</ele>
<time>2026-04-24T21:47:24.003Z</time>
</trkpt>
<trkpt lat="59.0949130" lon="30.0107900">
<ele>76.992485</ele>
<time>2026-04-24T21:48:14.003Z</time>
</trkpt>
<trkpt lat="59.0948710" lon="30.0107760">
<ele>76.565758</ele>
<time>2026-04-24T21:48:32.000Z</time>
</trkpt>
<trkpt lat="59.0947150" lon="30.0108950">
<ele>75.712318</ele>
<time>2026-04-24T21:49:04.996Z</time>
</trkpt>
<trkpt lat="59.0946440" lon="30.0108880">
<ele>76.230484</ele>
<time>2026-04-24T21:49:28.998Z</time>
</trkpt>
<trkpt lat="59.0945640" lon="30.0110900">
<ele>74.676003</ele>
<time>2026-04-24T21:50:10.003Z</time>
</trkpt>
<trkpt lat="59.0945000" lon="30.0109990">
<ele>76.870560</ele>
<time>2026-04-24T21:51:23.003Z</time>
</trkpt>
<trkpt lat="59.0942950" lon="30.0110570">
<ele>77.693520</ele>
<time>2026-04-24T21:55:06.001Z</time>
</trkpt>
<trkpt lat="59.0942480" lon="30.0109910">
<ele>76.748642</ele>
<time>2026-04-24T21:55:19.004Z</time>
</trkpt>
<trkpt lat="59.0941590" lon="30.0109990">
<ele>73.822556</ele>
<time>2026-04-24T21:55:46.004Z</time>
</trkpt>
<trkpt lat="59.0940450" lon="30.0110730">
<ele>76.718163</ele>
<time>2026-04-24T21:57:00.999Z</time>
</trkpt>
<trkpt lat="59.0939990" lon="30.0109470">
<ele>77.419197</ele>
<time>2026-04-24T21:57:41.003Z</time>
</trkpt>
<trkpt lat="59.0938420" lon="30.0107520">
<ele>77.571602</ele>
<time>2026-04-24T21:58:31.002Z</time>
</trkpt>
<trkpt lat="59.0936890" lon="30.0106930">
<ele>77.571602</ele>
<time>2026-04-24T21:59:15.999Z</time>
</trkpt>
<trkpt lat="59.0936520" lon="30.0105410">
<ele>76.504799</ele>
<time>2026-04-24T21:59:40.001Z</time>
</trkpt>
<trkpt lat="59.0935990" lon="30.0104860">
<ele>75.986641</ele>
<time>2026-04-24T21:59:52.002Z</time>
</trkpt>
<trkpt lat="59.0935690" lon="30.0102200">
<ele>74.584557</ele>
<time>2026-04-24T22:00:18.000Z</time>
</trkpt>
<trkpt lat="59.0935140" lon="30.0100260">
<ele>75.407516</ele>
<time>2026-04-24T22:01:20.001Z</time>
</trkpt>
<trkpt lat="59.0935360" lon="30.0100340">
<ele>74.554085</ele>
<time>2026-04-24T22:01:53.999Z</time>
</trkpt>
<trkpt lat="59.0934560" lon="30.0100160">
<ele>80.406235</ele>
<time>2026-04-24T22:04:33.001Z</time>
</trkpt>
<trkpt lat="59.0933840" lon="30.0098770">
<ele>80.314796</ele>
<time>2026-04-24T22:04:46.998Z</time>
</trkpt>
<trkpt lat="59.0933210" lon="30.0095590">
<ele>80.253838</ele>
<time>2026-04-24T22:05:16.996Z</time>
</trkpt>
<trkpt lat="59.0932410" lon="30.0093910">
<ele>81.168236</ele>
<time>2026-04-24T22:06:03.004Z</time>
</trkpt>
<trkpt lat="59.0932140" lon="30.0092030">
<ele>81.869286</ele>
<time>2026-04-24T22:06:41.996Z</time>
</trkpt>
<trkpt lat="59.0931520" lon="30.0091250">
<ele>89.123520</ele>
<time>2026-04-24T22:08:07.999Z</time>
</trkpt>
<trkpt lat="59.0932140" lon="30.0091260">
<ele>90.098885</ele>
<time>2026-04-24T22:09:24.998Z</time>
</trkpt>
<trkpt lat="59.0931450" lon="30.0092200">
<ele>84.886803</ele>
<time>2026-04-24T22:10:25.003Z</time>
</trkpt>
<trkpt lat="59.0931300" lon="30.0091260">
<ele>83.332321</ele>
<time>2026-04-24T22:10:59.002Z</time>
</trkpt>
<trkpt lat="59.0930000" lon="30.0088890">
<ele>83.637115</ele>
<time>2026-04-24T22:11:39.998Z</time>
</trkpt>
<trkpt lat="59.0927990" lon="30.0086300">
<ele>81.076797</ele>
<time>2026-04-24T22:12:35.001Z</time>
</trkpt>
<trkpt lat="59.0927580" lon="30.0084790">
<ele>80.772003</ele>
<time>2026-04-24T22:12:59.996Z</time>
</trkpt>
<trkpt lat="59.0927710" lon="30.0081810">
<ele>80.680565</ele>
<time>2026-04-24T22:13:23.998Z</time>
</trkpt>
<trkpt lat="59.0927210" lon="30.0080990">
<ele>81.716881</ele>
<time>2026-04-24T22:13:46.998Z</time>
</trkpt>
<trkpt lat="59.0926930" lon="30.0077290">
<ele>82.204567</ele>
<time>2026-04-24T22:14:25.999Z</time>
</trkpt>
<trkpt lat="59.0926930" lon="30.0076800">
<ele>85.435440</ele>
<time>2026-04-24T22:14:55.997Z</time>
</trkpt>
<trkpt lat="59.0927930" lon="30.0076730">
<ele>90.586563</ele>
<time>2026-04-24T22:15:48.001Z</time>
</trkpt>
<trkpt lat="59.0927710" lon="30.0076140">
<ele>93.695518</ele>
<time>2026-04-24T22:16:20.004Z</time>
</trkpt>
<trkpt lat="59.0927030" lon="30.0075890">
<ele>96.377762</ele>
<time>2026-04-24T22:16:51.004Z</time>
</trkpt>
<trkpt lat="59.0927520" lon="30.0076540">
<ele>94.305115</ele>
<time>2026-04-24T22:17:40.001Z</time>
</trkpt>
<trkpt lat="59.0926540" lon="30.0076940">
<ele>92.323921</ele>
<time>2026-04-24T22:18:39.004Z</time>
</trkpt>
<trkpt lat="59.0926530" lon="30.0075930">
<ele>90.982803</ele>
<time>2026-04-24T22:19:39.000Z</time>
</trkpt>
<trkpt lat="59.0926960" lon="30.0076330">
<ele>88.452965</ele>
<time>2026-04-24T22:21:37.999Z</time>
</trkpt>
<trkpt lat="59.0926940" lon="30.0077860">
<ele>87.111839</ele>
<time>2026-04-24T22:22:08.999Z</time>
</trkpt>
<trkpt lat="59.0925620" lon="30.0078460">
<ele>86.898483</ele>
<time>2026-04-24T22:22:38.004Z</time>
</trkpt>
<trkpt lat="59.0925060" lon="30.0079650">
<ele>86.746078</ele>
<time>2026-04-24T22:22:57.003Z</time>
</trkpt>
<trkpt lat="59.0922650" lon="30.0079290">
<ele>84.521034</ele>
<time>2026-04-24T22:24:14.003Z</time>
</trkpt>
<trkpt lat="59.0922990" lon="30.0079870">
<ele>86.624161</ele>
<time>2026-04-24T22:25:16.997Z</time>
</trkpt>
<trkpt lat="59.0923690" lon="30.0079580">
<ele>87.203285</ele>
<time>2026-04-24T22:25:48.999Z</time>
</trkpt>
<trkpt lat="59.0921970" lon="30.0081220">
<ele>88.605362</ele>
<time>2026-04-24T22:29:42.996Z</time>
</trkpt>
<trkpt lat="59.0922690" lon="30.0081920">
<ele>86.197433</ele>
<time>2026-04-24T22:31:23.998Z</time>
</trkpt>
<trkpt lat="59.0922370" lon="30.0080780">
<ele>86.106003</ele>
<time>2026-04-24T22:31:56.001Z</time>
</trkpt>
<trkpt lat="59.0922410" lon="30.0079690">
<ele>83.576164</ele>
<time>2026-04-24T22:32:31.001Z</time>
</trkpt>
<trkpt lat="59.0923400" lon="30.0080260">
<ele>83.484718</ele>
<time>2026-04-24T22:32:56.999Z</time>
</trkpt>
<trkpt lat="59.0923690" lon="30.0087240">
<ele>83.606636</ele>
<time>2026-04-24T22:34:15.001Z</time>
</trkpt>
<trkpt lat="59.0924070" lon="30.0088390">
<ele>85.313515</ele>
<time>2026-04-24T22:35:05.001Z</time>
</trkpt>
<trkpt lat="59.0924610" lon="30.0088260">
<ele>84.429604</ele>
<time>2026-04-24T22:36:14.000Z</time>
</trkpt>
<trkpt lat="59.0923560" lon="30.0088920">
<ele>87.904320</ele>
<time>2026-04-24T22:37:57.999Z</time>
</trkpt>
<trkpt lat="59.0923820" lon="30.0088580">
<ele>88.757767</ele>
<time>2026-04-24T22:38:27.997Z</time>
</trkpt>
<trkpt lat="59.0923660" lon="30.0094640">
<ele>85.404961</ele>
<time>2026-04-24T22:39:51.002Z</time>
</trkpt>
<trkpt lat="59.0924920" lon="30.0098050">
<ele>85.161118</ele>
<time>2026-04-24T22:42:27.999Z</time>
</trkpt>
<trkpt lat="59.0924240" lon="30.0098030">
<ele>83.088478</ele>
<time>2026-04-24T22:43:58.996Z</time>
</trkpt>
<trkpt lat="59.0924360" lon="30.0098610">
<ele>82.722717</ele>
<time>2026-04-24T22:45:04.997Z</time>
</trkpt>
<trkpt lat="59.0925710" lon="30.0102180">
<ele>79.400398</ele>
<time>2026-04-24T22:45:58.997Z</time>
</trkpt>
<trkpt lat="59.0926380" lon="30.0102850">
<ele>79.217522</ele>
<time>2026-04-24T22:46:12.000Z</time>
</trkpt>
<trkpt lat="59.0926270" lon="30.0105590">
<ele>78.699364</ele>
<time>2026-04-24T22:46:40.996Z</time>
</trkpt>
<trkpt lat="59.0925970" lon="30.0106460">
<ele>78.760315</ele>
<time>2026-04-24T22:47:16.999Z</time>
</trkpt>
<trkpt lat="59.0926120" lon="30.0105860">
<ele>77.571602</ele>
<time>2026-04-24T22:48:44.004Z</time>
</trkpt>
<trkpt lat="59.0926500" lon="30.0106480">
<ele>79.735680</ele>
<time>2026-04-24T22:50:05.997Z</time>
</trkpt>
<trkpt lat="59.0926180" lon="30.0106810">
<ele>79.857597</ele>
<time>2026-04-24T22:50:39.002Z</time>
</trkpt>
<trkpt lat="59.0926130" lon="30.0106110">
<ele>79.004166</ele>
<time>2026-04-24T22:51:22.003Z</time>
</trkpt>
<trkpt lat="59.0926570" lon="30.0109790">
<ele>79.278481</ele>
<time>2026-04-24T22:52:07.000Z</time>
</trkpt>
<trkpt lat="59.0925860" lon="30.0113940">
<ele>74.371201</ele>
<time>2026-04-24T22:52:47.004Z</time>
</trkpt>
<trkpt lat="59.0925880" lon="30.0115990">
<ele>73.243439</ele>
<time>2026-04-24T22:53:06.003Z</time>
</trkpt>
<trkpt lat="59.0926670" lon="30.0117960">
<ele>73.182480</ele>
<time>2026-04-24T22:53:42.999Z</time>
</trkpt>
<trkpt lat="59.0927030" lon="30.0117090">
<ele>73.334885</ele>
<time>2026-04-24T22:55:37.998Z</time>
</trkpt>
<trkpt lat="59.0927020" lon="30.0117660">
<ele>73.914001</ele>
<time>2026-04-24T22:56:11.003Z</time>
</trkpt>
<trkpt lat="59.0926760" lon="30.0118920">
<ele>74.767441</ele>
<time>2026-04-24T22:56:42.003Z</time>
</trkpt>
<trkpt lat="59.0926380" lon="30.0118560">
<ele>72.085197</ele>
<time>2026-04-24T22:57:16.001Z</time>
</trkpt>
<trkpt lat="59.0926100" lon="30.0119090">
<ele>70.347839</ele>
<time>2026-04-24T22:57:44.004Z</time>
</trkpt>
<trkpt lat="59.0926520" lon="30.0118160">
<ele>71.445122</ele>
<time>2026-04-24T22:58:17.000Z</time>
</trkpt>
<trkpt lat="59.0925690" lon="30.0117960">
<ele>74.340721</ele>
<time>2026-04-24T22:59:24.996Z</time>
</trkpt>
<trkpt lat="59.0924810" lon="30.0118460">
<ele>72.603355</ele>
<time>2026-04-24T22:59:51.996Z</time>
</trkpt>
<trkpt lat="59.0924420" lon="30.0119670">
<ele>71.749916</ele>
<time>2026-04-24T23:00:26.004Z</time>
</trkpt>
<trkpt lat="59.0924160" lon="30.0122170">
<ele>69.768715</ele>
<time>2026-04-24T23:01:01.004Z</time>
</trkpt>
<trkpt lat="59.0923620" lon="30.0122380">
<ele>70.530716</ele>
<time>2026-04-24T23:01:20.004Z</time>
</trkpt>
<trkpt lat="59.0923510" lon="30.0120750">
<ele>71.567039</ele>
<time>2026-04-24T23:01:32.998Z</time>
</trkpt>
<trkpt lat="59.0923010" lon="30.0120370">
<ele>71.780403</ele>
<time>2026-04-24T23:01:47.997Z</time>
</trkpt>
<trkpt lat="59.0922680" lon="30.0121480">
<ele>73.517761</ele>
<time>2026-04-24T23:01:59.998Z</time>
</trkpt>
<trkpt lat="59.0922870" lon="30.0122650">
<ele>72.207115</ele>
<time>2026-04-24T23:02:15.999Z</time>
</trkpt>
<trkpt lat="59.0921220" lon="30.0121000">
<ele>68.275200</ele>
<time>2026-04-24T23:03:16.998Z</time>
</trkpt>
<trkpt lat="59.0920350" lon="30.0121650">
<ele>70.164963</ele>
<time>2026-04-24T23:04:33.004Z</time>
</trkpt>
<trkpt lat="59.0920740" lon="30.0120730">
<ele>71.262238</ele>
<time>2026-04-24T23:05:10.000Z</time>
</trkpt>
<trkpt lat="59.0920220" lon="30.0121060">
<ele>71.780403</ele>
<time>2026-04-24T23:05:42.996Z</time>
</trkpt>
<trkpt lat="59.0920660" lon="30.0121260">
<ele>73.548241</ele>
<time>2026-04-24T23:06:16.001Z</time>
</trkpt>
<trkpt lat="59.0920210" lon="30.0118820">
<ele>76.718163</ele>
<time>2026-04-24T23:07:44.000Z</time>
</trkpt>
<trkpt lat="59.0920330" lon="30.0117630">
<ele>75.803757</ele>
<time>2026-04-24T23:07:58.999Z</time>
</trkpt>
<trkpt lat="59.0920600" lon="30.0117890">
<ele>73.212959</ele>
<time>2026-04-24T23:08:20.996Z</time>
</trkpt>
<trkpt lat="59.0920640" lon="30.0118410">
<ele>72.481438</ele>
<time>2026-04-24T23:08:48.998Z</time>
</trkpt>
<trkpt lat="59.0919520" lon="30.0116780">
<ele>70.073517</ele>
<time>2026-04-24T23:09:23.999Z</time>
</trkpt>
<trkpt lat="59.0919190" lon="30.0114730">
<ele>71.140320</ele>
<time>2026-04-24T23:09:48.001Z</time>
</trkpt>
<trkpt lat="59.0919310" lon="30.0112390">
<ele>69.281044</ele>
<time>2026-04-24T23:10:20.004Z</time>
</trkpt>
<trkpt lat="59.0918760" lon="30.0111220">
<ele>73.670158</ele>
<time>2026-04-24T23:13:20.001Z</time>
</trkpt>
<trkpt lat="59.0919190" lon="30.0111460">
<ele>74.157845</ele>
<time>2026-04-24T23:13:59.002Z</time>
</trkpt>
<trkpt lat="59.0918880" lon="30.0110670">
<ele>69.494400</ele>
<time>2026-04-24T23:14:34.996Z</time>
</trkpt>
<trkpt lat="59.0918860" lon="30.0108640">
<ele>70.195442</ele>
<time>2026-04-24T23:15:02.998Z</time>
</trkpt>
<trkpt lat="59.0919170" lon="30.0106540">
<ele>70.164963</ele>
<time>2026-04-24T23:15:31.000Z</time>
</trkpt>
<trkpt lat="59.0918430" lon="30.0105590">
<ele>70.408798</ele>
<time>2026-04-24T23:15:56.998Z</time>
</trkpt>
<trkpt lat="59.0918310" lon="30.0103910">
<ele>69.006721</ele>
<time>2026-04-24T23:16:25.000Z</time>
</trkpt>
<trkpt lat="59.0918520" lon="30.0103890">
<ele>70.469757</ele>
<time>2026-04-24T23:17:19.000Z</time>
</trkpt>
<trkpt lat="59.0918170" lon="30.0103830">
<ele>74.340721</ele>
<time>2026-04-24T23:19:26.000Z</time>
</trkpt>
<trkpt lat="59.0918260" lon="30.0104430">
<ele>73.304398</ele>
<time>2026-04-24T23:20:10.003Z</time>
</trkpt>
<trkpt lat="59.0918070" lon="30.0101460">
<ele>68.732399</ele>
<time>2026-04-24T23:21:08.004Z</time>
</trkpt>
<trkpt lat="59.0916870" lon="30.0097620">
<ele>66.568321</ele>
<time>2026-04-24T23:21:49.000Z</time>
</trkpt>
<trkpt lat="59.0917360" lon="30.0094710">
<ele>67.299843</ele>
<time>2026-04-24T23:22:28.001Z</time>
</trkpt>
<trkpt lat="59.0916510" lon="30.0094350">
<ele>75.773285</ele>
<time>2026-04-24T23:24:17.004Z</time>
</trkpt>
<trkpt lat="59.0916880" lon="30.0093880">
<ele>75.803757</ele>
<time>2026-04-24T23:24:48.997Z</time>
</trkpt>
<trkpt lat="59.0917340" lon="30.0094350">
<ele>76.169518</ele>
<time>2026-04-24T23:25:57.003Z</time>
</trkpt>
<trkpt lat="59.0917470" lon="30.0094880">
<ele>76.260956</ele>
<time>2026-04-24T23:28:28.004Z</time>
</trkpt>
<trkpt lat="59.0916990" lon="30.0094940">
<ele>74.676003</ele>
<time>2026-04-24T23:28:59.998Z</time>
</trkpt>
<trkpt lat="59.0916290" lon="30.0093740">
<ele>74.523598</ele>
<time>2026-04-24T23:29:33.003Z</time>
</trkpt>
<trkpt lat="59.0913570" lon="30.0093290">
<ele>63.764160</ele>
<time>2026-04-24T23:30:20.998Z</time>
</trkpt>
<trkpt lat="59.0913380" lon="30.0092160">
<ele>63.642242</ele>
<time>2026-04-24T23:30:35.997Z</time>
</trkpt>
<trkpt lat="59.0912040" lon="30.0093360">
<ele>64.373756</ele>
<time>2026-04-24T23:31:06.997Z</time>
</trkpt>
<trkpt lat="59.0910050" lon="30.0090090">
<ele>67.086479</ele>
<time>2026-04-24T23:32:07.996Z</time>
</trkpt>
<trkpt lat="59.0910230" lon="30.0088780">
<ele>71.719444</ele>
<time>2026-04-24T23:32:58.004Z</time>
</trkpt>
<trkpt lat="59.0909990" lon="30.0090850">
<ele>72.298561</ele>
<time>2026-04-24T23:34:15.997Z</time>
</trkpt>
<trkpt lat="59.0909930" lon="30.0088700">
<ele>78.333603</ele>
<time>2026-04-24T23:36:19.999Z</time>
</trkpt>
<trkpt lat="59.0909750" lon="30.0093760">
<ele>75.498962</ele>
<time>2026-04-24T23:38:10.997Z</time>
</trkpt>
<trkpt lat="59.0910920" lon="30.0097550">
<ele>75.224640</ele>
<time>2026-04-24T23:39:09.999Z</time>
</trkpt>
<trkpt lat="59.0910510" lon="30.0098900">
<ele>74.889359</ele>
<time>2026-04-24T23:39:47.998Z</time>
</trkpt>
<trkpt lat="59.0910850" lon="30.0098570">
<ele>79.979515</ele>
<time>2026-04-24T23:40:43.000Z</time>
</trkpt>
<trkpt lat="59.0910560" lon="30.0098520">
<ele>80.893921</ele>
<time>2026-04-24T23:41:14.001Z</time>
</trkpt>
<trkpt lat="59.0910620" lon="30.0100430">
<ele>80.863434</ele>
<time>2026-04-24T23:41:42.996Z</time>
</trkpt>
<trkpt lat="59.0911230" lon="30.0100600">
<ele>81.655922</ele>
<time>2026-04-24T23:42:08.001Z</time>
</trkpt>
<trkpt lat="59.0911300" lon="30.0104230">
<ele>77.815437</ele>
<time>2026-04-24T23:43:02.001Z</time>
</trkpt>
<trkpt lat="59.0912260" lon="30.0107630">
<ele>75.834244</ele>
<time>2026-04-24T23:44:17.998Z</time>
</trkpt>
<trkpt lat="59.0911890" lon="30.0108750">
<ele>75.681839</ele>
<time>2026-04-24T23:45:19.999Z</time>
</trkpt>
<trkpt lat="59.0912240" lon="30.0109030">
<ele>75.102715</ele>
<time>2026-04-24T23:45:53.004Z</time>
</trkpt>
<trkpt lat="59.0912510" lon="30.0107420">
<ele>77.266800</ele>
<time>2026-04-24T23:46:50.002Z</time>
</trkpt>
<trkpt lat="59.0912030" lon="30.0108030">
<ele>78.516479</ele>
<time>2026-04-24T23:47:49.998Z</time>
</trkpt>
<trkpt lat="59.0911570" lon="30.0113760">
<ele>72.633842</ele>
<time>2026-04-24T23:48:47.998Z</time>
</trkpt>
<trkpt lat="59.0911580" lon="30.0114850">
<ele>71.902321</ele>
<time>2026-04-24T23:48:59.999Z</time>
</trkpt>
<trkpt lat="59.0911930" lon="30.0115650">
<ele>71.323196</ele>
<time>2026-04-24T23:49:13.002Z</time>
</trkpt>
<trkpt lat="59.0911700" lon="30.0119840">
<ele>71.323196</ele>
<time>2026-04-24T23:50:07.996Z</time>
</trkpt>
<trkpt lat="59.0912710" lon="30.0118920">
<ele>73.212959</ele>
<time>2026-04-24T23:50:39.998Z</time>
</trkpt>
<trkpt lat="59.0912320" lon="30.0117620">
<ele>73.792084</ele>
<time>2026-04-24T23:50:53.002Z</time>
</trkpt>
<trkpt lat="59.0912820" lon="30.0117920">
<ele>77.205841</ele>
<time>2026-04-24T23:52:23.998Z</time>
</trkpt>
<trkpt lat="59.0912560" lon="30.0117980">
<ele>78.150719</ele>
<time>2026-04-24T23:52:57.003Z</time>
</trkpt>
<trkpt lat="59.0912800" lon="30.0118160">
<ele>79.369919</ele>
<time>2026-04-24T23:53:28.003Z</time>
</trkpt>
<trkpt lat="59.0912750" lon="30.0121340">
<ele>77.419197</ele>
<time>2026-04-24T23:54:19.999Z</time>
</trkpt>
<trkpt lat="59.0913670" lon="30.0122460">
<ele>76.321915</ele>
<time>2026-04-24T23:54:48.001Z</time>
</trkpt>
<trkpt lat="59.0913570" lon="30.0125680">
<ele>74.554085</ele>
<time>2026-04-24T23:55:20.004Z</time>
</trkpt>
<trkpt lat="59.0913770" lon="30.0126860">
<ele>74.676003</ele>
<time>2026-04-24T23:55:35.003Z</time>
</trkpt>
<trkpt lat="59.0914390" lon="30.0127340">
<ele>75.072243</ele>
<time>2026-04-24T23:55:51.997Z</time>
</trkpt>
<trkpt lat="59.0914300" lon="30.0128280">
<ele>77.480156</ele>
<time>2026-04-24T23:57:35.997Z</time>
</trkpt>
<trkpt lat="59.0913860" lon="30.0126140">
<ele>75.651360</ele>
<time>2026-04-24T23:59:16.999Z</time>
</trkpt>
<trkpt lat="59.0914230" lon="30.0125850">
<ele>75.498962</ele>
<time>2026-04-24T23:59:51.999Z</time>
</trkpt>
<trkpt lat="59.0913350" lon="30.0127770">
<ele>74.828400</ele>
<time>2026-04-25T00:02:09.004Z</time>
</trkpt>
<trkpt lat="59.0912860" lon="30.0127200">
<ele>75.529442</ele>
<time>2026-04-25T00:02:47.996Z</time>
</trkpt>
<trkpt lat="59.0914230" lon="30.0126460">
<ele>75.895203</ele>
<time>2026-04-25T00:04:26.000Z</time>
</trkpt>
<trkpt lat="59.0914130" lon="30.0127300">
<ele>76.139038</ele>
<time>2026-04-25T00:05:59.001Z</time>
</trkpt>
<trkpt lat="59.0914050" lon="30.0126640">
<ele>75.559921</ele>
<time>2026-04-25T00:06:27.003Z</time>
</trkpt>
<trkpt lat="59.0914490" lon="30.0127220">
<ele>75.133202</ele>
<time>2026-04-25T00:06:53.001Z</time>
</trkpt>
<trkpt lat="59.0913740" lon="30.0127410">
<ele>76.901039</ele>
<time>2026-04-25T00:07:17.996Z</time>
</trkpt>
<trkpt lat="59.0911380" lon="30.0125760">
<ele>78.973679</ele>
<time>2026-04-25T00:08:26.002Z</time>
</trkpt>
<trkpt lat="59.0909100" lon="30.0127790">
<ele>79.461365</ele>
<time>2026-04-25T00:10:29.001Z</time>
</trkpt>
<trkpt lat="59.0909790" lon="30.0122040">
<ele>82.356964</ele>
<time>2026-04-25T00:12:37.996Z</time>
</trkpt>
<trkpt lat="59.0909130" lon="30.0121220">
<ele>80.893921</ele>
<time>2026-04-25T00:13:05.998Z</time>
</trkpt>
<trkpt lat="59.0909200" lon="30.0120200">
<ele>80.192879</ele>
<time>2026-04-25T00:13:19.001Z</time>
</trkpt>
<trkpt lat="59.0908170" lon="30.0119060">
<ele>78.211685</ele>
<time>2026-04-25T00:13:51.004Z</time>
</trkpt>
<trkpt lat="59.0907970" lon="30.0117960">
<ele>79.491837</ele>
<time>2026-04-25T00:15:12.004Z</time>
</trkpt>
<trkpt lat="59.0907440" lon="30.0118040">
<ele>80.741516</ele>
<time>2026-04-25T00:15:43.998Z</time>
</trkpt>
<trkpt lat="59.0908080" lon="30.0117570">
<ele>81.533997</ele>
<time>2026-04-25T00:16:10.998Z</time>
</trkpt>
<trkpt lat="59.0908090" lon="30.0116370">
<ele>80.863434</ele>
<time>2026-04-25T00:16:22.999Z</time>
</trkpt>
<trkpt lat="59.0906790" lon="30.0113000">
<ele>80.436722</ele>
<time>2026-04-25T00:17:18.001Z</time>
</trkpt>
<trkpt lat="59.0906530" lon="30.0110260">
<ele>79.705200</ele>
<time>2026-04-25T00:17:54.004Z</time>
</trkpt>
<trkpt lat="59.0907000" lon="30.0109630">
<ele>79.187035</ele>
<time>2026-04-25T00:18:09.996Z</time>
</trkpt>
<trkpt lat="59.0907170" lon="30.0108300">
<ele>79.430885</ele>
<time>2026-04-25T00:18:44.997Z</time>
</trkpt>
<trkpt lat="59.0907550" lon="30.0108580">
<ele>85.740234</ele>
<time>2026-04-25T00:20:48.998Z</time>
</trkpt>
<trkpt lat="59.0906830" lon="30.0108000">
<ele>84.947762</ele>
<time>2026-04-25T00:21:49.003Z</time>
</trkpt>
<trkpt lat="59.0906890" lon="30.0105710">
<ele>80.436722</ele>
<time>2026-04-25T00:22:23.002Z</time>
</trkpt>
<trkpt lat="59.0906520" lon="30.0103800">
<ele>79.278481</ele>
<time>2026-04-25T00:22:50.002Z</time>
</trkpt>
<trkpt lat="59.0906110" lon="30.0102410">
<ele>79.949036</ele>
<time>2026-04-25T00:23:06.996Z</time>
</trkpt>
<trkpt lat="59.0904960" lon="30.0100660">
<ele>79.400398</ele>
<time>2026-04-25T00:23:40.001Z</time>
</trkpt>
<trkpt lat="59.0904700" lon="30.0098760">
<ele>77.998322</ele>
<time>2026-04-25T00:24:00.996Z</time>
</trkpt>
<trkpt lat="59.0904990" lon="30.0096810">
<ele>77.937363</ele>
<time>2026-04-25T00:24:43.998Z</time>
</trkpt>
<trkpt lat="59.0904470" lon="30.0095480">
<ele>78.089767</ele>
<time>2026-04-25T00:25:26.999Z</time>
</trkpt>
<trkpt lat="59.0905170" lon="30.0096090">
<ele>80.345284</ele>
<time>2026-04-25T00:26:27.004Z</time>
</trkpt>
<trkpt lat="59.0904720" lon="30.0096570">
<ele>80.284317</ele>
<time>2026-04-25T00:26:57.002Z</time>
</trkpt>
<trkpt lat="59.0905330" lon="30.0094520">
<ele>80.924400</ele>
<time>2026-04-25T00:27:36.003Z</time>
</trkpt>
<trkpt lat="59.0904160" lon="30.0090550">
<ele>79.613762</ele>
<time>2026-04-25T00:28:26.996Z</time>
</trkpt>
<trkpt lat="59.0904660" lon="30.0089860">
<ele>80.284317</ele>
<time>2026-04-25T00:28:48.000Z</time>
</trkpt>
<trkpt lat="59.0903780" lon="30.0091340">
<ele>81.442566</ele>
<time>2026-04-25T00:30:23.999Z</time>
</trkpt>
<trkpt lat="59.0902270" lon="30.0090970">
<ele>78.760315</ele>
<time>2026-04-25T00:31:47.997Z</time>
</trkpt>
<trkpt lat="59.0901370" lon="30.0091660">
<ele>79.308960</ele>
<time>2026-04-25T00:32:20.000Z</time>
</trkpt>
<trkpt lat="59.0900790" lon="30.0090840">
<ele>79.400398</ele>
<time>2026-04-25T00:32:55.000Z</time>
</trkpt>
<trkpt lat="59.0899240" lon="30.0091640">
<ele>76.657204</ele>
<time>2026-04-25T00:33:32.999Z</time>
</trkpt>
<trkpt lat="59.0898610" lon="30.0093050">
<ele>76.657204</ele>
<time>2026-04-25T00:33:53.001Z</time>
</trkpt>
<trkpt lat="59.0897770" lon="30.0093400">
<ele>81.046318</ele>
<time>2026-04-25T00:34:47.001Z</time>
</trkpt>
<trkpt lat="59.0899860" lon="30.0095800">
<ele>82.174080</ele>
<time>2026-04-25T00:36:29.998Z</time>
</trkpt>
<trkpt lat="59.0900270" lon="30.0097220">
<ele>81.473038</ele>
<time>2026-04-25T00:36:44.997Z</time>
</trkpt>
<trkpt lat="59.0899610" lon="30.0101730">
<ele>74.096878</ele>
<time>2026-04-25T00:37:44.000Z</time>
</trkpt>
<trkpt lat="59.0899650" lon="30.0102410">
<ele>75.011284</ele>
<time>2026-04-25T00:38:06.999Z</time>
</trkpt>
<trkpt lat="59.0900340" lon="30.0103190">
<ele>73.334885</ele>
<time>2026-04-25T00:38:24.996Z</time>
</trkpt>
<trkpt lat="59.0900230" lon="30.0103970">
<ele>74.432159</ele>
<time>2026-04-25T00:39:45.996Z</time>
</trkpt>
<trkpt lat="59.0900700" lon="30.0103400">
<ele>75.407516</ele>
<time>2026-04-25T00:40:43.997Z</time>
</trkpt>
<trkpt lat="59.0900920" lon="30.0105450">
<ele>75.438004</ele>
<time>2026-04-25T00:41:01.000Z</time>
</trkpt>
<trkpt lat="59.0900700" lon="30.0108160">
<ele>71.140320</ele>
<time>2026-04-25T00:41:29.003Z</time>
</trkpt>
<trkpt lat="59.0901030" lon="30.0109410">
<ele>70.347839</ele>
<time>2026-04-25T00:41:56.996Z</time>
</trkpt>
<trkpt lat="59.0899840" lon="30.0110550">
<ele>75.346558</ele>
<time>2026-04-25T00:43:33.004Z</time>
</trkpt>
<trkpt lat="59.0901240" lon="30.0110800">
<ele>79.705200</ele>
<time>2026-04-25T00:45:04.000Z</time>
</trkpt>
<trkpt lat="59.0901500" lon="30.0112030">
<ele>76.961998</ele>
<time>2026-04-25T00:45:47.002Z</time>
</trkpt>
<trkpt lat="59.0901210" lon="30.0112310">
<ele>77.815437</ele>
<time>2026-04-25T00:46:58.999Z</time>
</trkpt>
<trkpt lat="59.0901580" lon="30.0112660">
<ele>76.565758</ele>
<time>2026-04-25T00:47:28.003Z</time>
</trkpt>
<trkpt lat="59.0901550" lon="30.0112120">
<ele>78.303116</ele>
<time>2026-04-25T00:47:55.003Z</time>
</trkpt>
<trkpt lat="59.0901430" lon="30.0115050">
<ele>75.255119</ele>
<time>2026-04-25T00:49:03.000Z</time>
</trkpt>
<trkpt lat="59.0902490" lon="30.0118060">
<ele>71.993759</ele>
<time>2026-04-25T00:49:44.999Z</time>
</trkpt>
<trkpt lat="59.0902130" lon="30.0120630">
<ele>71.414642</ele>
<time>2026-04-25T00:50:26.998Z</time>
</trkpt>
<trkpt lat="59.0902530" lon="30.0121560">
<ele>72.450958</ele>
<time>2026-04-25T00:50:55.000Z</time>
</trkpt>
<trkpt lat="59.0902980" lon="30.0121580">
<ele>73.091042</ele>
<time>2026-04-25T00:52:01.001Z</time>
</trkpt>
<trkpt lat="59.0902080" lon="30.0121360">
<ele>75.864716</ele>
<time>2026-04-25T00:53:30.002Z</time>
</trkpt>
<trkpt lat="59.0902610" lon="30.0122220">
<ele>75.773285</ele>
<time>2026-04-25T00:54:09.003Z</time>
</trkpt>
<trkpt lat="59.0902240" lon="30.0123130">
<ele>74.218803</ele>
<time>2026-04-25T00:54:24.002Z</time>
</trkpt>
<trkpt lat="59.0903200" lon="30.0126080">
<ele>74.828400</ele>
<time>2026-04-25T00:55:30.003Z</time>
</trkpt>
<trkpt lat="59.0903040" lon="30.0127440">
<ele>73.700638</ele>
<time>2026-04-25T00:55:46.998Z</time>
</trkpt>
<trkpt lat="59.0903480" lon="30.0130390">
<ele>75.224640</ele>
<time>2026-04-25T00:56:42.000Z</time>
</trkpt>
<trkpt lat="59.0903170" lon="30.0130680">
<ele>76.413361</ele>
<time>2026-04-25T00:57:30.004Z</time>
</trkpt>
<trkpt lat="59.0903620" lon="30.0131480">
<ele>75.438004</ele>
<time>2026-04-25T00:58:01.998Z</time>
</trkpt>
<trkpt lat="59.0903230" lon="30.0130330">
<ele>81.168236</ele>
<time>2026-04-25T00:59:14.997Z</time>
</trkpt>
<trkpt lat="59.0901970" lon="30.0131150">
<ele>82.235039</ele>
<time>2026-04-25T01:00:18.000Z</time>
</trkpt>
<trkpt lat="59.0898750" lon="30.0131480">
<ele>81.533997</ele>
<time>2026-04-25T01:01:52.003Z</time>
</trkpt>
<trkpt lat="59.0898320" lon="30.0132030">
<ele>81.808319</ele>
<time>2026-04-25T01:02:16.999Z</time>
</trkpt>
<trkpt lat="59.0897720" lon="30.0131130">
<ele>79.918564</ele>
<time>2026-04-25T01:03:41.999Z</time>
</trkpt>
<trkpt lat="59.0898010" lon="30.0130640">
<ele>80.131920</ele>
<time>2026-04-25T01:04:07.003Z</time>
</trkpt>
<trkpt lat="59.0897780" lon="30.0129970">
<ele>80.040482</ele>
<time>2026-04-25T01:04:34.003Z</time>
</trkpt>
<trkpt lat="59.0898090" lon="30.0127860">
<ele>81.716881</ele>
<time>2026-04-25T01:05:31.001Z</time>
</trkpt>
<trkpt lat="59.0897740" lon="30.0126410">
<ele>79.248001</ele>
<time>2026-04-25T01:06:06.002Z</time>
</trkpt>
<trkpt lat="59.0897080" lon="30.0126290">
<ele>79.065117</ele>
<time>2026-04-25T01:06:21.001Z</time>
</trkpt>
<trkpt lat="59.0897020" lon="30.0124610">
<ele>77.998322</ele>
<time>2026-04-25T01:06:45.003Z</time>
</trkpt>
<trkpt lat="59.0896160" lon="30.0122340">
<ele>79.308960</ele>
<time>2026-04-25T01:08:22.998Z</time>
</trkpt>
<trkpt lat="59.0896870" lon="30.0122480">
<ele>80.528160</ele>
<time>2026-04-25T01:10:21.003Z</time>
</trkpt>
<trkpt lat="59.0896470" lon="30.0121870">
<ele>81.473038</ele>
<time>2026-04-25T01:11:27.004Z</time>
</trkpt>
<trkpt lat="59.0896420" lon="30.0119700">
<ele>79.735680</ele>
<time>2026-04-25T01:12:32.003Z</time>
</trkpt>
<trkpt lat="59.0895410" lon="30.0115080">
<ele>79.613762</ele>
<time>2026-04-25T01:14:16.002Z</time>
</trkpt>
<trkpt lat="59.0894650" lon="30.0113710">
<ele>80.497681</ele>
<time>2026-04-25T01:15:00.999Z</time>
</trkpt>
<trkpt lat="59.0894870" lon="30.0114020">
<ele>77.815437</ele>
<time>2026-04-25T01:16:44.999Z</time>
</trkpt>
<trkpt lat="59.0894140" lon="30.0107880">
<ele>78.821281</ele>
<time>2026-04-25T01:18:46.002Z</time>
</trkpt>
<trkpt lat="59.0893320" lon="30.0105280">
<ele>79.126083</ele>
<time>2026-04-25T01:19:29.004Z</time>
</trkpt>
<trkpt lat="59.0893270" lon="30.0103350">
<ele>80.040482</ele>
<time>2026-04-25T01:20:41.001Z</time>
</trkpt>
<trkpt lat="59.0893060" lon="30.0103420">
<ele>80.497681</ele>
<time>2026-04-25T01:21:20.002Z</time>
</trkpt>
<trkpt lat="59.0892950" lon="30.0101940">
<ele>77.845917</ele>
<time>2026-04-25T01:22:19.998Z</time>
</trkpt>
<trkpt lat="59.0893640" lon="30.0102000">
<ele>79.339439</ele>
<time>2026-04-25T01:23:09.004Z</time>
</trkpt>
<trkpt lat="59.0893850" lon="30.0102560">
<ele>79.522316</ele>
<time>2026-04-25T01:24:07.004Z</time>
</trkpt>
<trkpt lat="59.0891910" lon="30.0099180">
<ele>78.546967</ele>
<time>2026-04-25T01:25:04.996Z</time>
</trkpt>
<trkpt lat="59.0892000" lon="30.0095860">
<ele>78.882233</ele>
<time>2026-04-25T01:25:59.998Z</time>
</trkpt>
<trkpt lat="59.0891430" lon="30.0095710">
<ele>80.070961</ele>
<time>2026-04-25T01:27:27.996Z</time>
</trkpt>
<trkpt lat="59.0891700" lon="30.0095090">
<ele>80.375763</ele>
<time>2026-04-25T01:27:50.003Z</time>
</trkpt>
<trkpt lat="59.0891680" lon="30.0095820">
<ele>81.838799</ele>
<time>2026-04-25T01:28:41.998Z</time>
</trkpt>
<trkpt lat="59.0892240" lon="30.0096710">
<ele>84.429604</ele>
<time>2026-04-25T01:29:58.004Z</time>
</trkpt>
<trkpt lat="59.0891580" lon="30.0096690">
<ele>84.917282</ele>
<time>2026-04-25T01:30:27.000Z</time>
</trkpt>
<trkpt lat="59.0890630" lon="30.0097370">
<ele>83.759033</ele>
<time>2026-04-25T01:30:41.999Z</time>
</trkpt>
<trkpt lat="59.0890030" lon="30.0099030">
<ele>82.692238</ele>
<time>2026-04-25T01:30:59.003Z</time>
</trkpt>
<trkpt lat="59.0886370" lon="30.0099410">
<ele>83.911438</ele>
<time>2026-04-25T01:32:09.997Z</time>
</trkpt>
<trkpt lat="59.0886780" lon="30.0100120">
<ele>83.393280</ele>
<time>2026-04-25T01:33:23.999Z</time>
</trkpt>
<trkpt lat="59.0886750" lon="30.0102060">
<ele>80.162399</ele>
<time>2026-04-25T01:34:09.998Z</time>
</trkpt>
<trkpt lat="59.0887770" lon="30.0103570">
<ele>80.010002</ele>
<time>2026-04-25T01:34:40.999Z</time>
</trkpt>
<trkpt lat="59.0888010" lon="30.0104850">
<ele>79.705200</ele>
<time>2026-04-25T01:34:55.998Z</time>
</trkpt>
<trkpt lat="59.0888040" lon="30.0106790">
<ele>79.583282</ele>
<time>2026-04-25T01:35:18.997Z</time>
</trkpt>
<trkpt lat="59.0888240" lon="30.0107420">
<ele>79.217522</ele>
<time>2026-04-25T01:35:32.001Z</time>
</trkpt>
<trkpt lat="59.0887980" lon="30.0109710">
<ele>77.906883</ele>
<time>2026-04-25T01:37:49.999Z</time>
</trkpt>
<trkpt lat="59.0889520" lon="30.0111450">
<ele>77.663040</ele>
<time>2026-04-25T01:38:41.001Z</time>
</trkpt>
<trkpt lat="59.0888720" lon="30.0113230">
<ele>79.065117</ele>
<time>2026-04-25T01:39:17.997Z</time>
</trkpt>
<trkpt lat="59.0889950" lon="30.0117600">
<ele>80.772003</ele>
<time>2026-04-25T01:41:36.997Z</time>
</trkpt>
<trkpt lat="59.0889740" lon="30.0117440">
<ele>78.943199</ele>
<time>2026-04-25T01:42:27.999Z</time>
</trkpt>
<trkpt lat="59.0890070" lon="30.0118970">
<ele>78.729836</ele>
<time>2026-04-25T01:43:35.996Z</time>
</trkpt>
<trkpt lat="59.0889390" lon="30.0121170">
<ele>78.790802</ele>
<time>2026-04-25T01:44:17.002Z</time>
</trkpt>
<trkpt lat="59.0889670" lon="30.0122710">
<ele>77.449684</ele>
<time>2026-04-25T01:44:41.004Z</time>
</trkpt>
<trkpt lat="59.0890610" lon="30.0122770">
<ele>75.956161</ele>
<time>2026-04-25T01:45:08.997Z</time>
</trkpt>
<trkpt lat="59.0890860" lon="30.0123320">
<ele>75.864716</ele>
<time>2026-04-25T01:45:22.000Z</time>
</trkpt>
<trkpt lat="59.0890110" lon="30.0124430">
<ele>77.327759</ele>
<time>2026-04-25T01:46:05.002Z</time>
</trkpt>
<trkpt lat="59.0889360" lon="30.0127430">
<ele>78.394562</ele>
<time>2026-04-25T01:47:02.000Z</time>
</trkpt>
<trkpt lat="59.0889830" lon="30.0128310">
<ele>77.297279</ele>
<time>2026-04-25T01:47:27.997Z</time>
</trkpt>
<trkpt lat="59.0890230" lon="30.0127700">
<ele>76.961998</ele>
<time>2026-04-25T01:47:50.004Z</time>
</trkpt>
<trkpt lat="59.0890460" lon="30.0128170">
<ele>77.022957</ele>
<time>2026-04-25T01:48:47.002Z</time>
</trkpt>
<trkpt lat="59.0891790" lon="30.0127850">
<ele>75.620880</ele>
<time>2026-04-25T01:49:53.996Z</time>
</trkpt>
<trkpt lat="59.0891590" lon="30.0127630">
<ele>74.493118</ele>
<time>2026-04-25T01:50:54.001Z</time>
</trkpt>
<trkpt lat="59.0892040" lon="30.0131290">
<ele>75.285599</ele>
<time>2026-04-25T01:52:01.004Z</time>
</trkpt>
<trkpt lat="59.0891850" lon="30.0132430">
<ele>75.163681</ele>
<time>2026-04-25T01:52:16.003Z</time>
</trkpt>
<trkpt lat="59.0892350" lon="30.0134510">
<ele>73.822556</ele>
<time>2026-04-25T01:53:14.004Z</time>
</trkpt>
<trkpt lat="59.0892120" lon="30.0134850">
<ele>73.426315</ele>
<time>2026-04-25T01:53:34.999Z</time>
</trkpt>
<trkpt lat="59.0892270" lon="30.0135200">
<ele>71.323196</ele>
<time>2026-04-25T01:54:12.004Z</time>
</trkpt>
<trkpt lat="59.0892130" lon="30.0134550">
<ele>73.700638</ele>
<time>2026-04-25T01:55:32.002Z</time>
</trkpt>
<trkpt lat="59.0892180" lon="30.0135380">
<ele>72.603355</ele>
<time>2026-04-25T01:56:46.997Z</time>
</trkpt>
<trkpt lat="59.0891070" lon="30.0134480">
<ele>75.407516</ele>
<time>2026-04-25T01:57:18.999Z</time>
</trkpt>
<trkpt lat="59.0890550" lon="30.0135430">
<ele>76.809601</ele>
<time>2026-04-25T01:58:18.002Z</time>
</trkpt>
<trkpt lat="59.0888980" lon="30.0135670">
<ele>78.150719</ele>
<time>2026-04-25T01:59:40.998Z</time>
</trkpt>
<trkpt lat="59.0887950" lon="30.0134990">
<ele>79.369919</ele>
<time>2026-04-25T02:00:11.998Z</time>
</trkpt>
<trkpt lat="59.0887610" lon="30.0136180">
<ele>81.290161</ele>
<time>2026-04-25T02:02:52.996Z</time>
</trkpt>
<trkpt lat="59.0886710" lon="30.0135700">
<ele>82.570320</ele>
<time>2026-04-25T02:04:17.003Z</time>
</trkpt>
<trkpt lat="59.0886760" lon="30.0137660">
<ele>79.400398</ele>
<time>2026-04-25T02:05:00.004Z</time>
</trkpt>
<trkpt lat="59.0885800" lon="30.0136910">
<ele>80.467201</ele>
<time>2026-04-25T02:05:45.001Z</time>
</trkpt>
<trkpt lat="59.0885740" lon="30.0138340">
<ele>79.430885</ele>
<time>2026-04-25T02:06:16.001Z</time>
</trkpt>
<trkpt lat="59.0885950" lon="30.0138320">
<ele>77.388718</ele>
<time>2026-04-25T02:06:39.001Z</time>
</trkpt>
<trkpt lat="59.0885410" lon="30.0136870">
<ele>75.864716</ele>
<time>2026-04-25T02:08:31.001Z</time>
</trkpt>
<trkpt lat="59.0885400" lon="30.0137350">
<ele>75.590401</ele>
<time>2026-04-25T02:09:11.998Z</time>
</trkpt>
<trkpt lat="59.0885330" lon="30.0136670">
<ele>75.925682</ele>
<time>2026-04-25T02:09:25.001Z</time>
</trkpt>
<trkpt lat="59.0885610" lon="30.0136180">
<ele>74.188316</ele>
<time>2026-04-25T02:09:45.996Z</time>
</trkpt>
<trkpt lat="59.0885110" lon="30.0134260">
<ele>72.694801</ele>
<time>2026-04-25T02:10:15.001Z</time>
</trkpt>
<trkpt lat="59.0884960" lon="30.0132070">
<ele>72.511917</ele>
<time>2026-04-25T02:10:51.004Z</time>
</trkpt>
<trkpt lat="59.0884670" lon="30.0131030">
<ele>72.816719</ele>
<time>2026-04-25T02:11:07.999Z</time>
</trkpt>
<trkpt lat="59.0883900" lon="30.0130030">
<ele>76.017120</ele>
<time>2026-04-25T02:12:27.996Z</time>
</trkpt>
<trkpt lat="59.0883510" lon="30.0127830">
<ele>77.876404</ele>
<time>2026-04-25T02:15:18.999Z</time>
</trkpt>
<trkpt lat="59.0883530" lon="30.0126990">
<ele>77.175362</ele>
<time>2026-04-25T02:15:35.001Z</time>
</trkpt>
<trkpt lat="59.0884130" lon="30.0125840">
<ele>76.321915</ele>
<time>2026-04-25T02:16:03.996Z</time>
</trkpt>
<trkpt lat="59.0883400" lon="30.0124110">
<ele>75.864716</ele>
<time>2026-04-25T02:16:42.004Z</time>
</trkpt>
<trkpt lat="59.0883170" lon="30.0120000">
<ele>73.914001</ele>
<time>2026-04-25T02:18:07.004Z</time>
</trkpt>
<trkpt lat="59.0883380" lon="30.0119710">
<ele>72.877686</ele>
<time>2026-04-25T02:18:27.999Z</time>
</trkpt>
<trkpt lat="59.0883080" lon="30.0117630">
<ele>74.584557</ele>
<time>2026-04-25T02:20:33.996Z</time>
</trkpt>
<trkpt lat="59.0883550" lon="30.0116310">
<ele>73.212959</ele>
<time>2026-04-25T02:20:49.004Z</time>
</trkpt>
<trkpt lat="59.0883340" lon="30.0115110">
<ele>72.694801</ele>
<time>2026-04-25T02:21:07.001Z</time>
</trkpt>
<trkpt lat="59.0883710" lon="30.0114500">
<ele>74.554085</ele>
<time>2026-04-25T02:22:09.002Z</time>
</trkpt>
<trkpt lat="59.0882290" lon="30.0113500">
<ele>75.681839</ele>
<time>2026-04-25T02:22:30.999Z</time>
</trkpt>
<trkpt lat="59.0882300" lon="30.0112080">
<ele>75.163681</ele>
<time>2026-04-25T02:22:43.000Z</time>
</trkpt>
<trkpt lat="59.0881340" lon="30.0110130">
<ele>78.546967</ele>
<time>2026-04-25T02:23:34.002Z</time>
</trkpt>
<trkpt lat="59.0881860" lon="30.0109750">
<ele>75.834244</ele>
<time>2026-04-25T02:24:40.003Z</time>
</trkpt>
<trkpt lat="59.0881700" lon="30.0109970">
<ele>75.834244</ele>
<time>2026-04-25T02:25:15.004Z</time>
</trkpt>
<trkpt lat="59.0880980" lon="30.0108430">
<ele>74.858879</ele>
<time>2026-04-25T02:25:38.004Z</time>
</trkpt>
<trkpt lat="59.0881050" lon="30.0105710">
<ele>73.548241</ele>
<time>2026-04-25T02:26:12.002Z</time>
</trkpt>
<trkpt lat="59.0881620" lon="30.0102240">
<ele>72.054718</ele>
<time>2026-04-25T02:26:56.999Z</time>
</trkpt>
<trkpt lat="59.0880950" lon="30.0101250">
<ele>71.353683</ele>
<time>2026-04-25T02:28:26.000Z</time>
</trkpt>
<trkpt lat="59.0881740" lon="30.0099830">
<ele>71.871841</ele>
<time>2026-04-25T02:28:55.004Z</time>
</trkpt>
<trkpt lat="59.0880410" lon="30.0100680">
<ele>76.047600</ele>
<time>2026-04-25T02:29:48.002Z</time>
</trkpt>
<trkpt lat="59.0881310" lon="30.0101070">
<ele>77.541115</ele>
<time>2026-04-25T02:30:51.998Z</time>
</trkpt>
<trkpt lat="59.0881080" lon="30.0101870">
<ele>78.059280</ele>
<time>2026-04-25T02:31:24.001Z</time>
</trkpt>
<trkpt lat="59.0878790" lon="30.0101730">
<ele>77.845917</ele>
<time>2026-04-25T02:32:38.003Z</time>
</trkpt>
<trkpt lat="59.0877720" lon="30.0103380">
<ele>71.993759</ele>
<time>2026-04-25T02:33:08.001Z</time>
</trkpt>
<trkpt lat="59.0877240" lon="30.0103630">
<ele>72.085197</ele>
<time>2026-04-25T02:33:28.996Z</time>
</trkpt>
<trkpt lat="59.0876120" lon="30.0101810">
<ele>73.974960</ele>
<time>2026-04-25T02:34:06.001Z</time>
</trkpt>
<trkpt lat="59.0875160" lon="30.0105870">
<ele>76.961998</ele>
<time>2026-04-25T02:35:00.001Z</time>
</trkpt>
<trkpt lat="59.0874080" lon="30.0105130">
<ele>78.729836</ele>
<time>2026-04-25T02:35:40.998Z</time>
</trkpt>
<trkpt lat="59.0874360" lon="30.0106670">
<ele>83.240883</ele>
<time>2026-04-25T02:37:13.999Z</time>
</trkpt>
<trkpt lat="59.0875120" lon="30.0105380">
<ele>81.930237</ele>
<time>2026-04-25T02:38:11.999Z</time>
</trkpt>
<trkpt lat="59.0874840" lon="30.0106250">
<ele>84.856316</ele>
<time>2026-04-25T02:39:15.002Z</time>
</trkpt>
<trkpt lat="59.0874930" lon="30.0105740">
<ele>84.124802</ele>
<time>2026-04-25T02:39:42.002Z</time>
</trkpt>
<trkpt lat="59.0875350" lon="30.0105830">
<ele>83.728561</ele>
<time>2026-04-25T02:40:13.002Z</time>
</trkpt>
<trkpt lat="59.0875550" lon="30.0106600">
<ele>86.593681</ele>
<time>2026-04-25T02:41:02.000Z</time>
</trkpt>
<trkpt lat="59.0876350" lon="30.0113310">
<ele>81.716881</ele>
<time>2026-04-25T02:42:13.997Z</time>
</trkpt>
<trkpt lat="59.0876470" lon="30.0115570">
<ele>80.772003</ele>
<time>2026-04-25T02:42:44.004Z</time>
</trkpt>
<trkpt lat="59.0876160" lon="30.0115660">
<ele>80.162399</ele>
<time>2026-04-25T02:43:53.996Z</time>
</trkpt>
<trkpt lat="59.0876490" lon="30.0116940">
<ele>79.674721</ele>
<time>2026-04-25T02:44:55.997Z</time>
</trkpt>
<trkpt lat="59.0876490" lon="30.0120010">
<ele>79.674721</ele>
<time>2026-04-25T02:45:53.004Z</time>
</trkpt>
<trkpt lat="59.0877190" lon="30.0124790">
<ele>76.992485</ele>
<time>2026-04-25T02:46:40.999Z</time>
</trkpt>
<trkpt lat="59.0878220" lon="30.0126180">
<ele>79.827118</ele>
<time>2026-04-25T02:47:37.997Z</time>
</trkpt>
<trkpt lat="59.0878290" lon="30.0125700">
<ele>82.143600</ele>
<time>2026-04-25T02:48:15.002Z</time>
</trkpt>
<trkpt lat="59.0877920" lon="30.0126190">
<ele>83.941917</ele>
<time>2026-04-25T02:49:55.001Z</time>
</trkpt>
<trkpt lat="59.0877790" lon="30.0129070">
<ele>80.436722</ele>
<time>2026-04-25T02:50:50.997Z</time>
</trkpt>
<trkpt lat="59.0878250" lon="30.0132220">
<ele>78.851761</ele>
<time>2026-04-25T02:51:40.003Z</time>
</trkpt>
<trkpt lat="59.0877530" lon="30.0136210">
<ele>75.895203</ele>
<time>2026-04-25T02:52:44.000Z</time>
</trkpt>
<trkpt lat="59.0877600" lon="30.0137240">
<ele>75.986641</ele>
<time>2026-04-25T02:52:58.999Z</time>
</trkpt>
<trkpt lat="59.0879800" lon="30.0139870">
<ele>78.089767</ele>
<time>2026-04-25T02:53:55.997Z</time>
</trkpt>
<trkpt lat="59.0879510" lon="30.0140260">
<ele>78.272636</ele>
<time>2026-04-25T02:54:18.996Z</time>
</trkpt>
<trkpt lat="59.0879780" lon="30.0139590">
<ele>82.783684</ele>
<time>2026-04-25T02:55:55.998Z</time>
</trkpt>
<trkpt lat="59.0879770" lon="30.0140150">
<ele>82.326485</ele>
<time>2026-04-25T02:56:15.999Z</time>
</trkpt>
<trkpt lat="59.0877460" lon="30.0140500">
<ele>80.436722</ele>
<time>2026-04-25T02:57:20.998Z</time>
</trkpt>
<trkpt lat="59.0875710" lon="30.0139840">
<ele>77.937363</ele>
<time>2026-04-25T02:57:55.999Z</time>
</trkpt>
<trkpt lat="59.0874500" lon="30.0142450">
<ele>77.541115</ele>
<time>2026-04-25T02:58:37.004Z</time>
</trkpt>
<trkpt lat="59.0874560" lon="30.0143280">
<ele>80.497681</ele>
<time>2026-04-25T02:59:04.998Z</time>
</trkpt>
<trkpt lat="59.0872730" lon="30.0141890">
<ele>79.735680</ele>
<time>2026-04-25T02:59:42.003Z</time>
</trkpt>
<trkpt lat="59.0873130" lon="30.0141640">
<ele>81.869286</ele>
<time>2026-04-25T03:00:14.999Z</time>
</trkpt>
<trkpt lat="59.0872920" lon="30.0141430">
<ele>77.937363</ele>
<time>2026-04-25T03:00:48.004Z</time>
</trkpt>
<trkpt lat="59.0871860" lon="30.0142190">
<ele>81.594963</ele>
<time>2026-04-25T03:01:48.000Z</time>
</trkpt>
<trkpt lat="59.0871670" lon="30.0143150">
<ele>80.954880</ele>
<time>2026-04-25T03:03:10.002Z</time>
</trkpt>
<trkpt lat="59.0872400" lon="30.0138180">
<ele>77.297279</ele>
<time>2026-04-25T03:03:53.004Z</time>
</trkpt>
<trkpt lat="59.0871320" lon="30.0134240">
<ele>76.139038</ele>
<time>2026-04-25T03:04:47.004Z</time>
</trkpt>
<trkpt lat="59.0871600" lon="30.0131030">
<ele>69.768715</ele>
<time>2026-04-25T03:05:45.997Z</time>
</trkpt>
<trkpt lat="59.0871000" lon="30.0134980">
<ele>66.659760</ele>
<time>2026-04-25T03:06:04.003Z</time>
</trkpt>
<trkpt lat="59.0870550" lon="30.0134390">
<ele>65.867279</ele>
<time>2026-04-25T03:06:20.998Z</time>
</trkpt>
<trkpt lat="59.0870610" lon="30.0132860">
<ele>63.367920</ele>
<time>2026-04-25T03:06:36.999Z</time>
</trkpt>
<trkpt lat="59.0871920" lon="30.0131050">
<ele>72.572884</ele>
<time>2026-04-25T03:07:21.996Z</time>
</trkpt>
<trkpt lat="59.0871220" lon="30.0131420">
<ele>74.828400</ele>
<time>2026-04-25T03:08:23.004Z</time>
</trkpt>
<trkpt lat="59.0871220" lon="30.0128250">
<ele>76.413361</ele>
<time>2026-04-25T03:09:01.996Z</time>
</trkpt>
<trkpt lat="59.0870560" lon="30.0122910">
<ele>74.371201</ele>
<time>2026-04-25T03:10:15.004Z</time>
</trkpt>
<trkpt lat="59.0869650" lon="30.0120970">
<ele>77.419197</ele>
<time>2026-04-25T03:10:52.000Z</time>
</trkpt>
<trkpt lat="59.0868810" lon="30.0120270">
<ele>81.869286</ele>
<time>2026-04-25T03:11:36.997Z</time>
</trkpt>
<trkpt lat="59.0869360" lon="30.0120100">
<ele>83.423767</ele>
<time>2026-04-25T03:12:06.002Z</time>
</trkpt>
<trkpt lat="59.0869910" lon="30.0118840">
<ele>87.690964</ele>
<time>2026-04-25T03:13:00.002Z</time>
</trkpt>
<trkpt lat="59.0869740" lon="30.0119710">
<ele>88.056717</ele>
<time>2026-04-25T03:13:17.999Z</time>
</trkpt>
<trkpt lat="59.0869050" lon="30.0119760">
<ele>87.386162</ele>
<time>2026-04-25T03:13:34.000Z</time>
</trkpt>
<trkpt lat="59.0869690" lon="30.0114420">
<ele>86.136482</ele>
<time>2026-04-25T03:14:44.002Z</time>
</trkpt>
<trkpt lat="59.0869410" lon="30.0111120">
<ele>84.399117</ele>
<time>2026-04-25T03:15:16.004Z</time>
</trkpt>
<trkpt lat="59.0867970" lon="30.0109110">
<ele>83.057999</ele>
<time>2026-04-25T03:15:51.998Z</time>
</trkpt>
<trkpt lat="59.0868120" lon="30.0104830">
<ele>82.905602</ele>
<time>2026-04-25T03:16:49.999Z</time>
</trkpt>
<trkpt lat="59.0868160" lon="30.0105460">
<ele>84.033363</ele>
<time>2026-04-25T03:17:14.001Z</time>
</trkpt>
<trkpt lat="59.0868580" lon="30.0105780">
<ele>83.484718</ele>
<time>2026-04-25T03:17:53.002Z</time>
</trkpt>
<trkpt lat="59.0867960" lon="30.0106470">
<ele>82.356964</ele>
<time>2026-04-25T03:18:52.998Z</time>
</trkpt>
<trkpt lat="59.0868260" lon="30.0106750">
<ele>84.764885</ele>
<time>2026-04-25T03:19:22.996Z</time>
</trkpt>
<trkpt lat="59.0868020" lon="30.0107930">
<ele>85.252563</ele>
<time>2026-04-25T03:19:35.999Z</time>
</trkpt>
<trkpt lat="59.0866140" lon="30.0107970">
<ele>81.930237</ele>
<time>2026-04-25T03:21:53.004Z</time>
</trkpt>
<trkpt lat="59.0865600" lon="30.0109090">
<ele>84.490562</ele>
<time>2026-04-25T03:22:27.002Z</time>
</trkpt>
<trkpt lat="59.0865710" lon="30.0108010">
<ele>90.312233</ele>
<time>2026-04-25T03:22:58.002Z</time>
</trkpt>
<trkpt lat="59.0864550" lon="30.0109050">
<ele>92.598236</ele>
<time>2026-04-25T03:23:45.004Z</time>
</trkpt>
<trkpt lat="59.0864510" lon="30.0110620">
<ele>91.653366</ele>
<time>2026-04-25T03:24:03.001Z</time>
</trkpt>
<trkpt lat="59.0863930" lon="30.0111720">
<ele>90.495117</ele>
<time>2026-04-25T03:24:19.996Z</time>
</trkpt>
<trkpt lat="59.0861790" lon="30.0112010">
<ele>88.635834</ele>
<time>2026-04-25T03:25:24.001Z</time>
</trkpt>
<trkpt lat="59.0862000" lon="30.0111620">
<ele>90.190315</ele>
<time>2026-04-25T03:25:57.999Z</time>
</trkpt>
<trkpt lat="59.0861770" lon="30.0111470">
<ele>89.306396</ele>
<time>2026-04-25T03:26:29.000Z</time>
</trkpt>
<trkpt lat="59.0863000" lon="30.0114470">
<ele>86.928963</ele>
<time>2026-04-25T03:27:31.000Z</time>
</trkpt>
<trkpt lat="59.0862940" lon="30.0119220">
<ele>85.069679</ele>
<time>2026-04-25T03:28:35.999Z</time>
</trkpt>
<trkpt lat="59.0863630" lon="30.0122620">
<ele>84.612480</ele>
<time>2026-04-25T03:29:50.001Z</time>
</trkpt>
<trkpt lat="59.0863250" lon="30.0123360">
<ele>84.429604</ele>
<time>2026-04-25T03:30:18.996Z</time>
</trkpt>
<trkpt lat="59.0863560" lon="30.0122840">
<ele>86.349838</ele>
<time>2026-04-25T03:30:50.999Z</time>
</trkpt>
<trkpt lat="59.0863700" lon="30.0126440">
<ele>85.191597</ele>
<time>2026-04-25T03:32:36.001Z</time>
</trkpt>
<trkpt lat="59.0863280" lon="30.0127840">
<ele>85.557365</ele>
<time>2026-04-25T03:32:52.002Z</time>
</trkpt>
<trkpt lat="59.0863260" lon="30.0131060">
<ele>84.825836</ele>
<time>2026-04-25T03:33:27.003Z</time>
</trkpt>
<trkpt lat="59.0863760" lon="30.0132460">
<ele>84.947762</ele>
<time>2026-04-25T03:34:01.001Z</time>
</trkpt>
<trkpt lat="59.0863790" lon="30.0134550">
<ele>86.776566</ele>
<time>2026-04-25T03:34:39.000Z</time>
</trkpt>
<trkpt lat="59.0863670" lon="30.0135460">
<ele>88.361519</ele>
<time>2026-04-25T03:35:11.003Z</time>
</trkpt>
<trkpt lat="59.0863460" lon="30.0134460">
<ele>85.465919</ele>
<time>2026-04-25T03:35:35.998Z</time>
</trkpt>
<trkpt lat="59.0862860" lon="30.0134850">
<ele>85.923119</ele>
<time>2026-04-25T03:36:23.000Z</time>
</trkpt>
<trkpt lat="59.0862990" lon="30.0136220">
<ele>84.978233</ele>
<time>2026-04-25T03:36:36.996Z</time>
</trkpt>
<trkpt lat="59.0863820" lon="30.0139290">
<ele>84.521034</ele>
<time>2026-04-25T03:37:12.999Z</time>
</trkpt>
<trkpt lat="59.0864860" lon="30.0140920">
<ele>85.374481</ele>
<time>2026-04-25T03:37:33.001Z</time>
</trkpt>
<trkpt lat="59.0865510" lon="30.0142750">
<ele>85.679283</ele>
<time>2026-04-25T03:37:48.000Z</time>
</trkpt>
<trkpt lat="59.0866320" lon="30.0143670">
<ele>85.801201</ele>
<time>2026-04-25T03:38:04.001Z</time>
</trkpt>
<trkpt lat="59.0866360" lon="30.0144780">
<ele>83.941917</ele>
<time>2026-04-25T03:38:23.001Z</time>
</trkpt>
<trkpt lat="59.0865490" lon="30.0145440">
<ele>86.685120</ele>
<time>2026-04-25T03:39:13.000Z</time>
</trkpt>
<trkpt lat="59.0865570" lon="30.0146410">
<ele>85.496399</ele>
<time>2026-04-25T03:39:45.003Z</time>
</trkpt>
<trkpt lat="59.0865520" lon="30.0145840">
<ele>83.759033</ele>
<time>2026-04-25T03:40:12.996Z</time>
</trkpt>
<trkpt lat="59.0864440" lon="30.0144870">
<ele>85.953598</ele>
<time>2026-04-25T03:40:50.002Z</time>
</trkpt>
<trkpt lat="59.0863000" lon="30.0145640">
<ele>85.435440</ele>
<time>2026-04-25T03:41:18.997Z</time>
</trkpt>
<trkpt lat="59.0862500" lon="30.0144670">
<ele>86.898483</ele>
<time>2026-04-25T03:41:40.001Z</time>
</trkpt>
<trkpt lat="59.0861310" lon="30.0146470">
<ele>86.685120</ele>
<time>2026-04-25T03:42:16.004Z</time>
</trkpt>
<trkpt lat="59.0860310" lon="30.0146590">
<ele>85.069679</ele>
<time>2026-04-25T03:43:24.001Z</time>
</trkpt>
<trkpt lat="59.0859550" lon="30.0143020">
<ele>85.740234</ele>
<time>2026-04-25T03:43:53.999Z</time>
</trkpt>
<trkpt lat="59.0860990" lon="30.0144030">
<ele>89.580719</ele>
<time>2026-04-25T03:44:27.004Z</time>
</trkpt>
<trkpt lat="59.0860780" lon="30.0141830">
<ele>87.995766</ele>
<time>2026-04-25T03:45:01.996Z</time>
</trkpt>
<trkpt lat="59.0859330" lon="30.0139610">
<ele>87.050880</ele>
<time>2026-04-25T03:45:36.003Z</time>
</trkpt>
<trkpt lat="59.0858850" lon="30.0137280">
<ele>87.172798</ele>
<time>2026-04-25T03:45:55.996Z</time>
</trkpt>
<trkpt lat="59.0858610" lon="30.0135640">
<ele>87.690964</ele>
<time>2026-04-25T03:46:17.000Z</time>
</trkpt>
<trkpt lat="59.0858970" lon="30.0135240">
<ele>89.153999</ele>
<time>2026-04-25T03:46:37.001Z</time>
</trkpt>
<trkpt lat="59.0858250" lon="30.0133500">
<ele>89.763603</ele>
<time>2026-04-25T03:48:06.002Z</time>
</trkpt>
<trkpt lat="59.0858350" lon="30.0133960">
<ele>91.074234</ele>
<time>2026-04-25T03:48:34.004Z</time>
</trkpt>
<trkpt lat="59.0858910" lon="30.0130940">
<ele>91.897202</ele>
<time>2026-04-25T03:49:23.002Z</time>
</trkpt>
<trkpt lat="59.0857500" lon="30.0123990">
<ele>87.355682</ele>
<time>2026-04-25T03:51:09.999Z</time>
</trkpt>
<trkpt lat="59.0857630" lon="30.0123370">
<ele>86.989922</ele>
<time>2026-04-25T03:51:41.000Z</time>
</trkpt>
<trkpt lat="59.0858030" lon="30.0124040">
<ele>89.275917</ele>
<time>2026-04-25T03:52:29.997Z</time>
</trkpt>
<trkpt lat="59.0858090" lon="30.0122090">
<ele>88.635834</ele>
<time>2026-04-25T03:52:48.003Z</time>
</trkpt>
<trkpt lat="59.0857250" lon="30.0120460">
<ele>87.751915</ele>
<time>2026-04-25T03:53:04.004Z</time>
</trkpt>
<trkpt lat="59.0856680" lon="30.0117020">
<ele>85.252563</ele>
<time>2026-04-25T03:53:50.997Z</time>
</trkpt>
<trkpt lat="59.0858200" lon="30.0113990">
<ele>85.404961</ele>
<time>2026-04-25T03:54:48.997Z</time>
</trkpt>
<trkpt lat="59.0859240" lon="30.0112850">
<ele>85.770721</ele>
<time>2026-04-25T03:55:26.003Z</time>
</trkpt>
<trkpt lat="59.0859050" lon="30.0110830">
<ele>86.867996</ele>
<time>2026-04-25T03:55:45.002Z</time>
</trkpt>
<trkpt lat="59.0858300" lon="30.0109610">
<ele>88.209122</ele>
<time>2026-04-25T03:56:11.000Z</time>
</trkpt>
<trkpt lat="59.0858890" lon="30.0109630">
<ele>86.227921</ele>
<time>2026-04-25T03:57:07.004Z</time>
</trkpt>
<trkpt lat="59.0858650" lon="30.0109520">
<ele>88.452965</ele>
<time>2026-04-25T03:57:37.996Z</time>
</trkpt>
<trkpt lat="59.0858640" lon="30.0110040">
<ele>89.032082</ele>
<time>2026-04-25T03:58:04.996Z</time>
</trkpt>
<trkpt lat="59.0857800" lon="30.0110190">
<ele>85.283035</ele>
<time>2026-04-25T03:59:06.003Z</time>
</trkpt>
<trkpt lat="59.0858110" lon="30.0110380">
<ele>86.593681</ele>
<time>2026-04-25T03:59:36.001Z</time>
</trkpt>
<trkpt lat="59.0858240" lon="30.0108900">
<ele>90.129364</ele>
<time>2026-04-25T04:00:00.996Z</time>
</trkpt>
<trkpt lat="59.0859070" lon="30.0110820">
<ele>95.615761</ele>
<time>2026-04-25T04:00:51.998Z</time>
</trkpt>
<trkpt lat="59.0858570" lon="30.0112420">
<ele>92.872566</ele>
<time>2026-04-25T04:01:49.999Z</time>
</trkpt>
<trkpt lat="59.0857170" lon="30.0114120">
<ele>87.843361</ele>
<time>2026-04-25T04:02:53.002Z</time>
</trkpt>
<trkpt lat="59.0854110" lon="30.0114900">
<ele>84.216240</ele>
<time>2026-04-25T04:03:55.002Z</time>
</trkpt>
<trkpt lat="59.0853230" lon="30.0116710">
<ele>82.661766</ele>
<time>2026-04-25T04:04:27.998Z</time>
</trkpt>
<trkpt lat="59.0852980" lon="30.0116360">
<ele>84.825836</ele>
<time>2026-04-25T04:05:31.001Z</time>
</trkpt>
<trkpt lat="59.0853420" lon="30.0117360">
<ele>84.642967</ele>
<time>2026-04-25T04:06:19.999Z</time>
</trkpt>
<trkpt lat="59.0853440" lon="30.0121410">
<ele>84.063835</ele>
<time>2026-04-25T04:06:57.997Z</time>
</trkpt>
<trkpt lat="59.0852590" lon="30.0123110">
<ele>81.137764</ele>
<time>2026-04-25T04:07:31.002Z</time>
</trkpt>
<trkpt lat="59.0852550" lon="30.0124210">
<ele>80.589119</ele>
<time>2026-04-25T04:07:47.004Z</time>
</trkpt>
<trkpt lat="59.0851960" lon="30.0126050">
<ele>79.095596</ele>
<time>2026-04-25T04:08:15.999Z</time>
</trkpt>
<trkpt lat="59.0851120" lon="30.0126660">
<ele>78.242165</ele>
<time>2026-04-25T04:08:29.996Z</time>
</trkpt>
<trkpt lat="59.0851030" lon="30.0128710">
<ele>77.815437</ele>
<time>2026-04-25T04:08:45.997Z</time>
</trkpt>
<trkpt lat="59.0851530" lon="30.0130230">
<ele>78.546967</ele>
<time>2026-04-25T04:09:04.003Z</time>
</trkpt>
<trkpt lat="59.0855370" lon="30.0126810">
<ele>84.612480</ele>
<time>2026-04-25T04:10:57.999Z</time>
</trkpt>
<trkpt lat="59.0855930" lon="30.0126920">
<ele>87.264236</ele>
<time>2026-04-25T04:11:30.002Z</time>
</trkpt>
<trkpt lat="59.0855560" lon="30.0127240">
<ele>86.776566</ele>
<time>2026-04-25T04:11:51.999Z</time>
</trkpt>
<trkpt lat="59.0854920" lon="30.0131500">
<ele>84.399117</ele>
<time>2026-04-25T04:13:19.004Z</time>
</trkpt>
<trkpt lat="59.0854130" lon="30.0132480">
<ele>83.454239</ele>
<time>2026-04-25T04:13:37.001Z</time>
</trkpt>
<trkpt lat="59.0853910" lon="30.0134350">
<ele>81.777840</ele>
<time>2026-04-25T04:13:57.003Z</time>
</trkpt>
<trkpt lat="59.0854090" lon="30.0136800">
<ele>80.954880</ele>
<time>2026-04-25T04:14:28.997Z</time>
</trkpt>
<trkpt lat="59.0854230" lon="30.0137850">
<ele>78.242165</ele>
<time>2026-04-25T04:14:51.003Z</time>
</trkpt>
<trkpt lat="59.0854740" lon="30.0138460">
<ele>77.449684</ele>
<time>2026-04-25T04:15:18.996Z</time>
</trkpt>
<trkpt lat="59.0854450" lon="30.0139080">
<ele>78.242165</ele>
<time>2026-04-25T04:15:41.003Z</time>
</trkpt>
<trkpt lat="59.0854840" lon="30.0139450">
<ele>80.162399</ele>
<time>2026-04-25T04:17:07.999Z</time>
</trkpt>
<trkpt lat="59.0854720" lon="30.0140580">
<ele>80.406235</ele>
<time>2026-04-25T04:17:25.996Z</time>
</trkpt>
<trkpt lat="59.0855440" lon="30.0141500">
<ele>80.680565</ele>
<time>2026-04-25T04:17:42.999Z</time>
</trkpt>
<trkpt lat="59.0856770" lon="30.0146760">
<ele>80.863434</ele>
<time>2026-04-25T04:18:36.999Z</time>
</trkpt>
<trkpt lat="59.0856480" lon="30.0148190">
<ele>80.314796</ele>
<time>2026-04-25T04:18:54.996Z</time>
</trkpt>
<trkpt lat="59.0856210" lon="30.0148220">
<ele>81.594963</ele>
<time>2026-04-25T04:19:41.998Z</time>
</trkpt>
<trkpt lat="59.0856680" lon="30.0150020">
<ele>81.015839</ele>
<time>2026-04-25T04:21:13.997Z</time>
</trkpt>
<trkpt lat="59.0858070" lon="30.0151770">
<ele>82.448402</ele>
<time>2026-04-25T04:21:52.004Z</time>
</trkpt>
<trkpt lat="59.0856550" lon="30.0150490">
<ele>82.509361</ele>
<time>2026-04-25T04:22:23.998Z</time>
</trkpt>
<trkpt lat="59.0856400" lon="30.0154000">
<ele>81.168236</ele>
<time>2026-04-25T04:23:01.003Z</time>
</trkpt>
<trkpt lat="59.0855740" lon="30.0156520">
<ele>85.344002</ele>
<time>2026-04-25T04:25:17.999Z</time>
</trkpt>
<trkpt lat="59.0855010" lon="30.0155880">
<ele>85.831680</ele>
<time>2026-04-25T04:25:35.996Z</time>
</trkpt>
<trkpt lat="59.0853020" lon="30.0155750">
<ele>84.947762</ele>
<time>2026-04-25T04:26:14.004Z</time>
</trkpt>
<trkpt lat="59.0850360" lon="30.0157560">
<ele>84.033363</ele>
<time>2026-04-25T04:28:10.004Z</time>
</trkpt>
<trkpt lat="59.0849600" lon="30.0158800">
<ele>84.917282</ele>
<time>2026-04-25T04:29:23.004Z</time>
</trkpt>
<trkpt lat="59.0846340" lon="30.0158920">
<ele>81.960716</ele>
<time>2026-04-25T04:30:14.999Z</time>
</trkpt>
<trkpt lat="59.0845230" lon="30.0157980">
<ele>82.783684</ele>
<time>2026-04-25T04:30:45.999Z</time>
</trkpt>
<trkpt lat="59.0843640" lon="30.0160370">
<ele>83.118965</ele>
<time>2026-04-25T04:31:48.000Z</time>
</trkpt>
<trkpt lat="59.0843850" lon="30.0160120">
<ele>83.515198</ele>
<time>2026-04-25T04:32:16.002Z</time>
</trkpt>
<trkpt lat="59.0843580" lon="30.0159870">
<ele>87.569038</ele>
<time>2026-04-25T04:32:50.001Z</time>
</trkpt>
<trkpt lat="59.0841930" lon="30.0163090">
<ele>84.338165</ele>
<time>2026-04-25T04:33:54.999Z</time>
</trkpt>
<trkpt lat="59.0840600" lon="30.0163980">
<ele>82.265518</ele>
<time>2026-04-25T04:34:31.002Z</time>
</trkpt>
<trkpt lat="59.0840030" lon="30.0159300">
<ele>79.735680</ele>
<time>2026-04-25T04:35:18.997Z</time>
</trkpt>
<trkpt lat="59.0839210" lon="30.0155420">
<ele>81.564484</ele>
<time>2026-04-25T04:38:15.996Z</time>
</trkpt>
<trkpt lat="59.0839000" lon="30.0150470">
<ele>81.442566</ele>
<time>2026-04-25T04:38:57.002Z</time>
</trkpt>
<trkpt lat="59.0838450" lon="30.0146690">
<ele>81.046318</ele>
<time>2026-04-25T04:39:21.004Z</time>
</trkpt>
<trkpt lat="59.0837290" lon="30.0134050">
<ele>72.024239</ele>
<time>2026-04-25T04:40:53.996Z</time>
</trkpt>
<trkpt lat="59.0836460" lon="30.0129530">
<ele>72.176643</ele>
<time>2026-04-25T04:41:28.003Z</time>
</trkpt>
<trkpt lat="59.0835780" lon="30.0120970">
<ele>69.951599</ele>
<time>2026-04-25T04:42:27.999Z</time>
</trkpt>
<trkpt lat="59.0834780" lon="30.0117220">
<ele>73.517761</ele>
<time>2026-04-25T04:43:12.003Z</time>
</trkpt>
<trkpt lat="59.0833080" lon="30.0105980">
<ele>81.198715</ele>
<time>2026-04-25T04:45:22.000Z</time>
</trkpt>
<trkpt lat="59.0832850" lon="30.0100780">
<ele>81.076797</ele>
<time>2026-04-25T04:46:02.004Z</time>
</trkpt>
<trkpt lat="59.0831210" lon="30.0087920">
<ele>80.284317</ele>
<time>2026-04-25T04:47:27.004Z</time>
</trkpt>
<trkpt lat="59.0831010" lon="30.0083770">
<ele>79.217522</ele>
<time>2026-04-25T04:47:49.001Z</time>
</trkpt>
<trkpt lat="59.0829860" lon="30.0079390">
<ele>83.820000</ele>
<time>2026-04-25T04:48:58.000Z</time>
</trkpt>
<trkpt lat="59.0829450" lon="30.0074620">
<ele>84.429604</ele>
<time>2026-04-25T04:49:34.997Z</time>
</trkpt>
<trkpt lat="59.0828640" lon="30.0072280">
<ele>87.812881</ele>
<time>2026-04-25T04:50:35.002Z</time>
</trkpt>
<trkpt lat="59.0828850" lon="30.0072650">
<ele>83.820000</ele>
<time>2026-04-25T04:51:54.999Z</time>
</trkpt>
</trkseg>
</trk>
</gpx>
